<?xml version="1.0" encoding="UTF-8" standalone="no" ?>
<gpx xmlns="http://www.topografix.com/GPX/1/1" xmlns:xsi="http://www.w3.org/2001/XMLSchema-instance" xsi:schemaLocation="http://www.topografix.com/GPX/1/1 http://www.topografix.com/GPX/1/1/gpx.xsd" version="1.1" creator="VisuGPX - https://www.visugpx.com">
  <metadata>
    <name>AURIGNAC (31)</name>
    <desc><![CDATA[Balade pédestre autour d\'Aurignac, village médiéval du Piémont.
Maisons anciennes et Tour de guet à Aurignac
Termes antiques vers Montoulieu
Chapelle Saint Bernard avec aire de pique nique.

Difficulté moyenne, 15km]]></desc>
  </metadata>
  <trk>
    <name><![CDATA[AURIGNAC (31)_1]]></name>
    <trkseg>
      <trkpt lat="43.21632" lon="0.8827">
        <ele>385</ele>
        <time>2014-09-20T09:25:31Z</time>
      </trkpt>
      <trkpt lat="43.21633" lon="0.88271">
        <ele>385</ele>
        <time>2014-09-20T09:25:36Z</time>
      </trkpt>
      <trkpt lat="43.21633" lon="0.88271">
        <ele>385</ele>
        <time>2014-09-20T09:25:41Z</time>
      </trkpt>
      <trkpt lat="43.21633" lon="0.88271">
        <ele>385</ele>
        <time>2014-09-20T09:25:46Z</time>
      </trkpt>
      <trkpt lat="43.21633" lon="0.88271">
        <ele>385</ele>
        <time>2014-09-20T09:25:51Z</time>
      </trkpt>
      <trkpt lat="43.21633" lon="0.88271">
        <ele>385</ele>
        <time>2014-09-20T09:25:56Z</time>
      </trkpt>
      <trkpt lat="43.21633" lon="0.88271">
        <ele>385</ele>
        <time>2014-09-20T09:26:01Z</time>
      </trkpt>
      <trkpt lat="43.21633" lon="0.88271">
        <ele>385</ele>
        <time>2014-09-20T09:26:06Z</time>
      </trkpt>
      <trkpt lat="43.21633" lon="0.88271">
        <ele>385</ele>
        <time>2014-09-20T09:26:11Z</time>
      </trkpt>
      <trkpt lat="43.21632" lon="0.88271">
        <ele>385</ele>
        <time>2014-09-20T09:26:16Z</time>
      </trkpt>
      <trkpt lat="43.21632" lon="0.88271">
        <ele>385</ele>
        <time>2014-09-20T09:26:21Z</time>
      </trkpt>
      <trkpt lat="43.21632" lon="0.8827">
        <ele>385</ele>
        <time>2014-09-20T09:26:26Z</time>
      </trkpt>
      <trkpt lat="43.21632" lon="0.8827">
        <ele>385</ele>
        <time>2014-09-20T09:26:31Z</time>
      </trkpt>
      <trkpt lat="43.21632" lon="0.88269">
        <ele>385</ele>
        <time>2014-09-20T09:26:36Z</time>
      </trkpt>
      <trkpt lat="43.21632" lon="0.88269">
        <ele>385</ele>
        <time>2014-09-20T09:26:41Z</time>
      </trkpt>
      <trkpt lat="43.21632" lon="0.88269">
        <ele>385</ele>
        <time>2014-09-20T09:26:46Z</time>
      </trkpt>
      <trkpt lat="43.21632" lon="0.88269">
        <ele>385</ele>
        <time>2014-09-20T09:26:51Z</time>
      </trkpt>
      <trkpt lat="43.21633" lon="0.88269">
        <ele>385</ele>
        <time>2014-09-20T09:26:56Z</time>
      </trkpt>
      <trkpt lat="43.21632" lon="0.88268">
        <ele>385</ele>
        <time>2014-09-20T09:27:01Z</time>
      </trkpt>
      <trkpt lat="43.21632" lon="0.88266">
        <ele>385</ele>
        <time>2014-09-20T09:27:06Z</time>
      </trkpt>
      <trkpt lat="43.21633" lon="0.88265">
        <ele>385</ele>
        <time>2014-09-20T09:27:11Z</time>
      </trkpt>
      <trkpt lat="43.21636" lon="0.88267">
        <ele>389.68172122538</ele>
        <time>2014-09-20T09:27:16Z</time>
      </trkpt>
      <trkpt lat="43.21641" lon="0.8827">
        <ele>389.68172122538</ele>
        <time>2014-09-20T09:27:21Z</time>
      </trkpt>
      <trkpt lat="43.21644" lon="0.88271">
        <ele>389.68172122538</ele>
        <time>2014-09-20T09:27:26Z</time>
      </trkpt>
      <trkpt lat="43.21645" lon="0.8827">
        <ele>392.00874137497</ele>
        <time>2014-09-20T09:27:31Z</time>
      </trkpt>
      <trkpt lat="43.21647" lon="0.88268">
        <ele>392.00874137497</ele>
        <time>2014-09-20T09:27:36Z</time>
      </trkpt>
      <trkpt lat="43.21648" lon="0.88267">
        <ele>392.00874137497</ele>
        <time>2014-09-20T09:27:41Z</time>
      </trkpt>
      <trkpt lat="43.21646" lon="0.88267">
        <ele>392.00874137497</ele>
        <time>2014-09-20T09:27:46Z</time>
      </trkpt>
      <trkpt lat="43.21646" lon="0.88268">
        <ele>392.00874137497</ele>
        <time>2014-09-20T09:27:51Z</time>
      </trkpt>
      <trkpt lat="43.21651" lon="0.88266">
        <ele>396.23359476637</ele>
        <time>2014-09-20T09:27:56Z</time>
      </trkpt>
      <trkpt lat="43.21657" lon="0.88261">
        <ele>396.23359476637</ele>
        <time>2014-09-20T09:28:01Z</time>
      </trkpt>
      <trkpt lat="43.21662" lon="0.88259">
        <ele>399.5904865422</ele>
        <time>2014-09-20T09:28:06Z</time>
      </trkpt>
      <trkpt lat="43.21667" lon="0.88256">
        <ele>399.5904865422</ele>
        <time>2014-09-20T09:28:11Z</time>
      </trkpt>
      <trkpt lat="43.21673" lon="0.88252">
        <ele>402.08095793345</ele>
        <time>2014-09-20T09:28:16Z</time>
      </trkpt>
      <trkpt lat="43.21679" lon="0.88249">
        <ele>402.08095793345</ele>
        <time>2014-09-20T09:28:21Z</time>
      </trkpt>
      <trkpt lat="43.2168" lon="0.88243">
        <ele>403.99516118006</ele>
        <time>2014-09-20T09:28:26Z</time>
      </trkpt>
      <trkpt lat="43.21682" lon="0.88245">
        <ele>403.99516118006</ele>
        <time>2014-09-20T09:28:31Z</time>
      </trkpt>
      <trkpt lat="43.21684" lon="0.88239">
        <ele>403.99516118006</ele>
        <time>2014-09-20T09:28:36Z</time>
      </trkpt>
      <trkpt lat="43.21686" lon="0.88233">
        <ele>405.85167111606</ele>
        <time>2014-09-20T09:28:41Z</time>
      </trkpt>
      <trkpt lat="43.2169" lon="0.88227">
        <ele>405.85167111606</ele>
        <time>2014-09-20T09:28:46Z</time>
      </trkpt>
      <trkpt lat="43.21693" lon="0.88221">
        <ele>406.91336291763</ele>
        <time>2014-09-20T09:28:51Z</time>
      </trkpt>
      <trkpt lat="43.217" lon="0.88216">
        <ele>406.91336291763</ele>
        <time>2014-09-20T09:28:56Z</time>
      </trkpt>
      <trkpt lat="43.21706" lon="0.88211">
        <ele>407.37073777372</ele>
        <time>2014-09-20T09:29:01Z</time>
      </trkpt>
      <trkpt lat="43.21709" lon="0.88205">
        <ele>407.37073777372</ele>
        <time>2014-09-20T09:29:06Z</time>
      </trkpt>
      <trkpt lat="43.21709" lon="0.88198">
        <ele>408.04659180314</ele>
        <time>2014-09-20T09:29:11Z</time>
      </trkpt>
      <trkpt lat="43.21712" lon="0.88192">
        <ele>408.04659180314</ele>
        <time>2014-09-20T09:29:16Z</time>
      </trkpt>
      <trkpt lat="43.21714" lon="0.88185">
        <ele>407.65617266708</ele>
        <time>2014-09-20T09:29:21Z</time>
      </trkpt>
      <trkpt lat="43.21719" lon="0.88181">
        <ele>407.65617266708</ele>
        <time>2014-09-20T09:29:26Z</time>
      </trkpt>
      <trkpt lat="43.21722" lon="0.88177">
        <ele>407.78127673564</ele>
        <time>2014-09-20T09:29:31Z</time>
      </trkpt>
      <trkpt lat="43.21726" lon="0.88175">
        <ele>407.78127673564</ele>
        <time>2014-09-20T09:29:36Z</time>
      </trkpt>
      <trkpt lat="43.21725" lon="0.8817">
        <ele>407.78127673564</ele>
        <time>2014-09-20T09:29:41Z</time>
      </trkpt>
      <trkpt lat="43.21724" lon="0.88165">
        <ele>408.24988124167</ele>
        <time>2014-09-20T09:29:46Z</time>
      </trkpt>
      <trkpt lat="43.21724" lon="0.88159">
        <ele>408.24988124167</ele>
        <time>2014-09-20T09:29:51Z</time>
      </trkpt>
      <trkpt lat="43.21723" lon="0.88154">
        <ele>408.24988124167</ele>
        <time>2014-09-20T09:29:56Z</time>
      </trkpt>
      <trkpt lat="43.21724" lon="0.8815">
        <ele>409.07030519531</ele>
        <time>2014-09-20T09:30:01Z</time>
      </trkpt>
      <trkpt lat="43.21727" lon="0.88148">
        <ele>409.07030519531</ele>
        <time>2014-09-20T09:30:06Z</time>
      </trkpt>
      <trkpt lat="43.21727" lon="0.88144">
        <ele>409.07030519531</ele>
        <time>2014-09-20T09:30:11Z</time>
      </trkpt>
      <trkpt lat="43.21731" lon="0.88141">
        <ele>411.40621316697</ele>
        <time>2014-09-20T09:30:16Z</time>
      </trkpt>
      <trkpt lat="43.21733" lon="0.88138">
        <ele>411.40621316697</ele>
        <time>2014-09-20T09:30:21Z</time>
      </trkpt>
      <trkpt lat="43.21737" lon="0.88136">
        <ele>411.40621316697</ele>
        <time>2014-09-20T09:30:26Z</time>
      </trkpt>
      <trkpt lat="43.21747" lon="0.88134">
        <ele>413.80954783061</ele>
        <time>2014-09-20T09:30:31Z</time>
      </trkpt>
      <trkpt lat="43.2175" lon="0.88131">
        <ele>413.80954783061</ele>
        <time>2014-09-20T09:30:36Z</time>
      </trkpt>
      <trkpt lat="43.21755" lon="0.88128">
        <ele>415.52048207372</ele>
        <time>2014-09-20T09:30:41Z</time>
      </trkpt>
      <trkpt lat="43.21761" lon="0.88124">
        <ele>415.52048207372</ele>
        <time>2014-09-20T09:30:46Z</time>
      </trkpt>
      <trkpt lat="43.21764" lon="0.88128">
        <ele>416.93996573733</ele>
        <time>2014-09-20T09:30:51Z</time>
      </trkpt>
      <trkpt lat="43.21763" lon="0.88129">
        <ele>416.93996573733</ele>
        <time>2014-09-20T09:30:56Z</time>
      </trkpt>
      <trkpt lat="43.21763" lon="0.88129">
        <ele>416.93996573733</ele>
        <time>2014-09-20T09:31:01Z</time>
      </trkpt>
      <trkpt lat="43.21766" lon="0.88128">
        <ele>416.93996573733</ele>
        <time>2014-09-20T09:31:06Z</time>
      </trkpt>
      <trkpt lat="43.21766" lon="0.88127">
        <ele>416.93996573733</ele>
        <time>2014-09-20T09:31:11Z</time>
      </trkpt>
      <trkpt lat="43.21766" lon="0.88128">
        <ele>416.93996573733</ele>
        <time>2014-09-20T09:31:16Z</time>
      </trkpt>
      <trkpt lat="43.21766" lon="0.88127">
        <ele>416.93996573733</ele>
        <time>2014-09-20T09:31:21Z</time>
      </trkpt>
      <trkpt lat="43.21768" lon="0.88124">
        <ele>416.93996573733</ele>
        <time>2014-09-20T09:31:26Z</time>
      </trkpt>
      <trkpt lat="43.21768" lon="0.88123">
        <ele>417.26207925955</ele>
        <time>2014-09-20T09:31:31Z</time>
      </trkpt>
      <trkpt lat="43.21769" lon="0.88123">
        <ele>417.26207925955</ele>
        <time>2014-09-20T09:31:36Z</time>
      </trkpt>
      <trkpt lat="43.21769" lon="0.88123">
        <ele>417.26207925955</ele>
        <time>2014-09-20T09:31:41Z</time>
      </trkpt>
      <trkpt lat="43.21771" lon="0.88122">
        <ele>417.26207925955</ele>
        <time>2014-09-20T09:31:46Z</time>
      </trkpt>
      <trkpt lat="43.21783" lon="0.88119">
        <ele>416.98269747421</ele>
        <time>2014-09-20T09:31:51Z</time>
      </trkpt>
      <trkpt lat="43.21788" lon="0.88119">
        <ele>416.98269747421</ele>
        <time>2014-09-20T09:31:56Z</time>
      </trkpt>
      <trkpt lat="43.21789" lon="0.88119">
        <ele>416.98269747421</ele>
        <time>2014-09-20T09:32:01Z</time>
      </trkpt>
      <trkpt lat="43.2179" lon="0.8812">
        <ele>416.98269747421</ele>
        <time>2014-09-20T09:32:06Z</time>
      </trkpt>
      <trkpt lat="43.21791" lon="0.88119">
        <ele>416.73785838125</ele>
        <time>2014-09-20T09:32:11Z</time>
      </trkpt>
      <trkpt lat="43.21793" lon="0.88116">
        <ele>416.73785838125</ele>
        <time>2014-09-20T09:32:16Z</time>
      </trkpt>
      <trkpt lat="43.21793" lon="0.88115">
        <ele>416.73785838125</ele>
        <time>2014-09-20T09:32:21Z</time>
      </trkpt>
      <trkpt lat="43.21794" lon="0.88111">
        <ele>416.73785838125</ele>
        <time>2014-09-20T09:32:26Z</time>
      </trkpt>
      <trkpt lat="43.218" lon="0.88104">
        <ele>417.70284805988</ele>
        <time>2014-09-20T09:32:31Z</time>
      </trkpt>
      <trkpt lat="43.21803" lon="0.88097">
        <ele>417.70284805988</ele>
        <time>2014-09-20T09:32:36Z</time>
      </trkpt>
      <trkpt lat="43.21804" lon="0.88096">
        <ele>417.70284805988</ele>
        <time>2014-09-20T09:32:41Z</time>
      </trkpt>
      <trkpt lat="43.21804" lon="0.88097">
        <ele>417.70284805988</ele>
        <time>2014-09-20T09:32:46Z</time>
      </trkpt>
      <trkpt lat="43.21805" lon="0.88096">
        <ele>418.52845989124</ele>
        <time>2014-09-20T09:32:51Z</time>
      </trkpt>
      <trkpt lat="43.21806" lon="0.88096">
        <ele>418.52845989124</ele>
        <time>2014-09-20T09:32:56Z</time>
      </trkpt>
      <trkpt lat="43.21806" lon="0.88096">
        <ele>418.52845989124</ele>
        <time>2014-09-20T09:33:01Z</time>
      </trkpt>
      <trkpt lat="43.21806" lon="0.88096">
        <ele>418.52845989124</ele>
        <time>2014-09-20T09:33:06Z</time>
      </trkpt>
      <trkpt lat="43.21806" lon="0.88096">
        <ele>418.52845989124</ele>
        <time>2014-09-20T09:33:11Z</time>
      </trkpt>
      <trkpt lat="43.21806" lon="0.88096">
        <ele>418.52845989124</ele>
        <time>2014-09-20T09:33:16Z</time>
      </trkpt>
      <trkpt lat="43.21806" lon="0.88096">
        <ele>418.52845989124</ele>
        <time>2014-09-20T09:33:21Z</time>
      </trkpt>
      <trkpt lat="43.21806" lon="0.88096">
        <ele>418.52845989124</ele>
        <time>2014-09-20T09:33:26Z</time>
      </trkpt>
      <trkpt lat="43.21806" lon="0.88096">
        <ele>418.52845989124</ele>
        <time>2014-09-20T09:33:31Z</time>
      </trkpt>
      <trkpt lat="43.21806" lon="0.88096">
        <ele>418.52845989124</ele>
        <time>2014-09-20T09:33:36Z</time>
      </trkpt>
      <trkpt lat="43.21806" lon="0.88096">
        <ele>418.52845989124</ele>
        <time>2014-09-20T09:33:41Z</time>
      </trkpt>
      <trkpt lat="43.21806" lon="0.88096">
        <ele>418.52845989124</ele>
        <time>2014-09-20T09:33:46Z</time>
      </trkpt>
      <trkpt lat="43.21808" lon="0.88096">
        <ele>418.52845989124</ele>
        <time>2014-09-20T09:33:51Z</time>
      </trkpt>
      <trkpt lat="43.21812" lon="0.88097">
        <ele>418.52845989124</ele>
        <time>2014-09-20T09:33:56Z</time>
      </trkpt>
      <trkpt lat="43.21821" lon="0.88098">
        <ele>418.43404477833</ele>
        <time>2014-09-20T09:34:01Z</time>
      </trkpt>
      <trkpt lat="43.21828" lon="0.88092">
        <ele>418.43404477833</ele>
        <time>2014-09-20T09:34:06Z</time>
      </trkpt>
      <trkpt lat="43.21831" lon="0.88089">
        <ele>418.45414784148</ele>
        <time>2014-09-20T09:34:11Z</time>
      </trkpt>
      <trkpt lat="43.21834" lon="0.88088">
        <ele>418.45414784148</ele>
        <time>2014-09-20T09:34:16Z</time>
      </trkpt>
      <trkpt lat="43.21839" lon="0.88085">
        <ele>418.45414784148</ele>
        <time>2014-09-20T09:34:21Z</time>
      </trkpt>
      <trkpt lat="43.21846" lon="0.88078">
        <ele>419.1244546318</ele>
        <time>2014-09-20T09:34:26Z</time>
      </trkpt>
      <trkpt lat="43.21851" lon="0.88074">
        <ele>419.1244546318</ele>
        <time>2014-09-20T09:34:31Z</time>
      </trkpt>
      <trkpt lat="43.21856" lon="0.88069">
        <ele>419.86606539807</ele>
        <time>2014-09-20T09:34:36Z</time>
      </trkpt>
      <trkpt lat="43.21861" lon="0.88065">
        <ele>419.86606539807</ele>
        <time>2014-09-20T09:34:41Z</time>
      </trkpt>
      <trkpt lat="43.21866" lon="0.88068">
        <ele>420.75609963149</ele>
        <time>2014-09-20T09:34:46Z</time>
      </trkpt>
      <trkpt lat="43.2187" lon="0.8807">
        <ele>420.75609963149</ele>
        <time>2014-09-20T09:34:51Z</time>
      </trkpt>
      <trkpt lat="43.21873" lon="0.88063">
        <ele>421.7660502632</ele>
        <time>2014-09-20T09:34:56Z</time>
      </trkpt>
      <trkpt lat="43.2188" lon="0.88055">
        <ele>422.29898558797</ele>
        <time>2014-09-20T09:35:01Z</time>
      </trkpt>
      <trkpt lat="43.21885" lon="0.88046">
        <ele>422.29898558797</ele>
        <time>2014-09-20T09:35:06Z</time>
      </trkpt>
      <trkpt lat="43.21893" lon="0.8804">
        <ele>422.51824634622</ele>
        <time>2014-09-20T09:35:11Z</time>
      </trkpt>
      <trkpt lat="43.21901" lon="0.88037">
        <ele>422.51824634622</ele>
        <time>2014-09-20T09:35:16Z</time>
      </trkpt>
      <trkpt lat="43.21901" lon="0.88033">
        <ele>422.68324407069</ele>
        <time>2014-09-20T09:35:21Z</time>
      </trkpt>
      <trkpt lat="43.21898" lon="0.88028">
        <ele>422.68324407069</ele>
        <time>2014-09-20T09:35:26Z</time>
      </trkpt>
      <trkpt lat="43.21899" lon="0.88028">
        <ele>422.68324407069</ele>
        <time>2014-09-20T09:35:31Z</time>
      </trkpt>
      <trkpt lat="43.21898" lon="0.88024">
        <ele>422.68324407069</ele>
        <time>2014-09-20T09:35:36Z</time>
      </trkpt>
      <trkpt lat="43.21898" lon="0.88022">
        <ele>422.68652695185</ele>
        <time>2014-09-20T09:35:41Z</time>
      </trkpt>
      <trkpt lat="43.21899" lon="0.88025">
        <ele>422.68652695185</ele>
        <time>2014-09-20T09:35:46Z</time>
      </trkpt>
      <trkpt lat="43.21899" lon="0.88026">
        <ele>422.68652695185</ele>
        <time>2014-09-20T09:35:51Z</time>
      </trkpt>
      <trkpt lat="43.21899" lon="0.88026">
        <ele>422.68652695185</ele>
        <time>2014-09-20T09:35:56Z</time>
      </trkpt>
      <trkpt lat="43.21899" lon="0.88026">
        <ele>422.68652695185</ele>
        <time>2014-09-20T09:36:01Z</time>
      </trkpt>
      <trkpt lat="43.21899" lon="0.88026">
        <ele>422.68652695185</ele>
        <time>2014-09-20T09:36:06Z</time>
      </trkpt>
      <trkpt lat="43.21899" lon="0.88026">
        <ele>422.68652695185</ele>
        <time>2014-09-20T09:36:11Z</time>
      </trkpt>
      <trkpt lat="43.21899" lon="0.88026">
        <ele>422.68652695185</ele>
        <time>2014-09-20T09:36:16Z</time>
      </trkpt>
      <trkpt lat="43.21899" lon="0.88026">
        <ele>422.68652695185</ele>
        <time>2014-09-20T09:36:21Z</time>
      </trkpt>
      <trkpt lat="43.21899" lon="0.88026">
        <ele>422.68652695185</ele>
        <time>2014-09-20T09:36:26Z</time>
      </trkpt>
      <trkpt lat="43.21899" lon="0.88026">
        <ele>422.68652695185</ele>
        <time>2014-09-20T09:36:31Z</time>
      </trkpt>
      <trkpt lat="43.21899" lon="0.88026">
        <ele>422.68652695185</ele>
        <time>2014-09-20T09:36:36Z</time>
      </trkpt>
      <trkpt lat="43.21899" lon="0.88026">
        <ele>422.68652695185</ele>
        <time>2014-09-20T09:36:41Z</time>
      </trkpt>
      <trkpt lat="43.219" lon="0.8802">
        <ele>422.68652695185</ele>
        <time>2014-09-20T09:36:46Z</time>
      </trkpt>
      <trkpt lat="43.21906" lon="0.88019">
        <ele>423.19305857479</ele>
        <time>2014-09-20T09:36:51Z</time>
      </trkpt>
      <trkpt lat="43.21907" lon="0.88019">
        <ele>423.19305857479</ele>
        <time>2014-09-20T09:36:56Z</time>
      </trkpt>
      <trkpt lat="43.21908" lon="0.88019">
        <ele>423.19305857479</ele>
        <time>2014-09-20T09:37:01Z</time>
      </trkpt>
      <trkpt lat="43.2191" lon="0.88022">
        <ele>423.19305857479</ele>
        <time>2014-09-20T09:37:06Z</time>
      </trkpt>
      <trkpt lat="43.21911" lon="0.88022">
        <ele>423.19305857479</ele>
        <time>2014-09-20T09:37:11Z</time>
      </trkpt>
      <trkpt lat="43.21911" lon="0.88022">
        <ele>423.19305857479</ele>
        <time>2014-09-20T09:37:16Z</time>
      </trkpt>
      <trkpt lat="43.21911" lon="0.88022">
        <ele>423.19305857479</ele>
        <time>2014-09-20T09:37:21Z</time>
      </trkpt>
      <trkpt lat="43.21911" lon="0.88022">
        <ele>423.19305857479</ele>
        <time>2014-09-20T09:37:26Z</time>
      </trkpt>
      <trkpt lat="43.21911" lon="0.88022">
        <ele>423.19305857479</ele>
        <time>2014-09-20T09:37:31Z</time>
      </trkpt>
      <trkpt lat="43.21911" lon="0.88023">
        <ele>423.19305857479</ele>
        <time>2014-09-20T09:37:36Z</time>
      </trkpt>
      <trkpt lat="43.21911" lon="0.88023">
        <ele>423.19305857479</ele>
        <time>2014-09-20T09:37:41Z</time>
      </trkpt>
      <trkpt lat="43.21911" lon="0.88023">
        <ele>423.19305857479</ele>
        <time>2014-09-20T09:37:46Z</time>
      </trkpt>
      <trkpt lat="43.21911" lon="0.88023">
        <ele>423.19305857479</ele>
        <time>2014-09-20T09:37:51Z</time>
      </trkpt>
      <trkpt lat="43.21911" lon="0.88023">
        <ele>423.19305857479</ele>
        <time>2014-09-20T09:37:56Z</time>
      </trkpt>
      <trkpt lat="43.21911" lon="0.88023">
        <ele>423.19305857479</ele>
        <time>2014-09-20T09:38:01Z</time>
      </trkpt>
      <trkpt lat="43.21911" lon="0.88023">
        <ele>423.19305857479</ele>
        <time>2014-09-20T09:38:06Z</time>
      </trkpt>
      <trkpt lat="43.21911" lon="0.88023">
        <ele>423.19305857479</ele>
        <time>2014-09-20T09:38:11Z</time>
      </trkpt>
      <trkpt lat="43.21911" lon="0.88023">
        <ele>423.19305857479</ele>
        <time>2014-09-20T09:38:16Z</time>
      </trkpt>
      <trkpt lat="43.21911" lon="0.88023">
        <ele>423.19305857479</ele>
        <time>2014-09-20T09:38:21Z</time>
      </trkpt>
      <trkpt lat="43.21911" lon="0.88023">
        <ele>423.19305857479</ele>
        <time>2014-09-20T09:38:26Z</time>
      </trkpt>
      <trkpt lat="43.21911" lon="0.88023">
        <ele>423.19305857479</ele>
        <time>2014-09-20T09:38:31Z</time>
      </trkpt>
      <trkpt lat="43.21911" lon="0.88023">
        <ele>423.19305857479</ele>
        <time>2014-09-20T09:38:36Z</time>
      </trkpt>
      <trkpt lat="43.21911" lon="0.88023">
        <ele>423.19305857479</ele>
        <time>2014-09-20T09:38:41Z</time>
      </trkpt>
      <trkpt lat="43.21911" lon="0.88023">
        <ele>423.19305857479</ele>
        <time>2014-09-20T09:38:46Z</time>
      </trkpt>
      <trkpt lat="43.21911" lon="0.88023">
        <ele>423.19305857479</ele>
        <time>2014-09-20T09:38:51Z</time>
      </trkpt>
      <trkpt lat="43.21911" lon="0.88023">
        <ele>423.19305857479</ele>
        <time>2014-09-20T09:38:56Z</time>
      </trkpt>
      <trkpt lat="43.21911" lon="0.88023">
        <ele>423.19305857479</ele>
        <time>2014-09-20T09:39:01Z</time>
      </trkpt>
      <trkpt lat="43.21911" lon="0.88023">
        <ele>423.19305857479</ele>
        <time>2014-09-20T09:39:06Z</time>
      </trkpt>
      <trkpt lat="43.21911" lon="0.88023">
        <ele>423.19305857479</ele>
        <time>2014-09-20T09:39:11Z</time>
      </trkpt>
      <trkpt lat="43.21911" lon="0.88022">
        <ele>423.19305857479</ele>
        <time>2014-09-20T09:39:16Z</time>
      </trkpt>
      <trkpt lat="43.21911" lon="0.88022">
        <ele>423.19305857479</ele>
        <time>2014-09-20T09:39:21Z</time>
      </trkpt>
      <trkpt lat="43.21911" lon="0.88022">
        <ele>423.19305857479</ele>
        <time>2014-09-20T09:39:26Z</time>
      </trkpt>
      <trkpt lat="43.21911" lon="0.88022">
        <ele>423.19305857479</ele>
        <time>2014-09-20T09:39:31Z</time>
      </trkpt>
      <trkpt lat="43.21911" lon="0.88022">
        <ele>423.19305857479</ele>
        <time>2014-09-20T09:39:36Z</time>
      </trkpt>
      <trkpt lat="43.21911" lon="0.88022">
        <ele>423.19305857479</ele>
        <time>2014-09-20T09:39:41Z</time>
      </trkpt>
      <trkpt lat="43.21911" lon="0.88022">
        <ele>423.19305857479</ele>
        <time>2014-09-20T09:39:46Z</time>
      </trkpt>
      <trkpt lat="43.21911" lon="0.88022">
        <ele>423.19305857479</ele>
        <time>2014-09-20T09:39:51Z</time>
      </trkpt>
      <trkpt lat="43.21911" lon="0.88022">
        <ele>423.19305857479</ele>
        <time>2014-09-20T09:39:56Z</time>
      </trkpt>
      <trkpt lat="43.21911" lon="0.88022">
        <ele>423.19305857479</ele>
        <time>2014-09-20T09:40:01Z</time>
      </trkpt>
      <trkpt lat="43.21911" lon="0.88022">
        <ele>423.19305857479</ele>
        <time>2014-09-20T09:40:06Z</time>
      </trkpt>
      <trkpt lat="43.21911" lon="0.88022">
        <ele>423.19305857479</ele>
        <time>2014-09-20T09:40:11Z</time>
      </trkpt>
      <trkpt lat="43.21911" lon="0.88022">
        <ele>423.19305857479</ele>
        <time>2014-09-20T09:40:16Z</time>
      </trkpt>
      <trkpt lat="43.21911" lon="0.88022">
        <ele>423.19305857479</ele>
        <time>2014-09-20T09:40:21Z</time>
      </trkpt>
      <trkpt lat="43.21911" lon="0.88022">
        <ele>423.19305857479</ele>
        <time>2014-09-20T09:40:26Z</time>
      </trkpt>
      <trkpt lat="43.21911" lon="0.88022">
        <ele>423.19305857479</ele>
        <time>2014-09-20T09:40:31Z</time>
      </trkpt>
      <trkpt lat="43.21911" lon="0.88022">
        <ele>423.19305857479</ele>
        <time>2014-09-20T09:40:36Z</time>
      </trkpt>
      <trkpt lat="43.21911" lon="0.88022">
        <ele>423.19305857479</ele>
        <time>2014-09-20T09:40:41Z</time>
      </trkpt>
      <trkpt lat="43.21911" lon="0.88022">
        <ele>423.19305857479</ele>
        <time>2014-09-20T09:40:46Z</time>
      </trkpt>
      <trkpt lat="43.21911" lon="0.88023">
        <ele>423.19305857479</ele>
        <time>2014-09-20T09:40:51Z</time>
      </trkpt>
      <trkpt lat="43.21911" lon="0.88022">
        <ele>423.19305857479</ele>
        <time>2014-09-20T09:40:56Z</time>
      </trkpt>
      <trkpt lat="43.21911" lon="0.88023">
        <ele>423.19305857479</ele>
        <time>2014-09-20T09:41:01Z</time>
      </trkpt>
      <trkpt lat="43.21911" lon="0.88023">
        <ele>423.19305857479</ele>
        <time>2014-09-20T09:41:06Z</time>
      </trkpt>
      <trkpt lat="43.21911" lon="0.88023">
        <ele>423.19305857479</ele>
        <time>2014-09-20T09:41:11Z</time>
      </trkpt>
      <trkpt lat="43.21911" lon="0.88023">
        <ele>423.19305857479</ele>
        <time>2014-09-20T09:41:16Z</time>
      </trkpt>
      <trkpt lat="43.21911" lon="0.88023">
        <ele>423.19305857479</ele>
        <time>2014-09-20T09:41:21Z</time>
      </trkpt>
      <trkpt lat="43.21911" lon="0.88023">
        <ele>423.19305857479</ele>
        <time>2014-09-20T09:41:26Z</time>
      </trkpt>
      <trkpt lat="43.21911" lon="0.88023">
        <ele>423.19305857479</ele>
        <time>2014-09-20T09:41:31Z</time>
      </trkpt>
      <trkpt lat="43.21911" lon="0.88022">
        <ele>423.19305857479</ele>
        <time>2014-09-20T09:41:36Z</time>
      </trkpt>
      <trkpt lat="43.21911" lon="0.88022">
        <ele>423.19305857479</ele>
        <time>2014-09-20T09:41:41Z</time>
      </trkpt>
      <trkpt lat="43.21911" lon="0.88022">
        <ele>423.19305857479</ele>
        <time>2014-09-20T09:41:46Z</time>
      </trkpt>
      <trkpt lat="43.21911" lon="0.88022">
        <ele>423.19305857479</ele>
        <time>2014-09-20T09:41:51Z</time>
      </trkpt>
      <trkpt lat="43.21911" lon="0.88022">
        <ele>423.19305857479</ele>
        <time>2014-09-20T09:41:56Z</time>
      </trkpt>
      <trkpt lat="43.21911" lon="0.88022">
        <ele>423.19305857479</ele>
        <time>2014-09-20T09:42:01Z</time>
      </trkpt>
      <trkpt lat="43.21911" lon="0.88022">
        <ele>423.19305857479</ele>
        <time>2014-09-20T09:42:06Z</time>
      </trkpt>
      <trkpt lat="43.21912" lon="0.88022">
        <ele>423.19305857479</ele>
        <time>2014-09-20T09:42:11Z</time>
      </trkpt>
      <trkpt lat="43.21912" lon="0.88023">
        <ele>423.19305857479</ele>
        <time>2014-09-20T09:42:16Z</time>
      </trkpt>
      <trkpt lat="43.21912" lon="0.88023">
        <ele>423.19305857479</ele>
        <time>2014-09-20T09:42:21Z</time>
      </trkpt>
      <trkpt lat="43.21912" lon="0.88023">
        <ele>423.19305857479</ele>
        <time>2014-09-20T09:42:26Z</time>
      </trkpt>
      <trkpt lat="43.21912" lon="0.88023">
        <ele>423.19305857479</ele>
        <time>2014-09-20T09:42:31Z</time>
      </trkpt>
      <trkpt lat="43.21912" lon="0.88023">
        <ele>423.19305857479</ele>
        <time>2014-09-20T09:42:36Z</time>
      </trkpt>
      <trkpt lat="43.21912" lon="0.88023">
        <ele>423.19305857479</ele>
        <time>2014-09-20T09:42:41Z</time>
      </trkpt>
      <trkpt lat="43.21912" lon="0.88023">
        <ele>423.19305857479</ele>
        <time>2014-09-20T09:42:46Z</time>
      </trkpt>
      <trkpt lat="43.21912" lon="0.88023">
        <ele>423.19305857479</ele>
        <time>2014-09-20T09:42:51Z</time>
      </trkpt>
      <trkpt lat="43.21912" lon="0.88023">
        <ele>423.19305857479</ele>
        <time>2014-09-20T09:42:56Z</time>
      </trkpt>
      <trkpt lat="43.21912" lon="0.88023">
        <ele>423.19305857479</ele>
        <time>2014-09-20T09:43:01Z</time>
      </trkpt>
      <trkpt lat="43.21912" lon="0.88023">
        <ele>423.19305857479</ele>
        <time>2014-09-20T09:43:06Z</time>
      </trkpt>
      <trkpt lat="43.21911" lon="0.88023">
        <ele>423.19305857479</ele>
        <time>2014-09-20T09:43:11Z</time>
      </trkpt>
      <trkpt lat="43.21911" lon="0.88023">
        <ele>423.19305857479</ele>
        <time>2014-09-20T09:43:16Z</time>
      </trkpt>
      <trkpt lat="43.21911" lon="0.88023">
        <ele>423.19305857479</ele>
        <time>2014-09-20T09:43:21Z</time>
      </trkpt>
      <trkpt lat="43.21911" lon="0.88023">
        <ele>423.19305857479</ele>
        <time>2014-09-20T09:43:26Z</time>
      </trkpt>
      <trkpt lat="43.21911" lon="0.88023">
        <ele>423.19305857479</ele>
        <time>2014-09-20T09:43:31Z</time>
      </trkpt>
      <trkpt lat="43.21911" lon="0.88023">
        <ele>423.19305857479</ele>
        <time>2014-09-20T09:43:36Z</time>
      </trkpt>
      <trkpt lat="43.21911" lon="0.88023">
        <ele>423.19305857479</ele>
        <time>2014-09-20T09:43:41Z</time>
      </trkpt>
      <trkpt lat="43.21911" lon="0.88023">
        <ele>423.19305857479</ele>
        <time>2014-09-20T09:43:46Z</time>
      </trkpt>
      <trkpt lat="43.21911" lon="0.88023">
        <ele>423.19305857479</ele>
        <time>2014-09-20T09:43:51Z</time>
      </trkpt>
      <trkpt lat="43.21911" lon="0.88023">
        <ele>423.19305857479</ele>
        <time>2014-09-20T09:43:56Z</time>
      </trkpt>
      <trkpt lat="43.21911" lon="0.88023">
        <ele>423.19305857479</ele>
        <time>2014-09-20T09:44:01Z</time>
      </trkpt>
      <trkpt lat="43.21911" lon="0.88023">
        <ele>423.19305857479</ele>
        <time>2014-09-20T09:44:06Z</time>
      </trkpt>
      <trkpt lat="43.21911" lon="0.88023">
        <ele>423.19305857479</ele>
        <time>2014-09-20T09:44:11Z</time>
      </trkpt>
      <trkpt lat="43.21911" lon="0.88023">
        <ele>423.19305857479</ele>
        <time>2014-09-20T09:44:16Z</time>
      </trkpt>
      <trkpt lat="43.21911" lon="0.88023">
        <ele>423.19305857479</ele>
        <time>2014-09-20T09:44:21Z</time>
      </trkpt>
      <trkpt lat="43.21911" lon="0.88023">
        <ele>423.19305857479</ele>
        <time>2014-09-20T09:44:26Z</time>
      </trkpt>
      <trkpt lat="43.21911" lon="0.88023">
        <ele>423.19305857479</ele>
        <time>2014-09-20T09:44:31Z</time>
      </trkpt>
      <trkpt lat="43.21911" lon="0.88023">
        <ele>423.19305857479</ele>
        <time>2014-09-20T09:44:36Z</time>
      </trkpt>
      <trkpt lat="43.21911" lon="0.88023">
        <ele>423.19305857479</ele>
        <time>2014-09-20T09:44:41Z</time>
      </trkpt>
      <trkpt lat="43.21911" lon="0.88023">
        <ele>423.19305857479</ele>
        <time>2014-09-20T09:44:46Z</time>
      </trkpt>
      <trkpt lat="43.21911" lon="0.88023">
        <ele>423.19305857479</ele>
        <time>2014-09-20T09:44:51Z</time>
      </trkpt>
      <trkpt lat="43.21911" lon="0.88023">
        <ele>423.19305857479</ele>
        <time>2014-09-20T09:44:56Z</time>
      </trkpt>
      <trkpt lat="43.21911" lon="0.88023">
        <ele>423.19305857479</ele>
        <time>2014-09-20T09:45:01Z</time>
      </trkpt>
      <trkpt lat="43.21911" lon="0.88023">
        <ele>423.19305857479</ele>
        <time>2014-09-20T09:45:06Z</time>
      </trkpt>
      <trkpt lat="43.21911" lon="0.88023">
        <ele>423.19305857479</ele>
        <time>2014-09-20T09:45:11Z</time>
      </trkpt>
      <trkpt lat="43.21911" lon="0.88023">
        <ele>423.19305857479</ele>
        <time>2014-09-20T09:45:16Z</time>
      </trkpt>
      <trkpt lat="43.21911" lon="0.88023">
        <ele>423.19305857479</ele>
        <time>2014-09-20T09:45:21Z</time>
      </trkpt>
      <trkpt lat="43.21911" lon="0.88023">
        <ele>423.19305857479</ele>
        <time>2014-09-20T09:45:26Z</time>
      </trkpt>
      <trkpt lat="43.21911" lon="0.88023">
        <ele>423.19305857479</ele>
        <time>2014-09-20T09:45:31Z</time>
      </trkpt>
      <trkpt lat="43.21911" lon="0.88023">
        <ele>423.19305857479</ele>
        <time>2014-09-20T09:45:36Z</time>
      </trkpt>
      <trkpt lat="43.21911" lon="0.88023">
        <ele>423.19305857479</ele>
        <time>2014-09-20T09:45:41Z</time>
      </trkpt>
      <trkpt lat="43.21911" lon="0.88023">
        <ele>423.19305857479</ele>
        <time>2014-09-20T09:45:46Z</time>
      </trkpt>
      <trkpt lat="43.21911" lon="0.88023">
        <ele>423.19305857479</ele>
        <time>2014-09-20T09:45:51Z</time>
      </trkpt>
      <trkpt lat="43.21911" lon="0.88023">
        <ele>423.19305857479</ele>
        <time>2014-09-20T09:45:56Z</time>
      </trkpt>
      <trkpt lat="43.21911" lon="0.88023">
        <ele>423.19305857479</ele>
        <time>2014-09-20T09:46:01Z</time>
      </trkpt>
      <trkpt lat="43.21911" lon="0.88023">
        <ele>423.19305857479</ele>
        <time>2014-09-20T09:46:06Z</time>
      </trkpt>
      <trkpt lat="43.21911" lon="0.88023">
        <ele>423.19305857479</ele>
        <time>2014-09-20T09:46:11Z</time>
      </trkpt>
      <trkpt lat="43.21911" lon="0.88023">
        <ele>423.19305857479</ele>
        <time>2014-09-20T09:46:16Z</time>
      </trkpt>
      <trkpt lat="43.21911" lon="0.88023">
        <ele>423.19305857479</ele>
        <time>2014-09-20T09:46:21Z</time>
      </trkpt>
      <trkpt lat="43.21911" lon="0.88023">
        <ele>423.19305857479</ele>
        <time>2014-09-20T09:46:26Z</time>
      </trkpt>
      <trkpt lat="43.21911" lon="0.88023">
        <ele>423.19305857479</ele>
        <time>2014-09-20T09:46:31Z</time>
      </trkpt>
      <trkpt lat="43.21911" lon="0.88023">
        <ele>423.19305857479</ele>
        <time>2014-09-20T09:46:36Z</time>
      </trkpt>
      <trkpt lat="43.21911" lon="0.88023">
        <ele>423.19305857479</ele>
        <time>2014-09-20T09:46:41Z</time>
      </trkpt>
      <trkpt lat="43.21912" lon="0.88023">
        <ele>423.19305857479</ele>
        <time>2014-09-20T09:46:46Z</time>
      </trkpt>
      <trkpt lat="43.21912" lon="0.88023">
        <ele>423.19305857479</ele>
        <time>2014-09-20T09:46:51Z</time>
      </trkpt>
      <trkpt lat="43.21912" lon="0.88023">
        <ele>423.19305857479</ele>
        <time>2014-09-20T09:46:56Z</time>
      </trkpt>
      <trkpt lat="43.21912" lon="0.88023">
        <ele>423.19305857479</ele>
        <time>2014-09-20T09:47:01Z</time>
      </trkpt>
      <trkpt lat="43.21912" lon="0.88023">
        <ele>423.19305857479</ele>
        <time>2014-09-20T09:47:06Z</time>
      </trkpt>
      <trkpt lat="43.21912" lon="0.88023">
        <ele>423.19305857479</ele>
        <time>2014-09-20T09:47:11Z</time>
      </trkpt>
      <trkpt lat="43.21912" lon="0.88023">
        <ele>423.19305857479</ele>
        <time>2014-09-20T09:47:16Z</time>
      </trkpt>
      <trkpt lat="43.21912" lon="0.88023">
        <ele>423.19305857479</ele>
        <time>2014-09-20T09:47:21Z</time>
      </trkpt>
      <trkpt lat="43.21912" lon="0.88023">
        <ele>423.19305857479</ele>
        <time>2014-09-20T09:47:26Z</time>
      </trkpt>
      <trkpt lat="43.21912" lon="0.88023">
        <ele>423.19305857479</ele>
        <time>2014-09-20T09:47:31Z</time>
      </trkpt>
      <trkpt lat="43.21912" lon="0.88023">
        <ele>423.19305857479</ele>
        <time>2014-09-20T09:47:36Z</time>
      </trkpt>
      <trkpt lat="43.21912" lon="0.88023">
        <ele>423.19305857479</ele>
        <time>2014-09-20T09:47:41Z</time>
      </trkpt>
      <trkpt lat="43.21912" lon="0.88023">
        <ele>423.19305857479</ele>
        <time>2014-09-20T09:47:46Z</time>
      </trkpt>
      <trkpt lat="43.21912" lon="0.88023">
        <ele>423.19305857479</ele>
        <time>2014-09-20T09:47:51Z</time>
      </trkpt>
      <trkpt lat="43.21912" lon="0.88023">
        <ele>423.19305857479</ele>
        <time>2014-09-20T09:47:56Z</time>
      </trkpt>
      <trkpt lat="43.21912" lon="0.88023">
        <ele>423.19305857479</ele>
        <time>2014-09-20T09:48:01Z</time>
      </trkpt>
      <trkpt lat="43.21912" lon="0.88023">
        <ele>423.19305857479</ele>
        <time>2014-09-20T09:48:06Z</time>
      </trkpt>
      <trkpt lat="43.21912" lon="0.88023">
        <ele>423.19305857479</ele>
        <time>2014-09-20T09:48:11Z</time>
      </trkpt>
      <trkpt lat="43.21912" lon="0.88023">
        <ele>423.19305857479</ele>
        <time>2014-09-20T09:48:16Z</time>
      </trkpt>
      <trkpt lat="43.21912" lon="0.88023">
        <ele>423.19305857479</ele>
        <time>2014-09-20T09:48:21Z</time>
      </trkpt>
      <trkpt lat="43.21912" lon="0.88023">
        <ele>423.19305857479</ele>
        <time>2014-09-20T09:48:26Z</time>
      </trkpt>
      <trkpt lat="43.21912" lon="0.88023">
        <ele>423.19305857479</ele>
        <time>2014-09-20T09:48:31Z</time>
      </trkpt>
      <trkpt lat="43.21912" lon="0.88023">
        <ele>423.19305857479</ele>
        <time>2014-09-20T09:48:36Z</time>
      </trkpt>
      <trkpt lat="43.21912" lon="0.88023">
        <ele>423.19305857479</ele>
        <time>2014-09-20T09:48:41Z</time>
      </trkpt>
      <trkpt lat="43.21912" lon="0.88023">
        <ele>423.19305857479</ele>
        <time>2014-09-20T09:48:46Z</time>
      </trkpt>
      <trkpt lat="43.21912" lon="0.88023">
        <ele>423.19305857479</ele>
        <time>2014-09-20T09:48:51Z</time>
      </trkpt>
      <trkpt lat="43.21912" lon="0.88023">
        <ele>423.19305857479</ele>
        <time>2014-09-20T09:48:56Z</time>
      </trkpt>
      <trkpt lat="43.21912" lon="0.88023">
        <ele>423.19305857479</ele>
        <time>2014-09-20T09:49:01Z</time>
      </trkpt>
      <trkpt lat="43.21912" lon="0.88023">
        <ele>423.19305857479</ele>
        <time>2014-09-20T09:49:06Z</time>
      </trkpt>
      <trkpt lat="43.21912" lon="0.88023">
        <ele>423.19305857479</ele>
        <time>2014-09-20T09:49:11Z</time>
      </trkpt>
      <trkpt lat="43.21912" lon="0.88023">
        <ele>423.19305857479</ele>
        <time>2014-09-20T09:49:16Z</time>
      </trkpt>
      <trkpt lat="43.21912" lon="0.88023">
        <ele>423.19305857479</ele>
        <time>2014-09-20T09:49:21Z</time>
      </trkpt>
      <trkpt lat="43.21912" lon="0.88023">
        <ele>423.19305857479</ele>
        <time>2014-09-20T09:49:26Z</time>
      </trkpt>
      <trkpt lat="43.21912" lon="0.88023">
        <ele>423.19305857479</ele>
        <time>2014-09-20T09:49:31Z</time>
      </trkpt>
      <trkpt lat="43.21912" lon="0.88023">
        <ele>423.19305857479</ele>
        <time>2014-09-20T09:49:36Z</time>
      </trkpt>
      <trkpt lat="43.21912" lon="0.88023">
        <ele>423.19305857479</ele>
        <time>2014-09-20T09:49:41Z</time>
      </trkpt>
      <trkpt lat="43.21912" lon="0.88023">
        <ele>423.19305857479</ele>
        <time>2014-09-20T09:49:46Z</time>
      </trkpt>
      <trkpt lat="43.21912" lon="0.88023">
        <ele>423.19305857479</ele>
        <time>2014-09-20T09:49:51Z</time>
      </trkpt>
      <trkpt lat="43.21912" lon="0.88023">
        <ele>423.19305857479</ele>
        <time>2014-09-20T09:49:56Z</time>
      </trkpt>
      <trkpt lat="43.21912" lon="0.88023">
        <ele>423.19305857479</ele>
        <time>2014-09-20T09:50:01Z</time>
      </trkpt>
      <trkpt lat="43.21912" lon="0.88023">
        <ele>423.19305857479</ele>
        <time>2014-09-20T09:50:06Z</time>
      </trkpt>
      <trkpt lat="43.21912" lon="0.88023">
        <ele>423.19305857479</ele>
        <time>2014-09-20T09:50:11Z</time>
      </trkpt>
      <trkpt lat="43.21912" lon="0.88023">
        <ele>423.19305857479</ele>
        <time>2014-09-20T09:50:16Z</time>
      </trkpt>
      <trkpt lat="43.21912" lon="0.88024">
        <ele>423.19305857479</ele>
        <time>2014-09-20T09:50:21Z</time>
      </trkpt>
      <trkpt lat="43.21912" lon="0.88024">
        <ele>423.19305857479</ele>
        <time>2014-09-20T09:50:26Z</time>
      </trkpt>
      <trkpt lat="43.21912" lon="0.88024">
        <ele>423.19305857479</ele>
        <time>2014-09-20T09:50:31Z</time>
      </trkpt>
      <trkpt lat="43.21912" lon="0.88024">
        <ele>423.19305857479</ele>
        <time>2014-09-20T09:50:36Z</time>
      </trkpt>
      <trkpt lat="43.21912" lon="0.88024">
        <ele>423.19305857479</ele>
        <time>2014-09-20T09:50:41Z</time>
      </trkpt>
      <trkpt lat="43.21912" lon="0.88024">
        <ele>423.19305857479</ele>
        <time>2014-09-20T09:50:46Z</time>
      </trkpt>
      <trkpt lat="43.21912" lon="0.88024">
        <ele>423.19305857479</ele>
        <time>2014-09-20T09:50:51Z</time>
      </trkpt>
      <trkpt lat="43.21912" lon="0.88024">
        <ele>423.19305857479</ele>
        <time>2014-09-20T09:50:56Z</time>
      </trkpt>
      <trkpt lat="43.21912" lon="0.88024">
        <ele>423.19305857479</ele>
        <time>2014-09-20T09:51:01Z</time>
      </trkpt>
      <trkpt lat="43.21912" lon="0.88024">
        <ele>423.19305857479</ele>
        <time>2014-09-20T09:51:06Z</time>
      </trkpt>
      <trkpt lat="43.21912" lon="0.88024">
        <ele>423.19305857479</ele>
        <time>2014-09-20T09:51:11Z</time>
      </trkpt>
      <trkpt lat="43.21912" lon="0.88024">
        <ele>423.19305857479</ele>
        <time>2014-09-20T09:51:16Z</time>
      </trkpt>
      <trkpt lat="43.21912" lon="0.88024">
        <ele>423.19305857479</ele>
        <time>2014-09-20T09:51:21Z</time>
      </trkpt>
      <trkpt lat="43.21912" lon="0.88024">
        <ele>423.19305857479</ele>
        <time>2014-09-20T09:51:26Z</time>
      </trkpt>
      <trkpt lat="43.21912" lon="0.88024">
        <ele>423.19305857479</ele>
        <time>2014-09-20T09:51:31Z</time>
      </trkpt>
      <trkpt lat="43.21912" lon="0.88024">
        <ele>423.19305857479</ele>
        <time>2014-09-20T09:51:36Z</time>
      </trkpt>
      <trkpt lat="43.21912" lon="0.88024">
        <ele>423.19305857479</ele>
        <time>2014-09-20T09:51:41Z</time>
      </trkpt>
      <trkpt lat="43.21912" lon="0.88024">
        <ele>423.19305857479</ele>
        <time>2014-09-20T09:51:56Z</time>
      </trkpt>
      <trkpt lat="43.21912" lon="0.88024">
        <ele>423.19305857479</ele>
        <time>2014-09-20T09:52:01Z</time>
      </trkpt>
      <trkpt lat="43.21912" lon="0.88024">
        <ele>423.19305857479</ele>
        <time>2014-09-20T09:52:06Z</time>
      </trkpt>
      <trkpt lat="43.21912" lon="0.88024">
        <ele>423.19305857479</ele>
        <time>2014-09-20T09:52:11Z</time>
      </trkpt>
      <trkpt lat="43.21912" lon="0.88024">
        <ele>423.19305857479</ele>
        <time>2014-09-20T09:52:16Z</time>
      </trkpt>
      <trkpt lat="43.21912" lon="0.88024">
        <ele>423.19305857479</ele>
        <time>2014-09-20T09:52:21Z</time>
      </trkpt>
      <trkpt lat="43.21912" lon="0.88024">
        <ele>423.19305857479</ele>
        <time>2014-09-20T09:52:26Z</time>
      </trkpt>
      <trkpt lat="43.21912" lon="0.88024">
        <ele>423.19305857479</ele>
        <time>2014-09-20T09:52:31Z</time>
      </trkpt>
      <trkpt lat="43.21912" lon="0.88024">
        <ele>423.19305857479</ele>
        <time>2014-09-20T09:52:36Z</time>
      </trkpt>
      <trkpt lat="43.21912" lon="0.88024">
        <ele>423.19305857479</ele>
        <time>2014-09-20T09:52:41Z</time>
      </trkpt>
      <trkpt lat="43.21912" lon="0.88024">
        <ele>423.19305857479</ele>
        <time>2014-09-20T09:52:46Z</time>
      </trkpt>
      <trkpt lat="43.21912" lon="0.88024">
        <ele>423.19305857479</ele>
        <time>2014-09-20T09:52:51Z</time>
      </trkpt>
      <trkpt lat="43.21912" lon="0.88024">
        <ele>423.19305857479</ele>
        <time>2014-09-20T09:52:56Z</time>
      </trkpt>
      <trkpt lat="43.21912" lon="0.88024">
        <ele>423.19305857479</ele>
        <time>2014-09-20T09:53:01Z</time>
      </trkpt>
      <trkpt lat="43.21912" lon="0.88024">
        <ele>423.19305857479</ele>
        <time>2014-09-20T09:53:06Z</time>
      </trkpt>
      <trkpt lat="43.21912" lon="0.88024">
        <ele>423.19305857479</ele>
        <time>2014-09-20T09:53:11Z</time>
      </trkpt>
      <trkpt lat="43.21912" lon="0.88024">
        <ele>423.19305857479</ele>
        <time>2014-09-20T09:53:16Z</time>
      </trkpt>
      <trkpt lat="43.21912" lon="0.88024">
        <ele>423.19305857479</ele>
        <time>2014-09-20T09:53:21Z</time>
      </trkpt>
      <trkpt lat="43.21912" lon="0.88024">
        <ele>423.19305857479</ele>
        <time>2014-09-20T09:53:26Z</time>
      </trkpt>
      <trkpt lat="43.21912" lon="0.88024">
        <ele>423.19305857479</ele>
        <time>2014-09-20T09:53:31Z</time>
      </trkpt>
      <trkpt lat="43.21912" lon="0.88024">
        <ele>423.19305857479</ele>
        <time>2014-09-20T09:53:41Z</time>
      </trkpt>
      <trkpt lat="43.21912" lon="0.88024">
        <ele>423.19305857479</ele>
        <time>2014-09-20T09:53:46Z</time>
      </trkpt>
      <trkpt lat="43.21912" lon="0.88024">
        <ele>423.19305857479</ele>
        <time>2014-09-20T09:53:51Z</time>
      </trkpt>
      <trkpt lat="43.21912" lon="0.88024">
        <ele>423.19305857479</ele>
        <time>2014-09-20T09:53:56Z</time>
      </trkpt>
      <trkpt lat="43.21912" lon="0.88024">
        <ele>423.19305857479</ele>
        <time>2014-09-20T09:54:01Z</time>
      </trkpt>
      <trkpt lat="43.21912" lon="0.88024">
        <ele>423.19305857479</ele>
        <time>2014-09-20T09:54:06Z</time>
      </trkpt>
      <trkpt lat="43.21912" lon="0.88024">
        <ele>423.19305857479</ele>
        <time>2014-09-20T09:54:11Z</time>
      </trkpt>
      <trkpt lat="43.21912" lon="0.88024">
        <ele>423.19305857479</ele>
        <time>2014-09-20T09:54:16Z</time>
      </trkpt>
      <trkpt lat="43.21912" lon="0.88024">
        <ele>423.19305857479</ele>
        <time>2014-09-20T09:54:21Z</time>
      </trkpt>
      <trkpt lat="43.21912" lon="0.88024">
        <ele>423.19305857479</ele>
        <time>2014-09-20T09:54:26Z</time>
      </trkpt>
      <trkpt lat="43.21912" lon="0.88024">
        <ele>423.19305857479</ele>
        <time>2014-09-20T09:54:31Z</time>
      </trkpt>
      <trkpt lat="43.21912" lon="0.88024">
        <ele>423.19305857479</ele>
        <time>2014-09-20T09:54:36Z</time>
      </trkpt>
      <trkpt lat="43.21912" lon="0.88024">
        <ele>423.19305857479</ele>
        <time>2014-09-20T09:54:41Z</time>
      </trkpt>
      <trkpt lat="43.21912" lon="0.88024">
        <ele>423.19305857479</ele>
        <time>2014-09-20T09:54:46Z</time>
      </trkpt>
      <trkpt lat="43.21912" lon="0.88024">
        <ele>423.19305857479</ele>
        <time>2014-09-20T09:54:51Z</time>
      </trkpt>
      <trkpt lat="43.21912" lon="0.88024">
        <ele>423.19305857479</ele>
        <time>2014-09-20T09:54:56Z</time>
      </trkpt>
      <trkpt lat="43.21912" lon="0.88024">
        <ele>423.19305857479</ele>
        <time>2014-09-20T09:55:01Z</time>
      </trkpt>
      <trkpt lat="43.21912" lon="0.88024">
        <ele>423.19305857479</ele>
        <time>2014-09-20T09:55:06Z</time>
      </trkpt>
      <trkpt lat="43.21912" lon="0.88024">
        <ele>423.19305857479</ele>
        <time>2014-09-20T09:55:11Z</time>
      </trkpt>
      <trkpt lat="43.21912" lon="0.88024">
        <ele>423.19305857479</ele>
        <time>2014-09-20T09:55:16Z</time>
      </trkpt>
      <trkpt lat="43.21912" lon="0.88024">
        <ele>423.19305857479</ele>
        <time>2014-09-20T09:55:21Z</time>
      </trkpt>
      <trkpt lat="43.21912" lon="0.88024">
        <ele>423.19305857479</ele>
        <time>2014-09-20T09:55:26Z</time>
      </trkpt>
      <trkpt lat="43.21912" lon="0.88024">
        <ele>423.19305857479</ele>
        <time>2014-09-20T09:55:31Z</time>
      </trkpt>
      <trkpt lat="43.21912" lon="0.88024">
        <ele>423.08150816731</ele>
        <time>2014-09-20T09:55:36Z</time>
      </trkpt>
      <trkpt lat="43.21912" lon="0.88024">
        <ele>422.96995775984</ele>
        <time>2014-09-20T09:55:41Z</time>
      </trkpt>
      <trkpt lat="43.21912" lon="0.88024">
        <ele>422.85840735236</ele>
        <time>2014-09-20T09:55:56Z</time>
      </trkpt>
      <trkpt lat="43.21912" lon="0.88024">
        <ele>422.74685694489</ele>
        <time>2014-09-20T09:56:01Z</time>
      </trkpt>
      <trkpt lat="43.21912" lon="0.88024">
        <ele>422.63530653741</ele>
        <time>2014-09-20T09:56:06Z</time>
      </trkpt>
      <trkpt lat="43.21912" lon="0.88024">
        <ele>422.52375612993</ele>
        <time>2014-09-20T09:56:11Z</time>
      </trkpt>
      <trkpt lat="43.21912" lon="0.88024">
        <ele>422.41220572246</ele>
        <time>2014-09-20T09:56:26Z</time>
      </trkpt>
      <trkpt lat="43.21912" lon="0.88024">
        <ele>422.30065531498</ele>
        <time>2014-09-20T09:56:31Z</time>
      </trkpt>
      <trkpt lat="43.21912" lon="0.8806">
        <ele>422.18910490751</ele>
        <time>2014-09-20T09:59:26Z</time>
      </trkpt>
      <trkpt lat="43.2189" lon="0.88051">
        <ele>422.07755450003</ele>
        <time>2014-09-20T09:59:31Z</time>
      </trkpt>
      <trkpt lat="43.21902" lon="0.88057">
        <ele>421.96600409256</ele>
        <time>2014-09-20T09:59:51Z</time>
      </trkpt>
      <trkpt lat="43.21905" lon="0.88056">
        <ele>421.96600409256</ele>
        <time>2014-09-20T09:59:56Z</time>
      </trkpt>
      <trkpt lat="43.2191" lon="0.88045">
        <ele>421.34465259612</ele>
        <time>2014-09-20T10:00:01Z</time>
      </trkpt>
      <trkpt lat="43.21909" lon="0.8804">
        <ele>421.34465259612</ele>
        <time>2014-09-20T10:00:06Z</time>
      </trkpt>
      <trkpt lat="43.21907" lon="0.88036">
        <ele>421.34465259612</ele>
        <time>2014-09-20T10:00:11Z</time>
      </trkpt>
      <trkpt lat="43.2191" lon="0.8803">
        <ele>420.88764276948</ele>
        <time>2014-09-20T10:00:16Z</time>
      </trkpt>
      <trkpt lat="43.21911" lon="0.88029">
        <ele>420.88764276948</ele>
        <time>2014-09-20T10:00:21Z</time>
      </trkpt>
      <trkpt lat="43.21911" lon="0.88027">
        <ele>420.88764276948</ele>
        <time>2014-09-20T10:00:26Z</time>
      </trkpt>
      <trkpt lat="43.21917" lon="0.88019">
        <ele>421.73794596484</ele>
        <time>2014-09-20T10:00:31Z</time>
      </trkpt>
      <trkpt lat="43.21926" lon="0.88013">
        <ele>421.95236663209</ele>
        <time>2014-09-20T10:00:36Z</time>
      </trkpt>
      <trkpt lat="43.21933" lon="0.88006">
        <ele>421.95236663209</ele>
        <time>2014-09-20T10:00:41Z</time>
      </trkpt>
      <trkpt lat="43.21937" lon="0.87996">
        <ele>422.40308671161</ele>
        <time>2014-09-20T10:00:46Z</time>
      </trkpt>
      <trkpt lat="43.21942" lon="0.8799">
        <ele>422.40308671161</ele>
        <time>2014-09-20T10:00:51Z</time>
      </trkpt>
      <trkpt lat="43.21942" lon="0.8799">
        <ele>422.40308671161</ele>
        <time>2014-09-20T10:00:56Z</time>
      </trkpt>
      <trkpt lat="43.21945" lon="0.87985">
        <ele>422.70262695561</ele>
        <time>2014-09-20T10:01:01Z</time>
      </trkpt>
      <trkpt lat="43.2195" lon="0.87979">
        <ele>422.70262695561</ele>
        <time>2014-09-20T10:01:06Z</time>
      </trkpt>
      <trkpt lat="43.21958" lon="0.87971">
        <ele>423.29939562198</ele>
        <time>2014-09-20T10:01:11Z</time>
      </trkpt>
      <trkpt lat="43.21962" lon="0.8796">
        <ele>423.29939562198</ele>
        <time>2014-09-20T10:01:16Z</time>
      </trkpt>
      <trkpt lat="43.21965" lon="0.87958">
        <ele>423.63503928488</ele>
        <time>2014-09-20T10:01:21Z</time>
      </trkpt>
      <trkpt lat="43.21968" lon="0.87956">
        <ele>423.63503928488</ele>
        <time>2014-09-20T10:01:26Z</time>
      </trkpt>
      <trkpt lat="43.21973" lon="0.87954">
        <ele>423.63503928488</ele>
        <time>2014-09-20T10:01:31Z</time>
      </trkpt>
      <trkpt lat="43.21977" lon="0.87953">
        <ele>424.06680564599</ele>
        <time>2014-09-20T10:01:36Z</time>
      </trkpt>
      <trkpt lat="43.21978" lon="0.87952">
        <ele>424.06680564599</ele>
        <time>2014-09-20T10:01:41Z</time>
      </trkpt>
      <trkpt lat="43.21982" lon="0.87946">
        <ele>424.06680564599</ele>
        <time>2014-09-20T10:01:46Z</time>
      </trkpt>
      <trkpt lat="43.21987" lon="0.87942">
        <ele>424.66493148524</ele>
        <time>2014-09-20T10:01:51Z</time>
      </trkpt>
      <trkpt lat="43.21991" lon="0.87939">
        <ele>424.66493148524</ele>
        <time>2014-09-20T10:01:56Z</time>
      </trkpt>
      <trkpt lat="43.21995" lon="0.87942">
        <ele>425.09224882414</ele>
        <time>2014-09-20T10:02:01Z</time>
      </trkpt>
      <trkpt lat="43.21997" lon="0.87948">
        <ele>425.09224882414</ele>
        <time>2014-09-20T10:02:06Z</time>
      </trkpt>
      <trkpt lat="43.22" lon="0.87955">
        <ele>424.40434220507</ele>
        <time>2014-09-20T10:02:11Z</time>
      </trkpt>
      <trkpt lat="43.22001" lon="0.87959">
        <ele>424.40434220507</ele>
        <time>2014-09-20T10:02:16Z</time>
      </trkpt>
      <trkpt lat="43.22001" lon="0.87958">
        <ele>424.40434220507</ele>
        <time>2014-09-20T10:02:21Z</time>
      </trkpt>
      <trkpt lat="43.22001" lon="0.87953">
        <ele>424.40434220507</ele>
        <time>2014-09-20T10:02:26Z</time>
      </trkpt>
      <trkpt lat="43.22001" lon="0.87957">
        <ele>423.41809145917</ele>
        <time>2014-09-20T10:02:31Z</time>
      </trkpt>
      <trkpt lat="43.22" lon="0.87961">
        <ele>423.41809145917</ele>
        <time>2014-09-20T10:02:36Z</time>
      </trkpt>
      <trkpt lat="43.22001" lon="0.87962">
        <ele>423.41809145917</ele>
        <time>2014-09-20T10:02:41Z</time>
      </trkpt>
      <trkpt lat="43.22001" lon="0.87963">
        <ele>423.41809145917</ele>
        <time>2014-09-20T10:02:46Z</time>
      </trkpt>
      <trkpt lat="43.22004" lon="0.87967">
        <ele>423.41809145917</ele>
        <time>2014-09-20T10:02:51Z</time>
      </trkpt>
      <trkpt lat="43.22007" lon="0.87971">
        <ele>422.83898113638</ele>
        <time>2014-09-20T10:02:56Z</time>
      </trkpt>
      <trkpt lat="43.22009" lon="0.87973">
        <ele>422.83898113638</ele>
        <time>2014-09-20T10:03:01Z</time>
      </trkpt>
      <trkpt lat="43.22004" lon="0.87971">
        <ele>422.83898113638</ele>
        <time>2014-09-20T10:03:06Z</time>
      </trkpt>
      <trkpt lat="43.22" lon="0.87969">
        <ele>422.2368439351</ele>
        <time>2014-09-20T10:03:11Z</time>
      </trkpt>
      <trkpt lat="43.21999" lon="0.87971">
        <ele>422.2368439351</ele>
        <time>2014-09-20T10:03:16Z</time>
      </trkpt>
      <trkpt lat="43.21999" lon="0.87971">
        <ele>422.2368439351</ele>
        <time>2014-09-20T10:03:21Z</time>
      </trkpt>
      <trkpt lat="43.22" lon="0.8797">
        <ele>422.2368439351</ele>
        <time>2014-09-20T10:03:26Z</time>
      </trkpt>
      <trkpt lat="43.22002" lon="0.87967">
        <ele>422.2368439351</ele>
        <time>2014-09-20T10:03:31Z</time>
      </trkpt>
      <trkpt lat="43.22" lon="0.87966">
        <ele>422.2368439351</ele>
        <time>2014-09-20T10:03:36Z</time>
      </trkpt>
      <trkpt lat="43.21999" lon="0.87964">
        <ele>421.90545083936</ele>
        <time>2014-09-20T10:03:41Z</time>
      </trkpt>
      <trkpt lat="43.22" lon="0.87959">
        <ele>421.90545083936</ele>
        <time>2014-09-20T10:03:46Z</time>
      </trkpt>
      <trkpt lat="43.21999" lon="0.87955">
        <ele>421.90545083936</ele>
        <time>2014-09-20T10:03:51Z</time>
      </trkpt>
      <trkpt lat="43.22002" lon="0.87939">
        <ele>421.11898780119</ele>
        <time>2014-09-20T10:04:11Z</time>
      </trkpt>
      <trkpt lat="43.22002" lon="0.87933">
        <ele>421.11898780119</ele>
        <time>2014-09-20T10:04:16Z</time>
      </trkpt>
      <trkpt lat="43.21999" lon="0.87924">
        <ele>419.60052975907</ele>
        <time>2014-09-20T10:04:21Z</time>
      </trkpt>
      <trkpt lat="43.22" lon="0.87919">
        <ele>419.60052975907</ele>
        <time>2014-09-20T10:04:26Z</time>
      </trkpt>
      <trkpt lat="43.22005" lon="0.87916">
        <ele>419.60052975907</ele>
        <time>2014-09-20T10:04:31Z</time>
      </trkpt>
      <trkpt lat="43.22009" lon="0.8791">
        <ele>418.81794558996</ele>
        <time>2014-09-20T10:04:36Z</time>
      </trkpt>
      <trkpt lat="43.22012" lon="0.87903">
        <ele>418.81794558996</ele>
        <time>2014-09-20T10:04:41Z</time>
      </trkpt>
      <trkpt lat="43.22015" lon="0.87897">
        <ele>418.14539393869</ele>
        <time>2014-09-20T10:04:46Z</time>
      </trkpt>
      <trkpt lat="43.22015" lon="0.87892">
        <ele>418.14539393869</ele>
        <time>2014-09-20T10:04:51Z</time>
      </trkpt>
      <trkpt lat="43.22019" lon="0.87885">
        <ele>417.33731817762</ele>
        <time>2014-09-20T10:04:56Z</time>
      </trkpt>
      <trkpt lat="43.22022" lon="0.8788">
        <ele>417.33731817762</ele>
        <time>2014-09-20T10:05:01Z</time>
      </trkpt>
      <trkpt lat="43.22025" lon="0.87873">
        <ele>416.40885474294</ele>
        <time>2014-09-20T10:05:06Z</time>
      </trkpt>
      <trkpt lat="43.22027" lon="0.87869">
        <ele>416.40885474294</ele>
        <time>2014-09-20T10:05:11Z</time>
      </trkpt>
      <trkpt lat="43.22028" lon="0.87865">
        <ele>416.40885474294</ele>
        <time>2014-09-20T10:05:16Z</time>
      </trkpt>
      <trkpt lat="43.22029" lon="0.8786">
        <ele>415.13418795966</ele>
        <time>2014-09-20T10:05:21Z</time>
      </trkpt>
      <trkpt lat="43.22031" lon="0.87853">
        <ele>415.13418795966</ele>
        <time>2014-09-20T10:05:26Z</time>
      </trkpt>
      <trkpt lat="43.22031" lon="0.87846">
        <ele>413.50186058488</ele>
        <time>2014-09-20T10:05:31Z</time>
      </trkpt>
      <trkpt lat="43.2203" lon="0.8784">
        <ele>413.50186058488</ele>
        <time>2014-09-20T10:05:36Z</time>
      </trkpt>
      <trkpt lat="43.22033" lon="0.87835">
        <ele>413.50186058488</ele>
        <time>2014-09-20T10:05:41Z</time>
      </trkpt>
      <trkpt lat="43.22035" lon="0.87832">
        <ele>412.42805073798</ele>
        <time>2014-09-20T10:05:46Z</time>
      </trkpt>
      <trkpt lat="43.2204" lon="0.87827">
        <ele>412.42805073798</ele>
        <time>2014-09-20T10:05:51Z</time>
      </trkpt>
      <trkpt lat="43.22043" lon="0.87821">
        <ele>410.99243112171</ele>
        <time>2014-09-20T10:05:56Z</time>
      </trkpt>
      <trkpt lat="43.22046" lon="0.87818">
        <ele>410.99243112171</ele>
        <time>2014-09-20T10:06:01Z</time>
      </trkpt>
      <trkpt lat="43.22047" lon="0.87816">
        <ele>410.99243112171</ele>
        <time>2014-09-20T10:06:06Z</time>
      </trkpt>
      <trkpt lat="43.22049" lon="0.87813">
        <ele>410.99243112171</ele>
        <time>2014-09-20T10:06:11Z</time>
      </trkpt>
      <trkpt lat="43.22054" lon="0.87805">
        <ele>408.93246321003</ele>
        <time>2014-09-20T10:06:16Z</time>
      </trkpt>
      <trkpt lat="43.2206" lon="0.87797">
        <ele>408.93246321003</ele>
        <time>2014-09-20T10:06:21Z</time>
      </trkpt>
      <trkpt lat="43.22063" lon="0.87791">
        <ele>406.30572268995</ele>
        <time>2014-09-20T10:06:26Z</time>
      </trkpt>
      <trkpt lat="43.22068" lon="0.87786">
        <ele>406.30572268995</ele>
        <time>2014-09-20T10:06:31Z</time>
      </trkpt>
      <trkpt lat="43.22072" lon="0.87781">
        <ele>403.46191702277</ele>
        <time>2014-09-20T10:06:36Z</time>
      </trkpt>
      <trkpt lat="43.22076" lon="0.87776">
        <ele>403.46191702277</ele>
        <time>2014-09-20T10:06:41Z</time>
      </trkpt>
      <trkpt lat="43.22078" lon="0.8777">
        <ele>400.82495734022</ele>
        <time>2014-09-20T10:06:46Z</time>
      </trkpt>
      <trkpt lat="43.22078" lon="0.87765">
        <ele>400.82495734022</ele>
        <time>2014-09-20T10:06:51Z</time>
      </trkpt>
      <trkpt lat="43.22075" lon="0.8776">
        <ele>400.82495734022</ele>
        <time>2014-09-20T10:06:56Z</time>
      </trkpt>
      <trkpt lat="43.22073" lon="0.87757">
        <ele>397.91458950891</ele>
        <time>2014-09-20T10:07:01Z</time>
      </trkpt>
      <trkpt lat="43.22075" lon="0.87757">
        <ele>397.91458950891</ele>
        <time>2014-09-20T10:07:06Z</time>
      </trkpt>
      <trkpt lat="43.22075" lon="0.87757">
        <ele>397.91458950891</ele>
        <time>2014-09-20T10:07:11Z</time>
      </trkpt>
      <trkpt lat="43.22076" lon="0.87756">
        <ele>397.91458950891</ele>
        <time>2014-09-20T10:07:16Z</time>
      </trkpt>
      <trkpt lat="43.22078" lon="0.87754">
        <ele>397.91458950891</ele>
        <time>2014-09-20T10:07:21Z</time>
      </trkpt>
      <trkpt lat="43.22082" lon="0.87751">
        <ele>395.77346793945</ele>
        <time>2014-09-20T10:07:26Z</time>
      </trkpt>
      <trkpt lat="43.22088" lon="0.87747">
        <ele>395.77346793945</ele>
        <time>2014-09-20T10:07:31Z</time>
      </trkpt>
      <trkpt lat="43.22093" lon="0.87742">
        <ele>393.58382311481</ele>
        <time>2014-09-20T10:07:36Z</time>
      </trkpt>
      <trkpt lat="43.221" lon="0.87738">
        <ele>393.58382311481</ele>
        <time>2014-09-20T10:07:41Z</time>
      </trkpt>
      <trkpt lat="43.22105" lon="0.87737">
        <ele>391.99827368741</ele>
        <time>2014-09-20T10:07:46Z</time>
      </trkpt>
      <trkpt lat="43.22106" lon="0.87731">
        <ele>391.99827368741</ele>
        <time>2014-09-20T10:07:51Z</time>
      </trkpt>
      <trkpt lat="43.2211" lon="0.87727">
        <ele>390.24328269776</ele>
        <time>2014-09-20T10:07:56Z</time>
      </trkpt>
      <trkpt lat="43.22114" lon="0.87723">
        <ele>390.24328269776</ele>
        <time>2014-09-20T10:08:01Z</time>
      </trkpt>
      <trkpt lat="43.2212" lon="0.87719">
        <ele>388.29267219692</ele>
        <time>2014-09-20T10:08:06Z</time>
      </trkpt>
      <trkpt lat="43.22126" lon="0.87715">
        <ele>388.29267219692</ele>
        <time>2014-09-20T10:08:11Z</time>
      </trkpt>
      <trkpt lat="43.2213" lon="0.87711">
        <ele>385.96265418135</ele>
        <time>2014-09-20T10:08:16Z</time>
      </trkpt>
      <trkpt lat="43.22135" lon="0.87707">
        <ele>385.96265418135</ele>
        <time>2014-09-20T10:08:21Z</time>
      </trkpt>
      <trkpt lat="43.22138" lon="0.87703">
        <ele>384.34812618874</ele>
        <time>2014-09-20T10:08:26Z</time>
      </trkpt>
      <trkpt lat="43.22142" lon="0.877">
        <ele>384.34812618874</ele>
        <time>2014-09-20T10:08:31Z</time>
      </trkpt>
      <trkpt lat="43.22145" lon="0.87696">
        <ele>382.67187974431</ele>
        <time>2014-09-20T10:08:36Z</time>
      </trkpt>
      <trkpt lat="43.22148" lon="0.87691">
        <ele>382.67187974431</ele>
        <time>2014-09-20T10:08:41Z</time>
      </trkpt>
      <trkpt lat="43.22148" lon="0.8769">
        <ele>382.67187974431</ele>
        <time>2014-09-20T10:08:46Z</time>
      </trkpt>
      <trkpt lat="43.22148" lon="0.87685">
        <ele>380.39145500773</ele>
        <time>2014-09-20T10:08:51Z</time>
      </trkpt>
      <trkpt lat="43.22149" lon="0.87677">
        <ele>380.39145500773</ele>
        <time>2014-09-20T10:08:56Z</time>
      </trkpt>
      <trkpt lat="43.22151" lon="0.87672">
        <ele>378.28139328162</ele>
        <time>2014-09-20T10:09:01Z</time>
      </trkpt>
      <trkpt lat="43.22152" lon="0.87671">
        <ele>378.28139328162</ele>
        <time>2014-09-20T10:09:06Z</time>
      </trkpt>
      <trkpt lat="43.22152" lon="0.87671">
        <ele>378.28139328162</ele>
        <time>2014-09-20T10:09:11Z</time>
      </trkpt>
      <trkpt lat="43.22157" lon="0.8767">
        <ele>378.28139328162</ele>
        <time>2014-09-20T10:09:16Z</time>
      </trkpt>
      <trkpt lat="43.22162" lon="0.87677">
        <ele>375.8845143493</ele>
        <time>2014-09-20T10:09:21Z</time>
      </trkpt>
      <trkpt lat="43.22167" lon="0.87685">
        <ele>375.8845143493</ele>
        <time>2014-09-20T10:09:26Z</time>
      </trkpt>
      <trkpt lat="43.2217" lon="0.87691">
        <ele>373.44394047725</ele>
        <time>2014-09-20T10:09:31Z</time>
      </trkpt>
      <trkpt lat="43.22172" lon="0.87697">
        <ele>373.44394047725</ele>
        <time>2014-09-20T10:09:36Z</time>
      </trkpt>
      <trkpt lat="43.22173" lon="0.87704">
        <ele>371.38640773848</ele>
        <time>2014-09-20T10:09:41Z</time>
      </trkpt>
      <trkpt lat="43.22173" lon="0.87712">
        <ele>371.38640773848</ele>
        <time>2014-09-20T10:09:46Z</time>
      </trkpt>
      <trkpt lat="43.22173" lon="0.8772">
        <ele>369.0370392685</ele>
        <time>2014-09-20T10:09:51Z</time>
      </trkpt>
      <trkpt lat="43.22173" lon="0.87728">
        <ele>369.0370392685</ele>
        <time>2014-09-20T10:09:56Z</time>
      </trkpt>
      <trkpt lat="43.22172" lon="0.87736">
        <ele>366.7824357368</ele>
        <time>2014-09-20T10:10:01Z</time>
      </trkpt>
      <trkpt lat="43.22172" lon="0.87743">
        <ele>366.7824357368</ele>
        <time>2014-09-20T10:10:06Z</time>
      </trkpt>
      <trkpt lat="43.22169" lon="0.87749">
        <ele>364.30180429331</ele>
        <time>2014-09-20T10:10:11Z</time>
      </trkpt>
      <trkpt lat="43.22167" lon="0.87757">
        <ele>364.30180429331</ele>
        <time>2014-09-20T10:10:16Z</time>
      </trkpt>
      <trkpt lat="43.22167" lon="0.87765">
        <ele>361.61598224922</ele>
        <time>2014-09-20T10:10:21Z</time>
      </trkpt>
      <trkpt lat="43.22168" lon="0.87774">
        <ele>361.61598224922</ele>
        <time>2014-09-20T10:10:26Z</time>
      </trkpt>
      <trkpt lat="43.22166" lon="0.87782">
        <ele>359.59540191379</ele>
        <time>2014-09-20T10:10:31Z</time>
      </trkpt>
      <trkpt lat="43.22161" lon="0.8779">
        <ele>359.59540191379</ele>
        <time>2014-09-20T10:10:36Z</time>
      </trkpt>
      <trkpt lat="43.22158" lon="0.87797">
        <ele>357.12642327929</ele>
        <time>2014-09-20T10:10:41Z</time>
      </trkpt>
      <trkpt lat="43.22156" lon="0.87805">
        <ele>357.12642327929</ele>
        <time>2014-09-20T10:10:46Z</time>
      </trkpt>
      <trkpt lat="43.22155" lon="0.87813">
        <ele>355.73067690036</ele>
        <time>2014-09-20T10:10:51Z</time>
      </trkpt>
      <trkpt lat="43.22154" lon="0.87821">
        <ele>355.73067690036</ele>
        <time>2014-09-20T10:10:56Z</time>
      </trkpt>
      <trkpt lat="43.2215" lon="0.87828">
        <ele>354.17617001607</ele>
        <time>2014-09-20T10:11:01Z</time>
      </trkpt>
      <trkpt lat="43.22147" lon="0.87836">
        <ele>354.17617001607</ele>
        <time>2014-09-20T10:11:06Z</time>
      </trkpt>
      <trkpt lat="43.22144" lon="0.87843">
        <ele>352.43200392215</ele>
        <time>2014-09-20T10:11:11Z</time>
      </trkpt>
      <trkpt lat="43.2214" lon="0.87849">
        <ele>352.43200392215</ele>
        <time>2014-09-20T10:11:16Z</time>
      </trkpt>
      <trkpt lat="43.22137" lon="0.87856">
        <ele>350.85918860352</ele>
        <time>2014-09-20T10:11:21Z</time>
      </trkpt>
      <trkpt lat="43.22135" lon="0.8786">
        <ele>350.85918860352</ele>
        <time>2014-09-20T10:11:26Z</time>
      </trkpt>
      <trkpt lat="43.22136" lon="0.87867">
        <ele>349.64742213617</ele>
        <time>2014-09-20T10:11:31Z</time>
      </trkpt>
      <trkpt lat="43.22134" lon="0.87875">
        <ele>349.64742213617</ele>
        <time>2014-09-20T10:11:36Z</time>
      </trkpt>
      <trkpt lat="43.22137" lon="0.8788">
        <ele>349.1011225965</ele>
        <time>2014-09-20T10:11:41Z</time>
      </trkpt>
      <trkpt lat="43.22138" lon="0.87888">
        <ele>349.1011225965</ele>
        <time>2014-09-20T10:11:46Z</time>
      </trkpt>
      <trkpt lat="43.22138" lon="0.87895">
        <ele>348.33236180124</ele>
        <time>2014-09-20T10:11:51Z</time>
      </trkpt>
      <trkpt lat="43.22139" lon="0.879">
        <ele>348.33236180124</ele>
        <time>2014-09-20T10:11:56Z</time>
      </trkpt>
      <trkpt lat="43.22142" lon="0.87903">
        <ele>348.33236180124</ele>
        <time>2014-09-20T10:12:01Z</time>
      </trkpt>
      <trkpt lat="43.22147" lon="0.87907">
        <ele>348.2926143682</ele>
        <time>2014-09-20T10:12:06Z</time>
      </trkpt>
      <trkpt lat="43.22153" lon="0.8791">
        <ele>348.2926143682</ele>
        <time>2014-09-20T10:12:11Z</time>
      </trkpt>
      <trkpt lat="43.22157" lon="0.87915">
        <ele>348.20293280389</ele>
        <time>2014-09-20T10:12:16Z</time>
      </trkpt>
      <trkpt lat="43.22161" lon="0.8792">
        <ele>348.20293280389</ele>
        <time>2014-09-20T10:12:21Z</time>
      </trkpt>
      <trkpt lat="43.22166" lon="0.87923">
        <ele>348.35113428651</ele>
        <time>2014-09-20T10:12:26Z</time>
      </trkpt>
      <trkpt lat="43.2217" lon="0.87928">
        <ele>348.35113428651</ele>
        <time>2014-09-20T10:12:31Z</time>
      </trkpt>
      <trkpt lat="43.22174" lon="0.87932">
        <ele>348.13780436772</ele>
        <time>2014-09-20T10:12:36Z</time>
      </trkpt>
      <trkpt lat="43.22178" lon="0.87936">
        <ele>348.13780436772</ele>
        <time>2014-09-20T10:12:41Z</time>
      </trkpt>
      <trkpt lat="43.22181" lon="0.8794">
        <ele>347.64314622874</ele>
        <time>2014-09-20T10:12:46Z</time>
      </trkpt>
      <trkpt lat="43.22187" lon="0.87945">
        <ele>347.64314622874</ele>
        <time>2014-09-20T10:12:51Z</time>
      </trkpt>
      <trkpt lat="43.22191" lon="0.87949">
        <ele>347.15862327354</ele>
        <time>2014-09-20T10:12:56Z</time>
      </trkpt>
      <trkpt lat="43.22196" lon="0.87952">
        <ele>347.15862327354</ele>
        <time>2014-09-20T10:13:01Z</time>
      </trkpt>
      <trkpt lat="43.222" lon="0.87956">
        <ele>346.60808086778</ele>
        <time>2014-09-20T10:13:06Z</time>
      </trkpt>
      <trkpt lat="43.22204" lon="0.87961">
        <ele>346.60808086778</ele>
        <time>2014-09-20T10:13:11Z</time>
      </trkpt>
      <trkpt lat="43.22208" lon="0.87964">
        <ele>346.3106144698</ele>
        <time>2014-09-20T10:13:16Z</time>
      </trkpt>
      <trkpt lat="43.22208" lon="0.87967">
        <ele>346.3106144698</ele>
        <time>2014-09-20T10:13:21Z</time>
      </trkpt>
      <trkpt lat="43.22207" lon="0.87967">
        <ele>346.3106144698</ele>
        <time>2014-09-20T10:13:26Z</time>
      </trkpt>
      <trkpt lat="43.22208" lon="0.87967">
        <ele>346.3106144698</ele>
        <time>2014-09-20T10:13:31Z</time>
      </trkpt>
      <trkpt lat="43.22207" lon="0.87966">
        <ele>346.3106144698</ele>
        <time>2014-09-20T10:13:36Z</time>
      </trkpt>
      <trkpt lat="43.22207" lon="0.87966">
        <ele>346.3106144698</ele>
        <time>2014-09-20T10:13:41Z</time>
      </trkpt>
      <trkpt lat="43.22207" lon="0.87966">
        <ele>346.3106144698</ele>
        <time>2014-09-20T10:13:46Z</time>
      </trkpt>
      <trkpt lat="43.22209" lon="0.87966">
        <ele>346.3106144698</ele>
        <time>2014-09-20T10:13:51Z</time>
      </trkpt>
      <trkpt lat="43.22211" lon="0.87966">
        <ele>346.3106144698</ele>
        <time>2014-09-20T10:13:56Z</time>
      </trkpt>
      <trkpt lat="43.22215" lon="0.87969">
        <ele>346.3303743176</ele>
        <time>2014-09-20T10:14:01Z</time>
      </trkpt>
      <trkpt lat="43.2222" lon="0.8797">
        <ele>346.3303743176</ele>
        <time>2014-09-20T10:14:06Z</time>
      </trkpt>
      <trkpt lat="43.22224" lon="0.87971">
        <ele>346.3303743176</ele>
        <time>2014-09-20T10:14:11Z</time>
      </trkpt>
      <trkpt lat="43.22228" lon="0.87974">
        <ele>346.48070986365</ele>
        <time>2014-09-20T10:14:16Z</time>
      </trkpt>
      <trkpt lat="43.22232" lon="0.87979">
        <ele>346.48070986365</ele>
        <time>2014-09-20T10:14:21Z</time>
      </trkpt>
      <trkpt lat="43.22235" lon="0.87984">
        <ele>346.68933922242</ele>
        <time>2014-09-20T10:14:26Z</time>
      </trkpt>
      <trkpt lat="43.22237" lon="0.87988">
        <ele>346.68933922242</ele>
        <time>2014-09-20T10:14:31Z</time>
      </trkpt>
      <trkpt lat="43.22237" lon="0.87988">
        <ele>346.68933922242</ele>
        <time>2014-09-20T10:14:36Z</time>
      </trkpt>
      <trkpt lat="43.22238" lon="0.87992">
        <ele>346.68933922242</ele>
        <time>2014-09-20T10:14:41Z</time>
      </trkpt>
      <trkpt lat="43.22237" lon="0.87997">
        <ele>346.42763804156</ele>
        <time>2014-09-20T10:14:46Z</time>
      </trkpt>
      <trkpt lat="43.22236" lon="0.88004">
        <ele>346.42763804156</ele>
        <time>2014-09-20T10:14:51Z</time>
      </trkpt>
      <trkpt lat="43.22234" lon="0.88009">
        <ele>346.42763804156</ele>
        <time>2014-09-20T10:14:56Z</time>
      </trkpt>
      <trkpt lat="43.22232" lon="0.88013">
        <ele>346.14478380812</ele>
        <time>2014-09-20T10:15:01Z</time>
      </trkpt>
      <trkpt lat="43.22228" lon="0.88018">
        <ele>346.14478380812</ele>
        <time>2014-09-20T10:15:06Z</time>
      </trkpt>
      <trkpt lat="43.22226" lon="0.88022">
        <ele>346.14478380812</ele>
        <time>2014-09-20T10:15:11Z</time>
      </trkpt>
      <trkpt lat="43.22224" lon="0.88027">
        <ele>346.30027672283</ele>
        <time>2014-09-20T10:15:16Z</time>
      </trkpt>
      <trkpt lat="43.2222" lon="0.88031">
        <ele>346.30027672283</ele>
        <time>2014-09-20T10:15:21Z</time>
      </trkpt>
      <trkpt lat="43.22217" lon="0.88036">
        <ele>346.74174564448</ele>
        <time>2014-09-20T10:15:26Z</time>
      </trkpt>
      <trkpt lat="43.22215" lon="0.8804">
        <ele>346.74174564448</ele>
        <time>2014-09-20T10:15:31Z</time>
      </trkpt>
      <trkpt lat="43.22212" lon="0.88044">
        <ele>346.74174564448</ele>
        <time>2014-09-20T10:15:36Z</time>
      </trkpt>
      <trkpt lat="43.22209" lon="0.88048">
        <ele>347.08216591705</ele>
        <time>2014-09-20T10:15:41Z</time>
      </trkpt>
      <trkpt lat="43.22207" lon="0.88052">
        <ele>347.08216591705</ele>
        <time>2014-09-20T10:15:46Z</time>
      </trkpt>
      <trkpt lat="43.22203" lon="0.88057">
        <ele>347.42485420723</ele>
        <time>2014-09-20T10:15:51Z</time>
      </trkpt>
      <trkpt lat="43.22202" lon="0.88063">
        <ele>347.42485420723</ele>
        <time>2014-09-20T10:15:56Z</time>
      </trkpt>
      <trkpt lat="43.22202" lon="0.88069">
        <ele>348.00980702876</ele>
        <time>2014-09-20T10:16:01Z</time>
      </trkpt>
      <trkpt lat="43.22201" lon="0.88074">
        <ele>348.00980702876</ele>
        <time>2014-09-20T10:16:06Z</time>
      </trkpt>
      <trkpt lat="43.22203" lon="0.88079">
        <ele>348.00980702876</ele>
        <time>2014-09-20T10:16:11Z</time>
      </trkpt>
      <trkpt lat="43.22206" lon="0.88083">
        <ele>348.59736686241</ele>
        <time>2014-09-20T10:16:16Z</time>
      </trkpt>
      <trkpt lat="43.2221" lon="0.88089">
        <ele>348.59736686241</ele>
        <time>2014-09-20T10:16:21Z</time>
      </trkpt>
      <trkpt lat="43.22212" lon="0.88093">
        <ele>349.29725926526</ele>
        <time>2014-09-20T10:16:26Z</time>
      </trkpt>
      <trkpt lat="43.22217" lon="0.881">
        <ele>349.29725926526</ele>
        <time>2014-09-20T10:16:31Z</time>
      </trkpt>
      <trkpt lat="43.22222" lon="0.88105">
        <ele>350.3551106009</ele>
        <time>2014-09-20T10:16:36Z</time>
      </trkpt>
      <trkpt lat="43.22225" lon="0.88109">
        <ele>350.3551106009</ele>
        <time>2014-09-20T10:16:41Z</time>
      </trkpt>
      <trkpt lat="43.22228" lon="0.88113">
        <ele>352.40125332702</ele>
        <time>2014-09-20T10:16:46Z</time>
      </trkpt>
      <trkpt lat="43.2223" lon="0.88116">
        <ele>352.40125332702</ele>
        <time>2014-09-20T10:16:51Z</time>
      </trkpt>
      <trkpt lat="43.22231" lon="0.88122">
        <ele>352.40125332702</ele>
        <time>2014-09-20T10:16:56Z</time>
      </trkpt>
      <trkpt lat="43.22232" lon="0.88128">
        <ele>354.87811420509</ele>
        <time>2014-09-20T10:17:01Z</time>
      </trkpt>
      <trkpt lat="43.22235" lon="0.88131">
        <ele>354.87811420509</ele>
        <time>2014-09-20T10:17:06Z</time>
      </trkpt>
      <trkpt lat="43.22236" lon="0.88133">
        <ele>354.87811420509</ele>
        <time>2014-09-20T10:17:11Z</time>
      </trkpt>
      <trkpt lat="43.22235" lon="0.88136">
        <ele>354.87811420509</ele>
        <time>2014-09-20T10:17:16Z</time>
      </trkpt>
      <trkpt lat="43.22236" lon="0.88145">
        <ele>357.3546318033</ele>
        <time>2014-09-20T10:17:21Z</time>
      </trkpt>
      <trkpt lat="43.22234" lon="0.88154">
        <ele>357.3546318033</ele>
        <time>2014-09-20T10:17:26Z</time>
      </trkpt>
      <trkpt lat="43.22234" lon="0.88161">
        <ele>359.17219410878</ele>
        <time>2014-09-20T10:17:31Z</time>
      </trkpt>
      <trkpt lat="43.22235" lon="0.88162">
        <ele>359.17219410878</ele>
        <time>2014-09-20T10:17:36Z</time>
      </trkpt>
      <trkpt lat="43.22235" lon="0.88165">
        <ele>359.17219410878</ele>
        <time>2014-09-20T10:17:41Z</time>
      </trkpt>
      <trkpt lat="43.22234" lon="0.88164">
        <ele>359.17219410878</ele>
        <time>2014-09-20T10:17:46Z</time>
      </trkpt>
      <trkpt lat="43.22234" lon="0.88164">
        <ele>359.17219410878</ele>
        <time>2014-09-20T10:17:51Z</time>
      </trkpt>
      <trkpt lat="43.22234" lon="0.88164">
        <ele>359.17219410878</ele>
        <time>2014-09-20T10:17:56Z</time>
      </trkpt>
      <trkpt lat="43.22235" lon="0.88164">
        <ele>359.17219410878</ele>
        <time>2014-09-20T10:18:01Z</time>
      </trkpt>
      <trkpt lat="43.22238" lon="0.88165">
        <ele>359.17219410878</ele>
        <time>2014-09-20T10:18:06Z</time>
      </trkpt>
      <trkpt lat="43.22237" lon="0.88165">
        <ele>359.17219410878</ele>
        <time>2014-09-20T10:18:11Z</time>
      </trkpt>
      <trkpt lat="43.22239" lon="0.88166">
        <ele>360.93349925041</ele>
        <time>2014-09-20T10:18:16Z</time>
      </trkpt>
      <trkpt lat="43.22234" lon="0.8817">
        <ele>360.93349925041</ele>
        <time>2014-09-20T10:18:21Z</time>
      </trkpt>
      <trkpt lat="43.22228" lon="0.88175">
        <ele>362.98103369017</ele>
        <time>2014-09-20T10:18:26Z</time>
      </trkpt>
      <trkpt lat="43.22221" lon="0.88179">
        <ele>362.98103369017</ele>
        <time>2014-09-20T10:18:31Z</time>
      </trkpt>
      <trkpt lat="43.22219" lon="0.88183">
        <ele>364.30546341908</ele>
        <time>2014-09-20T10:18:36Z</time>
      </trkpt>
      <trkpt lat="43.22212" lon="0.88185">
        <ele>364.30546341908</ele>
        <time>2014-09-20T10:18:41Z</time>
      </trkpt>
      <trkpt lat="43.22209" lon="0.88191">
        <ele>365.70350238829</ele>
        <time>2014-09-20T10:18:46Z</time>
      </trkpt>
      <trkpt lat="43.22205" lon="0.88198">
        <ele>365.70350238829</ele>
        <time>2014-09-20T10:18:51Z</time>
      </trkpt>
      <trkpt lat="43.22201" lon="0.88203">
        <ele>366.52965698974</ele>
        <time>2014-09-20T10:18:56Z</time>
      </trkpt>
      <trkpt lat="43.22196" lon="0.88208">
        <ele>366.52965698974</ele>
        <time>2014-09-20T10:19:01Z</time>
      </trkpt>
      <trkpt lat="43.22191" lon="0.88215">
        <ele>367.55689263003</ele>
        <time>2014-09-20T10:19:06Z</time>
      </trkpt>
      <trkpt lat="43.22185" lon="0.88219">
        <ele>367.55689263003</ele>
        <time>2014-09-20T10:19:11Z</time>
      </trkpt>
      <trkpt lat="43.2218" lon="0.88223">
        <ele>368.1318410913</ele>
        <time>2014-09-20T10:19:16Z</time>
      </trkpt>
      <trkpt lat="43.22175" lon="0.88228">
        <ele>368.1318410913</ele>
        <time>2014-09-20T10:19:21Z</time>
      </trkpt>
      <trkpt lat="43.22173" lon="0.8823">
        <ele>369.03418599219</ele>
        <time>2014-09-20T10:19:26Z</time>
      </trkpt>
      <trkpt lat="43.2217" lon="0.88233">
        <ele>369.03418599219</ele>
        <time>2014-09-20T10:19:31Z</time>
      </trkpt>
      <trkpt lat="43.22169" lon="0.88236">
        <ele>369.03418599219</ele>
        <time>2014-09-20T10:19:36Z</time>
      </trkpt>
      <trkpt lat="43.22162" lon="0.88241">
        <ele>369.89029747963</ele>
        <time>2014-09-20T10:19:41Z</time>
      </trkpt>
      <trkpt lat="43.22156" lon="0.88245">
        <ele>369.89029747963</ele>
        <time>2014-09-20T10:19:46Z</time>
      </trkpt>
      <trkpt lat="43.22151" lon="0.88249">
        <ele>369.9652276074</ele>
        <time>2014-09-20T10:19:51Z</time>
      </trkpt>
      <trkpt lat="43.22145" lon="0.88253">
        <ele>369.9652276074</ele>
        <time>2014-09-20T10:19:56Z</time>
      </trkpt>
      <trkpt lat="43.22142" lon="0.88259">
        <ele>370.03597594852</ele>
        <time>2014-09-20T10:20:01Z</time>
      </trkpt>
      <trkpt lat="43.22139" lon="0.88265">
        <ele>370.03597594852</ele>
        <time>2014-09-20T10:20:06Z</time>
      </trkpt>
      <trkpt lat="43.22137" lon="0.88271">
        <ele>370.26059514146</ele>
        <time>2014-09-20T10:20:11Z</time>
      </trkpt>
      <trkpt lat="43.22132" lon="0.88275">
        <ele>370.26059514146</ele>
        <time>2014-09-20T10:20:16Z</time>
      </trkpt>
      <trkpt lat="43.22127" lon="0.8828">
        <ele>370.00705668023</ele>
        <time>2014-09-20T10:20:21Z</time>
      </trkpt>
      <trkpt lat="43.22122" lon="0.88283">
        <ele>370.00705668023</ele>
        <time>2014-09-20T10:20:26Z</time>
      </trkpt>
      <trkpt lat="43.22118" lon="0.88288">
        <ele>369.78652681138</ele>
        <time>2014-09-20T10:20:31Z</time>
      </trkpt>
      <trkpt lat="43.22113" lon="0.88292">
        <ele>369.78652681138</ele>
        <time>2014-09-20T10:20:36Z</time>
      </trkpt>
      <trkpt lat="43.22109" lon="0.88296">
        <ele>369.53945733614</ele>
        <time>2014-09-20T10:20:41Z</time>
      </trkpt>
      <trkpt lat="43.22106" lon="0.88302">
        <ele>369.53945733614</ele>
        <time>2014-09-20T10:20:46Z</time>
      </trkpt>
      <trkpt lat="43.22101" lon="0.88307">
        <ele>369.75851452562</ele>
        <time>2014-09-20T10:20:51Z</time>
      </trkpt>
      <trkpt lat="43.22096" lon="0.88311">
        <ele>369.75851452562</ele>
        <time>2014-09-20T10:20:56Z</time>
      </trkpt>
      <trkpt lat="43.22092" lon="0.88316">
        <ele>370.12078522708</ele>
        <time>2014-09-20T10:21:01Z</time>
      </trkpt>
      <trkpt lat="43.22087" lon="0.88318">
        <ele>370.12078522708</ele>
        <time>2014-09-20T10:21:06Z</time>
      </trkpt>
      <trkpt lat="43.22082" lon="0.88323">
        <ele>370.81677691067</ele>
        <time>2014-09-20T10:21:11Z</time>
      </trkpt>
      <trkpt lat="43.22078" lon="0.88329">
        <ele>370.81677691067</ele>
        <time>2014-09-20T10:21:16Z</time>
      </trkpt>
      <trkpt lat="43.22074" lon="0.88335">
        <ele>371.35925827454</ele>
        <time>2014-09-20T10:21:21Z</time>
      </trkpt>
      <trkpt lat="43.2207" lon="0.8834">
        <ele>371.35925827454</ele>
        <time>2014-09-20T10:21:26Z</time>
      </trkpt>
      <trkpt lat="43.22066" lon="0.88345">
        <ele>372.08994634745</ele>
        <time>2014-09-20T10:21:31Z</time>
      </trkpt>
      <trkpt lat="43.22061" lon="0.88349">
        <ele>372.08994634745</ele>
        <time>2014-09-20T10:21:36Z</time>
      </trkpt>
      <trkpt lat="43.22058" lon="0.88353">
        <ele>372.83504475051</ele>
        <time>2014-09-20T10:21:41Z</time>
      </trkpt>
      <trkpt lat="43.22052" lon="0.8836">
        <ele>372.83504475051</ele>
        <time>2014-09-20T10:21:46Z</time>
      </trkpt>
      <trkpt lat="43.22047" lon="0.88365">
        <ele>373.27505449228</ele>
        <time>2014-09-20T10:21:51Z</time>
      </trkpt>
      <trkpt lat="43.22042" lon="0.88369">
        <ele>373.27505449228</ele>
        <time>2014-09-20T10:21:56Z</time>
      </trkpt>
      <trkpt lat="43.22037" lon="0.88375">
        <ele>373.74899516268</ele>
        <time>2014-09-20T10:22:01Z</time>
      </trkpt>
      <trkpt lat="43.22033" lon="0.88378">
        <ele>373.74899516268</ele>
        <time>2014-09-20T10:22:06Z</time>
      </trkpt>
      <trkpt lat="43.22029" lon="0.88383">
        <ele>374.0953992507</ele>
        <time>2014-09-20T10:22:11Z</time>
      </trkpt>
      <trkpt lat="43.22023" lon="0.88389">
        <ele>374.0953992507</ele>
        <time>2014-09-20T10:22:16Z</time>
      </trkpt>
      <trkpt lat="43.22019" lon="0.88393">
        <ele>373.99216193678</ele>
        <time>2014-09-20T10:22:21Z</time>
      </trkpt>
      <trkpt lat="43.22015" lon="0.88396">
        <ele>373.99216193678</ele>
        <time>2014-09-20T10:22:26Z</time>
      </trkpt>
      <trkpt lat="43.2201" lon="0.88399">
        <ele>374.26626944855</ele>
        <time>2014-09-20T10:22:31Z</time>
      </trkpt>
      <trkpt lat="43.22004" lon="0.88403">
        <ele>374.26626944855</ele>
        <time>2014-09-20T10:22:36Z</time>
      </trkpt>
      <trkpt lat="43.21997" lon="0.88405">
        <ele>374.54446284882</ele>
        <time>2014-09-20T10:22:41Z</time>
      </trkpt>
      <trkpt lat="43.21996" lon="0.88409">
        <ele>374.54446284882</ele>
        <time>2014-09-20T10:22:46Z</time>
      </trkpt>
      <trkpt lat="43.22" lon="0.88412">
        <ele>374.54446284882</ele>
        <time>2014-09-20T10:22:51Z</time>
      </trkpt>
      <trkpt lat="43.22003" lon="0.88415">
        <ele>374.7259466604</ele>
        <time>2014-09-20T10:22:56Z</time>
      </trkpt>
      <trkpt lat="43.22007" lon="0.88416">
        <ele>374.7259466604</ele>
        <time>2014-09-20T10:23:01Z</time>
      </trkpt>
      <trkpt lat="43.22011" lon="0.88415">
        <ele>374.7259466604</ele>
        <time>2014-09-20T10:23:06Z</time>
      </trkpt>
      <trkpt lat="43.22013" lon="0.88414">
        <ele>375.09235435827</ele>
        <time>2014-09-20T10:23:11Z</time>
      </trkpt>
      <trkpt lat="43.22016" lon="0.88415">
        <ele>375.09235435827</ele>
        <time>2014-09-20T10:23:16Z</time>
      </trkpt>
      <trkpt lat="43.22021" lon="0.88413">
        <ele>375.09235435827</ele>
        <time>2014-09-20T10:23:21Z</time>
      </trkpt>
      <trkpt lat="43.22026" lon="0.88412">
        <ele>375.14035159994</ele>
        <time>2014-09-20T10:23:26Z</time>
      </trkpt>
      <trkpt lat="43.22031" lon="0.88415">
        <ele>375.14035159994</ele>
        <time>2014-09-20T10:23:31Z</time>
      </trkpt>
      <trkpt lat="43.22036" lon="0.88418">
        <ele>374.79362509229</ele>
        <time>2014-09-20T10:23:36Z</time>
      </trkpt>
      <trkpt lat="43.2204" lon="0.8842">
        <ele>374.79362509229</ele>
        <time>2014-09-20T10:23:41Z</time>
      </trkpt>
      <trkpt lat="43.22043" lon="0.88417">
        <ele>374.79362509229</ele>
        <time>2014-09-20T10:23:46Z</time>
      </trkpt>
      <trkpt lat="43.22046" lon="0.88416">
        <ele>375.75522385519</ele>
        <time>2014-09-20T10:23:51Z</time>
      </trkpt>
      <trkpt lat="43.22051" lon="0.88414">
        <ele>375.75522385519</ele>
        <time>2014-09-20T10:23:56Z</time>
      </trkpt>
      <trkpt lat="43.22058" lon="0.88413">
        <ele>375.70835077955</ele>
        <time>2014-09-20T10:24:01Z</time>
      </trkpt>
      <trkpt lat="43.22065" lon="0.88412">
        <ele>375.70835077955</ele>
        <time>2014-09-20T10:24:06Z</time>
      </trkpt>
      <trkpt lat="43.2207" lon="0.8841">
        <ele>376.24183136045</ele>
        <time>2014-09-20T10:24:11Z</time>
      </trkpt>
      <trkpt lat="43.22071" lon="0.88408">
        <ele>376.24183136045</ele>
        <time>2014-09-20T10:24:16Z</time>
      </trkpt>
      <trkpt lat="43.22075" lon="0.88408">
        <ele>376.24183136045</ele>
        <time>2014-09-20T10:24:21Z</time>
      </trkpt>
      <trkpt lat="43.22079" lon="0.88409">
        <ele>377.12561588755</ele>
        <time>2014-09-20T10:24:26Z</time>
      </trkpt>
      <trkpt lat="43.22083" lon="0.88411">
        <ele>377.12561588755</ele>
        <time>2014-09-20T10:24:31Z</time>
      </trkpt>
      <trkpt lat="43.22087" lon="0.8841">
        <ele>377.12561588755</ele>
        <time>2014-09-20T10:24:36Z</time>
      </trkpt>
      <trkpt lat="43.22091" lon="0.88407">
        <ele>378.20324133726</ele>
        <time>2014-09-20T10:24:41Z</time>
      </trkpt>
      <trkpt lat="43.22096" lon="0.88406">
        <ele>378.20324133726</ele>
        <time>2014-09-20T10:24:46Z</time>
      </trkpt>
      <trkpt lat="43.22098" lon="0.88407">
        <ele>378.20324133726</ele>
        <time>2014-09-20T10:24:51Z</time>
      </trkpt>
      <trkpt lat="43.22103" lon="0.88409">
        <ele>379.61744739606</ele>
        <time>2014-09-20T10:24:56Z</time>
      </trkpt>
      <trkpt lat="43.22109" lon="0.88408">
        <ele>379.61744739606</ele>
        <time>2014-09-20T10:25:01Z</time>
      </trkpt>
      <trkpt lat="43.22113" lon="0.88408">
        <ele>380.73576607854</ele>
        <time>2014-09-20T10:25:06Z</time>
      </trkpt>
      <trkpt lat="43.22117" lon="0.88405">
        <ele>380.73576607854</ele>
        <time>2014-09-20T10:25:11Z</time>
      </trkpt>
      <trkpt lat="43.22123" lon="0.88405">
        <ele>382.51507028189</ele>
        <time>2014-09-20T10:25:16Z</time>
      </trkpt>
      <trkpt lat="43.22128" lon="0.88407">
        <ele>382.51507028189</ele>
        <time>2014-09-20T10:25:21Z</time>
      </trkpt>
      <trkpt lat="43.2213" lon="0.88408">
        <ele>382.51507028189</ele>
        <time>2014-09-20T10:25:26Z</time>
      </trkpt>
      <trkpt lat="43.22131" lon="0.88413">
        <ele>384.90338105208</ele>
        <time>2014-09-20T10:25:31Z</time>
      </trkpt>
      <trkpt lat="43.22135" lon="0.88416">
        <ele>384.90338105208</ele>
        <time>2014-09-20T10:25:36Z</time>
      </trkpt>
      <trkpt lat="43.22139" lon="0.88417">
        <ele>387.18795308409</ele>
        <time>2014-09-20T10:25:41Z</time>
      </trkpt>
      <trkpt lat="43.22145" lon="0.88419">
        <ele>387.18795308409</ele>
        <time>2014-09-20T10:25:46Z</time>
      </trkpt>
      <trkpt lat="43.2215" lon="0.88421">
        <ele>388.85285903772</ele>
        <time>2014-09-20T10:25:51Z</time>
      </trkpt>
      <trkpt lat="43.22161" lon="0.88424">
        <ele>390.27213750628</ele>
        <time>2014-09-20T10:25:56Z</time>
      </trkpt>
      <trkpt lat="43.22167" lon="0.88426">
        <ele>390.27213750628</ele>
        <time>2014-09-20T10:26:01Z</time>
      </trkpt>
      <trkpt lat="43.22172" lon="0.88425">
        <ele>391.11577228916</ele>
        <time>2014-09-20T10:26:06Z</time>
      </trkpt>
      <trkpt lat="43.22176" lon="0.88425">
        <ele>391.11577228916</ele>
        <time>2014-09-20T10:26:11Z</time>
      </trkpt>
      <trkpt lat="43.22181" lon="0.88427">
        <ele>392.27580606675</ele>
        <time>2014-09-20T10:26:16Z</time>
      </trkpt>
      <trkpt lat="43.22185" lon="0.88427">
        <ele>392.27580606675</ele>
        <time>2014-09-20T10:26:21Z</time>
      </trkpt>
      <trkpt lat="43.2219" lon="0.88429">
        <ele>392.27580606675</ele>
        <time>2014-09-20T10:26:26Z</time>
      </trkpt>
      <trkpt lat="43.22194" lon="0.8843">
        <ele>393.59796362105</ele>
        <time>2014-09-20T10:26:31Z</time>
      </trkpt>
      <trkpt lat="43.22199" lon="0.88431">
        <ele>393.59796362105</ele>
        <time>2014-09-20T10:26:36Z</time>
      </trkpt>
      <trkpt lat="43.22204" lon="0.88432">
        <ele>394.3912872844</ele>
        <time>2014-09-20T10:26:41Z</time>
      </trkpt>
      <trkpt lat="43.22208" lon="0.88433">
        <ele>394.3912872844</ele>
        <time>2014-09-20T10:26:46Z</time>
      </trkpt>
      <trkpt lat="43.22212" lon="0.88431">
        <ele>394.3912872844</ele>
        <time>2014-09-20T10:26:51Z</time>
      </trkpt>
      <trkpt lat="43.22217" lon="0.88435">
        <ele>395.2564884622</ele>
        <time>2014-09-20T10:26:56Z</time>
      </trkpt>
      <trkpt lat="43.22221" lon="0.88432">
        <ele>395.2564884622</ele>
        <time>2014-09-20T10:27:01Z</time>
      </trkpt>
      <trkpt lat="43.22225" lon="0.88428">
        <ele>396.79324144975</ele>
        <time>2014-09-20T10:27:06Z</time>
      </trkpt>
      <trkpt lat="43.22227" lon="0.88429">
        <ele>396.79324144975</ele>
        <time>2014-09-20T10:27:11Z</time>
      </trkpt>
      <trkpt lat="43.2223" lon="0.88428">
        <ele>396.79324144975</ele>
        <time>2014-09-20T10:27:16Z</time>
      </trkpt>
      <trkpt lat="43.22233" lon="0.88432">
        <ele>398.57538375609</ele>
        <time>2014-09-20T10:27:21Z</time>
      </trkpt>
      <trkpt lat="43.22239" lon="0.88434">
        <ele>398.57538375609</ele>
        <time>2014-09-20T10:27:26Z</time>
      </trkpt>
      <trkpt lat="43.22246" lon="0.88438">
        <ele>399.76068517627</ele>
        <time>2014-09-20T10:27:31Z</time>
      </trkpt>
      <trkpt lat="43.22253" lon="0.88437">
        <ele>399.76068517627</ele>
        <time>2014-09-20T10:27:36Z</time>
      </trkpt>
      <trkpt lat="43.22258" lon="0.88437">
        <ele>400.44960109072</ele>
        <time>2014-09-20T10:27:41Z</time>
      </trkpt>
      <trkpt lat="43.22262" lon="0.88437">
        <ele>400.44960109072</ele>
        <time>2014-09-20T10:27:46Z</time>
      </trkpt>
      <trkpt lat="43.22265" lon="0.88439">
        <ele>400.44960109072</ele>
        <time>2014-09-20T10:27:51Z</time>
      </trkpt>
      <trkpt lat="43.22269" lon="0.8844">
        <ele>401.28428121561</ele>
        <time>2014-09-20T10:27:56Z</time>
      </trkpt>
      <trkpt lat="43.22272" lon="0.8844">
        <ele>401.28428121561</ele>
        <time>2014-09-20T10:28:01Z</time>
      </trkpt>
      <trkpt lat="43.22276" lon="0.8844">
        <ele>401.28428121561</ele>
        <time>2014-09-20T10:28:06Z</time>
      </trkpt>
      <trkpt lat="43.22279" lon="0.88444">
        <ele>402.51348178725</ele>
        <time>2014-09-20T10:28:11Z</time>
      </trkpt>
      <trkpt lat="43.22282" lon="0.88443">
        <ele>402.51348178725</ele>
        <time>2014-09-20T10:28:16Z</time>
      </trkpt>
      <trkpt lat="43.22286" lon="0.88441">
        <ele>402.51348178725</ele>
        <time>2014-09-20T10:28:21Z</time>
      </trkpt>
      <trkpt lat="43.22289" lon="0.88439">
        <ele>404.4242771838</ele>
        <time>2014-09-20T10:28:26Z</time>
      </trkpt>
      <trkpt lat="43.22294" lon="0.88438">
        <ele>404.4242771838</ele>
        <time>2014-09-20T10:28:31Z</time>
      </trkpt>
      <trkpt lat="43.223" lon="0.88438">
        <ele>405.45057960222</ele>
        <time>2014-09-20T10:28:36Z</time>
      </trkpt>
      <trkpt lat="43.22306" lon="0.8844">
        <ele>405.45057960222</ele>
        <time>2014-09-20T10:28:41Z</time>
      </trkpt>
      <trkpt lat="43.2231" lon="0.88443">
        <ele>405.74351296959</ele>
        <time>2014-09-20T10:28:46Z</time>
      </trkpt>
      <trkpt lat="43.22315" lon="0.88444">
        <ele>405.74351296959</ele>
        <time>2014-09-20T10:28:51Z</time>
      </trkpt>
      <trkpt lat="43.2232" lon="0.88444">
        <ele>406.92955094146</ele>
        <time>2014-09-20T10:28:56Z</time>
      </trkpt>
      <trkpt lat="43.22323" lon="0.88444">
        <ele>406.92955094146</ele>
        <time>2014-09-20T10:29:01Z</time>
      </trkpt>
      <trkpt lat="43.22326" lon="0.88444">
        <ele>406.92955094146</ele>
        <time>2014-09-20T10:29:06Z</time>
      </trkpt>
      <trkpt lat="43.22329" lon="0.88448">
        <ele>409.11534947834</ele>
        <time>2014-09-20T10:29:11Z</time>
      </trkpt>
      <trkpt lat="43.22332" lon="0.88451">
        <ele>409.11534947834</ele>
        <time>2014-09-20T10:29:16Z</time>
      </trkpt>
      <trkpt lat="43.22337" lon="0.88456">
        <ele>411.25849338851</ele>
        <time>2014-09-20T10:29:21Z</time>
      </trkpt>
      <trkpt lat="43.22341" lon="0.88458">
        <ele>411.25849338851</ele>
        <time>2014-09-20T10:29:26Z</time>
      </trkpt>
      <trkpt lat="43.22344" lon="0.88457">
        <ele>411.25849338851</ele>
        <time>2014-09-20T10:29:31Z</time>
      </trkpt>
      <trkpt lat="43.22345" lon="0.88458">
        <ele>413.21474521546</ele>
        <time>2014-09-20T10:29:36Z</time>
      </trkpt>
      <trkpt lat="43.22347" lon="0.88459">
        <ele>413.21474521546</ele>
        <time>2014-09-20T10:29:41Z</time>
      </trkpt>
      <trkpt lat="43.22348" lon="0.8846">
        <ele>413.21474521546</ele>
        <time>2014-09-20T10:29:46Z</time>
      </trkpt>
      <trkpt lat="43.22353" lon="0.8846">
        <ele>413.21474521546</ele>
        <time>2014-09-20T10:29:51Z</time>
      </trkpt>
      <trkpt lat="43.22354" lon="0.88461">
        <ele>413.21474521546</ele>
        <time>2014-09-20T10:29:56Z</time>
      </trkpt>
      <trkpt lat="43.22354" lon="0.88462">
        <ele>414.89427324279</ele>
        <time>2014-09-20T10:30:01Z</time>
      </trkpt>
      <trkpt lat="43.22355" lon="0.88462">
        <ele>414.89427324279</ele>
        <time>2014-09-20T10:30:06Z</time>
      </trkpt>
      <trkpt lat="43.22359" lon="0.88464">
        <ele>414.89427324279</ele>
        <time>2014-09-20T10:30:11Z</time>
      </trkpt>
      <trkpt lat="43.22368" lon="0.88466">
        <ele>416.58936660762</ele>
        <time>2014-09-20T10:30:16Z</time>
      </trkpt>
      <trkpt lat="43.22373" lon="0.88466">
        <ele>416.58936660762</ele>
        <time>2014-09-20T10:30:21Z</time>
      </trkpt>
      <trkpt lat="43.22379" lon="0.88469">
        <ele>419.6084613611</ele>
        <time>2014-09-20T10:30:26Z</time>
      </trkpt>
      <trkpt lat="43.22385" lon="0.88471">
        <ele>419.6084613611</ele>
        <time>2014-09-20T10:30:31Z</time>
      </trkpt>
      <trkpt lat="43.22389" lon="0.88474">
        <ele>418.81932914577</ele>
        <time>2014-09-20T10:30:36Z</time>
      </trkpt>
      <trkpt lat="43.22396" lon="0.88477">
        <ele>418.81932914577</ele>
        <time>2014-09-20T10:30:41Z</time>
      </trkpt>
      <trkpt lat="43.22402" lon="0.88479">
        <ele>419.85350136635</ele>
        <time>2014-09-20T10:30:46Z</time>
      </trkpt>
      <trkpt lat="43.2241" lon="0.88484">
        <ele>419.85350136635</ele>
        <time>2014-09-20T10:30:51Z</time>
      </trkpt>
      <trkpt lat="43.22417" lon="0.88486">
        <ele>421.3378791621</ele>
        <time>2014-09-20T10:30:56Z</time>
      </trkpt>
      <trkpt lat="43.22422" lon="0.88488">
        <ele>421.3378791621</ele>
        <time>2014-09-20T10:31:01Z</time>
      </trkpt>
      <trkpt lat="43.22423" lon="0.88489">
        <ele>421.3378791621</ele>
        <time>2014-09-20T10:31:06Z</time>
      </trkpt>
      <trkpt lat="43.22424" lon="0.88489">
        <ele>421.3378791621</ele>
        <time>2014-09-20T10:31:11Z</time>
      </trkpt>
      <trkpt lat="43.22425" lon="0.8849">
        <ele>423.46895478049</ele>
        <time>2014-09-20T10:31:16Z</time>
      </trkpt>
      <trkpt lat="43.22426" lon="0.88491">
        <ele>423.46895478049</ele>
        <time>2014-09-20T10:31:21Z</time>
      </trkpt>
      <trkpt lat="43.22434" lon="0.88493">
        <ele>424.81297458328</ele>
        <time>2014-09-20T10:31:26Z</time>
      </trkpt>
      <trkpt lat="43.2244" lon="0.88496">
        <ele>424.81297458328</ele>
        <time>2014-09-20T10:31:31Z</time>
      </trkpt>
      <trkpt lat="43.22448" lon="0.88503">
        <ele>425.84515324587</ele>
        <time>2014-09-20T10:31:36Z</time>
      </trkpt>
      <trkpt lat="43.22453" lon="0.8851">
        <ele>425.84515324587</ele>
        <time>2014-09-20T10:31:41Z</time>
      </trkpt>
      <trkpt lat="43.22459" lon="0.88511">
        <ele>426.43027163901</ele>
        <time>2014-09-20T10:31:46Z</time>
      </trkpt>
      <trkpt lat="43.22465" lon="0.88513">
        <ele>426.43027163901</ele>
        <time>2014-09-20T10:31:51Z</time>
      </trkpt>
      <trkpt lat="43.22469" lon="0.88519">
        <ele>426.68932785255</ele>
        <time>2014-09-20T10:31:56Z</time>
      </trkpt>
      <trkpt lat="43.22472" lon="0.8852">
        <ele>426.68932785255</ele>
        <time>2014-09-20T10:32:01Z</time>
      </trkpt>
      <trkpt lat="43.22477" lon="0.88525">
        <ele>427.62887075368</ele>
        <time>2014-09-20T10:32:06Z</time>
      </trkpt>
      <trkpt lat="43.22481" lon="0.88529">
        <ele>427.62887075368</ele>
        <time>2014-09-20T10:32:11Z</time>
      </trkpt>
      <trkpt lat="43.22484" lon="0.88534">
        <ele>428.62322612316</ele>
        <time>2014-09-20T10:32:16Z</time>
      </trkpt>
      <trkpt lat="43.22487" lon="0.88538">
        <ele>428.62322612316</ele>
        <time>2014-09-20T10:32:21Z</time>
      </trkpt>
      <trkpt lat="43.22493" lon="0.88542">
        <ele>429.97162879899</ele>
        <time>2014-09-20T10:32:26Z</time>
      </trkpt>
      <trkpt lat="43.22495" lon="0.88548">
        <ele>429.97162879899</ele>
        <time>2014-09-20T10:32:31Z</time>
      </trkpt>
      <trkpt lat="43.225" lon="0.88553">
        <ele>431.229801154</ele>
        <time>2014-09-20T10:32:36Z</time>
      </trkpt>
      <trkpt lat="43.22504" lon="0.88555">
        <ele>431.229801154</ele>
        <time>2014-09-20T10:32:41Z</time>
      </trkpt>
      <trkpt lat="43.22506" lon="0.88557">
        <ele>431.229801154</ele>
        <time>2014-09-20T10:32:46Z</time>
      </trkpt>
      <trkpt lat="43.22511" lon="0.88563">
        <ele>432.37547206204</ele>
        <time>2014-09-20T10:32:51Z</time>
      </trkpt>
      <trkpt lat="43.22514" lon="0.8857">
        <ele>432.37547206204</ele>
        <time>2014-09-20T10:32:56Z</time>
      </trkpt>
      <trkpt lat="43.22516" lon="0.88576">
        <ele>433.41715912049</ele>
        <time>2014-09-20T10:33:01Z</time>
      </trkpt>
      <trkpt lat="43.22521" lon="0.88581">
        <ele>433.41715912049</ele>
        <time>2014-09-20T10:33:06Z</time>
      </trkpt>
      <trkpt lat="43.22522" lon="0.88586">
        <ele>434.69451536886</ele>
        <time>2014-09-20T10:33:11Z</time>
      </trkpt>
      <trkpt lat="43.22522" lon="0.88592">
        <ele>434.69451536886</ele>
        <time>2014-09-20T10:33:16Z</time>
      </trkpt>
      <trkpt lat="43.22524" lon="0.88595">
        <ele>434.69451536886</ele>
        <time>2014-09-20T10:33:21Z</time>
      </trkpt>
      <trkpt lat="43.22527" lon="0.88598">
        <ele>434.9940129833</ele>
        <time>2014-09-20T10:33:26Z</time>
      </trkpt>
      <trkpt lat="43.22534" lon="0.88604">
        <ele>434.9940129833</ele>
        <time>2014-09-20T10:33:31Z</time>
      </trkpt>
      <trkpt lat="43.22539" lon="0.88612">
        <ele>435.47097680721</ele>
        <time>2014-09-20T10:33:36Z</time>
      </trkpt>
      <trkpt lat="43.22541" lon="0.88619">
        <ele>435.47097680721</ele>
        <time>2014-09-20T10:33:41Z</time>
      </trkpt>
      <trkpt lat="43.22541" lon="0.88625">
        <ele>432.32439910947</ele>
        <time>2014-09-20T10:33:46Z</time>
      </trkpt>
      <trkpt lat="43.22542" lon="0.88629">
        <ele>432.32439910947</ele>
        <time>2014-09-20T10:33:51Z</time>
      </trkpt>
      <trkpt lat="43.22545" lon="0.88631">
        <ele>432.32439910947</ele>
        <time>2014-09-20T10:33:56Z</time>
      </trkpt>
      <trkpt lat="43.22546" lon="0.88629">
        <ele>432.32439910947</ele>
        <time>2014-09-20T10:34:01Z</time>
      </trkpt>
      <trkpt lat="43.22547" lon="0.88634">
        <ele>431.52516020781</ele>
        <time>2014-09-20T10:34:06Z</time>
      </trkpt>
      <trkpt lat="43.22551" lon="0.88636">
        <ele>431.52516020781</ele>
        <time>2014-09-20T10:34:11Z</time>
      </trkpt>
      <trkpt lat="43.22556" lon="0.88637">
        <ele>429.85134925006</ele>
        <time>2014-09-20T10:34:16Z</time>
      </trkpt>
      <trkpt lat="43.22558" lon="0.88632">
        <ele>429.85134925006</ele>
        <time>2014-09-20T10:34:21Z</time>
      </trkpt>
      <trkpt lat="43.22563" lon="0.88637">
        <ele>428.15349203813</ele>
        <time>2014-09-20T10:34:26Z</time>
      </trkpt>
      <trkpt lat="43.22571" lon="0.8864">
        <ele>428.15349203813</ele>
        <time>2014-09-20T10:34:31Z</time>
      </trkpt>
      <trkpt lat="43.22575" lon="0.8864">
        <ele>428.01224070663</ele>
        <time>2014-09-20T10:34:36Z</time>
      </trkpt>
      <trkpt lat="43.22579" lon="0.88641">
        <ele>428.01224070663</ele>
        <time>2014-09-20T10:34:41Z</time>
      </trkpt>
      <trkpt lat="43.22581" lon="0.88642">
        <ele>428.01224070663</ele>
        <time>2014-09-20T10:34:46Z</time>
      </trkpt>
      <trkpt lat="43.2259" lon="0.88641">
        <ele>425.82937273043</ele>
        <time>2014-09-20T10:34:51Z</time>
      </trkpt>
      <trkpt lat="43.22593" lon="0.88641">
        <ele>425.82937273043</ele>
        <time>2014-09-20T10:34:56Z</time>
      </trkpt>
      <trkpt lat="43.22598" lon="0.8864">
        <ele>425.82937273043</ele>
        <time>2014-09-20T10:35:01Z</time>
      </trkpt>
      <trkpt lat="43.226" lon="0.88641">
        <ele>426.89446782997</ele>
        <time>2014-09-20T10:35:06Z</time>
      </trkpt>
      <trkpt lat="43.22604" lon="0.8864">
        <ele>426.89446782997</ele>
        <time>2014-09-20T10:35:11Z</time>
      </trkpt>
      <trkpt lat="43.22611" lon="0.88639">
        <ele>427.06354390569</ele>
        <time>2014-09-20T10:35:16Z</time>
      </trkpt>
      <trkpt lat="43.22617" lon="0.88641">
        <ele>427.06354390569</ele>
        <time>2014-09-20T10:35:21Z</time>
      </trkpt>
      <trkpt lat="43.22622" lon="0.8864">
        <ele>427.97566495037</ele>
        <time>2014-09-20T10:35:26Z</time>
      </trkpt>
      <trkpt lat="43.22625" lon="0.88636">
        <ele>427.97566495037</ele>
        <time>2014-09-20T10:35:31Z</time>
      </trkpt>
      <trkpt lat="43.22625" lon="0.88636">
        <ele>427.97566495037</ele>
        <time>2014-09-20T10:35:36Z</time>
      </trkpt>
      <trkpt lat="43.22626" lon="0.88636">
        <ele>427.97566495037</ele>
        <time>2014-09-20T10:35:41Z</time>
      </trkpt>
      <trkpt lat="43.22632" lon="0.88637">
        <ele>429.40355420304</ele>
        <time>2014-09-20T10:35:46Z</time>
      </trkpt>
      <trkpt lat="43.22636" lon="0.88638">
        <ele>429.40355420304</ele>
        <time>2014-09-20T10:35:51Z</time>
      </trkpt>
      <trkpt lat="43.22643" lon="0.88641">
        <ele>430.86127427986</ele>
        <time>2014-09-20T10:35:56Z</time>
      </trkpt>
      <trkpt lat="43.2265" lon="0.88641">
        <ele>430.86127427986</ele>
        <time>2014-09-20T10:36:01Z</time>
      </trkpt>
      <trkpt lat="43.22653" lon="0.88639">
        <ele>432.25868939772</ele>
        <time>2014-09-20T10:36:06Z</time>
      </trkpt>
      <trkpt lat="43.22657" lon="0.88639">
        <ele>432.25868939772</ele>
        <time>2014-09-20T10:36:11Z</time>
      </trkpt>
      <trkpt lat="43.2266" lon="0.88641">
        <ele>432.25868939772</ele>
        <time>2014-09-20T10:36:16Z</time>
      </trkpt>
      <trkpt lat="43.22666" lon="0.88642">
        <ele>434.39145468509</ele>
        <time>2014-09-20T10:36:21Z</time>
      </trkpt>
      <trkpt lat="43.22668" lon="0.88643">
        <ele>434.39145468509</ele>
        <time>2014-09-20T10:36:26Z</time>
      </trkpt>
      <trkpt lat="43.2267" lon="0.88643">
        <ele>434.39145468509</ele>
        <time>2014-09-20T10:36:31Z</time>
      </trkpt>
      <trkpt lat="43.22672" lon="0.88643">
        <ele>434.39145468509</ele>
        <time>2014-09-20T10:36:36Z</time>
      </trkpt>
      <trkpt lat="43.22673" lon="0.88642">
        <ele>434.39145468509</ele>
        <time>2014-09-20T10:36:41Z</time>
      </trkpt>
      <trkpt lat="43.22677" lon="0.88641">
        <ele>436.539125705</ele>
        <time>2014-09-20T10:36:46Z</time>
      </trkpt>
      <trkpt lat="43.22688" lon="0.88645">
        <ele>438.43759858789</ele>
        <time>2014-09-20T10:36:51Z</time>
      </trkpt>
      <trkpt lat="43.22697" lon="0.88649">
        <ele>439.91488500662</ele>
        <time>2014-09-20T10:36:56Z</time>
      </trkpt>
      <trkpt lat="43.22706" lon="0.88654">
        <ele>441.12982793271</ele>
        <time>2014-09-20T10:37:01Z</time>
      </trkpt>
      <trkpt lat="43.22713" lon="0.88658">
        <ele>441.12982793271</ele>
        <time>2014-09-20T10:37:06Z</time>
      </trkpt>
      <trkpt lat="43.22717" lon="0.88662">
        <ele>442.33119514107</ele>
        <time>2014-09-20T10:37:11Z</time>
      </trkpt>
      <trkpt lat="43.22719" lon="0.88667">
        <ele>442.33119514107</ele>
        <time>2014-09-20T10:37:16Z</time>
      </trkpt>
      <trkpt lat="43.22722" lon="0.88667">
        <ele>442.33119514107</ele>
        <time>2014-09-20T10:37:21Z</time>
      </trkpt>
      <trkpt lat="43.22724" lon="0.8867">
        <ele>443.40363689647</ele>
        <time>2014-09-20T10:37:26Z</time>
      </trkpt>
      <trkpt lat="43.22726" lon="0.88672">
        <ele>443.40363689647</ele>
        <time>2014-09-20T10:37:31Z</time>
      </trkpt>
      <trkpt lat="43.2273" lon="0.88675">
        <ele>443.40363689647</ele>
        <time>2014-09-20T10:37:36Z</time>
      </trkpt>
      <trkpt lat="43.22734" lon="0.88677">
        <ele>444.44238412797</ele>
        <time>2014-09-20T10:37:41Z</time>
      </trkpt>
      <trkpt lat="43.22739" lon="0.88682">
        <ele>444.44238412797</ele>
        <time>2014-09-20T10:37:46Z</time>
      </trkpt>
      <trkpt lat="43.22743" lon="0.88683">
        <ele>444.74314703408</ele>
        <time>2014-09-20T10:37:51Z</time>
      </trkpt>
      <trkpt lat="43.22744" lon="0.88683">
        <ele>444.74314703408</ele>
        <time>2014-09-20T10:37:56Z</time>
      </trkpt>
      <trkpt lat="43.22745" lon="0.88684">
        <ele>444.74314703408</ele>
        <time>2014-09-20T10:38:01Z</time>
      </trkpt>
      <trkpt lat="43.22745" lon="0.88684">
        <ele>444.74314703408</ele>
        <time>2014-09-20T10:38:06Z</time>
      </trkpt>
      <trkpt lat="43.22746" lon="0.88684">
        <ele>444.74314703408</ele>
        <time>2014-09-20T10:38:11Z</time>
      </trkpt>
      <trkpt lat="43.2275" lon="0.88686">
        <ele>444.74314703408</ele>
        <time>2014-09-20T10:38:16Z</time>
      </trkpt>
      <trkpt lat="43.22757" lon="0.88687">
        <ele>445.01008006504</ele>
        <time>2014-09-20T10:38:21Z</time>
      </trkpt>
      <trkpt lat="43.22763" lon="0.88689">
        <ele>445.01008006504</ele>
        <time>2014-09-20T10:38:26Z</time>
      </trkpt>
      <trkpt lat="43.2277" lon="0.8869">
        <ele>445.26160750956</ele>
        <time>2014-09-20T10:38:31Z</time>
      </trkpt>
      <trkpt lat="43.22775" lon="0.88694">
        <ele>445.26160750956</ele>
        <time>2014-09-20T10:38:36Z</time>
      </trkpt>
      <trkpt lat="43.22781" lon="0.88698">
        <ele>446.58125595159</ele>
        <time>2014-09-20T10:38:41Z</time>
      </trkpt>
      <trkpt lat="43.22786" lon="0.88701">
        <ele>446.58125595159</ele>
        <time>2014-09-20T10:38:46Z</time>
      </trkpt>
      <trkpt lat="43.22789" lon="0.88704">
        <ele>448.05327137778</ele>
        <time>2014-09-20T10:38:51Z</time>
      </trkpt>
      <trkpt lat="43.2279" lon="0.88706">
        <ele>448.05327137778</ele>
        <time>2014-09-20T10:38:56Z</time>
      </trkpt>
      <trkpt lat="43.2279" lon="0.88707">
        <ele>448.05327137778</ele>
        <time>2014-09-20T10:39:01Z</time>
      </trkpt>
      <trkpt lat="43.2279" lon="0.88707">
        <ele>448.05327137778</ele>
        <time>2014-09-20T10:39:06Z</time>
      </trkpt>
      <trkpt lat="43.22791" lon="0.88708">
        <ele>448.05327137778</ele>
        <time>2014-09-20T10:39:11Z</time>
      </trkpt>
      <trkpt lat="43.22797" lon="0.88712">
        <ele>449.79428004568</ele>
        <time>2014-09-20T10:39:16Z</time>
      </trkpt>
      <trkpt lat="43.22805" lon="0.88715">
        <ele>449.79428004568</ele>
        <time>2014-09-20T10:39:21Z</time>
      </trkpt>
      <trkpt lat="43.22814" lon="0.88715">
        <ele>451.3351385709</ele>
        <time>2014-09-20T10:39:26Z</time>
      </trkpt>
      <trkpt lat="43.2282" lon="0.88717">
        <ele>451.3351385709</ele>
        <time>2014-09-20T10:39:31Z</time>
      </trkpt>
      <trkpt lat="43.22824" lon="0.88719">
        <ele>452.16967466054</ele>
        <time>2014-09-20T10:39:36Z</time>
      </trkpt>
      <trkpt lat="43.22829" lon="0.88722">
        <ele>452.16967466054</ele>
        <time>2014-09-20T10:39:41Z</time>
      </trkpt>
      <trkpt lat="43.22832" lon="0.88726">
        <ele>452.65232006391</ele>
        <time>2014-09-20T10:39:46Z</time>
      </trkpt>
      <trkpt lat="43.22836" lon="0.88732">
        <ele>452.65232006391</ele>
        <time>2014-09-20T10:39:51Z</time>
      </trkpt>
      <trkpt lat="43.22836" lon="0.88731">
        <ele>452.65232006391</ele>
        <time>2014-09-20T10:39:56Z</time>
      </trkpt>
      <trkpt lat="43.22835" lon="0.88727">
        <ele>452.76659709874</ele>
        <time>2014-09-20T10:40:01Z</time>
      </trkpt>
      <trkpt lat="43.22834" lon="0.88725">
        <ele>452.76659709874</ele>
        <time>2014-09-20T10:40:06Z</time>
      </trkpt>
      <trkpt lat="43.22833" lon="0.88723">
        <ele>452.76659709874</ele>
        <time>2014-09-20T10:40:11Z</time>
      </trkpt>
      <trkpt lat="43.22833" lon="0.88722">
        <ele>452.76659709874</ele>
        <time>2014-09-20T10:40:16Z</time>
      </trkpt>
      <trkpt lat="43.22833" lon="0.88722">
        <ele>452.76659709874</ele>
        <time>2014-09-20T10:40:21Z</time>
      </trkpt>
      <trkpt lat="43.22833" lon="0.88722">
        <ele>452.76659709874</ele>
        <time>2014-09-20T10:40:26Z</time>
      </trkpt>
      <trkpt lat="43.22833" lon="0.88722">
        <ele>452.76659709874</ele>
        <time>2014-09-20T10:40:31Z</time>
      </trkpt>
      <trkpt lat="43.22833" lon="0.88722">
        <ele>452.76659709874</ele>
        <time>2014-09-20T10:40:36Z</time>
      </trkpt>
      <trkpt lat="43.22833" lon="0.88722">
        <ele>452.76659709874</ele>
        <time>2014-09-20T10:40:41Z</time>
      </trkpt>
      <trkpt lat="43.22833" lon="0.88722">
        <ele>452.76659709874</ele>
        <time>2014-09-20T10:40:46Z</time>
      </trkpt>
      <trkpt lat="43.22833" lon="0.88722">
        <ele>452.76659709874</ele>
        <time>2014-09-20T10:40:51Z</time>
      </trkpt>
      <trkpt lat="43.22833" lon="0.88722">
        <ele>452.76659709874</ele>
        <time>2014-09-20T10:40:56Z</time>
      </trkpt>
      <trkpt lat="43.22833" lon="0.88722">
        <ele>452.76659709874</ele>
        <time>2014-09-20T10:41:01Z</time>
      </trkpt>
      <trkpt lat="43.22833" lon="0.88722">
        <ele>452.76659709874</ele>
        <time>2014-09-20T10:41:06Z</time>
      </trkpt>
      <trkpt lat="43.22833" lon="0.88722">
        <ele>452.76659709874</ele>
        <time>2014-09-20T10:41:11Z</time>
      </trkpt>
      <trkpt lat="43.22833" lon="0.88722">
        <ele>452.76659709874</ele>
        <time>2014-09-20T10:41:16Z</time>
      </trkpt>
      <trkpt lat="43.22833" lon="0.88722">
        <ele>452.76659709874</ele>
        <time>2014-09-20T10:41:21Z</time>
      </trkpt>
      <trkpt lat="43.22833" lon="0.88722">
        <ele>452.76659709874</ele>
        <time>2014-09-20T10:41:26Z</time>
      </trkpt>
      <trkpt lat="43.22833" lon="0.88722">
        <ele>452.76659709874</ele>
        <time>2014-09-20T10:41:31Z</time>
      </trkpt>
      <trkpt lat="43.22833" lon="0.88722">
        <ele>452.76659709874</ele>
        <time>2014-09-20T10:41:36Z</time>
      </trkpt>
      <trkpt lat="43.22833" lon="0.88722">
        <ele>452.76659709874</ele>
        <time>2014-09-20T10:41:41Z</time>
      </trkpt>
      <trkpt lat="43.22833" lon="0.88722">
        <ele>452.76659709874</ele>
        <time>2014-09-20T10:41:46Z</time>
      </trkpt>
      <trkpt lat="43.22832" lon="0.88722">
        <ele>452.76659709874</ele>
        <time>2014-09-20T10:41:51Z</time>
      </trkpt>
      <trkpt lat="43.22832" lon="0.88722">
        <ele>452.76659709874</ele>
        <time>2014-09-20T10:41:56Z</time>
      </trkpt>
      <trkpt lat="43.22832" lon="0.88722">
        <ele>452.76659709874</ele>
        <time>2014-09-20T10:42:01Z</time>
      </trkpt>
      <trkpt lat="43.22832" lon="0.88722">
        <ele>452.76659709874</ele>
        <time>2014-09-20T10:42:06Z</time>
      </trkpt>
      <trkpt lat="43.22832" lon="0.88722">
        <ele>452.76659709874</ele>
        <time>2014-09-20T10:42:11Z</time>
      </trkpt>
      <trkpt lat="43.22832" lon="0.88722">
        <ele>452.76659709874</ele>
        <time>2014-09-20T10:42:16Z</time>
      </trkpt>
      <trkpt lat="43.22832" lon="0.88722">
        <ele>452.76659709874</ele>
        <time>2014-09-20T10:42:21Z</time>
      </trkpt>
      <trkpt lat="43.22832" lon="0.88722">
        <ele>452.76659709874</ele>
        <time>2014-09-20T10:42:26Z</time>
      </trkpt>
      <trkpt lat="43.22832" lon="0.88722">
        <ele>452.76659709874</ele>
        <time>2014-09-20T10:42:31Z</time>
      </trkpt>
      <trkpt lat="43.22832" lon="0.88722">
        <ele>452.76659709874</ele>
        <time>2014-09-20T10:42:36Z</time>
      </trkpt>
      <trkpt lat="43.22832" lon="0.88721">
        <ele>452.76659709874</ele>
        <time>2014-09-20T10:42:41Z</time>
      </trkpt>
      <trkpt lat="43.22832" lon="0.88721">
        <ele>452.76659709874</ele>
        <time>2014-09-20T10:42:46Z</time>
      </trkpt>
      <trkpt lat="43.22832" lon="0.88721">
        <ele>452.76659709874</ele>
        <time>2014-09-20T10:42:51Z</time>
      </trkpt>
      <trkpt lat="43.22832" lon="0.88721">
        <ele>452.76659709874</ele>
        <time>2014-09-20T10:42:56Z</time>
      </trkpt>
      <trkpt lat="43.22832" lon="0.88721">
        <ele>452.76659709874</ele>
        <time>2014-09-20T10:43:01Z</time>
      </trkpt>
      <trkpt lat="43.22832" lon="0.88721">
        <ele>452.76659709874</ele>
        <time>2014-09-20T10:43:06Z</time>
      </trkpt>
      <trkpt lat="43.22832" lon="0.88721">
        <ele>452.76659709874</ele>
        <time>2014-09-20T10:43:11Z</time>
      </trkpt>
      <trkpt lat="43.22832" lon="0.88721">
        <ele>452.76659709874</ele>
        <time>2014-09-20T10:43:16Z</time>
      </trkpt>
      <trkpt lat="43.22832" lon="0.88721">
        <ele>452.76659709874</ele>
        <time>2014-09-20T10:43:21Z</time>
      </trkpt>
      <trkpt lat="43.22832" lon="0.88721">
        <ele>452.76659709874</ele>
        <time>2014-09-20T10:43:26Z</time>
      </trkpt>
      <trkpt lat="43.22832" lon="0.88721">
        <ele>452.76659709874</ele>
        <time>2014-09-20T10:43:31Z</time>
      </trkpt>
      <trkpt lat="43.22832" lon="0.88721">
        <ele>452.76659709874</ele>
        <time>2014-09-20T10:43:36Z</time>
      </trkpt>
      <trkpt lat="43.22832" lon="0.88721">
        <ele>452.76659709874</ele>
        <time>2014-09-20T10:43:41Z</time>
      </trkpt>
      <trkpt lat="43.22832" lon="0.88721">
        <ele>452.76659709874</ele>
        <time>2014-09-20T10:43:46Z</time>
      </trkpt>
      <trkpt lat="43.22832" lon="0.88721">
        <ele>452.76659709874</ele>
        <time>2014-09-20T10:43:51Z</time>
      </trkpt>
      <trkpt lat="43.22832" lon="0.88721">
        <ele>452.76659709874</ele>
        <time>2014-09-20T10:43:56Z</time>
      </trkpt>
      <trkpt lat="43.22832" lon="0.88721">
        <ele>452.76659709874</ele>
        <time>2014-09-20T10:44:01Z</time>
      </trkpt>
      <trkpt lat="43.22832" lon="0.88721">
        <ele>452.76659709874</ele>
        <time>2014-09-20T10:44:06Z</time>
      </trkpt>
      <trkpt lat="43.22832" lon="0.88721">
        <ele>452.76659709874</ele>
        <time>2014-09-20T10:44:11Z</time>
      </trkpt>
      <trkpt lat="43.22832" lon="0.88721">
        <ele>452.76659709874</ele>
        <time>2014-09-20T10:44:16Z</time>
      </trkpt>
      <trkpt lat="43.22832" lon="0.88721">
        <ele>452.76659709874</ele>
        <time>2014-09-20T10:44:21Z</time>
      </trkpt>
      <trkpt lat="43.22832" lon="0.88721">
        <ele>452.76659709874</ele>
        <time>2014-09-20T10:44:26Z</time>
      </trkpt>
      <trkpt lat="43.22832" lon="0.88721">
        <ele>452.76659709874</ele>
        <time>2014-09-20T10:44:31Z</time>
      </trkpt>
      <trkpt lat="43.22832" lon="0.88721">
        <ele>452.76659709874</ele>
        <time>2014-09-20T10:44:36Z</time>
      </trkpt>
      <trkpt lat="43.22832" lon="0.88721">
        <ele>452.76659709874</ele>
        <time>2014-09-20T10:44:41Z</time>
      </trkpt>
      <trkpt lat="43.22832" lon="0.88721">
        <ele>452.76659709874</ele>
        <time>2014-09-20T10:44:46Z</time>
      </trkpt>
      <trkpt lat="43.22832" lon="0.88721">
        <ele>452.76659709874</ele>
        <time>2014-09-20T10:44:51Z</time>
      </trkpt>
      <trkpt lat="43.22832" lon="0.88722">
        <ele>452.76659709874</ele>
        <time>2014-09-20T10:44:56Z</time>
      </trkpt>
      <trkpt lat="43.22832" lon="0.88722">
        <ele>452.76659709874</ele>
        <time>2014-09-20T10:45:01Z</time>
      </trkpt>
      <trkpt lat="43.22832" lon="0.88722">
        <ele>452.76659709874</ele>
        <time>2014-09-20T10:45:06Z</time>
      </trkpt>
      <trkpt lat="43.22832" lon="0.88722">
        <ele>452.76659709874</ele>
        <time>2014-09-20T10:45:11Z</time>
      </trkpt>
      <trkpt lat="43.22832" lon="0.88722">
        <ele>452.76659709874</ele>
        <time>2014-09-20T10:45:16Z</time>
      </trkpt>
      <trkpt lat="43.22832" lon="0.88721">
        <ele>452.76659709874</ele>
        <time>2014-09-20T10:45:21Z</time>
      </trkpt>
      <trkpt lat="43.22832" lon="0.88721">
        <ele>452.76659709874</ele>
        <time>2014-09-20T10:45:26Z</time>
      </trkpt>
      <trkpt lat="43.22832" lon="0.88721">
        <ele>452.76659709874</ele>
        <time>2014-09-20T10:45:31Z</time>
      </trkpt>
      <trkpt lat="43.22831" lon="0.88721">
        <ele>452.76659709874</ele>
        <time>2014-09-20T10:45:36Z</time>
      </trkpt>
      <trkpt lat="43.22831" lon="0.88721">
        <ele>452.76659709874</ele>
        <time>2014-09-20T10:45:41Z</time>
      </trkpt>
      <trkpt lat="43.22831" lon="0.88721">
        <ele>452.76659709874</ele>
        <time>2014-09-20T10:45:46Z</time>
      </trkpt>
      <trkpt lat="43.22831" lon="0.88721">
        <ele>452.76659709874</ele>
        <time>2014-09-20T10:45:51Z</time>
      </trkpt>
      <trkpt lat="43.22831" lon="0.88721">
        <ele>452.76659709874</ele>
        <time>2014-09-20T10:45:56Z</time>
      </trkpt>
      <trkpt lat="43.22831" lon="0.88721">
        <ele>452.76659709874</ele>
        <time>2014-09-20T10:46:01Z</time>
      </trkpt>
      <trkpt lat="43.22831" lon="0.88722">
        <ele>452.76659709874</ele>
        <time>2014-09-20T10:46:06Z</time>
      </trkpt>
      <trkpt lat="43.22834" lon="0.88725">
        <ele>453.76645604565</ele>
        <time>2014-09-20T10:46:11Z</time>
      </trkpt>
      <trkpt lat="43.22835" lon="0.88725">
        <ele>453.76645604565</ele>
        <time>2014-09-20T10:46:16Z</time>
      </trkpt>
      <trkpt lat="43.22835" lon="0.88727">
        <ele>453.76645604565</ele>
        <time>2014-09-20T10:46:21Z</time>
      </trkpt>
      <trkpt lat="43.22835" lon="0.88727">
        <ele>453.76645604565</ele>
        <time>2014-09-20T10:46:26Z</time>
      </trkpt>
      <trkpt lat="43.22839" lon="0.8873">
        <ele>453.76645604565</ele>
        <time>2014-09-20T10:46:31Z</time>
      </trkpt>
      <trkpt lat="43.22841" lon="0.88732">
        <ele>454.70722923648</ele>
        <time>2014-09-20T10:46:36Z</time>
      </trkpt>
      <trkpt lat="43.22842" lon="0.88735">
        <ele>454.70722923648</ele>
        <time>2014-09-20T10:46:41Z</time>
      </trkpt>
      <trkpt lat="43.22843" lon="0.88737">
        <ele>454.70722923648</ele>
        <time>2014-09-20T10:46:46Z</time>
      </trkpt>
      <trkpt lat="43.22846" lon="0.88738">
        <ele>454.70722923648</ele>
        <time>2014-09-20T10:46:51Z</time>
      </trkpt>
      <trkpt lat="43.22855" lon="0.88741">
        <ele>455.00203324094</ele>
        <time>2014-09-20T10:46:56Z</time>
      </trkpt>
      <trkpt lat="43.22861" lon="0.88749">
        <ele>455.00203324094</ele>
        <time>2014-09-20T10:47:01Z</time>
      </trkpt>
      <trkpt lat="43.22869" lon="0.88756">
        <ele>455.00239703482</ele>
        <time>2014-09-20T10:47:06Z</time>
      </trkpt>
      <trkpt lat="43.22872" lon="0.88763">
        <ele>455.00239703482</ele>
        <time>2014-09-20T10:47:11Z</time>
      </trkpt>
      <trkpt lat="43.22875" lon="0.88771">
        <ele>455.52482732832</ele>
        <time>2014-09-20T10:47:16Z</time>
      </trkpt>
      <trkpt lat="43.22878" lon="0.88777">
        <ele>455.52482732832</ele>
        <time>2014-09-20T10:47:21Z</time>
      </trkpt>
      <trkpt lat="43.22879" lon="0.88784">
        <ele>456.33001334263</ele>
        <time>2014-09-20T10:47:26Z</time>
      </trkpt>
      <trkpt lat="43.22883" lon="0.88789">
        <ele>456.33001334263</ele>
        <time>2014-09-20T10:47:31Z</time>
      </trkpt>
      <trkpt lat="43.22888" lon="0.8879">
        <ele>456.89278861758</ele>
        <time>2014-09-20T10:47:36Z</time>
      </trkpt>
      <trkpt lat="43.22888" lon="0.88793">
        <ele>456.89278861758</ele>
        <time>2014-09-20T10:47:41Z</time>
      </trkpt>
      <trkpt lat="43.22889" lon="0.88793">
        <ele>456.89278861758</ele>
        <time>2014-09-20T10:47:46Z</time>
      </trkpt>
      <trkpt lat="43.22893" lon="0.88797">
        <ele>456.89278861758</ele>
        <time>2014-09-20T10:47:51Z</time>
      </trkpt>
      <trkpt lat="43.22898" lon="0.88807">
        <ele>457.11633434368</ele>
        <time>2014-09-20T10:47:56Z</time>
      </trkpt>
      <trkpt lat="43.22903" lon="0.88813">
        <ele>457.11633434368</ele>
        <time>2014-09-20T10:48:01Z</time>
      </trkpt>
      <trkpt lat="43.22908" lon="0.8882">
        <ele>458.02154004582</ele>
        <time>2014-09-20T10:48:06Z</time>
      </trkpt>
      <trkpt lat="43.22913" lon="0.88825">
        <ele>458.02154004582</ele>
        <time>2014-09-20T10:48:11Z</time>
      </trkpt>
      <trkpt lat="43.22915" lon="0.88832">
        <ele>459.54359997488</ele>
        <time>2014-09-20T10:48:16Z</time>
      </trkpt>
      <trkpt lat="43.22917" lon="0.88839">
        <ele>459.54359997488</ele>
        <time>2014-09-20T10:48:21Z</time>
      </trkpt>
      <trkpt lat="43.2292" lon="0.88846">
        <ele>460.43901682546</ele>
        <time>2014-09-20T10:48:26Z</time>
      </trkpt>
      <trkpt lat="43.22924" lon="0.88852">
        <ele>460.43901682546</ele>
        <time>2014-09-20T10:48:31Z</time>
      </trkpt>
      <trkpt lat="43.22925" lon="0.88854">
        <ele>460.43901682546</ele>
        <time>2014-09-20T10:48:36Z</time>
      </trkpt>
      <trkpt lat="43.22929" lon="0.88857">
        <ele>460.018543226</ele>
        <time>2014-09-20T10:48:41Z</time>
      </trkpt>
      <trkpt lat="43.22932" lon="0.88861">
        <ele>460.018543226</ele>
        <time>2014-09-20T10:48:46Z</time>
      </trkpt>
      <trkpt lat="43.22932" lon="0.88865">
        <ele>460.018543226</ele>
        <time>2014-09-20T10:48:51Z</time>
      </trkpt>
      <trkpt lat="43.22934" lon="0.88867">
        <ele>460.25565691349</ele>
        <time>2014-09-20T10:48:56Z</time>
      </trkpt>
      <trkpt lat="43.22935" lon="0.88868">
        <ele>460.25565691349</ele>
        <time>2014-09-20T10:49:01Z</time>
      </trkpt>
      <trkpt lat="43.22942" lon="0.88874">
        <ele>460.28212880599</ele>
        <time>2014-09-20T10:49:06Z</time>
      </trkpt>
      <trkpt lat="43.2295" lon="0.88877">
        <ele>460.28212880599</ele>
        <time>2014-09-20T10:49:11Z</time>
      </trkpt>
      <trkpt lat="43.22956" lon="0.88883">
        <ele>460.53343939766</ele>
        <time>2014-09-20T10:49:16Z</time>
      </trkpt>
      <trkpt lat="43.22961" lon="0.88888">
        <ele>460.53343939766</ele>
        <time>2014-09-20T10:49:21Z</time>
      </trkpt>
      <trkpt lat="43.22966" lon="0.88896">
        <ele>460.37482567583</ele>
        <time>2014-09-20T10:49:26Z</time>
      </trkpt>
      <trkpt lat="43.2297" lon="0.88903">
        <ele>460.37482567583</ele>
        <time>2014-09-20T10:49:31Z</time>
      </trkpt>
      <trkpt lat="43.22972" lon="0.8891">
        <ele>460.17041096272</ele>
        <time>2014-09-20T10:49:36Z</time>
      </trkpt>
      <trkpt lat="43.22973" lon="0.88912">
        <ele>460.17041096272</ele>
        <time>2014-09-20T10:49:41Z</time>
      </trkpt>
      <trkpt lat="43.22977" lon="0.88916">
        <ele>460.17041096272</ele>
        <time>2014-09-20T10:49:46Z</time>
      </trkpt>
      <trkpt lat="43.22981" lon="0.8892">
        <ele>459.68122218059</ele>
        <time>2014-09-20T10:49:51Z</time>
      </trkpt>
      <trkpt lat="43.22987" lon="0.88923">
        <ele>459.68122218059</ele>
        <time>2014-09-20T10:49:56Z</time>
      </trkpt>
      <trkpt lat="43.22991" lon="0.8893">
        <ele>458.05251114663</ele>
        <time>2014-09-20T10:50:01Z</time>
      </trkpt>
      <trkpt lat="43.22997" lon="0.88934">
        <ele>458.05251114663</ele>
        <time>2014-09-20T10:50:06Z</time>
      </trkpt>
      <trkpt lat="43.23" lon="0.88937">
        <ele>457.01741270471</ele>
        <time>2014-09-20T10:50:11Z</time>
      </trkpt>
      <trkpt lat="43.23001" lon="0.88939">
        <ele>457.01741270471</ele>
        <time>2014-09-20T10:50:16Z</time>
      </trkpt>
      <trkpt lat="43.23004" lon="0.88942">
        <ele>457.01741270471</ele>
        <time>2014-09-20T10:50:21Z</time>
      </trkpt>
      <trkpt lat="43.2301" lon="0.88948">
        <ele>456.33540048503</ele>
        <time>2014-09-20T10:50:26Z</time>
      </trkpt>
      <trkpt lat="43.23014" lon="0.88958">
        <ele>456.33540048503</ele>
        <time>2014-09-20T10:50:31Z</time>
      </trkpt>
      <trkpt lat="43.23018" lon="0.88965">
        <ele>456.17166009075</ele>
        <time>2014-09-20T10:50:36Z</time>
      </trkpt>
      <trkpt lat="43.23022" lon="0.8897">
        <ele>456.17166009075</ele>
        <time>2014-09-20T10:50:41Z</time>
      </trkpt>
      <trkpt lat="43.23028" lon="0.88977">
        <ele>456.02921521623</ele>
        <time>2014-09-20T10:50:46Z</time>
      </trkpt>
      <trkpt lat="43.23033" lon="0.88983">
        <ele>456.02921521623</ele>
        <time>2014-09-20T10:50:51Z</time>
      </trkpt>
      <trkpt lat="43.23038" lon="0.88987">
        <ele>455.64921594326</ele>
        <time>2014-09-20T10:50:56Z</time>
      </trkpt>
      <trkpt lat="43.23044" lon="0.88991">
        <ele>455.64921594326</ele>
        <time>2014-09-20T10:51:01Z</time>
      </trkpt>
      <trkpt lat="43.23046" lon="0.88995">
        <ele>455.64267114259</ele>
        <time>2014-09-20T10:51:06Z</time>
      </trkpt>
      <trkpt lat="43.2305" lon="0.89001">
        <ele>455.64267114259</ele>
        <time>2014-09-20T10:51:11Z</time>
      </trkpt>
      <trkpt lat="43.23053" lon="0.89003">
        <ele>455.70991205196</ele>
        <time>2014-09-20T10:51:16Z</time>
      </trkpt>
      <trkpt lat="43.23059" lon="0.89003">
        <ele>455.70991205196</ele>
        <time>2014-09-20T10:51:21Z</time>
      </trkpt>
      <trkpt lat="43.23063" lon="0.89001">
        <ele>454.8668520083</ele>
        <time>2014-09-20T10:51:26Z</time>
      </trkpt>
      <trkpt lat="43.23068" lon="0.89001">
        <ele>454.8668520083</ele>
        <time>2014-09-20T10:51:31Z</time>
      </trkpt>
      <trkpt lat="43.23073" lon="0.89004">
        <ele>453.8470343756</ele>
        <time>2014-09-20T10:51:36Z</time>
      </trkpt>
      <trkpt lat="43.23078" lon="0.89008">
        <ele>453.8470343756</ele>
        <time>2014-09-20T10:51:41Z</time>
      </trkpt>
      <trkpt lat="43.23084" lon="0.89011">
        <ele>452.30733837052</ele>
        <time>2014-09-20T10:51:46Z</time>
      </trkpt>
      <trkpt lat="43.23089" lon="0.89014">
        <ele>452.30733837052</ele>
        <time>2014-09-20T10:51:51Z</time>
      </trkpt>
      <trkpt lat="43.23092" lon="0.8902">
        <ele>450.6661828851</ele>
        <time>2014-09-20T10:51:56Z</time>
      </trkpt>
      <trkpt lat="43.23094" lon="0.89023">
        <ele>450.6661828851</ele>
        <time>2014-09-20T10:52:01Z</time>
      </trkpt>
      <trkpt lat="43.23098" lon="0.89028">
        <ele>450.6661828851</ele>
        <time>2014-09-20T10:52:06Z</time>
      </trkpt>
      <trkpt lat="43.23102" lon="0.89032">
        <ele>450.00317064462</ele>
        <time>2014-09-20T10:52:11Z</time>
      </trkpt>
      <trkpt lat="43.23106" lon="0.89037">
        <ele>450.00317064462</ele>
        <time>2014-09-20T10:52:16Z</time>
      </trkpt>
      <trkpt lat="43.23109" lon="0.89041">
        <ele>449.35583815159</ele>
        <time>2014-09-20T10:52:21Z</time>
      </trkpt>
      <trkpt lat="43.23114" lon="0.89041">
        <ele>449.35583815159</ele>
        <time>2014-09-20T10:52:26Z</time>
      </trkpt>
      <trkpt lat="43.23118" lon="0.89043">
        <ele>449.34544097561</ele>
        <time>2014-09-20T10:52:31Z</time>
      </trkpt>
      <trkpt lat="43.23123" lon="0.89045">
        <ele>449.34544097561</ele>
        <time>2014-09-20T10:52:36Z</time>
      </trkpt>
      <trkpt lat="43.23128" lon="0.89049">
        <ele>449.55133836602</ele>
        <time>2014-09-20T10:52:41Z</time>
      </trkpt>
      <trkpt lat="43.23133" lon="0.89052">
        <ele>449.55133836602</ele>
        <time>2014-09-20T10:52:46Z</time>
      </trkpt>
      <trkpt lat="43.23136" lon="0.89058">
        <ele>449.84248167993</ele>
        <time>2014-09-20T10:52:51Z</time>
      </trkpt>
      <trkpt lat="43.23143" lon="0.89063">
        <ele>449.84248167993</ele>
        <time>2014-09-20T10:52:56Z</time>
      </trkpt>
      <trkpt lat="43.23151" lon="0.89064">
        <ele>449.63595804878</ele>
        <time>2014-09-20T10:53:01Z</time>
      </trkpt>
      <trkpt lat="43.23154" lon="0.89068">
        <ele>449.63595804878</ele>
        <time>2014-09-20T10:53:06Z</time>
      </trkpt>
      <trkpt lat="43.23158" lon="0.8907">
        <ele>449.63595804878</ele>
        <time>2014-09-20T10:53:11Z</time>
      </trkpt>
      <trkpt lat="43.23163" lon="0.89072">
        <ele>448.89736903303</ele>
        <time>2014-09-20T10:53:16Z</time>
      </trkpt>
      <trkpt lat="43.23168" lon="0.89075">
        <ele>448.89736903303</ele>
        <time>2014-09-20T10:53:21Z</time>
      </trkpt>
      <trkpt lat="43.23174" lon="0.89078">
        <ele>447.82682531992</ele>
        <time>2014-09-20T10:53:26Z</time>
      </trkpt>
      <trkpt lat="43.23176" lon="0.8908">
        <ele>447.82682531992</ele>
        <time>2014-09-20T10:53:31Z</time>
      </trkpt>
      <trkpt lat="43.23179" lon="0.89085">
        <ele>447.82682531992</ele>
        <time>2014-09-20T10:53:36Z</time>
      </trkpt>
      <trkpt lat="43.23181" lon="0.89086">
        <ele>447.23026001462</ele>
        <time>2014-09-20T10:53:41Z</time>
      </trkpt>
      <trkpt lat="43.23184" lon="0.89088">
        <ele>447.23026001462</ele>
        <time>2014-09-20T10:53:46Z</time>
      </trkpt>
      <trkpt lat="43.2319" lon="0.89091">
        <ele>446.18129585093</ele>
        <time>2014-09-20T10:53:51Z</time>
      </trkpt>
      <trkpt lat="43.23196" lon="0.89096">
        <ele>446.18129585093</ele>
        <time>2014-09-20T10:53:56Z</time>
      </trkpt>
      <trkpt lat="43.23203" lon="0.89097">
        <ele>445.79711044933</ele>
        <time>2014-09-20T10:54:01Z</time>
      </trkpt>
      <trkpt lat="43.23209" lon="0.89101">
        <ele>445.79711044933</ele>
        <time>2014-09-20T10:54:06Z</time>
      </trkpt>
      <trkpt lat="43.23216" lon="0.89103">
        <ele>445.29506031948</ele>
        <time>2014-09-20T10:54:11Z</time>
      </trkpt>
      <trkpt lat="43.23221" lon="0.89106">
        <ele>445.29506031948</ele>
        <time>2014-09-20T10:54:16Z</time>
      </trkpt>
      <trkpt lat="43.23228" lon="0.89108">
        <ele>444.59873801186</ele>
        <time>2014-09-20T10:54:21Z</time>
      </trkpt>
      <trkpt lat="43.23233" lon="0.89108">
        <ele>444.59873801186</ele>
        <time>2014-09-20T10:54:26Z</time>
      </trkpt>
      <trkpt lat="43.23237" lon="0.8911">
        <ele>444.18543077147</ele>
        <time>2014-09-20T10:54:31Z</time>
      </trkpt>
      <trkpt lat="43.23241" lon="0.89113">
        <ele>444.18543077147</ele>
        <time>2014-09-20T10:54:36Z</time>
      </trkpt>
      <trkpt lat="43.23245" lon="0.89116">
        <ele>443.45888672156</ele>
        <time>2014-09-20T10:54:41Z</time>
      </trkpt>
      <trkpt lat="43.23249" lon="0.89118">
        <ele>443.45888672156</ele>
        <time>2014-09-20T10:54:46Z</time>
      </trkpt>
      <trkpt lat="43.23251" lon="0.89118">
        <ele>443.45888672156</ele>
        <time>2014-09-20T10:54:51Z</time>
      </trkpt>
      <trkpt lat="43.23253" lon="0.89119">
        <ele>443.45888672156</ele>
        <time>2014-09-20T10:54:56Z</time>
      </trkpt>
      <trkpt lat="43.23253" lon="0.89119">
        <ele>443.45888672156</ele>
        <time>2014-09-20T10:55:01Z</time>
      </trkpt>
      <trkpt lat="43.23256" lon="0.89121">
        <ele>441.6080491697</ele>
        <time>2014-09-20T10:55:06Z</time>
      </trkpt>
      <trkpt lat="43.23264" lon="0.89124">
        <ele>441.6080491697</ele>
        <time>2014-09-20T10:55:11Z</time>
      </trkpt>
      <trkpt lat="43.23273" lon="0.89127">
        <ele>439.22474252763</ele>
        <time>2014-09-20T10:55:16Z</time>
      </trkpt>
      <trkpt lat="43.23281" lon="0.89133">
        <ele>437.175763031</ele>
        <time>2014-09-20T10:55:21Z</time>
      </trkpt>
      <trkpt lat="43.23286" lon="0.89139">
        <ele>437.175763031</ele>
        <time>2014-09-20T10:55:26Z</time>
      </trkpt>
      <trkpt lat="43.2329" lon="0.89145">
        <ele>434.95178377029</ele>
        <time>2014-09-20T10:55:31Z</time>
      </trkpt>
      <trkpt lat="43.23295" lon="0.89149">
        <ele>434.95178377029</ele>
        <time>2014-09-20T10:55:36Z</time>
      </trkpt>
      <trkpt lat="43.23299" lon="0.89152">
        <ele>433.49356594716</ele>
        <time>2014-09-20T10:55:41Z</time>
      </trkpt>
      <trkpt lat="43.23305" lon="0.89153">
        <ele>433.49356594716</ele>
        <time>2014-09-20T10:55:46Z</time>
      </trkpt>
      <trkpt lat="43.23309" lon="0.89153">
        <ele>431.95557841727</ele>
        <time>2014-09-20T10:55:51Z</time>
      </trkpt>
      <trkpt lat="43.23312" lon="0.89154">
        <ele>431.95557841727</ele>
        <time>2014-09-20T10:55:56Z</time>
      </trkpt>
      <trkpt lat="43.23316" lon="0.89159">
        <ele>431.95557841727</ele>
        <time>2014-09-20T10:56:01Z</time>
      </trkpt>
      <trkpt lat="43.2332" lon="0.89159">
        <ele>429.74185185963</ele>
        <time>2014-09-20T10:56:06Z</time>
      </trkpt>
      <trkpt lat="43.23325" lon="0.89157">
        <ele>429.74185185963</ele>
        <time>2014-09-20T10:56:11Z</time>
      </trkpt>
      <trkpt lat="43.2333" lon="0.89157">
        <ele>427.05134649526</ele>
        <time>2014-09-20T10:56:16Z</time>
      </trkpt>
      <trkpt lat="43.23335" lon="0.89157">
        <ele>427.05134649526</ele>
        <time>2014-09-20T10:56:21Z</time>
      </trkpt>
      <trkpt lat="43.23338" lon="0.8916">
        <ele>427.05134649526</ele>
        <time>2014-09-20T10:56:26Z</time>
      </trkpt>
      <trkpt lat="43.23343" lon="0.89163">
        <ele>425.77012961201</ele>
        <time>2014-09-20T10:56:31Z</time>
      </trkpt>
      <trkpt lat="43.23348" lon="0.89166">
        <ele>425.77012961201</ele>
        <time>2014-09-20T10:56:36Z</time>
      </trkpt>
      <trkpt lat="43.23347" lon="0.89171">
        <ele>424.29825662355</ele>
        <time>2014-09-20T10:56:41Z</time>
      </trkpt>
      <trkpt lat="43.23348" lon="0.89172">
        <ele>424.29825662355</ele>
        <time>2014-09-20T10:56:46Z</time>
      </trkpt>
      <trkpt lat="43.23349" lon="0.89171">
        <ele>424.29825662355</ele>
        <time>2014-09-20T10:56:51Z</time>
      </trkpt>
      <trkpt lat="43.23349" lon="0.89171">
        <ele>424.29825662355</ele>
        <time>2014-09-20T10:56:56Z</time>
      </trkpt>
      <trkpt lat="43.23349" lon="0.89171">
        <ele>424.29825662355</ele>
        <time>2014-09-20T10:57:01Z</time>
      </trkpt>
      <trkpt lat="43.23349" lon="0.89171">
        <ele>424.29825662355</ele>
        <time>2014-09-20T10:57:06Z</time>
      </trkpt>
      <trkpt lat="43.23353" lon="0.89173">
        <ele>424.29825662355</ele>
        <time>2014-09-20T10:57:11Z</time>
      </trkpt>
      <trkpt lat="43.23357" lon="0.89177">
        <ele>422.71011740347</ele>
        <time>2014-09-20T10:57:16Z</time>
      </trkpt>
      <trkpt lat="43.2336" lon="0.89184">
        <ele>422.71011740347</ele>
        <time>2014-09-20T10:57:21Z</time>
      </trkpt>
      <trkpt lat="43.23364" lon="0.8919">
        <ele>420.80101973961</ele>
        <time>2014-09-20T10:57:26Z</time>
      </trkpt>
      <trkpt lat="43.23368" lon="0.89196">
        <ele>420.80101973961</ele>
        <time>2014-09-20T10:57:31Z</time>
      </trkpt>
      <trkpt lat="43.23372" lon="0.89203">
        <ele>419.33321132296</ele>
        <time>2014-09-20T10:57:36Z</time>
      </trkpt>
      <trkpt lat="43.23375" lon="0.8921">
        <ele>419.33321132296</ele>
        <time>2014-09-20T10:57:41Z</time>
      </trkpt>
      <trkpt lat="43.23378" lon="0.89217">
        <ele>417.87310003528</ele>
        <time>2014-09-20T10:57:46Z</time>
      </trkpt>
      <trkpt lat="43.23382" lon="0.89224">
        <ele>417.87310003528</ele>
        <time>2014-09-20T10:57:51Z</time>
      </trkpt>
      <trkpt lat="43.23386" lon="0.89229">
        <ele>416.95551951143</ele>
        <time>2014-09-20T10:57:56Z</time>
      </trkpt>
      <trkpt lat="43.23388" lon="0.89237">
        <ele>416.95551951143</ele>
        <time>2014-09-20T10:58:01Z</time>
      </trkpt>
      <trkpt lat="43.23386" lon="0.89245">
        <ele>414.95593425759</ele>
        <time>2014-09-20T10:58:06Z</time>
      </trkpt>
      <trkpt lat="43.23387" lon="0.89253">
        <ele>414.95593425759</ele>
        <time>2014-09-20T10:58:11Z</time>
      </trkpt>
      <trkpt lat="43.23387" lon="0.89259">
        <ele>413.7874958715</ele>
        <time>2014-09-20T10:58:16Z</time>
      </trkpt>
      <trkpt lat="43.2339" lon="0.89265">
        <ele>413.7874958715</ele>
        <time>2014-09-20T10:58:21Z</time>
      </trkpt>
      <trkpt lat="43.23392" lon="0.89272">
        <ele>413.5630924166</ele>
        <time>2014-09-20T10:58:26Z</time>
      </trkpt>
      <trkpt lat="43.23395" lon="0.8928">
        <ele>413.5630924166</ele>
        <time>2014-09-20T10:58:31Z</time>
      </trkpt>
      <trkpt lat="43.23397" lon="0.89287">
        <ele>412.46788369189</ele>
        <time>2014-09-20T10:58:36Z</time>
      </trkpt>
      <trkpt lat="43.234" lon="0.89293">
        <ele>412.46788369189</ele>
        <time>2014-09-20T10:58:41Z</time>
      </trkpt>
      <trkpt lat="43.23402" lon="0.89298">
        <ele>410.86906498852</ele>
        <time>2014-09-20T10:58:46Z</time>
      </trkpt>
      <trkpt lat="43.23404" lon="0.89302">
        <ele>410.86906498852</ele>
        <time>2014-09-20T10:58:51Z</time>
      </trkpt>
      <trkpt lat="43.23406" lon="0.89305">
        <ele>410.86906498852</ele>
        <time>2014-09-20T10:58:56Z</time>
      </trkpt>
      <trkpt lat="43.23408" lon="0.89308">
        <ele>408.96406183699</ele>
        <time>2014-09-20T10:59:01Z</time>
      </trkpt>
      <trkpt lat="43.23412" lon="0.89312">
        <ele>408.96406183699</ele>
        <time>2014-09-20T10:59:06Z</time>
      </trkpt>
      <trkpt lat="43.23418" lon="0.89318">
        <ele>407.25360700964</ele>
        <time>2014-09-20T10:59:11Z</time>
      </trkpt>
      <trkpt lat="43.23422" lon="0.89319">
        <ele>407.25360700964</ele>
        <time>2014-09-20T10:59:16Z</time>
      </trkpt>
      <trkpt lat="43.23424" lon="0.89321">
        <ele>407.25360700964</ele>
        <time>2014-09-20T10:59:21Z</time>
      </trkpt>
      <trkpt lat="43.23427" lon="0.89323">
        <ele>405.76867871965</ele>
        <time>2014-09-20T10:59:26Z</time>
      </trkpt>
      <trkpt lat="43.23433" lon="0.89323">
        <ele>405.76867871965</ele>
        <time>2014-09-20T10:59:31Z</time>
      </trkpt>
      <trkpt lat="43.23438" lon="0.89325">
        <ele>404.78224625476</ele>
        <time>2014-09-20T10:59:36Z</time>
      </trkpt>
      <trkpt lat="43.23443" lon="0.89329">
        <ele>404.78224625476</ele>
        <time>2014-09-20T10:59:41Z</time>
      </trkpt>
      <trkpt lat="43.23448" lon="0.89335">
        <ele>404.76191051333</ele>
        <time>2014-09-20T10:59:46Z</time>
      </trkpt>
      <trkpt lat="43.23454" lon="0.89338">
        <ele>404.76191051333</ele>
        <time>2014-09-20T10:59:51Z</time>
      </trkpt>
      <trkpt lat="43.23459" lon="0.89341">
        <ele>404.49526820259</ele>
        <time>2014-09-20T10:59:56Z</time>
      </trkpt>
      <trkpt lat="43.23464" lon="0.89346">
        <ele>404.49526820259</ele>
        <time>2014-09-20T11:00:01Z</time>
      </trkpt>
      <trkpt lat="43.23469" lon="0.89351">
        <ele>403.767502099</ele>
        <time>2014-09-20T11:00:06Z</time>
      </trkpt>
      <trkpt lat="43.23472" lon="0.89357">
        <ele>403.767502099</ele>
        <time>2014-09-20T11:00:11Z</time>
      </trkpt>
      <trkpt lat="43.23478" lon="0.89361">
        <ele>402.88520036571</ele>
        <time>2014-09-20T11:00:16Z</time>
      </trkpt>
      <trkpt lat="43.23483" lon="0.89367">
        <ele>402.88520036571</ele>
        <time>2014-09-20T11:00:21Z</time>
      </trkpt>
      <trkpt lat="43.23484" lon="0.89372">
        <ele>401.29696839122</ele>
        <time>2014-09-20T11:00:26Z</time>
      </trkpt>
      <trkpt lat="43.23486" lon="0.89377">
        <ele>401.29696839122</ele>
        <time>2014-09-20T11:00:31Z</time>
      </trkpt>
      <trkpt lat="43.2349" lon="0.89385">
        <ele>400.32406509585</ele>
        <time>2014-09-20T11:00:36Z</time>
      </trkpt>
      <trkpt lat="43.23493" lon="0.89387">
        <ele>400.32406509585</ele>
        <time>2014-09-20T11:00:41Z</time>
      </trkpt>
      <trkpt lat="43.23495" lon="0.89389">
        <ele>400.32406509585</ele>
        <time>2014-09-20T11:00:46Z</time>
      </trkpt>
      <trkpt lat="43.23498" lon="0.89395">
        <ele>399.84869168959</ele>
        <time>2014-09-20T11:00:51Z</time>
      </trkpt>
      <trkpt lat="43.23502" lon="0.89402">
        <ele>399.84869168959</ele>
        <time>2014-09-20T11:00:56Z</time>
      </trkpt>
      <trkpt lat="43.23506" lon="0.89409">
        <ele>399.39999546958</ele>
        <time>2014-09-20T11:01:01Z</time>
      </trkpt>
      <trkpt lat="43.2351" lon="0.89417">
        <ele>399.39999546958</ele>
        <time>2014-09-20T11:01:06Z</time>
      </trkpt>
      <trkpt lat="43.23516" lon="0.89423">
        <ele>399.50715564586</ele>
        <time>2014-09-20T11:01:11Z</time>
      </trkpt>
      <trkpt lat="43.23518" lon="0.89428">
        <ele>399.50715564586</ele>
        <time>2014-09-20T11:01:16Z</time>
      </trkpt>
      <trkpt lat="43.23522" lon="0.89434">
        <ele>399.92393510332</ele>
        <time>2014-09-20T11:01:21Z</time>
      </trkpt>
      <trkpt lat="43.23525" lon="0.8944">
        <ele>399.92393510332</ele>
        <time>2014-09-20T11:01:26Z</time>
      </trkpt>
      <trkpt lat="43.23525" lon="0.89447">
        <ele>400.6374783919</ele>
        <time>2014-09-20T11:01:31Z</time>
      </trkpt>
      <trkpt lat="43.23526" lon="0.89455">
        <ele>400.6374783919</ele>
        <time>2014-09-20T11:01:36Z</time>
      </trkpt>
      <trkpt lat="43.23526" lon="0.89464">
        <ele>401.13066067729</ele>
        <time>2014-09-20T11:01:41Z</time>
      </trkpt>
      <trkpt lat="43.23526" lon="0.89473">
        <ele>401.13066067729</ele>
        <time>2014-09-20T11:01:46Z</time>
      </trkpt>
      <trkpt lat="43.23526" lon="0.8948">
        <ele>402.03464102779</ele>
        <time>2014-09-20T11:01:51Z</time>
      </trkpt>
      <trkpt lat="43.23528" lon="0.89487">
        <ele>402.03464102779</ele>
        <time>2014-09-20T11:01:56Z</time>
      </trkpt>
      <trkpt lat="43.23527" lon="0.89493">
        <ele>402.96755298072</ele>
        <time>2014-09-20T11:02:01Z</time>
      </trkpt>
      <trkpt lat="43.23526" lon="0.89501">
        <ele>402.96755298072</ele>
        <time>2014-09-20T11:02:06Z</time>
      </trkpt>
      <trkpt lat="43.23528" lon="0.89505">
        <ele>403.54672788424</ele>
        <time>2014-09-20T11:02:11Z</time>
      </trkpt>
      <trkpt lat="43.23532" lon="0.89514">
        <ele>403.54672788424</ele>
        <time>2014-09-20T11:02:16Z</time>
      </trkpt>
      <trkpt lat="43.23537" lon="0.89519">
        <ele>403.92305048314</ele>
        <time>2014-09-20T11:02:21Z</time>
      </trkpt>
      <trkpt lat="43.23538" lon="0.8952">
        <ele>403.92305048314</ele>
        <time>2014-09-20T11:02:26Z</time>
      </trkpt>
      <trkpt lat="43.23539" lon="0.89523">
        <ele>403.92305048314</ele>
        <time>2014-09-20T11:02:31Z</time>
      </trkpt>
      <trkpt lat="43.23541" lon="0.89527">
        <ele>403.92305048314</ele>
        <time>2014-09-20T11:02:36Z</time>
      </trkpt>
      <trkpt lat="43.23544" lon="0.8953">
        <ele>404.13608431042</ele>
        <time>2014-09-20T11:02:41Z</time>
      </trkpt>
      <trkpt lat="43.23549" lon="0.89536">
        <ele>404.13608431042</ele>
        <time>2014-09-20T11:02:46Z</time>
      </trkpt>
      <trkpt lat="43.23554" lon="0.89542">
        <ele>404.82829163817</ele>
        <time>2014-09-20T11:02:51Z</time>
      </trkpt>
      <trkpt lat="43.23559" lon="0.89548">
        <ele>404.82829163817</ele>
        <time>2014-09-20T11:02:56Z</time>
      </trkpt>
      <trkpt lat="43.23566" lon="0.89555">
        <ele>405.46961566097</ele>
        <time>2014-09-20T11:03:01Z</time>
      </trkpt>
      <trkpt lat="43.23568" lon="0.89557">
        <ele>405.46961566097</ele>
        <time>2014-09-20T11:03:06Z</time>
      </trkpt>
      <trkpt lat="43.23569" lon="0.89559">
        <ele>405.46961566097</ele>
        <time>2014-09-20T11:03:11Z</time>
      </trkpt>
      <trkpt lat="43.23571" lon="0.8956">
        <ele>405.46961566097</ele>
        <time>2014-09-20T11:03:16Z</time>
      </trkpt>
      <trkpt lat="43.23577" lon="0.89565">
        <ele>406.08797386078</ele>
        <time>2014-09-20T11:03:21Z</time>
      </trkpt>
      <trkpt lat="43.23583" lon="0.89573">
        <ele>406.08797386078</ele>
        <time>2014-09-20T11:03:26Z</time>
      </trkpt>
      <trkpt lat="43.23587" lon="0.89581">
        <ele>405.98884030205</ele>
        <time>2014-09-20T11:03:31Z</time>
      </trkpt>
      <trkpt lat="43.2359" lon="0.89586">
        <ele>405.98884030205</ele>
        <time>2014-09-20T11:03:36Z</time>
      </trkpt>
      <trkpt lat="43.23593" lon="0.8959">
        <ele>406.08722498326</ele>
        <time>2014-09-20T11:03:41Z</time>
      </trkpt>
      <trkpt lat="43.236" lon="0.89597">
        <ele>406.08722498326</ele>
        <time>2014-09-20T11:03:46Z</time>
      </trkpt>
      <trkpt lat="43.23605" lon="0.89604">
        <ele>405.97670562593</ele>
        <time>2014-09-20T11:03:51Z</time>
      </trkpt>
      <trkpt lat="43.2361" lon="0.89609">
        <ele>405.97670562593</ele>
        <time>2014-09-20T11:03:56Z</time>
      </trkpt>
      <trkpt lat="43.23614" lon="0.89614">
        <ele>405.72815114091</ele>
        <time>2014-09-20T11:04:01Z</time>
      </trkpt>
      <trkpt lat="43.23617" lon="0.89618">
        <ele>405.72815114091</ele>
        <time>2014-09-20T11:04:06Z</time>
      </trkpt>
      <trkpt lat="43.23621" lon="0.89623">
        <ele>405.46535953631</ele>
        <time>2014-09-20T11:04:11Z</time>
      </trkpt>
      <trkpt lat="43.23624" lon="0.8963">
        <ele>405.46535953631</ele>
        <time>2014-09-20T11:04:16Z</time>
      </trkpt>
      <trkpt lat="43.23631" lon="0.89633">
        <ele>405.41846508331</ele>
        <time>2014-09-20T11:04:21Z</time>
      </trkpt>
      <trkpt lat="43.23636" lon="0.8964">
        <ele>405.41846508331</ele>
        <time>2014-09-20T11:04:26Z</time>
      </trkpt>
      <trkpt lat="43.2364" lon="0.89646">
        <ele>406.23252505188</ele>
        <time>2014-09-20T11:04:31Z</time>
      </trkpt>
      <trkpt lat="43.23641" lon="0.89652">
        <ele>406.23252505188</ele>
        <time>2014-09-20T11:04:36Z</time>
      </trkpt>
      <trkpt lat="43.23646" lon="0.89656">
        <ele>407.10501872794</ele>
        <time>2014-09-20T11:04:41Z</time>
      </trkpt>
      <trkpt lat="43.23652" lon="0.89658">
        <ele>407.10501872794</ele>
        <time>2014-09-20T11:04:46Z</time>
      </trkpt>
      <trkpt lat="43.23656" lon="0.89665">
        <ele>407.60936152079</ele>
        <time>2014-09-20T11:04:51Z</time>
      </trkpt>
      <trkpt lat="43.23661" lon="0.89671">
        <ele>407.60936152079</ele>
        <time>2014-09-20T11:04:56Z</time>
      </trkpt>
      <trkpt lat="43.23667" lon="0.89675">
        <ele>408.72050106943</ele>
        <time>2014-09-20T11:05:01Z</time>
      </trkpt>
      <trkpt lat="43.23672" lon="0.89679">
        <ele>408.72050106943</ele>
        <time>2014-09-20T11:05:06Z</time>
      </trkpt>
      <trkpt lat="43.23676" lon="0.89684">
        <ele>409.87024124083</ele>
        <time>2014-09-20T11:05:11Z</time>
      </trkpt>
      <trkpt lat="43.2368" lon="0.89691">
        <ele>409.87024124083</ele>
        <time>2014-09-20T11:05:16Z</time>
      </trkpt>
      <trkpt lat="43.23685" lon="0.89696">
        <ele>410.80594394056</ele>
        <time>2014-09-20T11:05:21Z</time>
      </trkpt>
      <trkpt lat="43.23691" lon="0.897">
        <ele>410.80594394056</ele>
        <time>2014-09-20T11:05:26Z</time>
      </trkpt>
      <trkpt lat="43.23694" lon="0.89701">
        <ele>410.93397071918</ele>
        <time>2014-09-20T11:05:31Z</time>
      </trkpt>
      <trkpt lat="43.23696" lon="0.89702">
        <ele>410.93397071918</ele>
        <time>2014-09-20T11:05:36Z</time>
      </trkpt>
      <trkpt lat="43.23699" lon="0.89702">
        <ele>410.93397071918</ele>
        <time>2014-09-20T11:05:41Z</time>
      </trkpt>
      <trkpt lat="43.23702" lon="0.89699">
        <ele>410.93397071918</ele>
        <time>2014-09-20T11:05:46Z</time>
      </trkpt>
      <trkpt lat="43.23701" lon="0.89701">
        <ele>411.33513389546</ele>
        <time>2014-09-20T11:05:51Z</time>
      </trkpt>
      <trkpt lat="43.23703" lon="0.897">
        <ele>411.33513389546</ele>
        <time>2014-09-20T11:05:56Z</time>
      </trkpt>
      <trkpt lat="43.23708" lon="0.897">
        <ele>411.33513389546</ele>
        <time>2014-09-20T11:06:01Z</time>
      </trkpt>
      <trkpt lat="43.23717" lon="0.89698">
        <ele>410.89176841376</ele>
        <time>2014-09-20T11:06:06Z</time>
      </trkpt>
      <trkpt lat="43.23723" lon="0.89694">
        <ele>410.89176841376</ele>
        <time>2014-09-20T11:06:11Z</time>
      </trkpt>
      <trkpt lat="43.2373" lon="0.89691">
        <ele>410.53070788241</ele>
        <time>2014-09-20T11:06:16Z</time>
      </trkpt>
      <trkpt lat="43.23737" lon="0.89689">
        <ele>410.53070788241</ele>
        <time>2014-09-20T11:06:21Z</time>
      </trkpt>
      <trkpt lat="43.23743" lon="0.89687">
        <ele>410.23150057414</ele>
        <time>2014-09-20T11:06:26Z</time>
      </trkpt>
      <trkpt lat="43.2375" lon="0.89683">
        <ele>410.23150057414</ele>
        <time>2014-09-20T11:06:31Z</time>
      </trkpt>
      <trkpt lat="43.23756" lon="0.89678">
        <ele>410.32099219963</ele>
        <time>2014-09-20T11:06:36Z</time>
      </trkpt>
      <trkpt lat="43.23761" lon="0.89677">
        <ele>410.32099219963</ele>
        <time>2014-09-20T11:06:41Z</time>
      </trkpt>
      <trkpt lat="43.23767" lon="0.89673">
        <ele>410.85603505263</ele>
        <time>2014-09-20T11:06:46Z</time>
      </trkpt>
      <trkpt lat="43.23773" lon="0.89669">
        <ele>410.85603505263</ele>
        <time>2014-09-20T11:06:51Z</time>
      </trkpt>
      <trkpt lat="43.2378" lon="0.89671">
        <ele>411.77285867884</ele>
        <time>2014-09-20T11:06:56Z</time>
      </trkpt>
      <trkpt lat="43.23785" lon="0.89672">
        <ele>411.77285867884</ele>
        <time>2014-09-20T11:07:01Z</time>
      </trkpt>
      <trkpt lat="43.23787" lon="0.89671">
        <ele>411.77285867884</ele>
        <time>2014-09-20T11:07:06Z</time>
      </trkpt>
      <trkpt lat="43.2379" lon="0.89673">
        <ele>411.82968433942</ele>
        <time>2014-09-20T11:07:11Z</time>
      </trkpt>
      <trkpt lat="43.23793" lon="0.89681">
        <ele>411.82968433942</ele>
        <time>2014-09-20T11:07:16Z</time>
      </trkpt>
      <trkpt lat="43.23797" lon="0.89689">
        <ele>412.40040054047</ele>
        <time>2014-09-20T11:07:21Z</time>
      </trkpt>
      <trkpt lat="43.23801" lon="0.89696">
        <ele>412.40040054047</ele>
        <time>2014-09-20T11:07:26Z</time>
      </trkpt>
      <trkpt lat="43.23805" lon="0.89704">
        <ele>412.92640546266</ele>
        <time>2014-09-20T11:07:31Z</time>
      </trkpt>
      <trkpt lat="43.23809" lon="0.89708">
        <ele>412.92640546266</ele>
        <time>2014-09-20T11:07:36Z</time>
      </trkpt>
      <trkpt lat="43.23812" lon="0.89713">
        <ele>414.46115768592</ele>
        <time>2014-09-20T11:07:41Z</time>
      </trkpt>
      <trkpt lat="43.23816" lon="0.8972">
        <ele>414.46115768592</ele>
        <time>2014-09-20T11:07:46Z</time>
      </trkpt>
      <trkpt lat="43.23819" lon="0.89727">
        <ele>415.03812009689</ele>
        <time>2014-09-20T11:07:51Z</time>
      </trkpt>
      <trkpt lat="43.23824" lon="0.89735">
        <ele>415.03812009689</ele>
        <time>2014-09-20T11:07:56Z</time>
      </trkpt>
      <trkpt lat="43.23828" lon="0.89742">
        <ele>415.63374901982</ele>
        <time>2014-09-20T11:08:01Z</time>
      </trkpt>
      <trkpt lat="43.23832" lon="0.89746">
        <ele>415.63374901982</ele>
        <time>2014-09-20T11:08:06Z</time>
      </trkpt>
      <trkpt lat="43.23833" lon="0.89749">
        <ele>415.63374901982</ele>
        <time>2014-09-20T11:08:11Z</time>
      </trkpt>
      <trkpt lat="43.23836" lon="0.89753">
        <ele>415.95668516018</ele>
        <time>2014-09-20T11:08:16Z</time>
      </trkpt>
      <trkpt lat="43.23839" lon="0.89757">
        <ele>415.95668516018</ele>
        <time>2014-09-20T11:08:21Z</time>
      </trkpt>
      <trkpt lat="43.2384" lon="0.89761">
        <ele>415.95668516018</ele>
        <time>2014-09-20T11:08:26Z</time>
      </trkpt>
      <trkpt lat="43.23842" lon="0.89765">
        <ele>415.89634717209</ele>
        <time>2014-09-20T11:08:31Z</time>
      </trkpt>
      <trkpt lat="43.23844" lon="0.89772">
        <ele>415.89634717209</ele>
        <time>2014-09-20T11:08:36Z</time>
      </trkpt>
      <trkpt lat="43.23847" lon="0.89778">
        <ele>415.22173442033</ele>
        <time>2014-09-20T11:08:41Z</time>
      </trkpt>
      <trkpt lat="43.23849" lon="0.89784">
        <ele>415.22173442033</ele>
        <time>2014-09-20T11:08:46Z</time>
      </trkpt>
      <trkpt lat="43.2385" lon="0.8979">
        <ele>415.22173442033</ele>
        <time>2014-09-20T11:08:51Z</time>
      </trkpt>
      <trkpt lat="43.23854" lon="0.89793">
        <ele>414.29705796262</ele>
        <time>2014-09-20T11:08:56Z</time>
      </trkpt>
      <trkpt lat="43.23857" lon="0.89797">
        <ele>414.29705796262</ele>
        <time>2014-09-20T11:09:01Z</time>
      </trkpt>
      <trkpt lat="43.23859" lon="0.89801">
        <ele>414.29705796262</ele>
        <time>2014-09-20T11:09:06Z</time>
      </trkpt>
      <trkpt lat="43.23863" lon="0.89806">
        <ele>413.53259606285</ele>
        <time>2014-09-20T11:09:11Z</time>
      </trkpt>
      <trkpt lat="43.23866" lon="0.8981">
        <ele>413.53259606285</ele>
        <time>2014-09-20T11:09:16Z</time>
      </trkpt>
      <trkpt lat="43.23867" lon="0.89815">
        <ele>413.53259606285</ele>
        <time>2014-09-20T11:09:21Z</time>
      </trkpt>
      <trkpt lat="43.23869" lon="0.89819">
        <ele>412.9478147042</ele>
        <time>2014-09-20T11:09:26Z</time>
      </trkpt>
      <trkpt lat="43.2387" lon="0.89821">
        <ele>412.9478147042</ele>
        <time>2014-09-20T11:09:31Z</time>
      </trkpt>
      <trkpt lat="43.23875" lon="0.89824">
        <ele>412.9478147042</ele>
        <time>2014-09-20T11:09:36Z</time>
      </trkpt>
      <trkpt lat="43.23876" lon="0.89826">
        <ele>412.54587788428</ele>
        <time>2014-09-20T11:09:41Z</time>
      </trkpt>
      <trkpt lat="43.23878" lon="0.8983">
        <ele>412.54587788428</ele>
        <time>2014-09-20T11:09:46Z</time>
      </trkpt>
      <trkpt lat="43.23878" lon="0.89835">
        <ele>412.54587788428</ele>
        <time>2014-09-20T11:09:51Z</time>
      </trkpt>
      <trkpt lat="43.2388" lon="0.8984">
        <ele>411.39251404698</ele>
        <time>2014-09-20T11:09:56Z</time>
      </trkpt>
      <trkpt lat="43.23884" lon="0.8985">
        <ele>411.39251404698</ele>
        <time>2014-09-20T11:10:01Z</time>
      </trkpt>
      <trkpt lat="43.23888" lon="0.89858">
        <ele>409.14301123603</ele>
        <time>2014-09-20T11:10:06Z</time>
      </trkpt>
      <trkpt lat="43.23891" lon="0.89866">
        <ele>409.14301123603</ele>
        <time>2014-09-20T11:10:11Z</time>
      </trkpt>
      <trkpt lat="43.23893" lon="0.89873">
        <ele>406.67718396383</ele>
        <time>2014-09-20T11:10:16Z</time>
      </trkpt>
      <trkpt lat="43.23894" lon="0.89879">
        <ele>406.67718396383</ele>
        <time>2014-09-20T11:10:21Z</time>
      </trkpt>
      <trkpt lat="43.23893" lon="0.89887">
        <ele>404.50817977903</ele>
        <time>2014-09-20T11:10:26Z</time>
      </trkpt>
      <trkpt lat="43.23892" lon="0.89894">
        <ele>404.50817977903</ele>
        <time>2014-09-20T11:10:31Z</time>
      </trkpt>
      <trkpt lat="43.2389" lon="0.899">
        <ele>402.13063387349</ele>
        <time>2014-09-20T11:10:36Z</time>
      </trkpt>
      <trkpt lat="43.23889" lon="0.89904">
        <ele>402.13063387349</ele>
        <time>2014-09-20T11:10:41Z</time>
      </trkpt>
      <trkpt lat="43.23884" lon="0.89909">
        <ele>400.47472298918</ele>
        <time>2014-09-20T11:10:46Z</time>
      </trkpt>
      <trkpt lat="43.23877" lon="0.89919">
        <ele>398.9735083066</ele>
        <time>2014-09-20T11:10:51Z</time>
      </trkpt>
      <trkpt lat="43.23875" lon="0.89922">
        <ele>398.9735083066</ele>
        <time>2014-09-20T11:10:56Z</time>
      </trkpt>
      <trkpt lat="43.23874" lon="0.89928">
        <ele>398.9735083066</ele>
        <time>2014-09-20T11:11:01Z</time>
      </trkpt>
      <trkpt lat="43.23871" lon="0.89934">
        <ele>396.59680124857</ele>
        <time>2014-09-20T11:11:06Z</time>
      </trkpt>
      <trkpt lat="43.23867" lon="0.89945">
        <ele>396.59680124857</ele>
        <time>2014-09-20T11:11:11Z</time>
      </trkpt>
      <trkpt lat="43.23864" lon="0.89957">
        <ele>394.77029602097</ele>
        <time>2014-09-20T11:11:16Z</time>
      </trkpt>
      <trkpt lat="43.23862" lon="0.89964">
        <ele>394.77029602097</ele>
        <time>2014-09-20T11:11:21Z</time>
      </trkpt>
      <trkpt lat="43.23861" lon="0.8997">
        <ele>393.44426343521</ele>
        <time>2014-09-20T11:11:26Z</time>
      </trkpt>
      <trkpt lat="43.23862" lon="0.89976">
        <ele>393.44426343521</ele>
        <time>2014-09-20T11:11:31Z</time>
      </trkpt>
      <trkpt lat="43.23863" lon="0.89983">
        <ele>391.63439936662</ele>
        <time>2014-09-20T11:11:36Z</time>
      </trkpt>
      <trkpt lat="43.23865" lon="0.89986">
        <ele>391.63439936662</ele>
        <time>2014-09-20T11:11:41Z</time>
      </trkpt>
      <trkpt lat="43.23864" lon="0.89986">
        <ele>391.63439936662</ele>
        <time>2014-09-20T11:11:46Z</time>
      </trkpt>
      <trkpt lat="43.23862" lon="0.89988">
        <ele>391.63439936662</ele>
        <time>2014-09-20T11:11:51Z</time>
      </trkpt>
      <trkpt lat="43.23861" lon="0.89988">
        <ele>391.63439936662</ele>
        <time>2014-09-20T11:11:56Z</time>
      </trkpt>
      <trkpt lat="43.23859" lon="0.89986">
        <ele>391.63439936662</ele>
        <time>2014-09-20T11:12:01Z</time>
      </trkpt>
      <trkpt lat="43.23858" lon="0.89986">
        <ele>389.72695519979</ele>
        <time>2014-09-20T11:12:06Z</time>
      </trkpt>
      <trkpt lat="43.23858" lon="0.89986">
        <ele>389.72695519979</ele>
        <time>2014-09-20T11:12:11Z</time>
      </trkpt>
      <trkpt lat="43.23859" lon="0.89984">
        <ele>389.72695519979</ele>
        <time>2014-09-20T11:12:16Z</time>
      </trkpt>
      <trkpt lat="43.23861" lon="0.89984">
        <ele>389.72695519979</ele>
        <time>2014-09-20T11:12:21Z</time>
      </trkpt>
      <trkpt lat="43.23861" lon="0.89984">
        <ele>389.72695519979</ele>
        <time>2014-09-20T11:12:26Z</time>
      </trkpt>
      <trkpt lat="43.23861" lon="0.89984">
        <ele>389.72695519979</ele>
        <time>2014-09-20T11:12:31Z</time>
      </trkpt>
      <trkpt lat="43.23861" lon="0.89984">
        <ele>389.72695519979</ele>
        <time>2014-09-20T11:12:36Z</time>
      </trkpt>
      <trkpt lat="43.23861" lon="0.89984">
        <ele>389.72695519979</ele>
        <time>2014-09-20T11:12:41Z</time>
      </trkpt>
      <trkpt lat="43.23861" lon="0.89984">
        <ele>389.72695519979</ele>
        <time>2014-09-20T11:12:46Z</time>
      </trkpt>
      <trkpt lat="43.23861" lon="0.89984">
        <ele>389.72695519979</ele>
        <time>2014-09-20T11:12:51Z</time>
      </trkpt>
      <trkpt lat="43.23861" lon="0.89984">
        <ele>389.72695519979</ele>
        <time>2014-09-20T11:12:56Z</time>
      </trkpt>
      <trkpt lat="43.23861" lon="0.89984">
        <ele>389.72695519979</ele>
        <time>2014-09-20T11:13:01Z</time>
      </trkpt>
      <trkpt lat="43.23864" lon="0.89986">
        <ele>389.72695519979</ele>
        <time>2014-09-20T11:13:06Z</time>
      </trkpt>
      <trkpt lat="43.23869" lon="0.89991">
        <ele>387.76292318815</ele>
        <time>2014-09-20T11:13:11Z</time>
      </trkpt>
      <trkpt lat="43.23871" lon="0.89996">
        <ele>387.76292318815</ele>
        <time>2014-09-20T11:13:16Z</time>
      </trkpt>
      <trkpt lat="43.23873" lon="0.90001">
        <ele>387.76292318815</ele>
        <time>2014-09-20T11:13:21Z</time>
      </trkpt>
      <trkpt lat="43.23876" lon="0.90006">
        <ele>386.32794631539</ele>
        <time>2014-09-20T11:13:26Z</time>
      </trkpt>
      <trkpt lat="43.23879" lon="0.90012">
        <ele>386.32794631539</ele>
        <time>2014-09-20T11:13:31Z</time>
      </trkpt>
      <trkpt lat="43.23882" lon="0.90018">
        <ele>385.28571722283</ele>
        <time>2014-09-20T11:13:36Z</time>
      </trkpt>
      <trkpt lat="43.23885" lon="0.90024">
        <ele>385.28571722283</ele>
        <time>2014-09-20T11:13:41Z</time>
      </trkpt>
      <trkpt lat="43.23888" lon="0.90031">
        <ele>384.43666035199</ele>
        <time>2014-09-20T11:13:46Z</time>
      </trkpt>
      <trkpt lat="43.23893" lon="0.90038">
        <ele>384.43666035199</ele>
        <time>2014-09-20T11:13:51Z</time>
      </trkpt>
      <trkpt lat="43.23898" lon="0.90044">
        <ele>383.35020696858</ele>
        <time>2014-09-20T11:13:56Z</time>
      </trkpt>
      <trkpt lat="43.23902" lon="0.9005">
        <ele>383.35020696858</ele>
        <time>2014-09-20T11:14:01Z</time>
      </trkpt>
      <trkpt lat="43.23905" lon="0.90059">
        <ele>382.08911886398</ele>
        <time>2014-09-20T11:14:06Z</time>
      </trkpt>
      <trkpt lat="43.23905" lon="0.90063">
        <ele>382.08911886398</ele>
        <time>2014-09-20T11:14:11Z</time>
      </trkpt>
      <trkpt lat="43.23906" lon="0.90068">
        <ele>382.08911886398</ele>
        <time>2014-09-20T11:14:16Z</time>
      </trkpt>
      <trkpt lat="43.2391" lon="0.90076">
        <ele>380.20752948592</ele>
        <time>2014-09-20T11:14:21Z</time>
      </trkpt>
      <trkpt lat="43.23915" lon="0.90082">
        <ele>380.20752948592</ele>
        <time>2014-09-20T11:14:26Z</time>
      </trkpt>
      <trkpt lat="43.2392" lon="0.90088">
        <ele>378.69182690189</ele>
        <time>2014-09-20T11:14:31Z</time>
      </trkpt>
      <trkpt lat="43.23926" lon="0.90096">
        <ele>378.69182690189</ele>
        <time>2014-09-20T11:14:36Z</time>
      </trkpt>
      <trkpt lat="43.2393" lon="0.90104">
        <ele>377.87835239085</ele>
        <time>2014-09-20T11:14:41Z</time>
      </trkpt>
      <trkpt lat="43.23934" lon="0.90111">
        <ele>377.87835239085</ele>
        <time>2014-09-20T11:14:46Z</time>
      </trkpt>
      <trkpt lat="43.23937" lon="0.90116">
        <ele>376.30408669759</ele>
        <time>2014-09-20T11:14:51Z</time>
      </trkpt>
      <trkpt lat="43.2394" lon="0.90123">
        <ele>376.30408669759</ele>
        <time>2014-09-20T11:14:56Z</time>
      </trkpt>
      <trkpt lat="43.23945" lon="0.90131">
        <ele>374.66188104185</ele>
        <time>2014-09-20T11:15:01Z</time>
      </trkpt>
      <trkpt lat="43.23945" lon="0.90133">
        <ele>374.66188104185</ele>
        <time>2014-09-20T11:15:06Z</time>
      </trkpt>
      <trkpt lat="43.23946" lon="0.90143">
        <ele>373.50730151818</ele>
        <time>2014-09-20T11:15:11Z</time>
      </trkpt>
      <trkpt lat="43.23943" lon="0.90152">
        <ele>373.50730151818</ele>
        <time>2014-09-20T11:15:16Z</time>
      </trkpt>
      <trkpt lat="43.23942" lon="0.9016">
        <ele>371.65311158394</ele>
        <time>2014-09-20T11:15:21Z</time>
      </trkpt>
      <trkpt lat="43.2394" lon="0.90165">
        <ele>371.65311158394</ele>
        <time>2014-09-20T11:15:26Z</time>
      </trkpt>
      <trkpt lat="43.23939" lon="0.90169">
        <ele>371.65311158394</ele>
        <time>2014-09-20T11:15:31Z</time>
      </trkpt>
      <trkpt lat="43.23939" lon="0.90177">
        <ele>370.13398581376</ele>
        <time>2014-09-20T11:15:36Z</time>
      </trkpt>
      <trkpt lat="43.23935" lon="0.90184">
        <ele>370.13398581376</ele>
        <time>2014-09-20T11:15:41Z</time>
      </trkpt>
      <trkpt lat="43.23931" lon="0.90192">
        <ele>368.50966435868</ele>
        <time>2014-09-20T11:15:46Z</time>
      </trkpt>
      <trkpt lat="43.2393" lon="0.90198">
        <ele>368.50966435868</ele>
        <time>2014-09-20T11:15:51Z</time>
      </trkpt>
      <trkpt lat="43.23928" lon="0.90205">
        <ele>367.22267157489</ele>
        <time>2014-09-20T11:15:56Z</time>
      </trkpt>
      <trkpt lat="43.23925" lon="0.90213">
        <ele>367.22267157489</ele>
        <time>2014-09-20T11:16:01Z</time>
      </trkpt>
      <trkpt lat="43.23923" lon="0.90221">
        <ele>366.24963868615</ele>
        <time>2014-09-20T11:16:06Z</time>
      </trkpt>
      <trkpt lat="43.23922" lon="0.90226">
        <ele>366.24963868615</ele>
        <time>2014-09-20T11:16:11Z</time>
      </trkpt>
      <trkpt lat="43.23923" lon="0.90228">
        <ele>366.24963868615</ele>
        <time>2014-09-20T11:16:16Z</time>
      </trkpt>
      <trkpt lat="43.23922" lon="0.90233">
        <ele>365.13559710295</ele>
        <time>2014-09-20T11:16:21Z</time>
      </trkpt>
      <trkpt lat="43.2392" lon="0.9024">
        <ele>365.13559710295</ele>
        <time>2014-09-20T11:16:26Z</time>
      </trkpt>
      <trkpt lat="43.2392" lon="0.90249">
        <ele>363.57458602175</ele>
        <time>2014-09-20T11:16:31Z</time>
      </trkpt>
      <trkpt lat="43.2392" lon="0.90258">
        <ele>363.57458602175</ele>
        <time>2014-09-20T11:16:36Z</time>
      </trkpt>
      <trkpt lat="43.23919" lon="0.90266">
        <ele>361.9760132926</ele>
        <time>2014-09-20T11:16:41Z</time>
      </trkpt>
      <trkpt lat="43.23917" lon="0.90276">
        <ele>361.9760132926</ele>
        <time>2014-09-20T11:16:46Z</time>
      </trkpt>
      <trkpt lat="43.23914" lon="0.90283">
        <ele>360.30130331272</ele>
        <time>2014-09-20T11:16:51Z</time>
      </trkpt>
      <trkpt lat="43.23911" lon="0.90287">
        <ele>360.30130331272</ele>
        <time>2014-09-20T11:16:56Z</time>
      </trkpt>
      <trkpt lat="43.23907" lon="0.90292">
        <ele>358.90393859497</ele>
        <time>2014-09-20T11:17:01Z</time>
      </trkpt>
      <trkpt lat="43.23905" lon="0.90297">
        <ele>358.90393859497</ele>
        <time>2014-09-20T11:17:06Z</time>
      </trkpt>
      <trkpt lat="43.23903" lon="0.90302">
        <ele>358.90393859497</ele>
        <time>2014-09-20T11:17:11Z</time>
      </trkpt>
      <trkpt lat="43.23899" lon="0.90309">
        <ele>357.41883573871</ele>
        <time>2014-09-20T11:17:16Z</time>
      </trkpt>
      <trkpt lat="43.23897" lon="0.90317">
        <ele>357.41883573871</ele>
        <time>2014-09-20T11:17:21Z</time>
      </trkpt>
      <trkpt lat="43.23895" lon="0.90325">
        <ele>355.50788997155</ele>
        <time>2014-09-20T11:17:26Z</time>
      </trkpt>
      <trkpt lat="43.23891" lon="0.90331">
        <ele>355.50788997155</ele>
        <time>2014-09-20T11:17:31Z</time>
      </trkpt>
      <trkpt lat="43.23888" lon="0.90339">
        <ele>354.25682246379</ele>
        <time>2014-09-20T11:17:36Z</time>
      </trkpt>
      <trkpt lat="43.23885" lon="0.90346">
        <ele>354.25682246379</ele>
        <time>2014-09-20T11:17:41Z</time>
      </trkpt>
      <trkpt lat="43.23884" lon="0.90351">
        <ele>352.88268678539</ele>
        <time>2014-09-20T11:17:46Z</time>
      </trkpt>
      <trkpt lat="43.23882" lon="0.90358">
        <ele>352.88268678539</ele>
        <time>2014-09-20T11:17:51Z</time>
      </trkpt>
      <trkpt lat="43.23876" lon="0.90362">
        <ele>351.43851787551</ele>
        <time>2014-09-20T11:17:56Z</time>
      </trkpt>
      <trkpt lat="43.2387" lon="0.90366">
        <ele>351.43851787551</ele>
        <time>2014-09-20T11:18:01Z</time>
      </trkpt>
      <trkpt lat="43.23868" lon="0.90372">
        <ele>349.75740812105</ele>
        <time>2014-09-20T11:18:06Z</time>
      </trkpt>
      <trkpt lat="43.23866" lon="0.90378">
        <ele>349.75740812105</ele>
        <time>2014-09-20T11:18:11Z</time>
      </trkpt>
      <trkpt lat="43.23863" lon="0.90387">
        <ele>347.3394339287</ele>
        <time>2014-09-20T11:18:16Z</time>
      </trkpt>
      <trkpt lat="43.23858" lon="0.90396">
        <ele>347.3394339287</ele>
        <time>2014-09-20T11:18:21Z</time>
      </trkpt>
      <trkpt lat="43.23854" lon="0.90401">
        <ele>344.86186609971</ele>
        <time>2014-09-20T11:18:26Z</time>
      </trkpt>
      <trkpt lat="43.2385" lon="0.90412">
        <ele>342.82261422378</ele>
        <time>2014-09-20T11:18:31Z</time>
      </trkpt>
      <trkpt lat="43.23846" lon="0.9042">
        <ele>342.82261422378</ele>
        <time>2014-09-20T11:18:36Z</time>
      </trkpt>
      <trkpt lat="43.23844" lon="0.90426">
        <ele>340.80262525632</ele>
        <time>2014-09-20T11:18:41Z</time>
      </trkpt>
      <trkpt lat="43.23844" lon="0.90428">
        <ele>340.80262525632</ele>
        <time>2014-09-20T11:18:46Z</time>
      </trkpt>
      <trkpt lat="43.2384" lon="0.90434">
        <ele>340.80262525632</ele>
        <time>2014-09-20T11:18:51Z</time>
      </trkpt>
      <trkpt lat="43.23832" lon="0.90441">
        <ele>339.62402988126</ele>
        <time>2014-09-20T11:18:56Z</time>
      </trkpt>
      <trkpt lat="43.2383" lon="0.90453">
        <ele>339.62402988126</ele>
        <time>2014-09-20T11:19:01Z</time>
      </trkpt>
      <trkpt lat="43.23827" lon="0.90463">
        <ele>338.04298144846</ele>
        <time>2014-09-20T11:19:06Z</time>
      </trkpt>
      <trkpt lat="43.23824" lon="0.90469">
        <ele>338.04298144846</ele>
        <time>2014-09-20T11:19:11Z</time>
      </trkpt>
      <trkpt lat="43.2382" lon="0.90477">
        <ele>336.99767176219</ele>
        <time>2014-09-20T11:19:16Z</time>
      </trkpt>
      <trkpt lat="43.23817" lon="0.90481">
        <ele>336.99767176219</ele>
        <time>2014-09-20T11:19:21Z</time>
      </trkpt>
      <trkpt lat="43.23818" lon="0.90486">
        <ele>336.99767176219</ele>
        <time>2014-09-20T11:19:26Z</time>
      </trkpt>
      <trkpt lat="43.23816" lon="0.9049">
        <ele>335.56882221933</ele>
        <time>2014-09-20T11:19:31Z</time>
      </trkpt>
      <trkpt lat="43.23812" lon="0.90497">
        <ele>335.56882221933</ele>
        <time>2014-09-20T11:19:36Z</time>
      </trkpt>
      <trkpt lat="43.23808" lon="0.90504">
        <ele>334.5197409984</ele>
        <time>2014-09-20T11:19:41Z</time>
      </trkpt>
      <trkpt lat="43.23805" lon="0.90511">
        <ele>334.5197409984</ele>
        <time>2014-09-20T11:19:46Z</time>
      </trkpt>
      <trkpt lat="43.23802" lon="0.90514">
        <ele>332.68309441559</ele>
        <time>2014-09-20T11:19:51Z</time>
      </trkpt>
      <trkpt lat="43.23797" lon="0.90516">
        <ele>332.68309441559</ele>
        <time>2014-09-20T11:19:56Z</time>
      </trkpt>
      <trkpt lat="43.23791" lon="0.9052">
        <ele>330.23322093594</ele>
        <time>2014-09-20T11:20:01Z</time>
      </trkpt>
      <trkpt lat="43.23786" lon="0.90525">
        <ele>330.23322093594</ele>
        <time>2014-09-20T11:20:06Z</time>
      </trkpt>
      <trkpt lat="43.2378" lon="0.90529">
        <ele>328.8753087743</ele>
        <time>2014-09-20T11:20:11Z</time>
      </trkpt>
      <trkpt lat="43.23775" lon="0.9053">
        <ele>328.8753087743</ele>
        <time>2014-09-20T11:20:16Z</time>
      </trkpt>
      <trkpt lat="43.23771" lon="0.90532">
        <ele>326.62662205732</ele>
        <time>2014-09-20T11:20:21Z</time>
      </trkpt>
      <trkpt lat="43.23767" lon="0.9053">
        <ele>326.62662205732</ele>
        <time>2014-09-20T11:20:26Z</time>
      </trkpt>
      <trkpt lat="43.23762" lon="0.9053">
        <ele>326.62662205732</ele>
        <time>2014-09-20T11:20:31Z</time>
      </trkpt>
      <trkpt lat="43.23756" lon="0.9053">
        <ele>323.72772042695</ele>
        <time>2014-09-20T11:20:36Z</time>
      </trkpt>
      <trkpt lat="43.23749" lon="0.90533">
        <ele>323.72772042695</ele>
        <time>2014-09-20T11:20:41Z</time>
      </trkpt>
      <trkpt lat="43.23745" lon="0.9054">
        <ele>321.80113847397</ele>
        <time>2014-09-20T11:20:46Z</time>
      </trkpt>
      <trkpt lat="43.23742" lon="0.90545">
        <ele>321.80113847397</ele>
        <time>2014-09-20T11:20:51Z</time>
      </trkpt>
      <trkpt lat="43.23741" lon="0.90558">
        <ele>320.54604693215</ele>
        <time>2014-09-20T11:20:56Z</time>
      </trkpt>
      <trkpt lat="43.23741" lon="0.90571">
        <ele>319.42237590455</ele>
        <time>2014-09-20T11:21:01Z</time>
      </trkpt>
      <trkpt lat="43.23738" lon="0.90575">
        <ele>319.42237590455</ele>
        <time>2014-09-20T11:21:06Z</time>
      </trkpt>
      <trkpt lat="43.23729" lon="0.90572">
        <ele>318.36164148639</ele>
        <time>2014-09-20T11:21:11Z</time>
      </trkpt>
      <trkpt lat="43.23726" lon="0.90578">
        <ele>318.36164148639</ele>
        <time>2014-09-20T11:21:16Z</time>
      </trkpt>
      <trkpt lat="43.23724" lon="0.90587">
        <ele>321.04706519346</ele>
        <time>2014-09-20T11:21:21Z</time>
      </trkpt>
      <trkpt lat="43.23721" lon="0.90595">
        <ele>321.04706519346</ele>
        <time>2014-09-20T11:21:26Z</time>
      </trkpt>
      <trkpt lat="43.23719" lon="0.90603">
        <ele>321.48471944473</ele>
        <time>2014-09-20T11:21:31Z</time>
      </trkpt>
      <trkpt lat="43.23716" lon="0.90607">
        <ele>321.48471944473</ele>
        <time>2014-09-20T11:21:36Z</time>
      </trkpt>
      <trkpt lat="43.23708" lon="0.90606">
        <ele>321.28961034616</ele>
        <time>2014-09-20T11:21:41Z</time>
      </trkpt>
      <trkpt lat="43.23703" lon="0.90613">
        <ele>321.28961034616</ele>
        <time>2014-09-20T11:21:46Z</time>
      </trkpt>
      <trkpt lat="43.23704" lon="0.90622">
        <ele>321.06640318266</ele>
        <time>2014-09-20T11:21:51Z</time>
      </trkpt>
      <trkpt lat="43.23701" lon="0.90627">
        <ele>321.06640318266</ele>
        <time>2014-09-20T11:21:56Z</time>
      </trkpt>
      <trkpt lat="43.23699" lon="0.90633">
        <ele>320.8566501757</ele>
        <time>2014-09-20T11:22:01Z</time>
      </trkpt>
      <trkpt lat="43.23696" lon="0.90639">
        <ele>320.8566501757</ele>
        <time>2014-09-20T11:22:06Z</time>
      </trkpt>
      <trkpt lat="43.23689" lon="0.90644">
        <ele>319.74771510391</ele>
        <time>2014-09-20T11:22:11Z</time>
      </trkpt>
      <trkpt lat="43.2368" lon="0.90647">
        <ele>318.84206830394</ele>
        <time>2014-09-20T11:22:16Z</time>
      </trkpt>
      <trkpt lat="43.23671" lon="0.90652">
        <ele>318.78598109864</ele>
        <time>2014-09-20T11:22:21Z</time>
      </trkpt>
      <trkpt lat="43.23662" lon="0.9066">
        <ele>319.32566384102</ele>
        <time>2014-09-20T11:22:26Z</time>
      </trkpt>
      <trkpt lat="43.2366" lon="0.90658">
        <ele>319.32566384102</ele>
        <time>2014-09-20T11:22:31Z</time>
      </trkpt>
      <trkpt lat="43.23659" lon="0.90659">
        <ele>319.32566384102</ele>
        <time>2014-09-20T11:22:36Z</time>
      </trkpt>
      <trkpt lat="43.23655" lon="0.9066">
        <ele>319.32566384102</ele>
        <time>2014-09-20T11:22:41Z</time>
      </trkpt>
      <trkpt lat="43.23648" lon="0.90662">
        <ele>317.94739883077</ele>
        <time>2014-09-20T11:22:46Z</time>
      </trkpt>
      <trkpt lat="43.23642" lon="0.90661">
        <ele>317.94739883077</ele>
        <time>2014-09-20T11:22:51Z</time>
      </trkpt>
      <trkpt lat="43.23635" lon="0.90662">
        <ele>316.66531147055</ele>
        <time>2014-09-20T11:22:56Z</time>
      </trkpt>
      <trkpt lat="43.23629" lon="0.90662">
        <ele>316.66531147055</ele>
        <time>2014-09-20T11:23:01Z</time>
      </trkpt>
      <trkpt lat="43.23623" lon="0.90662">
        <ele>314.13168200803</ele>
        <time>2014-09-20T11:23:06Z</time>
      </trkpt>
      <trkpt lat="43.23618" lon="0.90664">
        <ele>314.13168200803</ele>
        <time>2014-09-20T11:23:11Z</time>
      </trkpt>
      <trkpt lat="43.2362" lon="0.90664">
        <ele>314.13168200803</ele>
        <time>2014-09-20T11:23:16Z</time>
      </trkpt>
      <trkpt lat="43.2362" lon="0.90666">
        <ele>314.13168200803</ele>
        <time>2014-09-20T11:23:21Z</time>
      </trkpt>
      <trkpt lat="43.2362" lon="0.90667">
        <ele>314.13168200803</ele>
        <time>2014-09-20T11:23:26Z</time>
      </trkpt>
      <trkpt lat="43.2362" lon="0.90667">
        <ele>314.13168200803</ele>
        <time>2014-09-20T11:23:31Z</time>
      </trkpt>
      <trkpt lat="43.2362" lon="0.90667">
        <ele>314.13168200803</ele>
        <time>2014-09-20T11:23:36Z</time>
      </trkpt>
      <trkpt lat="43.2362" lon="0.90667">
        <ele>314.13168200803</ele>
        <time>2014-09-20T11:23:41Z</time>
      </trkpt>
      <trkpt lat="43.2362" lon="0.90667">
        <ele>314.13168200803</ele>
        <time>2014-09-20T11:23:46Z</time>
      </trkpt>
      <trkpt lat="43.2362" lon="0.90667">
        <ele>314.13168200803</ele>
        <time>2014-09-20T11:23:51Z</time>
      </trkpt>
      <trkpt lat="43.2362" lon="0.90667">
        <ele>314.13168200803</ele>
        <time>2014-09-20T11:23:56Z</time>
      </trkpt>
      <trkpt lat="43.2362" lon="0.90667">
        <ele>314.13168200803</ele>
        <time>2014-09-20T11:24:01Z</time>
      </trkpt>
      <trkpt lat="43.23619" lon="0.9067">
        <ele>313.07883035546</ele>
        <time>2014-09-20T11:24:06Z</time>
      </trkpt>
      <trkpt lat="43.23619" lon="0.90672">
        <ele>313.07883035546</ele>
        <time>2014-09-20T11:24:11Z</time>
      </trkpt>
      <trkpt lat="43.2362" lon="0.9067">
        <ele>313.07883035546</ele>
        <time>2014-09-20T11:24:16Z</time>
      </trkpt>
      <trkpt lat="43.2362" lon="0.9067">
        <ele>313.07883035546</ele>
        <time>2014-09-20T11:24:21Z</time>
      </trkpt>
      <trkpt lat="43.23619" lon="0.90671">
        <ele>313.07883035546</ele>
        <time>2014-09-20T11:24:26Z</time>
      </trkpt>
      <trkpt lat="43.23618" lon="0.9067">
        <ele>313.07883035546</ele>
        <time>2014-09-20T11:24:31Z</time>
      </trkpt>
      <trkpt lat="43.23618" lon="0.9067">
        <ele>313.07883035546</ele>
        <time>2014-09-20T11:24:36Z</time>
      </trkpt>
      <trkpt lat="43.23618" lon="0.9067">
        <ele>313.07883035546</ele>
        <time>2014-09-20T11:24:41Z</time>
      </trkpt>
      <trkpt lat="43.23618" lon="0.9067">
        <ele>313.07883035546</ele>
        <time>2014-09-20T11:24:46Z</time>
      </trkpt>
      <trkpt lat="43.23618" lon="0.90671">
        <ele>313.07883035546</ele>
        <time>2014-09-20T11:24:51Z</time>
      </trkpt>
      <trkpt lat="43.23618" lon="0.90671">
        <ele>313.07883035546</ele>
        <time>2014-09-20T11:24:56Z</time>
      </trkpt>
      <trkpt lat="43.23618" lon="0.90671">
        <ele>313.07883035546</ele>
        <time>2014-09-20T11:25:01Z</time>
      </trkpt>
      <trkpt lat="43.23618" lon="0.90671">
        <ele>313.07883035546</ele>
        <time>2014-09-20T11:25:06Z</time>
      </trkpt>
      <trkpt lat="43.23618" lon="0.90671">
        <ele>313.07883035546</ele>
        <time>2014-09-20T11:25:11Z</time>
      </trkpt>
      <trkpt lat="43.23618" lon="0.90671">
        <ele>313.07883035546</ele>
        <time>2014-09-20T11:25:16Z</time>
      </trkpt>
      <trkpt lat="43.23618" lon="0.90671">
        <ele>313.07883035546</ele>
        <time>2014-09-20T11:25:21Z</time>
      </trkpt>
      <trkpt lat="43.23618" lon="0.90671">
        <ele>313.07883035546</ele>
        <time>2014-09-20T11:25:26Z</time>
      </trkpt>
      <trkpt lat="43.23618" lon="0.9067">
        <ele>313.07883035546</ele>
        <time>2014-09-20T11:25:31Z</time>
      </trkpt>
      <trkpt lat="43.23618" lon="0.90671">
        <ele>313.07883035546</ele>
        <time>2014-09-20T11:25:36Z</time>
      </trkpt>
      <trkpt lat="43.23618" lon="0.90671">
        <ele>313.07883035546</ele>
        <time>2014-09-20T11:25:41Z</time>
      </trkpt>
      <trkpt lat="43.23618" lon="0.90671">
        <ele>313.07883035546</ele>
        <time>2014-09-20T11:25:46Z</time>
      </trkpt>
      <trkpt lat="43.23618" lon="0.90671">
        <ele>313.07883035546</ele>
        <time>2014-09-20T11:25:51Z</time>
      </trkpt>
      <trkpt lat="43.23618" lon="0.90671">
        <ele>313.07883035546</ele>
        <time>2014-09-20T11:25:56Z</time>
      </trkpt>
      <trkpt lat="43.23618" lon="0.90671">
        <ele>313.07883035546</ele>
        <time>2014-09-20T11:26:01Z</time>
      </trkpt>
      <trkpt lat="43.23618" lon="0.90671">
        <ele>313.07883035546</ele>
        <time>2014-09-20T11:26:06Z</time>
      </trkpt>
      <trkpt lat="43.23618" lon="0.90671">
        <ele>313.07883035546</ele>
        <time>2014-09-20T11:26:11Z</time>
      </trkpt>
      <trkpt lat="43.23618" lon="0.90671">
        <ele>313.07883035546</ele>
        <time>2014-09-20T11:26:16Z</time>
      </trkpt>
      <trkpt lat="43.23616" lon="0.9068">
        <ele>312.57559326437</ele>
        <time>2014-09-20T11:26:21Z</time>
      </trkpt>
      <trkpt lat="43.23616" lon="0.9069">
        <ele>312.57559326437</ele>
        <time>2014-09-20T11:26:26Z</time>
      </trkpt>
      <trkpt lat="43.23618" lon="0.90695">
        <ele>311.87300765062</ele>
        <time>2014-09-20T11:26:31Z</time>
      </trkpt>
      <trkpt lat="43.23618" lon="0.90703">
        <ele>311.87300765062</ele>
        <time>2014-09-20T11:26:36Z</time>
      </trkpt>
      <trkpt lat="43.23619" lon="0.9071">
        <ele>311.58914983828</ele>
        <time>2014-09-20T11:26:41Z</time>
      </trkpt>
      <trkpt lat="43.2362" lon="0.90718">
        <ele>311.58914983828</ele>
        <time>2014-09-20T11:26:46Z</time>
      </trkpt>
      <trkpt lat="43.23619" lon="0.90726">
        <ele>311.80559398768</ele>
        <time>2014-09-20T11:26:51Z</time>
      </trkpt>
      <trkpt lat="43.23619" lon="0.90733">
        <ele>311.80559398768</ele>
        <time>2014-09-20T11:26:56Z</time>
      </trkpt>
      <trkpt lat="43.23618" lon="0.90743">
        <ele>312.38041146424</ele>
        <time>2014-09-20T11:27:01Z</time>
      </trkpt>
      <trkpt lat="43.23617" lon="0.90751">
        <ele>312.38041146424</ele>
        <time>2014-09-20T11:27:06Z</time>
      </trkpt>
      <trkpt lat="43.23613" lon="0.90756">
        <ele>312.43178245244</ele>
        <time>2014-09-20T11:27:11Z</time>
      </trkpt>
      <trkpt lat="43.23613" lon="0.90762">
        <ele>312.43178245244</ele>
        <time>2014-09-20T11:27:16Z</time>
      </trkpt>
      <trkpt lat="43.23614" lon="0.90772">
        <ele>312.0665178064</ele>
        <time>2014-09-20T11:27:21Z</time>
      </trkpt>
      <trkpt lat="43.23611" lon="0.9078">
        <ele>312.0665178064</ele>
        <time>2014-09-20T11:27:26Z</time>
      </trkpt>
      <trkpt lat="43.2361" lon="0.90787">
        <ele>311.52894020634</ele>
        <time>2014-09-20T11:27:31Z</time>
      </trkpt>
      <trkpt lat="43.23615" lon="0.90788">
        <ele>311.52894020634</ele>
        <time>2014-09-20T11:27:36Z</time>
      </trkpt>
      <trkpt lat="43.23615" lon="0.90792">
        <ele>311.52894020634</ele>
        <time>2014-09-20T11:27:41Z</time>
      </trkpt>
      <trkpt lat="43.23614" lon="0.908">
        <ele>310.13808725667</ele>
        <time>2014-09-20T11:27:46Z</time>
      </trkpt>
      <trkpt lat="43.23612" lon="0.90812">
        <ele>310.13808725667</ele>
        <time>2014-09-20T11:27:51Z</time>
      </trkpt>
      <trkpt lat="43.23611" lon="0.90821">
        <ele>309.11011474415</ele>
        <time>2014-09-20T11:27:56Z</time>
      </trkpt>
      <trkpt lat="43.23606" lon="0.90825">
        <ele>309.11011474415</ele>
        <time>2014-09-20T11:28:01Z</time>
      </trkpt>
      <trkpt lat="43.23603" lon="0.90832">
        <ele>308.77828709618</ele>
        <time>2014-09-20T11:28:06Z</time>
      </trkpt>
      <trkpt lat="43.23602" lon="0.90839">
        <ele>308.77828709618</ele>
        <time>2014-09-20T11:28:11Z</time>
      </trkpt>
      <trkpt lat="43.23604" lon="0.90845">
        <ele>308.62807459911</ele>
        <time>2014-09-20T11:28:16Z</time>
      </trkpt>
      <trkpt lat="43.23609" lon="0.90851">
        <ele>308.62807459911</ele>
        <time>2014-09-20T11:28:21Z</time>
      </trkpt>
      <trkpt lat="43.23614" lon="0.90857">
        <ele>308.48494124643</ele>
        <time>2014-09-20T11:28:26Z</time>
      </trkpt>
      <trkpt lat="43.23618" lon="0.9086">
        <ele>308.48494124643</ele>
        <time>2014-09-20T11:28:31Z</time>
      </trkpt>
      <trkpt lat="43.23625" lon="0.90858">
        <ele>307.8845919432</ele>
        <time>2014-09-20T11:28:36Z</time>
      </trkpt>
      <trkpt lat="43.23631" lon="0.90859">
        <ele>307.8845919432</ele>
        <time>2014-09-20T11:28:41Z</time>
      </trkpt>
      <trkpt lat="43.23638" lon="0.90862">
        <ele>306.93140536362</ele>
        <time>2014-09-20T11:28:46Z</time>
      </trkpt>
      <trkpt lat="43.23642" lon="0.90869">
        <ele>306.93140536362</ele>
        <time>2014-09-20T11:28:51Z</time>
      </trkpt>
      <trkpt lat="43.23642" lon="0.90879">
        <ele>305.83844276649</ele>
        <time>2014-09-20T11:28:56Z</time>
      </trkpt>
      <trkpt lat="43.23645" lon="0.90885">
        <ele>305.83844276649</ele>
        <time>2014-09-20T11:29:01Z</time>
      </trkpt>
      <trkpt lat="43.23645" lon="0.90892">
        <ele>304.52976255078</ele>
        <time>2014-09-20T11:29:06Z</time>
      </trkpt>
      <trkpt lat="43.23646" lon="0.90899">
        <ele>304.52976255078</ele>
        <time>2014-09-20T11:29:11Z</time>
      </trkpt>
      <trkpt lat="43.23645" lon="0.90907">
        <ele>303.94444826438</ele>
        <time>2014-09-20T11:29:16Z</time>
      </trkpt>
      <trkpt lat="43.23648" lon="0.90913">
        <ele>303.94444826438</ele>
        <time>2014-09-20T11:29:21Z</time>
      </trkpt>
      <trkpt lat="43.23654" lon="0.90916">
        <ele>303.00512703828</ele>
        <time>2014-09-20T11:29:26Z</time>
      </trkpt>
      <trkpt lat="43.23657" lon="0.90921">
        <ele>303.00512703828</ele>
        <time>2014-09-20T11:29:31Z</time>
      </trkpt>
      <trkpt lat="43.23661" lon="0.90931">
        <ele>302.27101685221</ele>
        <time>2014-09-20T11:29:36Z</time>
      </trkpt>
      <trkpt lat="43.23667" lon="0.9094">
        <ele>302.27101685221</ele>
        <time>2014-09-20T11:29:41Z</time>
      </trkpt>
      <trkpt lat="43.23664" lon="0.90948">
        <ele>301.65446418363</ele>
        <time>2014-09-20T11:29:46Z</time>
      </trkpt>
      <trkpt lat="43.23669" lon="0.90953">
        <ele>301.65446418363</ele>
        <time>2014-09-20T11:29:51Z</time>
      </trkpt>
      <trkpt lat="43.23671" lon="0.90953">
        <ele>301.65446418363</ele>
        <time>2014-09-20T11:29:56Z</time>
      </trkpt>
      <trkpt lat="43.2368" lon="0.90953">
        <ele>300.78575068733</ele>
        <time>2014-09-20T11:30:01Z</time>
      </trkpt>
      <trkpt lat="43.23679" lon="0.90962">
        <ele>300.78575068733</ele>
        <time>2014-09-20T11:30:06Z</time>
      </trkpt>
      <trkpt lat="43.2368" lon="0.90972">
        <ele>300.28861577657</ele>
        <time>2014-09-20T11:30:11Z</time>
      </trkpt>
      <trkpt lat="43.23679" lon="0.90981">
        <ele>300.28861577657</ele>
        <time>2014-09-20T11:30:16Z</time>
      </trkpt>
      <trkpt lat="43.23681" lon="0.90988">
        <ele>299.55826969734</ele>
        <time>2014-09-20T11:30:21Z</time>
      </trkpt>
      <trkpt lat="43.23681" lon="0.91">
        <ele>299.55826969734</ele>
        <time>2014-09-20T11:30:26Z</time>
      </trkpt>
      <trkpt lat="43.23687" lon="0.91002">
        <ele>298.25121265922</ele>
        <time>2014-09-20T11:30:31Z</time>
      </trkpt>
      <trkpt lat="43.23685" lon="0.91011">
        <ele>298.25121265922</ele>
        <time>2014-09-20T11:30:36Z</time>
      </trkpt>
      <trkpt lat="43.23684" lon="0.91019">
        <ele>298.02515876392</ele>
        <time>2014-09-20T11:30:41Z</time>
      </trkpt>
      <trkpt lat="43.23685" lon="0.91027">
        <ele>298.02515876392</ele>
        <time>2014-09-20T11:30:46Z</time>
      </trkpt>
      <trkpt lat="43.23687" lon="0.91034">
        <ele>298.43873138178</ele>
        <time>2014-09-20T11:30:51Z</time>
      </trkpt>
      <trkpt lat="43.23689" lon="0.91043">
        <ele>298.43873138178</ele>
        <time>2014-09-20T11:30:56Z</time>
      </trkpt>
      <trkpt lat="43.2369" lon="0.91051">
        <ele>298.6200673894</ele>
        <time>2014-09-20T11:31:01Z</time>
      </trkpt>
      <trkpt lat="43.23694" lon="0.91055">
        <ele>298.6200673894</ele>
        <time>2014-09-20T11:31:06Z</time>
      </trkpt>
      <trkpt lat="43.237" lon="0.91061">
        <ele>298.3096666154</ele>
        <time>2014-09-20T11:31:11Z</time>
      </trkpt>
      <trkpt lat="43.23703" lon="0.91068">
        <ele>298.3096666154</ele>
        <time>2014-09-20T11:31:16Z</time>
      </trkpt>
      <trkpt lat="43.23706" lon="0.91073">
        <ele>297.28292690565</ele>
        <time>2014-09-20T11:31:21Z</time>
      </trkpt>
      <trkpt lat="43.23708" lon="0.9108">
        <ele>297.28292690565</ele>
        <time>2014-09-20T11:31:26Z</time>
      </trkpt>
      <trkpt lat="43.23712" lon="0.91085">
        <ele>296.63080100126</ele>
        <time>2014-09-20T11:31:31Z</time>
      </trkpt>
      <trkpt lat="43.23714" lon="0.91089">
        <ele>296.63080100126</ele>
        <time>2014-09-20T11:31:36Z</time>
      </trkpt>
      <trkpt lat="43.23714" lon="0.91098">
        <ele>297.70896404106</ele>
        <time>2014-09-20T11:31:41Z</time>
      </trkpt>
      <trkpt lat="43.23715" lon="0.9111">
        <ele>297.70896404106</ele>
        <time>2014-09-20T11:31:46Z</time>
      </trkpt>
      <trkpt lat="43.2372" lon="0.91117">
        <ele>298.54060905416</ele>
        <time>2014-09-20T11:31:51Z</time>
      </trkpt>
      <trkpt lat="43.23724" lon="0.91123">
        <ele>298.54060905416</ele>
        <time>2014-09-20T11:31:56Z</time>
      </trkpt>
      <trkpt lat="43.23729" lon="0.91125">
        <ele>299.55743498547</ele>
        <time>2014-09-20T11:32:01Z</time>
      </trkpt>
      <trkpt lat="43.23735" lon="0.91126">
        <ele>299.55743498547</ele>
        <time>2014-09-20T11:32:06Z</time>
      </trkpt>
      <trkpt lat="43.2374" lon="0.9113">
        <ele>300.45282602484</ele>
        <time>2014-09-20T11:32:11Z</time>
      </trkpt>
      <trkpt lat="43.23745" lon="0.91131">
        <ele>300.45282602484</ele>
        <time>2014-09-20T11:32:16Z</time>
      </trkpt>
      <trkpt lat="43.23751" lon="0.91132">
        <ele>302.35539294539</ele>
        <time>2014-09-20T11:32:21Z</time>
      </trkpt>
      <trkpt lat="43.23756" lon="0.91137">
        <ele>302.35539294539</ele>
        <time>2014-09-20T11:32:26Z</time>
      </trkpt>
      <trkpt lat="43.23762" lon="0.91138">
        <ele>303.20970574327</ele>
        <time>2014-09-20T11:32:31Z</time>
      </trkpt>
      <trkpt lat="43.23766" lon="0.9114">
        <ele>303.20970574327</ele>
        <time>2014-09-20T11:32:36Z</time>
      </trkpt>
      <trkpt lat="43.2377" lon="0.91142">
        <ele>303.20970574327</ele>
        <time>2014-09-20T11:32:41Z</time>
      </trkpt>
      <trkpt lat="43.23774" lon="0.91148">
        <ele>303.83805709266</ele>
        <time>2014-09-20T11:32:46Z</time>
      </trkpt>
      <trkpt lat="43.23775" lon="0.91151">
        <ele>303.83805709266</ele>
        <time>2014-09-20T11:32:51Z</time>
      </trkpt>
      <trkpt lat="43.23777" lon="0.91152">
        <ele>303.83805709266</ele>
        <time>2014-09-20T11:32:56Z</time>
      </trkpt>
      <trkpt lat="43.23782" lon="0.91152">
        <ele>303.83805709266</ele>
        <time>2014-09-20T11:33:01Z</time>
      </trkpt>
      <trkpt lat="43.23787" lon="0.91154">
        <ele>304.9021885902</ele>
        <time>2014-09-20T11:33:06Z</time>
      </trkpt>
      <trkpt lat="43.23791" lon="0.91157">
        <ele>304.9021885902</ele>
        <time>2014-09-20T11:33:11Z</time>
      </trkpt>
      <trkpt lat="43.23796" lon="0.91161">
        <ele>305.73152260133</ele>
        <time>2014-09-20T11:33:16Z</time>
      </trkpt>
      <trkpt lat="43.23803" lon="0.91163">
        <ele>305.73152260133</ele>
        <time>2014-09-20T11:33:21Z</time>
      </trkpt>
      <trkpt lat="43.23807" lon="0.91168">
        <ele>306.29636327556</ele>
        <time>2014-09-20T11:33:26Z</time>
      </trkpt>
      <trkpt lat="43.23813" lon="0.91174">
        <ele>306.29636327556</ele>
        <time>2014-09-20T11:33:31Z</time>
      </trkpt>
      <trkpt lat="43.23817" lon="0.9118">
        <ele>307.13208173414</ele>
        <time>2014-09-20T11:33:36Z</time>
      </trkpt>
      <trkpt lat="43.23824" lon="0.91184">
        <ele>307.13208173414</ele>
        <time>2014-09-20T11:33:41Z</time>
      </trkpt>
      <trkpt lat="43.23832" lon="0.91186">
        <ele>308.61878566036</ele>
        <time>2014-09-20T11:33:46Z</time>
      </trkpt>
      <trkpt lat="43.23839" lon="0.91186">
        <ele>308.61878566036</ele>
        <time>2014-09-20T11:33:51Z</time>
      </trkpt>
      <trkpt lat="43.23846" lon="0.91186">
        <ele>310.01170586464</ele>
        <time>2014-09-20T11:33:56Z</time>
      </trkpt>
      <trkpt lat="43.23852" lon="0.91187">
        <ele>310.01170586464</ele>
        <time>2014-09-20T11:34:01Z</time>
      </trkpt>
      <trkpt lat="43.23859" lon="0.91187">
        <ele>310.75086619799</ele>
        <time>2014-09-20T11:34:06Z</time>
      </trkpt>
      <trkpt lat="43.23865" lon="0.91187">
        <ele>310.75086619799</ele>
        <time>2014-09-20T11:34:11Z</time>
      </trkpt>
      <trkpt lat="43.23869" lon="0.91185">
        <ele>311.64520553318</ele>
        <time>2014-09-20T11:34:16Z</time>
      </trkpt>
      <trkpt lat="43.23873" lon="0.91182">
        <ele>311.64520553318</ele>
        <time>2014-09-20T11:34:21Z</time>
      </trkpt>
      <trkpt lat="43.23878" lon="0.9118">
        <ele>311.57048131302</ele>
        <time>2014-09-20T11:34:26Z</time>
      </trkpt>
      <trkpt lat="43.23882" lon="0.91178">
        <ele>311.57048131302</ele>
        <time>2014-09-20T11:34:31Z</time>
      </trkpt>
      <trkpt lat="43.23886" lon="0.91177">
        <ele>312.16834541619</ele>
        <time>2014-09-20T11:34:36Z</time>
      </trkpt>
      <trkpt lat="43.23891" lon="0.91179">
        <ele>312.16834541619</ele>
        <time>2014-09-20T11:34:41Z</time>
      </trkpt>
      <trkpt lat="43.23894" lon="0.91178">
        <ele>312.16834541619</ele>
        <time>2014-09-20T11:34:46Z</time>
      </trkpt>
      <trkpt lat="43.23895" lon="0.91176">
        <ele>312.2199739023</ele>
        <time>2014-09-20T11:34:51Z</time>
      </trkpt>
      <trkpt lat="43.23896" lon="0.91177">
        <ele>312.2199739023</ele>
        <time>2014-09-20T11:34:56Z</time>
      </trkpt>
      <trkpt lat="43.23895" lon="0.91179">
        <ele>312.2199739023</ele>
        <time>2014-09-20T11:35:01Z</time>
      </trkpt>
      <trkpt lat="43.23895" lon="0.91179">
        <ele>312.2199739023</ele>
        <time>2014-09-20T11:35:06Z</time>
      </trkpt>
      <trkpt lat="43.23895" lon="0.91179">
        <ele>312.2199739023</ele>
        <time>2014-09-20T11:35:11Z</time>
      </trkpt>
      <trkpt lat="43.23894" lon="0.91179">
        <ele>312.2199739023</ele>
        <time>2014-09-20T11:35:16Z</time>
      </trkpt>
      <trkpt lat="43.239" lon="0.91181">
        <ele>312.2199739023</ele>
        <time>2014-09-20T11:35:21Z</time>
      </trkpt>
      <trkpt lat="43.23908" lon="0.91184">
        <ele>311.5920878644</ele>
        <time>2014-09-20T11:35:26Z</time>
      </trkpt>
      <trkpt lat="43.23902" lon="0.9117">
        <ele>311.28727617306</ele>
        <time>2014-09-20T11:35:31Z</time>
      </trkpt>
      <trkpt lat="43.23909" lon="0.91159">
        <ele>310.87902193608</ele>
        <time>2014-09-20T11:35:36Z</time>
      </trkpt>
      <trkpt lat="43.23915" lon="0.9117">
        <ele>310.88041636813</ele>
        <time>2014-09-20T11:35:41Z</time>
      </trkpt>
      <trkpt lat="43.23917" lon="0.91187">
        <ele>310.26899164829</ele>
        <time>2014-09-20T11:35:46Z</time>
      </trkpt>
      <trkpt lat="43.23921" lon="0.91147">
        <ele>309.65756692846</ele>
        <time>2014-09-20T11:35:51Z</time>
      </trkpt>
      <trkpt lat="43.23912" lon="0.91157">
        <ele>309.04614220862</ele>
        <time>2014-09-20T11:35:56Z</time>
      </trkpt>
      <trkpt lat="43.23906" lon="0.91165">
        <ele>308.43471748878</ele>
        <time>2014-09-20T11:36:01Z</time>
      </trkpt>
      <trkpt lat="43.23906" lon="0.91166">
        <ele>307.82329276895</ele>
        <time>2014-09-20T11:36:06Z</time>
      </trkpt>
      <trkpt lat="43.23919" lon="0.9115">
        <ele>307.21186804911</ele>
        <time>2014-09-20T11:36:11Z</time>
      </trkpt>
      <trkpt lat="43.23907" lon="0.91163">
        <ele>304.75049008885</ele>
        <time>2014-09-20T11:36:16Z</time>
      </trkpt>
      <trkpt lat="43.23905" lon="0.91171">
        <ele>304.75049008885</ele>
        <time>2014-09-20T11:36:21Z</time>
      </trkpt>
      <trkpt lat="43.23905" lon="0.9118">
        <ele>304.39458740849</ele>
        <time>2014-09-20T11:36:26Z</time>
      </trkpt>
      <trkpt lat="43.23907" lon="0.91184">
        <ele>304.39458740849</ele>
        <time>2014-09-20T11:36:31Z</time>
      </trkpt>
      <trkpt lat="43.23907" lon="0.91182">
        <ele>304.39458740849</ele>
        <time>2014-09-20T11:36:36Z</time>
      </trkpt>
      <trkpt lat="43.23907" lon="0.9118">
        <ele>304.39458740849</ele>
        <time>2014-09-20T11:36:41Z</time>
      </trkpt>
      <trkpt lat="43.23907" lon="0.91181">
        <ele>304.39458740849</ele>
        <time>2014-09-20T11:36:46Z</time>
      </trkpt>
      <trkpt lat="43.23907" lon="0.91181">
        <ele>304.39458740849</ele>
        <time>2014-09-20T11:36:51Z</time>
      </trkpt>
      <trkpt lat="43.23907" lon="0.91181">
        <ele>304.39458740849</ele>
        <time>2014-09-20T11:36:56Z</time>
      </trkpt>
      <trkpt lat="43.23907" lon="0.91181">
        <ele>304.39458740849</ele>
        <time>2014-09-20T11:37:01Z</time>
      </trkpt>
      <trkpt lat="43.23907" lon="0.91181">
        <ele>304.39458740849</ele>
        <time>2014-09-20T11:37:06Z</time>
      </trkpt>
      <trkpt lat="43.23907" lon="0.91181">
        <ele>304.39458740849</ele>
        <time>2014-09-20T11:37:11Z</time>
      </trkpt>
      <trkpt lat="43.23907" lon="0.91181">
        <ele>304.39458740849</ele>
        <time>2014-09-20T11:37:16Z</time>
      </trkpt>
      <trkpt lat="43.23907" lon="0.91181">
        <ele>304.39458740849</ele>
        <time>2014-09-20T11:37:21Z</time>
      </trkpt>
      <trkpt lat="43.23907" lon="0.91181">
        <ele>304.39458740849</ele>
        <time>2014-09-20T11:37:26Z</time>
      </trkpt>
      <trkpt lat="43.23907" lon="0.91181">
        <ele>304.39458740849</ele>
        <time>2014-09-20T11:37:31Z</time>
      </trkpt>
      <trkpt lat="43.23907" lon="0.91181">
        <ele>304.39458740849</ele>
        <time>2014-09-20T11:37:36Z</time>
      </trkpt>
      <trkpt lat="43.23907" lon="0.91181">
        <ele>304.39458740849</ele>
        <time>2014-09-20T11:37:41Z</time>
      </trkpt>
      <trkpt lat="43.23907" lon="0.91181">
        <ele>304.39458740849</ele>
        <time>2014-09-20T11:37:46Z</time>
      </trkpt>
      <trkpt lat="43.23907" lon="0.91181">
        <ele>304.39458740849</ele>
        <time>2014-09-20T11:37:51Z</time>
      </trkpt>
      <trkpt lat="43.23907" lon="0.91181">
        <ele>304.39458740849</ele>
        <time>2014-09-20T11:37:56Z</time>
      </trkpt>
      <trkpt lat="43.23907" lon="0.91181">
        <ele>304.39458740849</ele>
        <time>2014-09-20T11:38:01Z</time>
      </trkpt>
      <trkpt lat="43.23907" lon="0.91181">
        <ele>304.39458740849</ele>
        <time>2014-09-20T11:38:06Z</time>
      </trkpt>
      <trkpt lat="43.23907" lon="0.91181">
        <ele>304.39458740849</ele>
        <time>2014-09-20T11:38:11Z</time>
      </trkpt>
      <trkpt lat="43.23907" lon="0.91181">
        <ele>304.39458740849</ele>
        <time>2014-09-20T11:38:16Z</time>
      </trkpt>
      <trkpt lat="43.23907" lon="0.91181">
        <ele>304.39458740849</ele>
        <time>2014-09-20T11:38:21Z</time>
      </trkpt>
      <trkpt lat="43.23907" lon="0.91181">
        <ele>304.39458740849</ele>
        <time>2014-09-20T11:38:26Z</time>
      </trkpt>
      <trkpt lat="43.23907" lon="0.91181">
        <ele>304.39458740849</ele>
        <time>2014-09-20T11:38:31Z</time>
      </trkpt>
      <trkpt lat="43.23907" lon="0.91181">
        <ele>304.39458740849</ele>
        <time>2014-09-20T11:38:36Z</time>
      </trkpt>
      <trkpt lat="43.23907" lon="0.91181">
        <ele>304.39458740849</ele>
        <time>2014-09-20T11:38:41Z</time>
      </trkpt>
      <trkpt lat="43.23907" lon="0.91181">
        <ele>304.39458740849</ele>
        <time>2014-09-20T11:38:46Z</time>
      </trkpt>
      <trkpt lat="43.23907" lon="0.91181">
        <ele>304.39458740849</ele>
        <time>2014-09-20T11:38:51Z</time>
      </trkpt>
      <trkpt lat="43.23907" lon="0.91181">
        <ele>304.39458740849</ele>
        <time>2014-09-20T11:38:56Z</time>
      </trkpt>
      <trkpt lat="43.23907" lon="0.91181">
        <ele>304.39458740849</ele>
        <time>2014-09-20T11:39:01Z</time>
      </trkpt>
      <trkpt lat="43.23907" lon="0.91181">
        <ele>304.39458740849</ele>
        <time>2014-09-20T11:39:06Z</time>
      </trkpt>
      <trkpt lat="43.23907" lon="0.91181">
        <ele>304.39458740849</ele>
        <time>2014-09-20T11:39:11Z</time>
      </trkpt>
      <trkpt lat="43.23907" lon="0.91181">
        <ele>304.39458740849</ele>
        <time>2014-09-20T11:39:16Z</time>
      </trkpt>
      <trkpt lat="43.23907" lon="0.91181">
        <ele>304.39458740849</ele>
        <time>2014-09-20T11:39:21Z</time>
      </trkpt>
      <trkpt lat="43.23907" lon="0.91181">
        <ele>304.39458740849</ele>
        <time>2014-09-20T11:39:26Z</time>
      </trkpt>
      <trkpt lat="43.23907" lon="0.91181">
        <ele>304.39458740849</ele>
        <time>2014-09-20T11:39:31Z</time>
      </trkpt>
      <trkpt lat="43.23907" lon="0.91181">
        <ele>304.39458740849</ele>
        <time>2014-09-20T11:39:36Z</time>
      </trkpt>
      <trkpt lat="43.23907" lon="0.91181">
        <ele>304.39458740849</ele>
        <time>2014-09-20T11:39:41Z</time>
      </trkpt>
      <trkpt lat="43.23907" lon="0.91181">
        <ele>304.39458740849</ele>
        <time>2014-09-20T11:39:46Z</time>
      </trkpt>
      <trkpt lat="43.23907" lon="0.91181">
        <ele>304.39458740849</ele>
        <time>2014-09-20T11:39:51Z</time>
      </trkpt>
      <trkpt lat="43.23907" lon="0.91181">
        <ele>304.39458740849</ele>
        <time>2014-09-20T11:39:56Z</time>
      </trkpt>
      <trkpt lat="43.23907" lon="0.91181">
        <ele>304.39458740849</ele>
        <time>2014-09-20T11:40:01Z</time>
      </trkpt>
      <trkpt lat="43.23907" lon="0.91181">
        <ele>304.39458740849</ele>
        <time>2014-09-20T11:40:06Z</time>
      </trkpt>
      <trkpt lat="43.23907" lon="0.91181">
        <ele>304.39458740849</ele>
        <time>2014-09-20T11:40:11Z</time>
      </trkpt>
      <trkpt lat="43.23907" lon="0.91181">
        <ele>304.39458740849</ele>
        <time>2014-09-20T11:40:16Z</time>
      </trkpt>
      <trkpt lat="43.23907" lon="0.91181">
        <ele>304.39458740849</ele>
        <time>2014-09-20T11:40:21Z</time>
      </trkpt>
      <trkpt lat="43.23907" lon="0.91181">
        <ele>304.39458740849</ele>
        <time>2014-09-20T11:40:26Z</time>
      </trkpt>
      <trkpt lat="43.23907" lon="0.91181">
        <ele>304.39458740849</ele>
        <time>2014-09-20T11:40:31Z</time>
      </trkpt>
      <trkpt lat="43.23907" lon="0.91181">
        <ele>304.39458740849</ele>
        <time>2014-09-20T11:40:36Z</time>
      </trkpt>
      <trkpt lat="43.23907" lon="0.91181">
        <ele>304.39458740849</ele>
        <time>2014-09-20T11:40:41Z</time>
      </trkpt>
      <trkpt lat="43.23907" lon="0.91181">
        <ele>304.39458740849</ele>
        <time>2014-09-20T11:40:46Z</time>
      </trkpt>
      <trkpt lat="43.23905" lon="0.91175">
        <ele>303.98748991403</ele>
        <time>2014-09-20T11:40:51Z</time>
      </trkpt>
      <trkpt lat="43.23909" lon="0.91168">
        <ele>303.98748991403</ele>
        <time>2014-09-20T11:40:56Z</time>
      </trkpt>
      <trkpt lat="43.2391" lon="0.91164">
        <ele>303.46219587845</ele>
        <time>2014-09-20T11:41:01Z</time>
      </trkpt>
      <trkpt lat="43.23909" lon="0.91162">
        <ele>303.46219587845</ele>
        <time>2014-09-20T11:41:06Z</time>
      </trkpt>
      <trkpt lat="43.23913" lon="0.91158">
        <ele>303.46219587845</ele>
        <time>2014-09-20T11:41:11Z</time>
      </trkpt>
      <trkpt lat="43.23912" lon="0.9115">
        <ele>301.97875496497</ele>
        <time>2014-09-20T11:41:16Z</time>
      </trkpt>
      <trkpt lat="43.2391" lon="0.91146">
        <ele>301.97875496497</ele>
        <time>2014-09-20T11:41:21Z</time>
      </trkpt>
      <trkpt lat="43.23908" lon="0.91142">
        <ele>301.97875496497</ele>
        <time>2014-09-20T11:41:26Z</time>
      </trkpt>
      <trkpt lat="43.23905" lon="0.9114">
        <ele>300.47652077397</ele>
        <time>2014-09-20T11:41:31Z</time>
      </trkpt>
      <trkpt lat="43.23905" lon="0.91139">
        <ele>300.47652077397</ele>
        <time>2014-09-20T11:41:36Z</time>
      </trkpt>
      <trkpt lat="43.23905" lon="0.91139">
        <ele>300.47652077397</ele>
        <time>2014-09-20T11:41:41Z</time>
      </trkpt>
      <trkpt lat="43.23905" lon="0.91136">
        <ele>300.47652077397</ele>
        <time>2014-09-20T11:41:46Z</time>
      </trkpt>
      <trkpt lat="43.23907" lon="0.91131">
        <ele>300.47652077397</ele>
        <time>2014-09-20T11:41:51Z</time>
      </trkpt>
      <trkpt lat="43.23908" lon="0.91126">
        <ele>300.83465856586</ele>
        <time>2014-09-20T11:41:56Z</time>
      </trkpt>
      <trkpt lat="43.23908" lon="0.91126">
        <ele>300.83465856586</ele>
        <time>2014-09-20T11:42:01Z</time>
      </trkpt>
      <trkpt lat="43.23911" lon="0.91126">
        <ele>300.83465856586</ele>
        <time>2014-09-20T11:42:06Z</time>
      </trkpt>
      <trkpt lat="43.23912" lon="0.91123">
        <ele>300.83465856586</ele>
        <time>2014-09-20T11:42:11Z</time>
      </trkpt>
      <trkpt lat="43.23912" lon="0.91123">
        <ele>300.83465856586</ele>
        <time>2014-09-20T11:42:16Z</time>
      </trkpt>
      <trkpt lat="43.23912" lon="0.91123">
        <ele>300.83465856586</ele>
        <time>2014-09-20T11:43:01Z</time>
      </trkpt>
      <trkpt lat="43.23912" lon="0.91123">
        <ele>300.83465856586</ele>
        <time>2014-09-20T11:43:06Z</time>
      </trkpt>
      <trkpt lat="43.23912" lon="0.91122">
        <ele>300.83465856586</ele>
        <time>2014-09-20T11:43:11Z</time>
      </trkpt>
      <trkpt lat="43.23912" lon="0.91123">
        <ele>300.83465856586</ele>
        <time>2014-09-20T11:43:16Z</time>
      </trkpt>
      <trkpt lat="43.23912" lon="0.91122">
        <ele>300.83465856586</ele>
        <time>2014-09-20T11:43:21Z</time>
      </trkpt>
      <trkpt lat="43.23912" lon="0.91122">
        <ele>300.83465856586</ele>
        <time>2014-09-20T11:43:26Z</time>
      </trkpt>
      <trkpt lat="43.23912" lon="0.91122">
        <ele>300.83465856586</ele>
        <time>2014-09-20T11:43:31Z</time>
      </trkpt>
      <trkpt lat="43.23912" lon="0.91122">
        <ele>300.83465856586</ele>
        <time>2014-09-20T11:43:36Z</time>
      </trkpt>
      <trkpt lat="43.23912" lon="0.91122">
        <ele>300.83465856586</ele>
        <time>2014-09-20T11:43:41Z</time>
      </trkpt>
      <trkpt lat="43.23912" lon="0.91122">
        <ele>300.83465856586</ele>
        <time>2014-09-20T11:43:46Z</time>
      </trkpt>
      <trkpt lat="43.23912" lon="0.91122">
        <ele>300.83465856586</ele>
        <time>2014-09-20T11:43:51Z</time>
      </trkpt>
      <trkpt lat="43.23912" lon="0.91122">
        <ele>300.83465856586</ele>
        <time>2014-09-20T11:43:56Z</time>
      </trkpt>
      <trkpt lat="43.23912" lon="0.91122">
        <ele>300.83465856586</ele>
        <time>2014-09-20T11:44:01Z</time>
      </trkpt>
      <trkpt lat="43.23912" lon="0.91122">
        <ele>300.83465856586</ele>
        <time>2014-09-20T11:44:06Z</time>
      </trkpt>
      <trkpt lat="43.23912" lon="0.91122">
        <ele>300.83465856586</ele>
        <time>2014-09-20T11:44:11Z</time>
      </trkpt>
      <trkpt lat="43.23912" lon="0.91122">
        <ele>300.83465856586</ele>
        <time>2014-09-20T11:44:16Z</time>
      </trkpt>
      <trkpt lat="43.23912" lon="0.91122">
        <ele>300.83465856586</ele>
        <time>2014-09-20T11:44:21Z</time>
      </trkpt>
      <trkpt lat="43.23912" lon="0.91122">
        <ele>300.83465856586</ele>
        <time>2014-09-20T11:44:26Z</time>
      </trkpt>
      <trkpt lat="43.23912" lon="0.91122">
        <ele>300.83465856586</ele>
        <time>2014-09-20T11:44:31Z</time>
      </trkpt>
      <trkpt lat="43.23912" lon="0.91122">
        <ele>300.83465856586</ele>
        <time>2014-09-20T11:44:36Z</time>
      </trkpt>
      <trkpt lat="43.23912" lon="0.91122">
        <ele>300.83465856586</ele>
        <time>2014-09-20T11:44:41Z</time>
      </trkpt>
      <trkpt lat="43.23912" lon="0.91122">
        <ele>300.83465856586</ele>
        <time>2014-09-20T11:44:46Z</time>
      </trkpt>
      <trkpt lat="43.23912" lon="0.91122">
        <ele>300.83465856586</ele>
        <time>2014-09-20T11:44:51Z</time>
      </trkpt>
      <trkpt lat="43.23912" lon="0.91122">
        <ele>300.83465856586</ele>
        <time>2014-09-20T11:44:56Z</time>
      </trkpt>
      <trkpt lat="43.23912" lon="0.91122">
        <ele>300.83465856586</ele>
        <time>2014-09-20T11:45:01Z</time>
      </trkpt>
      <trkpt lat="43.23912" lon="0.91122">
        <ele>300.83465856586</ele>
        <time>2014-09-20T11:45:06Z</time>
      </trkpt>
      <trkpt lat="43.23912" lon="0.91122">
        <ele>300.83465856586</ele>
        <time>2014-09-20T11:45:11Z</time>
      </trkpt>
      <trkpt lat="43.23912" lon="0.91122">
        <ele>300.83465856586</ele>
        <time>2014-09-20T11:45:31Z</time>
      </trkpt>
      <trkpt lat="43.23912" lon="0.91122">
        <ele>300.83465856586</ele>
        <time>2014-09-20T11:45:36Z</time>
      </trkpt>
      <trkpt lat="43.23912" lon="0.91122">
        <ele>300.83465856586</ele>
        <time>2014-09-20T11:45:41Z</time>
      </trkpt>
      <trkpt lat="43.23912" lon="0.91122">
        <ele>300.83465856586</ele>
        <time>2014-09-20T11:45:46Z</time>
      </trkpt>
      <trkpt lat="43.23912" lon="0.91122">
        <ele>300.83465856586</ele>
        <time>2014-09-20T11:45:51Z</time>
      </trkpt>
      <trkpt lat="43.23912" lon="0.91122">
        <ele>300.83465856586</ele>
        <time>2014-09-20T11:45:56Z</time>
      </trkpt>
      <trkpt lat="43.23912" lon="0.91122">
        <ele>300.83465856586</ele>
        <time>2014-09-20T11:46:01Z</time>
      </trkpt>
      <trkpt lat="43.23912" lon="0.91122">
        <ele>300.83465856586</ele>
        <time>2014-09-20T11:46:11Z</time>
      </trkpt>
      <trkpt lat="43.23912" lon="0.91122">
        <ele>300.83465856586</ele>
        <time>2014-09-20T11:46:16Z</time>
      </trkpt>
      <trkpt lat="43.23912" lon="0.91122">
        <ele>300.83465856586</ele>
        <time>2014-09-20T11:46:21Z</time>
      </trkpt>
      <trkpt lat="43.23912" lon="0.91122">
        <ele>300.83465856586</ele>
        <time>2014-09-20T11:46:26Z</time>
      </trkpt>
      <trkpt lat="43.23912" lon="0.91122">
        <ele>300.83465856586</ele>
        <time>2014-09-20T11:46:31Z</time>
      </trkpt>
      <trkpt lat="43.23912" lon="0.91122">
        <ele>300.83465856586</ele>
        <time>2014-09-20T11:46:36Z</time>
      </trkpt>
      <trkpt lat="43.23912" lon="0.91122">
        <ele>300.83465856586</ele>
        <time>2014-09-20T11:46:41Z</time>
      </trkpt>
      <trkpt lat="43.23912" lon="0.91122">
        <ele>300.83465856586</ele>
        <time>2014-09-20T11:46:46Z</time>
      </trkpt>
      <trkpt lat="43.23912" lon="0.91122">
        <ele>300.83465856586</ele>
        <time>2014-09-20T11:46:51Z</time>
      </trkpt>
      <trkpt lat="43.23912" lon="0.91122">
        <ele>300.83465856586</ele>
        <time>2014-09-20T11:46:56Z</time>
      </trkpt>
      <trkpt lat="43.23912" lon="0.91122">
        <ele>300.83465856586</ele>
        <time>2014-09-20T11:47:01Z</time>
      </trkpt>
      <trkpt lat="43.23912" lon="0.91122">
        <ele>300.83465856586</ele>
        <time>2014-09-20T11:47:06Z</time>
      </trkpt>
      <trkpt lat="43.23912" lon="0.91122">
        <ele>300.83465856586</ele>
        <time>2014-09-20T11:47:11Z</time>
      </trkpt>
      <trkpt lat="43.23912" lon="0.91122">
        <ele>300.83465856586</ele>
        <time>2014-09-20T11:47:16Z</time>
      </trkpt>
      <trkpt lat="43.23912" lon="0.91122">
        <ele>300.83465856586</ele>
        <time>2014-09-20T11:47:21Z</time>
      </trkpt>
      <trkpt lat="43.23912" lon="0.91122">
        <ele>300.83465856586</ele>
        <time>2014-09-20T11:47:26Z</time>
      </trkpt>
      <trkpt lat="43.23912" lon="0.91123">
        <ele>300.83465856586</ele>
        <time>2014-09-20T11:47:31Z</time>
      </trkpt>
      <trkpt lat="43.23912" lon="0.91125">
        <ele>301.604196502</ele>
        <time>2014-09-20T11:47:36Z</time>
      </trkpt>
      <trkpt lat="43.23912" lon="0.91138">
        <ele>301.604196502</ele>
        <time>2014-09-20T11:47:41Z</time>
      </trkpt>
      <trkpt lat="43.2391" lon="0.91149">
        <ele>302.55108573203</ele>
        <time>2014-09-20T11:47:46Z</time>
      </trkpt>
      <trkpt lat="43.23908" lon="0.91154">
        <ele>302.55108573203</ele>
        <time>2014-09-20T11:47:51Z</time>
      </trkpt>
      <trkpt lat="43.23908" lon="0.91157">
        <ele>302.55108573203</ele>
        <time>2014-09-20T11:47:56Z</time>
      </trkpt>
      <trkpt lat="43.23908" lon="0.91159">
        <ele>302.55108573203</ele>
        <time>2014-09-20T11:48:01Z</time>
      </trkpt>
      <trkpt lat="43.23908" lon="0.9116">
        <ele>302.55108573203</ele>
        <time>2014-09-20T11:48:06Z</time>
      </trkpt>
      <trkpt lat="43.23908" lon="0.9116">
        <ele>302.55108573203</ele>
        <time>2014-09-20T11:48:11Z</time>
      </trkpt>
      <trkpt lat="43.23912" lon="0.91169">
        <ele>302.89592326173</ele>
        <time>2014-09-20T11:48:16Z</time>
      </trkpt>
      <trkpt lat="43.23909" lon="0.91173">
        <ele>302.89592326173</ele>
        <time>2014-09-20T11:48:21Z</time>
      </trkpt>
      <trkpt lat="43.23908" lon="0.91174">
        <ele>302.89592326173</ele>
        <time>2014-09-20T11:48:26Z</time>
      </trkpt>
      <trkpt lat="43.23907" lon="0.91174">
        <ele>302.89592326173</ele>
        <time>2014-09-20T11:48:31Z</time>
      </trkpt>
      <trkpt lat="43.23907" lon="0.91175">
        <ele>302.89592326173</ele>
        <time>2014-09-20T11:48:36Z</time>
      </trkpt>
      <trkpt lat="43.23907" lon="0.91175">
        <ele>302.89592326173</ele>
        <time>2014-09-20T11:48:41Z</time>
      </trkpt>
      <trkpt lat="43.23907" lon="0.91175">
        <ele>302.89592326173</ele>
        <time>2014-09-20T11:48:46Z</time>
      </trkpt>
      <trkpt lat="43.23907" lon="0.91175">
        <ele>302.89592326173</ele>
        <time>2014-09-20T11:48:51Z</time>
      </trkpt>
      <trkpt lat="43.23906" lon="0.91175">
        <ele>302.89592326173</ele>
        <time>2014-09-20T11:48:56Z</time>
      </trkpt>
      <trkpt lat="43.23906" lon="0.91175">
        <ele>302.89592326173</ele>
        <time>2014-09-20T11:49:01Z</time>
      </trkpt>
      <trkpt lat="43.23906" lon="0.91175">
        <ele>302.89592326173</ele>
        <time>2014-09-20T11:49:06Z</time>
      </trkpt>
      <trkpt lat="43.23906" lon="0.91175">
        <ele>302.89592326173</ele>
        <time>2014-09-20T11:49:11Z</time>
      </trkpt>
      <trkpt lat="43.23906" lon="0.91175">
        <ele>302.89592326173</ele>
        <time>2014-09-20T11:49:16Z</time>
      </trkpt>
      <trkpt lat="43.23907" lon="0.91175">
        <ele>302.89592326173</ele>
        <time>2014-09-20T11:49:21Z</time>
      </trkpt>
      <trkpt lat="43.23907" lon="0.9118">
        <ele>302.97025044716</ele>
        <time>2014-09-20T11:49:26Z</time>
      </trkpt>
      <trkpt lat="43.23909" lon="0.91181">
        <ele>302.97025044716</ele>
        <time>2014-09-20T11:49:31Z</time>
      </trkpt>
      <trkpt lat="43.23911" lon="0.91181">
        <ele>302.97025044716</ele>
        <time>2014-09-20T11:49:36Z</time>
      </trkpt>
      <trkpt lat="43.23911" lon="0.91181">
        <ele>302.97025044716</ele>
        <time>2014-09-20T11:49:41Z</time>
      </trkpt>
      <trkpt lat="43.23911" lon="0.9118">
        <ele>302.97025044716</ele>
        <time>2014-09-20T11:49:46Z</time>
      </trkpt>
      <trkpt lat="43.23911" lon="0.9118">
        <ele>302.97025044716</ele>
        <time>2014-09-20T11:49:51Z</time>
      </trkpt>
      <trkpt lat="43.23911" lon="0.9118">
        <ele>302.97025044716</ele>
        <time>2014-09-20T11:49:56Z</time>
      </trkpt>
      <trkpt lat="43.23911" lon="0.9118">
        <ele>302.97025044716</ele>
        <time>2014-09-20T11:50:01Z</time>
      </trkpt>
      <trkpt lat="43.23911" lon="0.9118">
        <ele>302.97025044716</ele>
        <time>2014-09-20T11:50:06Z</time>
      </trkpt>
      <trkpt lat="43.23911" lon="0.9118">
        <ele>302.97025044716</ele>
        <time>2014-09-20T11:50:11Z</time>
      </trkpt>
      <trkpt lat="43.23911" lon="0.9118">
        <ele>302.97025044716</ele>
        <time>2014-09-20T11:50:16Z</time>
      </trkpt>
      <trkpt lat="43.2391" lon="0.9118">
        <ele>302.97025044716</ele>
        <time>2014-09-20T11:50:21Z</time>
      </trkpt>
      <trkpt lat="43.2391" lon="0.91181">
        <ele>302.97025044716</ele>
        <time>2014-09-20T11:50:26Z</time>
      </trkpt>
      <trkpt lat="43.2391" lon="0.91181">
        <ele>302.97025044716</ele>
        <time>2014-09-20T11:50:31Z</time>
      </trkpt>
      <trkpt lat="43.2391" lon="0.91181">
        <ele>302.97025044716</ele>
        <time>2014-09-20T11:50:36Z</time>
      </trkpt>
      <trkpt lat="43.2391" lon="0.91181">
        <ele>302.97025044716</ele>
        <time>2014-09-20T11:50:41Z</time>
      </trkpt>
      <trkpt lat="43.2391" lon="0.91181">
        <ele>302.97025044716</ele>
        <time>2014-09-20T11:50:46Z</time>
      </trkpt>
      <trkpt lat="43.2391" lon="0.91181">
        <ele>302.97025044716</ele>
        <time>2014-09-20T11:50:51Z</time>
      </trkpt>
      <trkpt lat="43.2391" lon="0.91181">
        <ele>302.97025044716</ele>
        <time>2014-09-20T11:50:56Z</time>
      </trkpt>
      <trkpt lat="43.2391" lon="0.91181">
        <ele>302.97025044716</ele>
        <time>2014-09-20T11:51:01Z</time>
      </trkpt>
      <trkpt lat="43.2391" lon="0.91181">
        <ele>302.97025044716</ele>
        <time>2014-09-20T11:51:06Z</time>
      </trkpt>
      <trkpt lat="43.2391" lon="0.91181">
        <ele>302.97025044716</ele>
        <time>2014-09-20T11:51:11Z</time>
      </trkpt>
      <trkpt lat="43.2391" lon="0.91181">
        <ele>302.97025044716</ele>
        <time>2014-09-20T11:51:16Z</time>
      </trkpt>
      <trkpt lat="43.2391" lon="0.91181">
        <ele>302.97025044716</ele>
        <time>2014-09-20T11:51:21Z</time>
      </trkpt>
      <trkpt lat="43.2391" lon="0.91181">
        <ele>302.97025044716</ele>
        <time>2014-09-20T11:51:26Z</time>
      </trkpt>
      <trkpt lat="43.2391" lon="0.91181">
        <ele>302.97025044716</ele>
        <time>2014-09-20T11:51:31Z</time>
      </trkpt>
      <trkpt lat="43.23911" lon="0.9118">
        <ele>302.97025044716</ele>
        <time>2014-09-20T11:51:36Z</time>
      </trkpt>
      <trkpt lat="43.23911" lon="0.91179">
        <ele>302.97025044716</ele>
        <time>2014-09-20T11:51:41Z</time>
      </trkpt>
      <trkpt lat="43.23911" lon="0.91179">
        <ele>302.97025044716</ele>
        <time>2014-09-20T11:51:46Z</time>
      </trkpt>
      <trkpt lat="43.23913" lon="0.91181">
        <ele>302.90907295012</ele>
        <time>2014-09-20T11:51:51Z</time>
      </trkpt>
      <trkpt lat="43.23917" lon="0.91183">
        <ele>302.90907295012</ele>
        <time>2014-09-20T11:51:56Z</time>
      </trkpt>
      <trkpt lat="43.2392" lon="0.91184">
        <ele>302.90907295012</ele>
        <time>2014-09-20T11:52:01Z</time>
      </trkpt>
      <trkpt lat="43.23924" lon="0.91187">
        <ele>303.55841212949</ele>
        <time>2014-09-20T11:52:06Z</time>
      </trkpt>
      <trkpt lat="43.23927" lon="0.9119">
        <ele>303.55841212949</ele>
        <time>2014-09-20T11:52:11Z</time>
      </trkpt>
      <trkpt lat="43.23931" lon="0.9119">
        <ele>303.55841212949</ele>
        <time>2014-09-20T11:52:16Z</time>
      </trkpt>
      <trkpt lat="43.23935" lon="0.91195">
        <ele>303.97081321661</ele>
        <time>2014-09-20T11:52:21Z</time>
      </trkpt>
      <trkpt lat="43.23939" lon="0.91197">
        <ele>303.97081321661</ele>
        <time>2014-09-20T11:52:26Z</time>
      </trkpt>
      <trkpt lat="43.23944" lon="0.91199">
        <ele>305.156945018</ele>
        <time>2014-09-20T11:52:31Z</time>
      </trkpt>
      <trkpt lat="43.23949" lon="0.912">
        <ele>305.156945018</ele>
        <time>2014-09-20T11:52:36Z</time>
      </trkpt>
      <trkpt lat="43.23955" lon="0.91203">
        <ele>306.23527022999</ele>
        <time>2014-09-20T11:52:41Z</time>
      </trkpt>
      <trkpt lat="43.23958" lon="0.91213">
        <ele>306.23527022999</ele>
        <time>2014-09-20T11:52:46Z</time>
      </trkpt>
      <trkpt lat="43.23961" lon="0.91218">
        <ele>303.96825269265</ele>
        <time>2014-09-20T11:52:51Z</time>
      </trkpt>
      <trkpt lat="43.23964" lon="0.91226">
        <ele>303.96825269265</ele>
        <time>2014-09-20T11:52:56Z</time>
      </trkpt>
      <trkpt lat="43.23967" lon="0.91231">
        <ele>302.25408949472</ele>
        <time>2014-09-20T11:53:01Z</time>
      </trkpt>
      <trkpt lat="43.2397" lon="0.91235">
        <ele>302.25408949472</ele>
        <time>2014-09-20T11:53:06Z</time>
      </trkpt>
      <trkpt lat="43.23971" lon="0.91239">
        <ele>302.25408949472</ele>
        <time>2014-09-20T11:53:11Z</time>
      </trkpt>
      <trkpt lat="43.23973" lon="0.91245">
        <ele>300.58148858504</ele>
        <time>2014-09-20T11:53:16Z</time>
      </trkpt>
      <trkpt lat="43.23975" lon="0.91248">
        <ele>300.58148858504</ele>
        <time>2014-09-20T11:53:21Z</time>
      </trkpt>
      <trkpt lat="43.23978" lon="0.91253">
        <ele>300.58148858504</ele>
        <time>2014-09-20T11:53:26Z</time>
      </trkpt>
      <trkpt lat="43.23979" lon="0.91259">
        <ele>299.11067842206</ele>
        <time>2014-09-20T11:53:31Z</time>
      </trkpt>
      <trkpt lat="43.23982" lon="0.91265">
        <ele>299.11067842206</ele>
        <time>2014-09-20T11:53:36Z</time>
      </trkpt>
      <trkpt lat="43.23984" lon="0.91269">
        <ele>298.0183489285</ele>
        <time>2014-09-20T11:53:41Z</time>
      </trkpt>
      <trkpt lat="43.23985" lon="0.91274">
        <ele>298.0183489285</ele>
        <time>2014-09-20T11:53:46Z</time>
      </trkpt>
      <trkpt lat="43.23987" lon="0.91282">
        <ele>296.74655787449</ele>
        <time>2014-09-20T11:53:51Z</time>
      </trkpt>
      <trkpt lat="43.23989" lon="0.91291">
        <ele>296.74655787449</ele>
        <time>2014-09-20T11:53:56Z</time>
      </trkpt>
      <trkpt lat="43.23992" lon="0.91299">
        <ele>295.81640982079</ele>
        <time>2014-09-20T11:54:01Z</time>
      </trkpt>
      <trkpt lat="43.23992" lon="0.91303">
        <ele>295.81640982079</ele>
        <time>2014-09-20T11:54:06Z</time>
      </trkpt>
      <trkpt lat="43.23994" lon="0.91307">
        <ele>295.81640982079</ele>
        <time>2014-09-20T11:54:11Z</time>
      </trkpt>
      <trkpt lat="43.23996" lon="0.91319">
        <ele>294.48477585293</ele>
        <time>2014-09-20T11:54:16Z</time>
      </trkpt>
      <trkpt lat="43.23999" lon="0.91329">
        <ele>294.48477585293</ele>
        <time>2014-09-20T11:54:21Z</time>
      </trkpt>
      <trkpt lat="43.23998" lon="0.91337">
        <ele>293.67823306412</ele>
        <time>2014-09-20T11:54:26Z</time>
      </trkpt>
      <trkpt lat="43.23997" lon="0.91346">
        <ele>293.67823306412</ele>
        <time>2014-09-20T11:54:31Z</time>
      </trkpt>
      <trkpt lat="43.23996" lon="0.91353">
        <ele>293.33144970618</ele>
        <time>2014-09-20T11:54:36Z</time>
      </trkpt>
      <trkpt lat="43.2399" lon="0.91358">
        <ele>293.33144970618</ele>
        <time>2014-09-20T11:54:41Z</time>
      </trkpt>
      <trkpt lat="43.23984" lon="0.91361">
        <ele>293.32489951603</ele>
        <time>2014-09-20T11:54:46Z</time>
      </trkpt>
      <trkpt lat="43.23978" lon="0.91364">
        <ele>293.32489951603</ele>
        <time>2014-09-20T11:54:51Z</time>
      </trkpt>
      <trkpt lat="43.23974" lon="0.9137">
        <ele>293.27301246207</ele>
        <time>2014-09-20T11:54:56Z</time>
      </trkpt>
      <trkpt lat="43.23969" lon="0.91376">
        <ele>293.27301246207</ele>
        <time>2014-09-20T11:55:01Z</time>
      </trkpt>
      <trkpt lat="43.23966" lon="0.91381">
        <ele>293.46711514893</ele>
        <time>2014-09-20T11:55:06Z</time>
      </trkpt>
      <trkpt lat="43.23963" lon="0.91384">
        <ele>293.46711514893</ele>
        <time>2014-09-20T11:55:11Z</time>
      </trkpt>
      <trkpt lat="43.23959" lon="0.91389">
        <ele>293.46711514893</ele>
        <time>2014-09-20T11:55:16Z</time>
      </trkpt>
      <trkpt lat="43.23954" lon="0.91392">
        <ele>291.42386700276</ele>
        <time>2014-09-20T11:55:21Z</time>
      </trkpt>
      <trkpt lat="43.23949" lon="0.91395">
        <ele>291.42386700276</ele>
        <time>2014-09-20T11:55:26Z</time>
      </trkpt>
      <trkpt lat="43.23946" lon="0.914">
        <ele>289.50336569726</ele>
        <time>2014-09-20T11:55:31Z</time>
      </trkpt>
      <trkpt lat="43.23944" lon="0.91406">
        <ele>289.50336569726</ele>
        <time>2014-09-20T11:55:36Z</time>
      </trkpt>
      <trkpt lat="43.2394" lon="0.91411">
        <ele>288.13378003736</ele>
        <time>2014-09-20T11:55:41Z</time>
      </trkpt>
      <trkpt lat="43.23937" lon="0.91418">
        <ele>288.13378003736</ele>
        <time>2014-09-20T11:55:46Z</time>
      </trkpt>
      <trkpt lat="43.23936" lon="0.91425">
        <ele>287.3499404926</ele>
        <time>2014-09-20T11:55:51Z</time>
      </trkpt>
      <trkpt lat="43.23932" lon="0.9143">
        <ele>287.3499404926</ele>
        <time>2014-09-20T11:55:56Z</time>
      </trkpt>
      <trkpt lat="43.23928" lon="0.91435">
        <ele>286.63478618555</ele>
        <time>2014-09-20T11:56:01Z</time>
      </trkpt>
      <trkpt lat="43.23926" lon="0.91442">
        <ele>286.63478618555</ele>
        <time>2014-09-20T11:56:06Z</time>
      </trkpt>
      <trkpt lat="43.23924" lon="0.91448">
        <ele>286.41687863296</ele>
        <time>2014-09-20T11:56:11Z</time>
      </trkpt>
      <trkpt lat="43.23922" lon="0.91455">
        <ele>286.41687863296</ele>
        <time>2014-09-20T11:56:16Z</time>
      </trkpt>
      <trkpt lat="43.23918" lon="0.91462">
        <ele>286.21275805509</ele>
        <time>2014-09-20T11:56:21Z</time>
      </trkpt>
      <trkpt lat="43.2391" lon="0.91467">
        <ele>286.21275805509</ele>
        <time>2014-09-20T11:56:26Z</time>
      </trkpt>
      <trkpt lat="43.23908" lon="0.91473">
        <ele>286.38140137984</ele>
        <time>2014-09-20T11:56:31Z</time>
      </trkpt>
      <trkpt lat="43.23907" lon="0.91475">
        <ele>286.38140137984</ele>
        <time>2014-09-20T11:56:36Z</time>
      </trkpt>
      <trkpt lat="43.23905" lon="0.91479">
        <ele>286.38140137984</ele>
        <time>2014-09-20T11:56:41Z</time>
      </trkpt>
      <trkpt lat="43.23896" lon="0.91483">
        <ele>286.11583481113</ele>
        <time>2014-09-20T11:56:46Z</time>
      </trkpt>
      <trkpt lat="43.2389" lon="0.91488">
        <ele>286.11583481113</ele>
        <time>2014-09-20T11:56:51Z</time>
      </trkpt>
      <trkpt lat="43.23886" lon="0.91493">
        <ele>285.90888794778</ele>
        <time>2014-09-20T11:56:56Z</time>
      </trkpt>
      <trkpt lat="43.23884" lon="0.91496">
        <ele>285.90888794778</ele>
        <time>2014-09-20T11:57:01Z</time>
      </trkpt>
      <trkpt lat="43.23881" lon="0.91499">
        <ele>285.90888794778</ele>
        <time>2014-09-20T11:57:06Z</time>
      </trkpt>
      <trkpt lat="43.23876" lon="0.91504">
        <ele>285.89993386223</ele>
        <time>2014-09-20T11:57:11Z</time>
      </trkpt>
      <trkpt lat="43.2387" lon="0.9151">
        <ele>285.89993386223</ele>
        <time>2014-09-20T11:57:16Z</time>
      </trkpt>
      <trkpt lat="43.23867" lon="0.91515">
        <ele>285.75635713277</ele>
        <time>2014-09-20T11:57:21Z</time>
      </trkpt>
      <trkpt lat="43.2386" lon="0.91519">
        <ele>285.75635713277</ele>
        <time>2014-09-20T11:57:26Z</time>
      </trkpt>
      <trkpt lat="43.23854" lon="0.91521">
        <ele>285.63147535082</ele>
        <time>2014-09-20T11:57:31Z</time>
      </trkpt>
      <trkpt lat="43.23847" lon="0.91522">
        <ele>285.63147535082</ele>
        <time>2014-09-20T11:57:36Z</time>
      </trkpt>
      <trkpt lat="43.23842" lon="0.91521">
        <ele>285.75372897047</ele>
        <time>2014-09-20T11:57:41Z</time>
      </trkpt>
      <trkpt lat="43.23837" lon="0.9152">
        <ele>285.75372897047</ele>
        <time>2014-09-20T11:57:46Z</time>
      </trkpt>
      <trkpt lat="43.23831" lon="0.91519">
        <ele>285.93054950072</ele>
        <time>2014-09-20T11:57:51Z</time>
      </trkpt>
      <trkpt lat="43.23826" lon="0.91519">
        <ele>285.93054950072</ele>
        <time>2014-09-20T11:57:56Z</time>
      </trkpt>
      <trkpt lat="43.2382" lon="0.91517">
        <ele>286.53096679308</ele>
        <time>2014-09-20T11:58:01Z</time>
      </trkpt>
      <trkpt lat="43.23814" lon="0.91513">
        <ele>286.53096679308</ele>
        <time>2014-09-20T11:58:06Z</time>
      </trkpt>
      <trkpt lat="43.23808" lon="0.91506">
        <ele>286.5554689138</ele>
        <time>2014-09-20T11:58:11Z</time>
      </trkpt>
      <trkpt lat="43.23803" lon="0.91502">
        <ele>286.5554689138</ele>
        <time>2014-09-20T11:58:16Z</time>
      </trkpt>
      <trkpt lat="43.23799" lon="0.91498">
        <ele>286.63597907719</ele>
        <time>2014-09-20T11:58:21Z</time>
      </trkpt>
      <trkpt lat="43.23796" lon="0.91493">
        <ele>286.63597907719</ele>
        <time>2014-09-20T11:58:26Z</time>
      </trkpt>
      <trkpt lat="43.23796" lon="0.91495">
        <ele>286.63597907719</ele>
        <time>2014-09-20T11:58:31Z</time>
      </trkpt>
      <trkpt lat="43.23794" lon="0.91489">
        <ele>286.69493227511</ele>
        <time>2014-09-20T11:58:36Z</time>
      </trkpt>
      <trkpt lat="43.23792" lon="0.91482">
        <ele>286.69493227511</ele>
        <time>2014-09-20T11:58:41Z</time>
      </trkpt>
      <trkpt lat="43.23791" lon="0.91475">
        <ele>286.76140532906</ele>
        <time>2014-09-20T11:58:46Z</time>
      </trkpt>
      <trkpt lat="43.2379" lon="0.91468">
        <ele>286.76140532906</ele>
        <time>2014-09-20T11:58:51Z</time>
      </trkpt>
      <trkpt lat="43.23789" lon="0.91462">
        <ele>286.89114961125</ele>
        <time>2014-09-20T11:58:56Z</time>
      </trkpt>
      <trkpt lat="43.23787" lon="0.91455">
        <ele>286.89114961125</ele>
        <time>2014-09-20T11:59:01Z</time>
      </trkpt>
      <trkpt lat="43.23785" lon="0.91449">
        <ele>287.55357976546</ele>
        <time>2014-09-20T11:59:06Z</time>
      </trkpt>
      <trkpt lat="43.23782" lon="0.91443">
        <ele>287.55357976546</ele>
        <time>2014-09-20T11:59:11Z</time>
      </trkpt>
      <trkpt lat="43.23779" lon="0.91435">
        <ele>288.14455140885</ele>
        <time>2014-09-20T11:59:16Z</time>
      </trkpt>
      <trkpt lat="43.23774" lon="0.9143">
        <ele>288.14455140885</ele>
        <time>2014-09-20T11:59:21Z</time>
      </trkpt>
      <trkpt lat="43.2377" lon="0.91424">
        <ele>289.38711536946</ele>
        <time>2014-09-20T11:59:26Z</time>
      </trkpt>
      <trkpt lat="43.23765" lon="0.9142">
        <ele>289.38711536946</ele>
        <time>2014-09-20T11:59:31Z</time>
      </trkpt>
      <trkpt lat="43.2376" lon="0.91418">
        <ele>290.86857955059</ele>
        <time>2014-09-20T11:59:36Z</time>
      </trkpt>
      <trkpt lat="43.23754" lon="0.91418">
        <ele>290.86857955059</ele>
        <time>2014-09-20T11:59:41Z</time>
      </trkpt>
      <trkpt lat="43.23752" lon="0.9142">
        <ele>290.86857955059</ele>
        <time>2014-09-20T11:59:46Z</time>
      </trkpt>
      <trkpt lat="43.23751" lon="0.9142">
        <ele>290.86857955059</ele>
        <time>2014-09-20T11:59:51Z</time>
      </trkpt>
      <trkpt lat="43.23749" lon="0.91422">
        <ele>291.94654045912</ele>
        <time>2014-09-20T11:59:56Z</time>
      </trkpt>
      <trkpt lat="43.23746" lon="0.91425">
        <ele>291.94654045912</ele>
        <time>2014-09-20T12:00:01Z</time>
      </trkpt>
      <trkpt lat="43.23741" lon="0.91431">
        <ele>293.3527926768</ele>
        <time>2014-09-20T12:00:06Z</time>
      </trkpt>
      <trkpt lat="43.23731" lon="0.91436">
        <ele>294.15046941295</ele>
        <time>2014-09-20T12:00:11Z</time>
      </trkpt>
      <trkpt lat="43.23727" lon="0.91439">
        <ele>294.15046941295</ele>
        <time>2014-09-20T12:00:16Z</time>
      </trkpt>
      <trkpt lat="43.23724" lon="0.91444">
        <ele>295.64938200945</ele>
        <time>2014-09-20T12:00:21Z</time>
      </trkpt>
      <trkpt lat="43.2372" lon="0.9145">
        <ele>295.64938200945</ele>
        <time>2014-09-20T12:00:26Z</time>
      </trkpt>
      <trkpt lat="43.23714" lon="0.91455">
        <ele>296.95721156927</ele>
        <time>2014-09-20T12:00:31Z</time>
      </trkpt>
      <trkpt lat="43.23711" lon="0.9146">
        <ele>296.95721156927</ele>
        <time>2014-09-20T12:00:36Z</time>
      </trkpt>
      <trkpt lat="43.23707" lon="0.91464">
        <ele>298.73215518533</ele>
        <time>2014-09-20T12:00:41Z</time>
      </trkpt>
      <trkpt lat="43.23702" lon="0.91468">
        <ele>298.73215518533</ele>
        <time>2014-09-20T12:00:46Z</time>
      </trkpt>
      <trkpt lat="43.237" lon="0.91472">
        <ele>300.38671932864</ele>
        <time>2014-09-20T12:00:51Z</time>
      </trkpt>
      <trkpt lat="43.23698" lon="0.91477">
        <ele>300.38671932864</ele>
        <time>2014-09-20T12:00:56Z</time>
      </trkpt>
      <trkpt lat="43.23692" lon="0.9148">
        <ele>302.01109543546</ele>
        <time>2014-09-20T12:01:01Z</time>
      </trkpt>
      <trkpt lat="43.2369" lon="0.91482">
        <ele>302.01109543546</ele>
        <time>2014-09-20T12:01:06Z</time>
      </trkpt>
      <trkpt lat="43.23689" lon="0.91488">
        <ele>302.01109543546</ele>
        <time>2014-09-20T12:01:11Z</time>
      </trkpt>
      <trkpt lat="43.23688" lon="0.91488">
        <ele>302.01109543546</ele>
        <time>2014-09-20T12:01:16Z</time>
      </trkpt>
      <trkpt lat="43.23688" lon="0.91488">
        <ele>302.01109543546</ele>
        <time>2014-09-20T12:01:21Z</time>
      </trkpt>
      <trkpt lat="43.23686" lon="0.91494">
        <ele>303.5593426873</ele>
        <time>2014-09-20T12:01:26Z</time>
      </trkpt>
      <trkpt lat="43.23682" lon="0.915">
        <ele>303.5593426873</ele>
        <time>2014-09-20T12:01:31Z</time>
      </trkpt>
      <trkpt lat="43.23681" lon="0.91502">
        <ele>303.5593426873</ele>
        <time>2014-09-20T12:01:36Z</time>
      </trkpt>
      <trkpt lat="43.23681" lon="0.91502">
        <ele>303.5593426873</ele>
        <time>2014-09-20T12:01:41Z</time>
      </trkpt>
      <trkpt lat="43.2368" lon="0.91501">
        <ele>303.5593426873</ele>
        <time>2014-09-20T12:01:46Z</time>
      </trkpt>
      <trkpt lat="43.23679" lon="0.91501">
        <ele>305.55125811397</ele>
        <time>2014-09-20T12:01:51Z</time>
      </trkpt>
      <trkpt lat="43.23679" lon="0.91501">
        <ele>305.55125811397</ele>
        <time>2014-09-20T12:01:56Z</time>
      </trkpt>
      <trkpt lat="43.23669" lon="0.915">
        <ele>307.64589934811</ele>
        <time>2014-09-20T12:02:01Z</time>
      </trkpt>
      <trkpt lat="43.2366" lon="0.915">
        <ele>309.21016550604</ele>
        <time>2014-09-20T12:02:06Z</time>
      </trkpt>
      <trkpt lat="43.2365" lon="0.91499">
        <ele>309.87525014976</ele>
        <time>2014-09-20T12:02:11Z</time>
      </trkpt>
      <trkpt lat="43.23647" lon="0.91497">
        <ele>309.87525014976</ele>
        <time>2014-09-20T12:02:16Z</time>
      </trkpt>
      <trkpt lat="43.23648" lon="0.91495">
        <ele>309.87525014976</ele>
        <time>2014-09-20T12:02:21Z</time>
      </trkpt>
      <trkpt lat="43.23648" lon="0.91495">
        <ele>309.87525014976</ele>
        <time>2014-09-20T12:02:26Z</time>
      </trkpt>
      <trkpt lat="43.23648" lon="0.91495">
        <ele>309.87525014976</ele>
        <time>2014-09-20T12:02:31Z</time>
      </trkpt>
      <trkpt lat="43.23648" lon="0.91495">
        <ele>309.87525014976</ele>
        <time>2014-09-20T12:02:36Z</time>
      </trkpt>
      <trkpt lat="43.23645" lon="0.91492">
        <ele>309.87525014976</ele>
        <time>2014-09-20T12:02:41Z</time>
      </trkpt>
      <trkpt lat="43.23636" lon="0.91487">
        <ele>310.88731930426</ele>
        <time>2014-09-20T12:02:46Z</time>
      </trkpt>
      <trkpt lat="43.23631" lon="0.91483">
        <ele>310.88731930426</ele>
        <time>2014-09-20T12:02:51Z</time>
      </trkpt>
      <trkpt lat="43.23625" lon="0.9148">
        <ele>311.88698992308</ele>
        <time>2014-09-20T12:02:56Z</time>
      </trkpt>
      <trkpt lat="43.23619" lon="0.91478">
        <ele>311.88698992308</ele>
        <time>2014-09-20T12:03:01Z</time>
      </trkpt>
      <trkpt lat="43.23617" lon="0.91477">
        <ele>313.69433590506</ele>
        <time>2014-09-20T12:03:06Z</time>
      </trkpt>
      <trkpt lat="43.23616" lon="0.91477">
        <ele>313.69433590506</ele>
        <time>2014-09-20T12:03:11Z</time>
      </trkpt>
      <trkpt lat="43.23616" lon="0.91477">
        <ele>313.69433590506</ele>
        <time>2014-09-20T12:03:16Z</time>
      </trkpt>
      <trkpt lat="43.23613" lon="0.91472">
        <ele>313.69433590506</ele>
        <time>2014-09-20T12:03:21Z</time>
      </trkpt>
      <trkpt lat="43.23609" lon="0.9147">
        <ele>314.50187430226</ele>
        <time>2014-09-20T12:03:26Z</time>
      </trkpt>
      <trkpt lat="43.23607" lon="0.91468">
        <ele>314.50187430226</ele>
        <time>2014-09-20T12:03:31Z</time>
      </trkpt>
      <trkpt lat="43.23606" lon="0.91467">
        <ele>314.50187430226</ele>
        <time>2014-09-20T12:03:36Z</time>
      </trkpt>
      <trkpt lat="43.23605" lon="0.91466">
        <ele>314.50187430226</ele>
        <time>2014-09-20T12:03:41Z</time>
      </trkpt>
      <trkpt lat="43.23596" lon="0.91457">
        <ele>316.28384525978</ele>
        <time>2014-09-20T12:03:46Z</time>
      </trkpt>
      <trkpt lat="43.23588" lon="0.91451">
        <ele>317.36495531734</ele>
        <time>2014-09-20T12:03:51Z</time>
      </trkpt>
      <trkpt lat="43.23584" lon="0.9145">
        <ele>317.36495531734</ele>
        <time>2014-09-20T12:03:56Z</time>
      </trkpt>
      <trkpt lat="43.23584" lon="0.9145">
        <ele>317.36495531734</ele>
        <time>2014-09-20T12:04:01Z</time>
      </trkpt>
      <trkpt lat="43.23581" lon="0.91447">
        <ele>317.36495531734</ele>
        <time>2014-09-20T12:04:06Z</time>
      </trkpt>
      <trkpt lat="43.23577" lon="0.9144">
        <ele>319.00523828746</ele>
        <time>2014-09-20T12:04:11Z</time>
      </trkpt>
      <trkpt lat="43.23571" lon="0.91434">
        <ele>319.00523828746</ele>
        <time>2014-09-20T12:04:16Z</time>
      </trkpt>
      <trkpt lat="43.23567" lon="0.91431">
        <ele>320.45404552327</ele>
        <time>2014-09-20T12:04:21Z</time>
      </trkpt>
      <trkpt lat="43.23565" lon="0.91429">
        <ele>320.45404552327</ele>
        <time>2014-09-20T12:04:26Z</time>
      </trkpt>
      <trkpt lat="43.23566" lon="0.91426">
        <ele>320.45404552327</ele>
        <time>2014-09-20T12:04:31Z</time>
      </trkpt>
      <trkpt lat="43.23565" lon="0.91425">
        <ele>320.45404552327</ele>
        <time>2014-09-20T12:04:36Z</time>
      </trkpt>
      <trkpt lat="43.23562" lon="0.91422">
        <ele>320.45404552327</ele>
        <time>2014-09-20T12:04:41Z</time>
      </trkpt>
      <trkpt lat="43.23557" lon="0.91412">
        <ele>321.93884455252</ele>
        <time>2014-09-20T12:04:46Z</time>
      </trkpt>
      <trkpt lat="43.23551" lon="0.91406">
        <ele>321.93884455252</ele>
        <time>2014-09-20T12:04:51Z</time>
      </trkpt>
      <trkpt lat="43.23547" lon="0.91401">
        <ele>324.14598456607</ele>
        <time>2014-09-20T12:04:56Z</time>
      </trkpt>
      <trkpt lat="43.23543" lon="0.91395">
        <ele>324.14598456607</ele>
        <time>2014-09-20T12:05:01Z</time>
      </trkpt>
      <trkpt lat="43.23537" lon="0.91391">
        <ele>326.94570792158</ele>
        <time>2014-09-20T12:05:06Z</time>
      </trkpt>
      <trkpt lat="43.23533" lon="0.91385">
        <ele>326.94570792158</ele>
        <time>2014-09-20T12:05:11Z</time>
      </trkpt>
      <trkpt lat="43.23528" lon="0.91382">
        <ele>329.68304630769</ele>
        <time>2014-09-20T12:05:16Z</time>
      </trkpt>
      <trkpt lat="43.23524" lon="0.91378">
        <ele>329.68304630769</ele>
        <time>2014-09-20T12:05:21Z</time>
      </trkpt>
      <trkpt lat="43.23523" lon="0.91375">
        <ele>329.68304630769</ele>
        <time>2014-09-20T12:05:26Z</time>
      </trkpt>
      <trkpt lat="43.23522" lon="0.91371">
        <ele>332.60171282119</ele>
        <time>2014-09-20T12:05:31Z</time>
      </trkpt>
      <trkpt lat="43.23518" lon="0.91368">
        <ele>332.60171282119</ele>
        <time>2014-09-20T12:05:36Z</time>
      </trkpt>
      <trkpt lat="43.23516" lon="0.91364">
        <ele>332.60171282119</ele>
        <time>2014-09-20T12:05:41Z</time>
      </trkpt>
      <trkpt lat="43.23514" lon="0.91362">
        <ele>335.92715374737</ele>
        <time>2014-09-20T12:05:46Z</time>
      </trkpt>
      <trkpt lat="43.23507" lon="0.91359">
        <ele>335.92715374737</ele>
        <time>2014-09-20T12:05:51Z</time>
      </trkpt>
      <trkpt lat="43.23502" lon="0.91354">
        <ele>338.84407650533</ele>
        <time>2014-09-20T12:05:56Z</time>
      </trkpt>
      <trkpt lat="43.23497" lon="0.91351">
        <ele>338.84407650533</ele>
        <time>2014-09-20T12:06:01Z</time>
      </trkpt>
      <trkpt lat="43.23493" lon="0.91346">
        <ele>341.31894050588</ele>
        <time>2014-09-20T12:06:06Z</time>
      </trkpt>
      <trkpt lat="43.23496" lon="0.91344">
        <ele>341.31894050588</ele>
        <time>2014-09-20T12:06:11Z</time>
      </trkpt>
      <trkpt lat="43.23495" lon="0.91343">
        <ele>341.31894050588</ele>
        <time>2014-09-20T12:06:16Z</time>
      </trkpt>
      <trkpt lat="43.23495" lon="0.91343">
        <ele>341.31894050588</ele>
        <time>2014-09-20T12:06:21Z</time>
      </trkpt>
      <trkpt lat="43.23495" lon="0.91343">
        <ele>341.31894050588</ele>
        <time>2014-09-20T12:06:26Z</time>
      </trkpt>
      <trkpt lat="43.23495" lon="0.91343">
        <ele>341.31894050588</ele>
        <time>2014-09-20T12:06:31Z</time>
      </trkpt>
      <trkpt lat="43.23493" lon="0.91338">
        <ele>342.88973848157</ele>
        <time>2014-09-20T12:06:36Z</time>
      </trkpt>
      <trkpt lat="43.23486" lon="0.9133">
        <ele>342.88973848157</ele>
        <time>2014-09-20T12:06:41Z</time>
      </trkpt>
      <trkpt lat="43.23481" lon="0.91321">
        <ele>344.77396926673</ele>
        <time>2014-09-20T12:06:46Z</time>
      </trkpt>
      <trkpt lat="43.23478" lon="0.91314">
        <ele>344.77396926673</ele>
        <time>2014-09-20T12:06:51Z</time>
      </trkpt>
      <trkpt lat="43.23473" lon="0.9131">
        <ele>347.01814395914</ele>
        <time>2014-09-20T12:06:56Z</time>
      </trkpt>
      <trkpt lat="43.23472" lon="0.91303">
        <ele>347.01814395914</ele>
        <time>2014-09-20T12:07:01Z</time>
      </trkpt>
      <trkpt lat="43.23471" lon="0.91297">
        <ele>349.16011655816</ele>
        <time>2014-09-20T12:07:06Z</time>
      </trkpt>
      <trkpt lat="43.23468" lon="0.91296">
        <ele>349.16011655816</ele>
        <time>2014-09-20T12:07:11Z</time>
      </trkpt>
      <trkpt lat="43.23464" lon="0.91293">
        <ele>349.16011655816</ele>
        <time>2014-09-20T12:07:16Z</time>
      </trkpt>
      <trkpt lat="43.23463" lon="0.9129">
        <ele>351.21887580178</ele>
        <time>2014-09-20T12:07:21Z</time>
      </trkpt>
      <trkpt lat="43.23457" lon="0.91288">
        <ele>351.21887580178</ele>
        <time>2014-09-20T12:07:26Z</time>
      </trkpt>
      <trkpt lat="43.23458" lon="0.91286">
        <ele>351.21887580178</ele>
        <time>2014-09-20T12:07:31Z</time>
      </trkpt>
      <trkpt lat="43.23461" lon="0.91284">
        <ele>352.96741057146</ele>
        <time>2014-09-20T12:07:36Z</time>
      </trkpt>
      <trkpt lat="43.23459" lon="0.91282">
        <ele>352.96741057146</ele>
        <time>2014-09-20T12:07:41Z</time>
      </trkpt>
      <trkpt lat="43.23453" lon="0.9128">
        <ele>352.96741057146</ele>
        <time>2014-09-20T12:07:46Z</time>
      </trkpt>
      <trkpt lat="43.23447" lon="0.91279">
        <ele>354.09552350185</ele>
        <time>2014-09-20T12:07:51Z</time>
      </trkpt>
      <trkpt lat="43.23443" lon="0.91276">
        <ele>354.09552350185</ele>
        <time>2014-09-20T12:07:56Z</time>
      </trkpt>
      <trkpt lat="43.2344" lon="0.91275">
        <ele>354.09552350185</ele>
        <time>2014-09-20T12:08:01Z</time>
      </trkpt>
      <trkpt lat="43.23437" lon="0.91274">
        <ele>355.62909492741</ele>
        <time>2014-09-20T12:08:06Z</time>
      </trkpt>
      <trkpt lat="43.23434" lon="0.91271">
        <ele>355.62909492741</ele>
        <time>2014-09-20T12:08:11Z</time>
      </trkpt>
      <trkpt lat="43.23429" lon="0.9127">
        <ele>355.62909492741</ele>
        <time>2014-09-20T12:08:16Z</time>
      </trkpt>
      <trkpt lat="43.23424" lon="0.91273">
        <ele>356.42802481448</ele>
        <time>2014-09-20T12:08:21Z</time>
      </trkpt>
      <trkpt lat="43.23422" lon="0.91272">
        <ele>356.42802481448</ele>
        <time>2014-09-20T12:08:26Z</time>
      </trkpt>
      <trkpt lat="43.23421" lon="0.91272">
        <ele>356.42802481448</ele>
        <time>2014-09-20T12:08:31Z</time>
      </trkpt>
      <trkpt lat="43.23421" lon="0.91272">
        <ele>356.42802481448</ele>
        <time>2014-09-20T12:08:36Z</time>
      </trkpt>
      <trkpt lat="43.23421" lon="0.91272">
        <ele>356.42802481448</ele>
        <time>2014-09-20T12:08:41Z</time>
      </trkpt>
      <trkpt lat="43.23421" lon="0.91272">
        <ele>356.42802481448</ele>
        <time>2014-09-20T12:08:46Z</time>
      </trkpt>
      <trkpt lat="43.23417" lon="0.91271">
        <ele>356.42802481448</ele>
        <time>2014-09-20T12:08:51Z</time>
      </trkpt>
      <trkpt lat="43.23408" lon="0.91274">
        <ele>357.35482271201</ele>
        <time>2014-09-20T12:08:56Z</time>
      </trkpt>
      <trkpt lat="43.23397" lon="0.91276">
        <ele>358.02667573337</ele>
        <time>2014-09-20T12:09:01Z</time>
      </trkpt>
      <trkpt lat="43.23392" lon="0.91278">
        <ele>358.02667573337</ele>
        <time>2014-09-20T12:09:06Z</time>
      </trkpt>
      <trkpt lat="43.23386" lon="0.91281">
        <ele>358.42115764201</ele>
        <time>2014-09-20T12:09:11Z</time>
      </trkpt>
      <trkpt lat="43.2338" lon="0.9128">
        <ele>358.42115764201</ele>
        <time>2014-09-20T12:09:16Z</time>
      </trkpt>
      <trkpt lat="43.23376" lon="0.91281">
        <ele>359.03714919806</ele>
        <time>2014-09-20T12:09:21Z</time>
      </trkpt>
      <trkpt lat="43.23373" lon="0.91283">
        <ele>359.03714919806</ele>
        <time>2014-09-20T12:09:26Z</time>
      </trkpt>
      <trkpt lat="43.23367" lon="0.91284">
        <ele>358.77992829807</ele>
        <time>2014-09-20T12:09:31Z</time>
      </trkpt>
      <trkpt lat="43.23364" lon="0.91286">
        <ele>358.77992829807</ele>
        <time>2014-09-20T12:09:36Z</time>
      </trkpt>
      <trkpt lat="43.23358" lon="0.91288">
        <ele>359.14522675215</ele>
        <time>2014-09-20T12:09:41Z</time>
      </trkpt>
      <trkpt lat="43.23355" lon="0.9129">
        <ele>359.14522675215</ele>
        <time>2014-09-20T12:09:46Z</time>
      </trkpt>
      <trkpt lat="43.2335" lon="0.91292">
        <ele>359.14522675215</ele>
        <time>2014-09-20T12:09:51Z</time>
      </trkpt>
      <trkpt lat="43.23345" lon="0.91293">
        <ele>360.09049302241</ele>
        <time>2014-09-20T12:09:56Z</time>
      </trkpt>
      <trkpt lat="43.2334" lon="0.91296">
        <ele>360.09049302241</ele>
        <time>2014-09-20T12:10:01Z</time>
      </trkpt>
      <trkpt lat="43.23335" lon="0.913">
        <ele>361.07031279269</ele>
        <time>2014-09-20T12:10:06Z</time>
      </trkpt>
      <trkpt lat="43.23332" lon="0.91304">
        <ele>361.07031279269</ele>
        <time>2014-09-20T12:10:11Z</time>
      </trkpt>
      <trkpt lat="43.23327" lon="0.91307">
        <ele>361.75219142923</ele>
        <time>2014-09-20T12:10:16Z</time>
      </trkpt>
      <trkpt lat="43.23323" lon="0.91309">
        <ele>361.75219142923</ele>
        <time>2014-09-20T12:10:21Z</time>
      </trkpt>
      <trkpt lat="43.23319" lon="0.91313">
        <ele>362.40534930231</ele>
        <time>2014-09-20T12:10:26Z</time>
      </trkpt>
      <trkpt lat="43.23314" lon="0.91314">
        <ele>362.40534930231</ele>
        <time>2014-09-20T12:10:31Z</time>
      </trkpt>
      <trkpt lat="43.23309" lon="0.91318">
        <ele>361.52115437319</ele>
        <time>2014-09-20T12:10:36Z</time>
      </trkpt>
      <trkpt lat="43.23306" lon="0.91322">
        <ele>361.52115437319</ele>
        <time>2014-09-20T12:10:41Z</time>
      </trkpt>
      <trkpt lat="43.23301" lon="0.91325">
        <ele>360.99183421383</ele>
        <time>2014-09-20T12:10:46Z</time>
      </trkpt>
      <trkpt lat="43.23297" lon="0.91328">
        <ele>360.99183421383</ele>
        <time>2014-09-20T12:10:51Z</time>
      </trkpt>
      <trkpt lat="43.23294" lon="0.91331">
        <ele>360.99183421383</ele>
        <time>2014-09-20T12:10:56Z</time>
      </trkpt>
      <trkpt lat="43.23289" lon="0.91335">
        <ele>360.47998288331</ele>
        <time>2014-09-20T12:11:01Z</time>
      </trkpt>
      <trkpt lat="43.23285" lon="0.91337">
        <ele>360.47998288331</ele>
        <time>2014-09-20T12:11:06Z</time>
      </trkpt>
      <trkpt lat="43.23281" lon="0.91341">
        <ele>360.01875934206</ele>
        <time>2014-09-20T12:11:11Z</time>
      </trkpt>
      <trkpt lat="43.23278" lon="0.91345">
        <ele>360.01875934206</ele>
        <time>2014-09-20T12:11:16Z</time>
      </trkpt>
      <trkpt lat="43.23273" lon="0.91347">
        <ele>359.55222498933</ele>
        <time>2014-09-20T12:11:21Z</time>
      </trkpt>
      <trkpt lat="43.23269" lon="0.9135">
        <ele>359.55222498933</ele>
        <time>2014-09-20T12:11:26Z</time>
      </trkpt>
      <trkpt lat="43.23267" lon="0.91355">
        <ele>359.55222498933</ele>
        <time>2014-09-20T12:11:31Z</time>
      </trkpt>
      <trkpt lat="43.23263" lon="0.91356">
        <ele>358.48087627205</ele>
        <time>2014-09-20T12:11:36Z</time>
      </trkpt>
      <trkpt lat="43.2326" lon="0.91357">
        <ele>358.48087627205</ele>
        <time>2014-09-20T12:11:41Z</time>
      </trkpt>
      <trkpt lat="43.23255" lon="0.91353">
        <ele>358.10990103631</ele>
        <time>2014-09-20T12:11:46Z</time>
      </trkpt>
      <trkpt lat="43.2325" lon="0.91349">
        <ele>358.10990103631</ele>
        <time>2014-09-20T12:11:51Z</time>
      </trkpt>
      <trkpt lat="43.23246" lon="0.91347">
        <ele>358.27749940775</ele>
        <time>2014-09-20T12:11:56Z</time>
      </trkpt>
      <trkpt lat="43.23241" lon="0.91343">
        <ele>358.27749940775</ele>
        <time>2014-09-20T12:12:01Z</time>
      </trkpt>
      <trkpt lat="43.23239" lon="0.91341">
        <ele>358.27749940775</ele>
        <time>2014-09-20T12:12:06Z</time>
      </trkpt>
      <trkpt lat="43.23236" lon="0.91338">
        <ele>357.93865965431</ele>
        <time>2014-09-20T12:12:11Z</time>
      </trkpt>
      <trkpt lat="43.23232" lon="0.91336">
        <ele>357.93865965431</ele>
        <time>2014-09-20T12:12:16Z</time>
      </trkpt>
      <trkpt lat="43.23227" lon="0.91333">
        <ele>357.46668586695</ele>
        <time>2014-09-20T12:12:21Z</time>
      </trkpt>
      <trkpt lat="43.23224" lon="0.9133">
        <ele>357.46668586695</ele>
        <time>2014-09-20T12:12:26Z</time>
      </trkpt>
      <trkpt lat="43.2322" lon="0.91328">
        <ele>357.46668586695</ele>
        <time>2014-09-20T12:12:31Z</time>
      </trkpt>
      <trkpt lat="43.23215" lon="0.91327">
        <ele>356.77538883464</ele>
        <time>2014-09-20T12:12:36Z</time>
      </trkpt>
      <trkpt lat="43.23211" lon="0.91324">
        <ele>356.77538883464</ele>
        <time>2014-09-20T12:12:41Z</time>
      </trkpt>
      <trkpt lat="43.23207" lon="0.9132">
        <ele>356.37626576517</ele>
        <time>2014-09-20T12:12:46Z</time>
      </trkpt>
      <trkpt lat="43.23202" lon="0.91319">
        <ele>356.37626576517</ele>
        <time>2014-09-20T12:12:51Z</time>
      </trkpt>
      <trkpt lat="43.23196" lon="0.9132">
        <ele>355.97850902785</ele>
        <time>2014-09-20T12:12:56Z</time>
      </trkpt>
      <trkpt lat="43.23192" lon="0.91319">
        <ele>355.97850902785</ele>
        <time>2014-09-20T12:13:01Z</time>
      </trkpt>
      <trkpt lat="43.23192" lon="0.91314">
        <ele>355.97850902785</ele>
        <time>2014-09-20T12:13:06Z</time>
      </trkpt>
      <trkpt lat="43.23193" lon="0.91311">
        <ele>355.34136488537</ele>
        <time>2014-09-20T12:13:11Z</time>
      </trkpt>
      <trkpt lat="43.23188" lon="0.91312">
        <ele>355.34136488537</ele>
        <time>2014-09-20T12:13:16Z</time>
      </trkpt>
      <trkpt lat="43.23183" lon="0.91313">
        <ele>354.80433886958</ele>
        <time>2014-09-20T12:13:21Z</time>
      </trkpt>
      <trkpt lat="43.2318" lon="0.91315">
        <ele>354.80433886958</ele>
        <time>2014-09-20T12:13:26Z</time>
      </trkpt>
      <trkpt lat="43.23177" lon="0.91314">
        <ele>354.80433886958</ele>
        <time>2014-09-20T12:13:31Z</time>
      </trkpt>
      <trkpt lat="43.23176" lon="0.91312">
        <ele>354.80433886958</ele>
        <time>2014-09-20T12:13:36Z</time>
      </trkpt>
      <trkpt lat="43.23172" lon="0.91311">
        <ele>355.01303767212</ele>
        <time>2014-09-20T12:13:41Z</time>
      </trkpt>
      <trkpt lat="43.23169" lon="0.91312">
        <ele>355.01303767212</ele>
        <time>2014-09-20T12:13:46Z</time>
      </trkpt>
      <trkpt lat="43.23166" lon="0.91312">
        <ele>355.01303767212</ele>
        <time>2014-09-20T12:13:51Z</time>
      </trkpt>
      <trkpt lat="43.23164" lon="0.91312">
        <ele>355.01303767212</ele>
        <time>2014-09-20T12:13:56Z</time>
      </trkpt>
      <trkpt lat="43.2316" lon="0.91313">
        <ele>355.45375974258</ele>
        <time>2014-09-20T12:14:01Z</time>
      </trkpt>
      <trkpt lat="43.23156" lon="0.91312">
        <ele>355.45375974258</ele>
        <time>2014-09-20T12:14:06Z</time>
      </trkpt>
      <trkpt lat="43.23151" lon="0.91311">
        <ele>355.45375974258</ele>
        <time>2014-09-20T12:14:11Z</time>
      </trkpt>
      <trkpt lat="43.23147" lon="0.91309">
        <ele>355.53446646245</ele>
        <time>2014-09-20T12:14:16Z</time>
      </trkpt>
      <trkpt lat="43.23144" lon="0.91303">
        <ele>355.53446646245</ele>
        <time>2014-09-20T12:14:21Z</time>
      </trkpt>
      <trkpt lat="43.23141" lon="0.91298">
        <ele>356.23506884689</ele>
        <time>2014-09-20T12:14:26Z</time>
      </trkpt>
      <trkpt lat="43.2314" lon="0.91292">
        <ele>356.23506884689</ele>
        <time>2014-09-20T12:14:31Z</time>
      </trkpt>
      <trkpt lat="43.23138" lon="0.91287">
        <ele>356.23506884689</ele>
        <time>2014-09-20T12:14:36Z</time>
      </trkpt>
      <trkpt lat="43.23141" lon="0.91278">
        <ele>357.2366869739</ele>
        <time>2014-09-20T12:14:41Z</time>
      </trkpt>
      <trkpt lat="43.23141" lon="0.91271">
        <ele>357.2366869739</ele>
        <time>2014-09-20T12:14:46Z</time>
      </trkpt>
      <trkpt lat="43.23141" lon="0.91272">
        <ele>357.2366869739</ele>
        <time>2014-09-20T12:14:51Z</time>
      </trkpt>
      <trkpt lat="43.2314" lon="0.91274">
        <ele>357.2366869739</ele>
        <time>2014-09-20T12:14:56Z</time>
      </trkpt>
      <trkpt lat="43.23138" lon="0.91272">
        <ele>358.2140829215</ele>
        <time>2014-09-20T12:15:01Z</time>
      </trkpt>
      <trkpt lat="43.23135" lon="0.91264">
        <ele>358.2140829215</ele>
        <time>2014-09-20T12:15:06Z</time>
      </trkpt>
      <trkpt lat="43.23132" lon="0.91257">
        <ele>360.43668473774</ele>
        <time>2014-09-20T12:15:11Z</time>
      </trkpt>
      <trkpt lat="43.23127" lon="0.91255">
        <ele>360.43668473774</ele>
        <time>2014-09-20T12:15:16Z</time>
      </trkpt>
      <trkpt lat="43.23121" lon="0.91255">
        <ele>362.43984880598</ele>
        <time>2014-09-20T12:15:21Z</time>
      </trkpt>
      <trkpt lat="43.23118" lon="0.91256">
        <ele>362.43984880598</ele>
        <time>2014-09-20T12:15:26Z</time>
      </trkpt>
      <trkpt lat="43.23116" lon="0.91258">
        <ele>362.43984880598</ele>
        <time>2014-09-20T12:15:31Z</time>
      </trkpt>
      <trkpt lat="43.23114" lon="0.91263">
        <ele>364.52433950982</ele>
        <time>2014-09-20T12:15:36Z</time>
      </trkpt>
      <trkpt lat="43.23114" lon="0.91267">
        <ele>364.52433950982</ele>
        <time>2014-09-20T12:15:41Z</time>
      </trkpt>
      <trkpt lat="43.23111" lon="0.91269">
        <ele>364.52433950982</ele>
        <time>2014-09-20T12:15:46Z</time>
      </trkpt>
      <trkpt lat="43.23106" lon="0.91269">
        <ele>366.10386943308</ele>
        <time>2014-09-20T12:15:51Z</time>
      </trkpt>
      <trkpt lat="43.23102" lon="0.91274">
        <ele>366.10386943308</ele>
        <time>2014-09-20T12:15:56Z</time>
      </trkpt>
      <trkpt lat="43.23098" lon="0.91278">
        <ele>366.99686505097</ele>
        <time>2014-09-20T12:16:01Z</time>
      </trkpt>
      <trkpt lat="43.23096" lon="0.91284">
        <ele>366.99686505097</ele>
        <time>2014-09-20T12:16:06Z</time>
      </trkpt>
      <trkpt lat="43.23093" lon="0.91289">
        <ele>368.43485816501</ele>
        <time>2014-09-20T12:16:11Z</time>
      </trkpt>
      <trkpt lat="43.23091" lon="0.91295">
        <ele>368.43485816501</ele>
        <time>2014-09-20T12:16:16Z</time>
      </trkpt>
      <trkpt lat="43.23089" lon="0.91298">
        <ele>368.43485816501</ele>
        <time>2014-09-20T12:16:21Z</time>
      </trkpt>
      <trkpt lat="43.23087" lon="0.91302">
        <ele>370.40446783881</ele>
        <time>2014-09-20T12:16:26Z</time>
      </trkpt>
      <trkpt lat="43.23086" lon="0.91304">
        <ele>370.40446783881</ele>
        <time>2014-09-20T12:16:31Z</time>
      </trkpt>
      <trkpt lat="43.23085" lon="0.91307">
        <ele>370.40446783881</ele>
        <time>2014-09-20T12:16:36Z</time>
      </trkpt>
      <trkpt lat="43.23085" lon="0.91306">
        <ele>370.40446783881</ele>
        <time>2014-09-20T12:16:41Z</time>
      </trkpt>
      <trkpt lat="43.23085" lon="0.91308">
        <ele>370.40446783881</ele>
        <time>2014-09-20T12:16:46Z</time>
      </trkpt>
      <trkpt lat="43.23072" lon="0.9131">
        <ele>372.14240871412</ele>
        <time>2014-09-20T12:16:51Z</time>
      </trkpt>
      <trkpt lat="43.23065" lon="0.91307">
        <ele>372.14240871412</ele>
        <time>2014-09-20T12:16:56Z</time>
      </trkpt>
      <trkpt lat="43.23056" lon="0.91305">
        <ele>373.50414001321</ele>
        <time>2014-09-20T12:17:01Z</time>
      </trkpt>
      <trkpt lat="43.23051" lon="0.91305">
        <ele>373.50414001321</ele>
        <time>2014-09-20T12:17:06Z</time>
      </trkpt>
      <trkpt lat="43.23047" lon="0.91305">
        <ele>375.42321725625</ele>
        <time>2014-09-20T12:17:11Z</time>
      </trkpt>
      <trkpt lat="43.23045" lon="0.913">
        <ele>375.42321725625</ele>
        <time>2014-09-20T12:17:16Z</time>
      </trkpt>
      <trkpt lat="43.2304" lon="0.913">
        <ele>375.42321725625</ele>
        <time>2014-09-20T12:17:21Z</time>
      </trkpt>
      <trkpt lat="43.23035" lon="0.91299">
        <ele>377.32195196597</ele>
        <time>2014-09-20T12:17:26Z</time>
      </trkpt>
      <trkpt lat="43.23031" lon="0.91298">
        <ele>377.32195196597</ele>
        <time>2014-09-20T12:17:31Z</time>
      </trkpt>
      <trkpt lat="43.23027" lon="0.91296">
        <ele>377.32195196597</ele>
        <time>2014-09-20T12:17:36Z</time>
      </trkpt>
      <trkpt lat="43.2302" lon="0.91291">
        <ele>378.92456714319</ele>
        <time>2014-09-20T12:17:41Z</time>
      </trkpt>
      <trkpt lat="43.23018" lon="0.91295">
        <ele>378.92456714319</ele>
        <time>2014-09-20T12:17:46Z</time>
      </trkpt>
      <trkpt lat="43.23014" lon="0.91298">
        <ele>378.92456714319</ele>
        <time>2014-09-20T12:17:51Z</time>
      </trkpt>
      <trkpt lat="43.2301" lon="0.91299">
        <ele>380.89871219853</ele>
        <time>2014-09-20T12:17:56Z</time>
      </trkpt>
      <trkpt lat="43.23005" lon="0.91299">
        <ele>380.89871219853</ele>
        <time>2014-09-20T12:18:01Z</time>
      </trkpt>
      <trkpt lat="43.23" lon="0.91301">
        <ele>382.92526056683</ele>
        <time>2014-09-20T12:18:06Z</time>
      </trkpt>
      <trkpt lat="43.22995" lon="0.913">
        <ele>382.92526056683</ele>
        <time>2014-09-20T12:18:11Z</time>
      </trkpt>
      <trkpt lat="43.22991" lon="0.91299">
        <ele>382.92526056683</ele>
        <time>2014-09-20T12:18:16Z</time>
      </trkpt>
      <trkpt lat="43.22986" lon="0.91297">
        <ele>385.16957928481</ele>
        <time>2014-09-20T12:18:21Z</time>
      </trkpt>
      <trkpt lat="43.22978" lon="0.91296">
        <ele>385.16957928481</ele>
        <time>2014-09-20T12:18:26Z</time>
      </trkpt>
      <trkpt lat="43.2297" lon="0.91296">
        <ele>386.14145726283</ele>
        <time>2014-09-20T12:18:31Z</time>
      </trkpt>
      <trkpt lat="43.22965" lon="0.91298">
        <ele>386.14145726283</ele>
        <time>2014-09-20T12:18:36Z</time>
      </trkpt>
      <trkpt lat="43.22961" lon="0.91301">
        <ele>386.42368610889</ele>
        <time>2014-09-20T12:18:41Z</time>
      </trkpt>
      <trkpt lat="43.22957" lon="0.91302">
        <ele>386.42368610889</ele>
        <time>2014-09-20T12:18:46Z</time>
      </trkpt>
      <trkpt lat="43.22953" lon="0.91302">
        <ele>386.42368610889</ele>
        <time>2014-09-20T12:18:51Z</time>
      </trkpt>
      <trkpt lat="43.22949" lon="0.91305">
        <ele>386.58705376165</ele>
        <time>2014-09-20T12:18:56Z</time>
      </trkpt>
      <trkpt lat="43.22945" lon="0.91307">
        <ele>386.58705376165</ele>
        <time>2014-09-20T12:19:01Z</time>
      </trkpt>
      <trkpt lat="43.2294" lon="0.91312">
        <ele>386.90139874775</ele>
        <time>2014-09-20T12:19:06Z</time>
      </trkpt>
      <trkpt lat="43.22933" lon="0.91316">
        <ele>386.90139874775</ele>
        <time>2014-09-20T12:19:11Z</time>
      </trkpt>
      <trkpt lat="43.22928" lon="0.91318">
        <ele>386.88138639254</ele>
        <time>2014-09-20T12:19:16Z</time>
      </trkpt>
      <trkpt lat="43.22927" lon="0.91313">
        <ele>386.88138639254</ele>
        <time>2014-09-20T12:19:21Z</time>
      </trkpt>
      <trkpt lat="43.22926" lon="0.91311">
        <ele>386.88138639254</ele>
        <time>2014-09-20T12:19:26Z</time>
      </trkpt>
      <trkpt lat="43.22926" lon="0.9131">
        <ele>386.88138639254</ele>
        <time>2014-09-20T12:19:31Z</time>
      </trkpt>
      <trkpt lat="43.22926" lon="0.9131">
        <ele>386.88138639254</ele>
        <time>2014-09-20T12:19:36Z</time>
      </trkpt>
      <trkpt lat="43.22926" lon="0.9131">
        <ele>386.88138639254</ele>
        <time>2014-09-20T12:19:41Z</time>
      </trkpt>
      <trkpt lat="43.22926" lon="0.9131">
        <ele>386.88138639254</ele>
        <time>2014-09-20T12:19:46Z</time>
      </trkpt>
      <trkpt lat="43.22925" lon="0.91312">
        <ele>386.88138639254</ele>
        <time>2014-09-20T12:19:51Z</time>
      </trkpt>
      <trkpt lat="43.22925" lon="0.91312">
        <ele>386.88138639254</ele>
        <time>2014-09-20T12:19:56Z</time>
      </trkpt>
      <trkpt lat="43.22924" lon="0.91312">
        <ele>386.88138639254</ele>
        <time>2014-09-20T12:20:01Z</time>
      </trkpt>
      <trkpt lat="43.22924" lon="0.91312">
        <ele>386.88138639254</ele>
        <time>2014-09-20T12:20:06Z</time>
      </trkpt>
      <trkpt lat="43.22924" lon="0.91311">
        <ele>387.53382741959</ele>
        <time>2014-09-20T12:20:11Z</time>
      </trkpt>
      <trkpt lat="43.22925" lon="0.91311">
        <ele>387.53382741959</ele>
        <time>2014-09-20T12:20:16Z</time>
      </trkpt>
      <trkpt lat="43.22926" lon="0.91312">
        <ele>387.53382741959</ele>
        <time>2014-09-20T12:20:21Z</time>
      </trkpt>
      <trkpt lat="43.22926" lon="0.91312">
        <ele>387.53382741959</ele>
        <time>2014-09-20T12:20:26Z</time>
      </trkpt>
      <trkpt lat="43.22927" lon="0.91312">
        <ele>387.53382741959</ele>
        <time>2014-09-20T12:20:31Z</time>
      </trkpt>
      <trkpt lat="43.22926" lon="0.91313">
        <ele>387.53382741959</ele>
        <time>2014-09-20T12:20:36Z</time>
      </trkpt>
      <trkpt lat="43.22926" lon="0.91315">
        <ele>387.53382741959</ele>
        <time>2014-09-20T12:20:41Z</time>
      </trkpt>
      <trkpt lat="43.22926" lon="0.91315">
        <ele>387.53382741959</ele>
        <time>2014-09-20T12:20:46Z</time>
      </trkpt>
      <trkpt lat="43.22926" lon="0.91316">
        <ele>387.53382741959</ele>
        <time>2014-09-20T12:20:51Z</time>
      </trkpt>
      <trkpt lat="43.22925" lon="0.91315">
        <ele>387.53382741959</ele>
        <time>2014-09-20T12:20:56Z</time>
      </trkpt>
      <trkpt lat="43.22924" lon="0.9131">
        <ele>387.81538860674</ele>
        <time>2014-09-20T12:21:01Z</time>
      </trkpt>
      <trkpt lat="43.22922" lon="0.91304">
        <ele>387.81538860674</ele>
        <time>2014-09-20T12:21:06Z</time>
      </trkpt>
      <trkpt lat="43.22919" lon="0.91298">
        <ele>388.04302811225</ele>
        <time>2014-09-20T12:21:11Z</time>
      </trkpt>
      <trkpt lat="43.22916" lon="0.9129">
        <ele>388.04302811225</ele>
        <time>2014-09-20T12:21:16Z</time>
      </trkpt>
      <trkpt lat="43.22913" lon="0.91281">
        <ele>387.5306277153</ele>
        <time>2014-09-20T12:21:21Z</time>
      </trkpt>
      <trkpt lat="43.22909" lon="0.91274">
        <ele>387.5306277153</ele>
        <time>2014-09-20T12:21:26Z</time>
      </trkpt>
      <trkpt lat="43.22906" lon="0.91267">
        <ele>386.88390720716</ele>
        <time>2014-09-20T12:21:31Z</time>
      </trkpt>
      <trkpt lat="43.22904" lon="0.91259">
        <ele>386.88390720716</ele>
        <time>2014-09-20T12:21:36Z</time>
      </trkpt>
      <trkpt lat="43.22902" lon="0.91252">
        <ele>386.28977305958</ele>
        <time>2014-09-20T12:21:41Z</time>
      </trkpt>
      <trkpt lat="43.22899" lon="0.91245">
        <ele>386.28977305958</ele>
        <time>2014-09-20T12:21:46Z</time>
      </trkpt>
      <trkpt lat="43.22896" lon="0.91239">
        <ele>386.33916200605</ele>
        <time>2014-09-20T12:21:51Z</time>
      </trkpt>
      <trkpt lat="43.22893" lon="0.91233">
        <ele>386.33916200605</ele>
        <time>2014-09-20T12:21:56Z</time>
      </trkpt>
      <trkpt lat="43.22888" lon="0.91227">
        <ele>386.62663896035</ele>
        <time>2014-09-20T12:22:01Z</time>
      </trkpt>
      <trkpt lat="43.22885" lon="0.9122">
        <ele>386.62663896035</ele>
        <time>2014-09-20T12:22:06Z</time>
      </trkpt>
      <trkpt lat="43.22882" lon="0.91212">
        <ele>386.53086517442</ele>
        <time>2014-09-20T12:22:11Z</time>
      </trkpt>
      <trkpt lat="43.22878" lon="0.91206">
        <ele>386.53086517442</ele>
        <time>2014-09-20T12:22:16Z</time>
      </trkpt>
      <trkpt lat="43.22876" lon="0.91199">
        <ele>385.92392927176</ele>
        <time>2014-09-20T12:22:21Z</time>
      </trkpt>
      <trkpt lat="43.22872" lon="0.91193">
        <ele>385.92392927176</ele>
        <time>2014-09-20T12:22:26Z</time>
      </trkpt>
      <trkpt lat="43.22867" lon="0.91188">
        <ele>385.97129975616</ele>
        <time>2014-09-20T12:22:31Z</time>
      </trkpt>
      <trkpt lat="43.22863" lon="0.91182">
        <ele>385.97129975616</ele>
        <time>2014-09-20T12:22:36Z</time>
      </trkpt>
      <trkpt lat="43.22859" lon="0.91176">
        <ele>385.66133831032</ele>
        <time>2014-09-20T12:22:41Z</time>
      </trkpt>
      <trkpt lat="43.22854" lon="0.91171">
        <ele>385.66133831032</ele>
        <time>2014-09-20T12:22:46Z</time>
      </trkpt>
      <trkpt lat="43.2285" lon="0.91166">
        <ele>385.55642997683</ele>
        <time>2014-09-20T12:22:51Z</time>
      </trkpt>
      <trkpt lat="43.22844" lon="0.91161">
        <ele>385.55642997683</ele>
        <time>2014-09-20T12:22:56Z</time>
      </trkpt>
      <trkpt lat="43.22841" lon="0.91155">
        <ele>385.29794002628</ele>
        <time>2014-09-20T12:23:01Z</time>
      </trkpt>
      <trkpt lat="43.22837" lon="0.91149">
        <ele>385.29794002628</ele>
        <time>2014-09-20T12:23:06Z</time>
      </trkpt>
      <trkpt lat="43.22833" lon="0.91143">
        <ele>385.26009731295</ele>
        <time>2014-09-20T12:23:11Z</time>
      </trkpt>
      <trkpt lat="43.22832" lon="0.91142">
        <ele>385.26009731295</ele>
        <time>2014-09-20T12:23:16Z</time>
      </trkpt>
      <trkpt lat="43.22829" lon="0.91136">
        <ele>385.26009731295</ele>
        <time>2014-09-20T12:23:21Z</time>
      </trkpt>
      <trkpt lat="43.22824" lon="0.91132">
        <ele>385.77455104317</ele>
        <time>2014-09-20T12:23:26Z</time>
      </trkpt>
      <trkpt lat="43.22821" lon="0.91127">
        <ele>385.77455104317</ele>
        <time>2014-09-20T12:23:31Z</time>
      </trkpt>
      <trkpt lat="43.22816" lon="0.91122">
        <ele>385.56175493585</ele>
        <time>2014-09-20T12:23:36Z</time>
      </trkpt>
      <trkpt lat="43.22812" lon="0.91116">
        <ele>385.56175493585</ele>
        <time>2014-09-20T12:23:41Z</time>
      </trkpt>
      <trkpt lat="43.22809" lon="0.9111">
        <ele>385.2539366375</ele>
        <time>2014-09-20T12:23:46Z</time>
      </trkpt>
      <trkpt lat="43.22805" lon="0.91104">
        <ele>385.2539366375</ele>
        <time>2014-09-20T12:23:51Z</time>
      </trkpt>
      <trkpt lat="43.22801" lon="0.911">
        <ele>385.50914116655</ele>
        <time>2014-09-20T12:23:56Z</time>
      </trkpt>
      <trkpt lat="43.22797" lon="0.91094">
        <ele>385.50914116655</ele>
        <time>2014-09-20T12:24:01Z</time>
      </trkpt>
      <trkpt lat="43.22793" lon="0.91089">
        <ele>385.86901032578</ele>
        <time>2014-09-20T12:24:06Z</time>
      </trkpt>
      <trkpt lat="43.22788" lon="0.91084">
        <ele>385.86901032578</ele>
        <time>2014-09-20T12:24:11Z</time>
      </trkpt>
      <trkpt lat="43.22786" lon="0.91078">
        <ele>386.41289135334</ele>
        <time>2014-09-20T12:24:16Z</time>
      </trkpt>
      <trkpt lat="43.22784" lon="0.91076">
        <ele>386.41289135334</ele>
        <time>2014-09-20T12:24:21Z</time>
      </trkpt>
      <trkpt lat="43.22782" lon="0.91072">
        <ele>386.41289135334</ele>
        <time>2014-09-20T12:24:26Z</time>
      </trkpt>
      <trkpt lat="43.22779" lon="0.91071">
        <ele>387.47312908154</ele>
        <time>2014-09-20T12:24:31Z</time>
      </trkpt>
      <trkpt lat="43.22774" lon="0.91069">
        <ele>387.47312908154</ele>
        <time>2014-09-20T12:24:36Z</time>
      </trkpt>
      <trkpt lat="43.22772" lon="0.91068">
        <ele>387.47312908154</ele>
        <time>2014-09-20T12:24:41Z</time>
      </trkpt>
      <trkpt lat="43.22773" lon="0.91067">
        <ele>387.47312908154</ele>
        <time>2014-09-20T12:24:46Z</time>
      </trkpt>
      <trkpt lat="43.22774" lon="0.91068">
        <ele>388.5635423237</ele>
        <time>2014-09-20T12:24:51Z</time>
      </trkpt>
      <trkpt lat="43.22774" lon="0.91067">
        <ele>388.5635423237</ele>
        <time>2014-09-20T12:24:56Z</time>
      </trkpt>
      <trkpt lat="43.2277" lon="0.91068">
        <ele>388.5635423237</ele>
        <time>2014-09-20T12:25:01Z</time>
      </trkpt>
      <trkpt lat="43.22764" lon="0.9107">
        <ele>389.13265553799</ele>
        <time>2014-09-20T12:25:06Z</time>
      </trkpt>
      <trkpt lat="43.22759" lon="0.91075">
        <ele>389.13265553799</ele>
        <time>2014-09-20T12:25:11Z</time>
      </trkpt>
      <trkpt lat="43.22755" lon="0.9108">
        <ele>389.59323754497</ele>
        <time>2014-09-20T12:25:16Z</time>
      </trkpt>
      <trkpt lat="43.22751" lon="0.91084">
        <ele>389.59323754497</ele>
        <time>2014-09-20T12:25:21Z</time>
      </trkpt>
      <trkpt lat="43.22747" lon="0.9109">
        <ele>390.29918260809</ele>
        <time>2014-09-20T12:25:26Z</time>
      </trkpt>
      <trkpt lat="43.22742" lon="0.91093">
        <ele>390.29918260809</ele>
        <time>2014-09-20T12:25:31Z</time>
      </trkpt>
      <trkpt lat="43.22737" lon="0.91097">
        <ele>390.45360105492</ele>
        <time>2014-09-20T12:25:36Z</time>
      </trkpt>
      <trkpt lat="43.22733" lon="0.91101">
        <ele>390.45360105492</ele>
        <time>2014-09-20T12:25:41Z</time>
      </trkpt>
      <trkpt lat="43.22729" lon="0.91105">
        <ele>390.41490438056</ele>
        <time>2014-09-20T12:25:46Z</time>
      </trkpt>
      <trkpt lat="43.22723" lon="0.91108">
        <ele>390.41490438056</ele>
        <time>2014-09-20T12:25:51Z</time>
      </trkpt>
      <trkpt lat="43.22717" lon="0.9111">
        <ele>390.02570923694</ele>
        <time>2014-09-20T12:25:56Z</time>
      </trkpt>
      <trkpt lat="43.22711" lon="0.91112">
        <ele>390.02570923694</ele>
        <time>2014-09-20T12:26:01Z</time>
      </trkpt>
      <trkpt lat="43.22706" lon="0.91113">
        <ele>389.34290048533</ele>
        <time>2014-09-20T12:26:06Z</time>
      </trkpt>
      <trkpt lat="43.22701" lon="0.91114">
        <ele>389.34290048533</ele>
        <time>2014-09-20T12:26:11Z</time>
      </trkpt>
      <trkpt lat="43.22696" lon="0.91117">
        <ele>388.43438265576</ele>
        <time>2014-09-20T12:26:16Z</time>
      </trkpt>
      <trkpt lat="43.22689" lon="0.91119">
        <ele>388.43438265576</ele>
        <time>2014-09-20T12:26:21Z</time>
      </trkpt>
      <trkpt lat="43.22684" lon="0.91121">
        <ele>388.04098636924</ele>
        <time>2014-09-20T12:26:26Z</time>
      </trkpt>
      <trkpt lat="43.2268" lon="0.91123">
        <ele>388.04098636924</ele>
        <time>2014-09-20T12:26:31Z</time>
      </trkpt>
      <trkpt lat="43.22677" lon="0.9112">
        <ele>388.04098636924</ele>
        <time>2014-09-20T12:26:36Z</time>
      </trkpt>
      <trkpt lat="43.22673" lon="0.91115">
        <ele>386.90212752273</ele>
        <time>2014-09-20T12:26:41Z</time>
      </trkpt>
      <trkpt lat="43.22669" lon="0.91114">
        <ele>386.90212752273</ele>
        <time>2014-09-20T12:26:46Z</time>
      </trkpt>
      <trkpt lat="43.22665" lon="0.91111">
        <ele>386.90212752273</ele>
        <time>2014-09-20T12:26:51Z</time>
      </trkpt>
      <trkpt lat="43.22659" lon="0.91111">
        <ele>385.99911716422</ele>
        <time>2014-09-20T12:26:56Z</time>
      </trkpt>
      <trkpt lat="43.22654" lon="0.91108">
        <ele>385.99911716422</ele>
        <time>2014-09-20T12:27:01Z</time>
      </trkpt>
      <trkpt lat="43.2265" lon="0.91107">
        <ele>384.41024477294</ele>
        <time>2014-09-20T12:27:06Z</time>
      </trkpt>
      <trkpt lat="43.22646" lon="0.91106">
        <ele>384.41024477294</ele>
        <time>2014-09-20T12:27:11Z</time>
      </trkpt>
      <trkpt lat="43.22642" lon="0.91105">
        <ele>384.41024477294</ele>
        <time>2014-09-20T12:27:16Z</time>
      </trkpt>
      <trkpt lat="43.22635" lon="0.91106">
        <ele>382.76770768052</ele>
        <time>2014-09-20T12:27:21Z</time>
      </trkpt>
      <trkpt lat="43.22628" lon="0.91105">
        <ele>382.76770768052</ele>
        <time>2014-09-20T12:27:26Z</time>
      </trkpt>
      <trkpt lat="43.22623" lon="0.911">
        <ele>380.59091070234</ele>
        <time>2014-09-20T12:27:31Z</time>
      </trkpt>
      <trkpt lat="43.22623" lon="0.91095">
        <ele>380.59091070234</ele>
        <time>2014-09-20T12:27:36Z</time>
      </trkpt>
      <trkpt lat="43.22621" lon="0.91095">
        <ele>380.59091070234</ele>
        <time>2014-09-20T12:27:41Z</time>
      </trkpt>
      <trkpt lat="43.22614" lon="0.91096">
        <ele>378.09888195317</ele>
        <time>2014-09-20T12:27:46Z</time>
      </trkpt>
      <trkpt lat="43.22608" lon="0.91098">
        <ele>378.09888195317</ele>
        <time>2014-09-20T12:27:51Z</time>
      </trkpt>
      <trkpt lat="43.22603" lon="0.91101">
        <ele>374.99095008503</ele>
        <time>2014-09-20T12:27:56Z</time>
      </trkpt>
      <trkpt lat="43.22601" lon="0.91106">
        <ele>374.99095008503</ele>
        <time>2014-09-20T12:28:01Z</time>
      </trkpt>
      <trkpt lat="43.22599" lon="0.91112">
        <ele>374.99095008503</ele>
        <time>2014-09-20T12:28:06Z</time>
      </trkpt>
      <trkpt lat="43.22598" lon="0.91118">
        <ele>372.66182935547</ele>
        <time>2014-09-20T12:28:11Z</time>
      </trkpt>
      <trkpt lat="43.226" lon="0.91125">
        <ele>372.66182935547</ele>
        <time>2014-09-20T12:28:16Z</time>
      </trkpt>
      <trkpt lat="43.22599" lon="0.91132">
        <ele>370.48478323427</ele>
        <time>2014-09-20T12:28:21Z</time>
      </trkpt>
      <trkpt lat="43.226" lon="0.9114">
        <ele>370.48478323427</ele>
        <time>2014-09-20T12:28:26Z</time>
      </trkpt>
      <trkpt lat="43.226" lon="0.91146">
        <ele>368.88732272521</ele>
        <time>2014-09-20T12:28:31Z</time>
      </trkpt>
      <trkpt lat="43.22601" lon="0.91151">
        <ele>368.88732272521</ele>
        <time>2014-09-20T12:28:36Z</time>
      </trkpt>
      <trkpt lat="43.22601" lon="0.91158">
        <ele>368.88732272521</ele>
        <time>2014-09-20T12:28:41Z</time>
      </trkpt>
      <trkpt lat="43.22597" lon="0.91167">
        <ele>367.25499823943</ele>
        <time>2014-09-20T12:28:46Z</time>
      </trkpt>
      <trkpt lat="43.22595" lon="0.9117">
        <ele>367.25499823943</ele>
        <time>2014-09-20T12:28:51Z</time>
      </trkpt>
      <trkpt lat="43.22594" lon="0.91178">
        <ele>366.9207084274</ele>
        <time>2014-09-20T12:28:56Z</time>
      </trkpt>
      <trkpt lat="43.22592" lon="0.91185">
        <ele>366.9207084274</ele>
        <time>2014-09-20T12:29:01Z</time>
      </trkpt>
      <trkpt lat="43.22593" lon="0.9119">
        <ele>366.9207084274</ele>
        <time>2014-09-20T12:29:06Z</time>
      </trkpt>
      <trkpt lat="43.22594" lon="0.9119">
        <ele>366.13254202762</ele>
        <time>2014-09-20T12:29:11Z</time>
      </trkpt>
      <trkpt lat="43.22594" lon="0.91191">
        <ele>366.13254202762</ele>
        <time>2014-09-20T12:29:16Z</time>
      </trkpt>
      <trkpt lat="43.22594" lon="0.91192">
        <ele>366.13254202762</ele>
        <time>2014-09-20T12:29:21Z</time>
      </trkpt>
      <trkpt lat="43.22594" lon="0.91192">
        <ele>366.13254202762</ele>
        <time>2014-09-20T12:29:26Z</time>
      </trkpt>
      <trkpt lat="43.22589" lon="0.91195">
        <ele>366.13254202762</ele>
        <time>2014-09-20T12:29:31Z</time>
      </trkpt>
      <trkpt lat="43.22582" lon="0.91202">
        <ele>365.80476311541</ele>
        <time>2014-09-20T12:29:36Z</time>
      </trkpt>
      <trkpt lat="43.22573" lon="0.91207">
        <ele>365.87514140502</ele>
        <time>2014-09-20T12:29:41Z</time>
      </trkpt>
      <trkpt lat="43.22566" lon="0.91212">
        <ele>365.87514140502</ele>
        <time>2014-09-20T12:29:46Z</time>
      </trkpt>
      <trkpt lat="43.22561" lon="0.91215">
        <ele>366.78916024427</ele>
        <time>2014-09-20T12:29:51Z</time>
      </trkpt>
      <trkpt lat="43.22559" lon="0.91219">
        <ele>366.78916024427</ele>
        <time>2014-09-20T12:29:56Z</time>
      </trkpt>
      <trkpt lat="43.22557" lon="0.91223">
        <ele>366.78916024427</ele>
        <time>2014-09-20T12:30:01Z</time>
      </trkpt>
      <trkpt lat="43.22557" lon="0.91225">
        <ele>366.78916024427</ele>
        <time>2014-09-20T12:30:06Z</time>
      </trkpt>
      <trkpt lat="43.22557" lon="0.91227">
        <ele>367.44392684672</ele>
        <time>2014-09-20T12:30:11Z</time>
      </trkpt>
      <trkpt lat="43.22556" lon="0.91227">
        <ele>367.44392684672</ele>
        <time>2014-09-20T12:30:16Z</time>
      </trkpt>
      <trkpt lat="43.22556" lon="0.91227">
        <ele>367.44392684672</ele>
        <time>2014-09-20T12:30:21Z</time>
      </trkpt>
      <trkpt lat="43.22556" lon="0.91227">
        <ele>367.44392684672</ele>
        <time>2014-09-20T12:30:26Z</time>
      </trkpt>
      <trkpt lat="43.22555" lon="0.91227">
        <ele>367.44392684672</ele>
        <time>2014-09-20T12:30:31Z</time>
      </trkpt>
      <trkpt lat="43.22553" lon="0.91227">
        <ele>367.44392684672</ele>
        <time>2014-09-20T12:30:36Z</time>
      </trkpt>
      <trkpt lat="43.22551" lon="0.91225">
        <ele>367.44392684672</ele>
        <time>2014-09-20T12:30:41Z</time>
      </trkpt>
      <trkpt lat="43.22551" lon="0.91223">
        <ele>367.44392684672</ele>
        <time>2014-09-20T12:30:46Z</time>
      </trkpt>
      <trkpt lat="43.22551" lon="0.91223">
        <ele>367.44392684672</ele>
        <time>2014-09-20T12:30:51Z</time>
      </trkpt>
      <trkpt lat="43.22552" lon="0.91223">
        <ele>367.44392684672</ele>
        <time>2014-09-20T12:30:56Z</time>
      </trkpt>
      <trkpt lat="43.22552" lon="0.91223">
        <ele>367.44392684672</ele>
        <time>2014-09-20T12:31:01Z</time>
      </trkpt>
      <trkpt lat="43.22552" lon="0.91223">
        <ele>367.44392684672</ele>
        <time>2014-09-20T12:31:06Z</time>
      </trkpt>
      <trkpt lat="43.22551" lon="0.91223">
        <ele>367.44392684672</ele>
        <time>2014-09-20T12:31:11Z</time>
      </trkpt>
      <trkpt lat="43.22551" lon="0.91224">
        <ele>367.44392684672</ele>
        <time>2014-09-20T12:31:16Z</time>
      </trkpt>
      <trkpt lat="43.22551" lon="0.91224">
        <ele>367.44392684672</ele>
        <time>2014-09-20T12:31:21Z</time>
      </trkpt>
      <trkpt lat="43.22551" lon="0.91224">
        <ele>367.44392684672</ele>
        <time>2014-09-20T12:31:26Z</time>
      </trkpt>
      <trkpt lat="43.22551" lon="0.91224">
        <ele>367.44392684672</ele>
        <time>2014-09-20T12:31:31Z</time>
      </trkpt>
      <trkpt lat="43.22551" lon="0.91224">
        <ele>367.44392684672</ele>
        <time>2014-09-20T12:31:36Z</time>
      </trkpt>
      <trkpt lat="43.22551" lon="0.91224">
        <ele>367.44392684672</ele>
        <time>2014-09-20T12:31:41Z</time>
      </trkpt>
      <trkpt lat="43.22551" lon="0.91224">
        <ele>367.44392684672</ele>
        <time>2014-09-20T12:31:46Z</time>
      </trkpt>
      <trkpt lat="43.22551" lon="0.91224">
        <ele>367.44392684672</ele>
        <time>2014-09-20T12:31:51Z</time>
      </trkpt>
      <trkpt lat="43.22551" lon="0.91224">
        <ele>367.44392684672</ele>
        <time>2014-09-20T12:31:56Z</time>
      </trkpt>
      <trkpt lat="43.22551" lon="0.91224">
        <ele>367.44392684672</ele>
        <time>2014-09-20T12:32:01Z</time>
      </trkpt>
      <trkpt lat="43.22551" lon="0.91224">
        <ele>367.44392684672</ele>
        <time>2014-09-20T12:32:06Z</time>
      </trkpt>
      <trkpt lat="43.22551" lon="0.91224">
        <ele>367.44392684672</ele>
        <time>2014-09-20T12:32:11Z</time>
      </trkpt>
      <trkpt lat="43.22551" lon="0.91224">
        <ele>367.44392684672</ele>
        <time>2014-09-20T12:32:16Z</time>
      </trkpt>
      <trkpt lat="43.22551" lon="0.91224">
        <ele>367.44392684672</ele>
        <time>2014-09-20T12:32:21Z</time>
      </trkpt>
      <trkpt lat="43.22551" lon="0.91224">
        <ele>367.44392684672</ele>
        <time>2014-09-20T12:32:26Z</time>
      </trkpt>
      <trkpt lat="43.22551" lon="0.91224">
        <ele>367.44392684672</ele>
        <time>2014-09-20T12:32:31Z</time>
      </trkpt>
      <trkpt lat="43.22551" lon="0.91224">
        <ele>367.44392684672</ele>
        <time>2014-09-20T12:32:36Z</time>
      </trkpt>
      <trkpt lat="43.22551" lon="0.91223">
        <ele>367.62521280946</ele>
        <time>2014-09-20T12:32:41Z</time>
      </trkpt>
      <trkpt lat="43.22552" lon="0.91223">
        <ele>367.62521280946</ele>
        <time>2014-09-20T12:32:46Z</time>
      </trkpt>
      <trkpt lat="43.22552" lon="0.91223">
        <ele>367.62521280946</ele>
        <time>2014-09-20T12:32:51Z</time>
      </trkpt>
      <trkpt lat="43.22552" lon="0.91223">
        <ele>367.62521280946</ele>
        <time>2014-09-20T12:32:56Z</time>
      </trkpt>
      <trkpt lat="43.22552" lon="0.91223">
        <ele>367.62521280946</ele>
        <time>2014-09-20T12:33:01Z</time>
      </trkpt>
      <trkpt lat="43.22552" lon="0.91223">
        <ele>367.62521280946</ele>
        <time>2014-09-20T12:33:06Z</time>
      </trkpt>
      <trkpt lat="43.22552" lon="0.91223">
        <ele>367.62521280946</ele>
        <time>2014-09-20T12:33:11Z</time>
      </trkpt>
      <trkpt lat="43.22552" lon="0.91223">
        <ele>367.62521280946</ele>
        <time>2014-09-20T12:33:16Z</time>
      </trkpt>
      <trkpt lat="43.22552" lon="0.91223">
        <ele>367.62521280946</ele>
        <time>2014-09-20T12:33:21Z</time>
      </trkpt>
      <trkpt lat="43.22552" lon="0.91223">
        <ele>367.62521280946</ele>
        <time>2014-09-20T12:33:26Z</time>
      </trkpt>
      <trkpt lat="43.22552" lon="0.91223">
        <ele>367.62521280946</ele>
        <time>2014-09-20T12:33:31Z</time>
      </trkpt>
      <trkpt lat="43.22552" lon="0.91223">
        <ele>367.62521280946</ele>
        <time>2014-09-20T12:33:36Z</time>
      </trkpt>
      <trkpt lat="43.22552" lon="0.91223">
        <ele>367.62521280946</ele>
        <time>2014-09-20T12:33:41Z</time>
      </trkpt>
      <trkpt lat="43.22552" lon="0.91223">
        <ele>367.62521280946</ele>
        <time>2014-09-20T12:33:46Z</time>
      </trkpt>
      <trkpt lat="43.22552" lon="0.91223">
        <ele>367.62521280946</ele>
        <time>2014-09-20T12:33:51Z</time>
      </trkpt>
      <trkpt lat="43.22552" lon="0.91223">
        <ele>367.62521280946</ele>
        <time>2014-09-20T12:33:56Z</time>
      </trkpt>
      <trkpt lat="43.22552" lon="0.91223">
        <ele>367.62521280946</ele>
        <time>2014-09-20T12:34:01Z</time>
      </trkpt>
      <trkpt lat="43.22552" lon="0.91223">
        <ele>367.62521280946</ele>
        <time>2014-09-20T12:34:06Z</time>
      </trkpt>
      <trkpt lat="43.22552" lon="0.91223">
        <ele>367.62521280946</ele>
        <time>2014-09-20T12:34:11Z</time>
      </trkpt>
      <trkpt lat="43.22552" lon="0.91223">
        <ele>367.62521280946</ele>
        <time>2014-09-20T12:34:16Z</time>
      </trkpt>
      <trkpt lat="43.22552" lon="0.91223">
        <ele>367.62521280946</ele>
        <time>2014-09-20T12:34:21Z</time>
      </trkpt>
      <trkpt lat="43.22552" lon="0.91224">
        <ele>367.62521280946</ele>
        <time>2014-09-20T12:34:26Z</time>
      </trkpt>
      <trkpt lat="43.22552" lon="0.91224">
        <ele>367.62521280946</ele>
        <time>2014-09-20T12:34:31Z</time>
      </trkpt>
      <trkpt lat="43.22552" lon="0.91224">
        <ele>367.62521280946</ele>
        <time>2014-09-20T12:34:36Z</time>
      </trkpt>
      <trkpt lat="43.22552" lon="0.91224">
        <ele>367.62521280946</ele>
        <time>2014-09-20T12:34:41Z</time>
      </trkpt>
      <trkpt lat="43.22552" lon="0.91224">
        <ele>367.62521280946</ele>
        <time>2014-09-20T12:34:46Z</time>
      </trkpt>
      <trkpt lat="43.22552" lon="0.91224">
        <ele>367.62521280946</ele>
        <time>2014-09-20T12:34:51Z</time>
      </trkpt>
      <trkpt lat="43.22552" lon="0.91224">
        <ele>367.62521280946</ele>
        <time>2014-09-20T12:34:56Z</time>
      </trkpt>
      <trkpt lat="43.22552" lon="0.91224">
        <ele>367.62521280946</ele>
        <time>2014-09-20T12:35:01Z</time>
      </trkpt>
      <trkpt lat="43.22552" lon="0.91224">
        <ele>367.62521280946</ele>
        <time>2014-09-20T12:35:06Z</time>
      </trkpt>
      <trkpt lat="43.22552" lon="0.91224">
        <ele>367.62521280946</ele>
        <time>2014-09-20T12:35:11Z</time>
      </trkpt>
      <trkpt lat="43.22552" lon="0.91224">
        <ele>367.62521280946</ele>
        <time>2014-09-20T12:35:16Z</time>
      </trkpt>
      <trkpt lat="43.22552" lon="0.91223">
        <ele>367.62521280946</ele>
        <time>2014-09-20T12:35:21Z</time>
      </trkpt>
      <trkpt lat="43.22551" lon="0.91223">
        <ele>367.62521280946</ele>
        <time>2014-09-20T12:35:26Z</time>
      </trkpt>
      <trkpt lat="43.2255" lon="0.91223">
        <ele>367.62521280946</ele>
        <time>2014-09-20T12:35:31Z</time>
      </trkpt>
      <trkpt lat="43.22549" lon="0.91223">
        <ele>367.62521280946</ele>
        <time>2014-09-20T12:35:36Z</time>
      </trkpt>
      <trkpt lat="43.22549" lon="0.91225">
        <ele>367.62521280946</ele>
        <time>2014-09-20T12:35:41Z</time>
      </trkpt>
      <trkpt lat="43.2255" lon="0.91226">
        <ele>367.62521280946</ele>
        <time>2014-09-20T12:35:46Z</time>
      </trkpt>
      <trkpt lat="43.2255" lon="0.91226">
        <ele>367.62521280946</ele>
        <time>2014-09-20T12:35:51Z</time>
      </trkpt>
      <trkpt lat="43.2255" lon="0.91226">
        <ele>367.62521280946</ele>
        <time>2014-09-20T12:35:56Z</time>
      </trkpt>
      <trkpt lat="43.2255" lon="0.91226">
        <ele>367.62521280946</ele>
        <time>2014-09-20T12:36:01Z</time>
      </trkpt>
      <trkpt lat="43.22551" lon="0.91226">
        <ele>367.62521280946</ele>
        <time>2014-09-20T12:36:06Z</time>
      </trkpt>
      <trkpt lat="43.22551" lon="0.91226">
        <ele>367.62521280946</ele>
        <time>2014-09-20T12:36:11Z</time>
      </trkpt>
      <trkpt lat="43.22551" lon="0.91226">
        <ele>367.62521280946</ele>
        <time>2014-09-20T12:36:16Z</time>
      </trkpt>
      <trkpt lat="43.22551" lon="0.91226">
        <ele>367.62521280946</ele>
        <time>2014-09-20T12:36:21Z</time>
      </trkpt>
      <trkpt lat="43.22551" lon="0.91226">
        <ele>367.62521280946</ele>
        <time>2014-09-20T12:36:26Z</time>
      </trkpt>
      <trkpt lat="43.22551" lon="0.91226">
        <ele>367.62521280946</ele>
        <time>2014-09-20T12:36:31Z</time>
      </trkpt>
      <trkpt lat="43.22551" lon="0.91226">
        <ele>367.62521280946</ele>
        <time>2014-09-20T12:36:36Z</time>
      </trkpt>
      <trkpt lat="43.22551" lon="0.91226">
        <ele>367.62521280946</ele>
        <time>2014-09-20T12:36:41Z</time>
      </trkpt>
      <trkpt lat="43.22551" lon="0.91226">
        <ele>367.62521280946</ele>
        <time>2014-09-20T12:36:46Z</time>
      </trkpt>
      <trkpt lat="43.22551" lon="0.91226">
        <ele>367.62521280946</ele>
        <time>2014-09-20T12:36:51Z</time>
      </trkpt>
      <trkpt lat="43.22551" lon="0.91226">
        <ele>367.62521280946</ele>
        <time>2014-09-20T12:36:56Z</time>
      </trkpt>
      <trkpt lat="43.22551" lon="0.91227">
        <ele>367.62521280946</ele>
        <time>2014-09-20T12:37:01Z</time>
      </trkpt>
      <trkpt lat="43.22552" lon="0.91227">
        <ele>368.07248913213</ele>
        <time>2014-09-20T12:37:06Z</time>
      </trkpt>
      <trkpt lat="43.22551" lon="0.91225">
        <ele>368.07248913213</ele>
        <time>2014-09-20T12:37:11Z</time>
      </trkpt>
      <trkpt lat="43.22551" lon="0.91225">
        <ele>368.07248913213</ele>
        <time>2014-09-20T12:37:16Z</time>
      </trkpt>
      <trkpt lat="43.22551" lon="0.91225">
        <ele>368.07248913213</ele>
        <time>2014-09-20T12:37:21Z</time>
      </trkpt>
      <trkpt lat="43.22551" lon="0.91225">
        <ele>368.07248913213</ele>
        <time>2014-09-20T12:37:26Z</time>
      </trkpt>
      <trkpt lat="43.22551" lon="0.91225">
        <ele>368.07248913213</ele>
        <time>2014-09-20T12:37:31Z</time>
      </trkpt>
      <trkpt lat="43.22551" lon="0.91224">
        <ele>368.07248913213</ele>
        <time>2014-09-20T12:37:36Z</time>
      </trkpt>
      <trkpt lat="43.22551" lon="0.91224">
        <ele>368.07248913213</ele>
        <time>2014-09-20T12:37:41Z</time>
      </trkpt>
      <trkpt lat="43.22551" lon="0.91224">
        <ele>368.07248913213</ele>
        <time>2014-09-20T12:37:46Z</time>
      </trkpt>
      <trkpt lat="43.22551" lon="0.91224">
        <ele>368.07248913213</ele>
        <time>2014-09-20T12:37:51Z</time>
      </trkpt>
      <trkpt lat="43.22551" lon="0.91224">
        <ele>368.07248913213</ele>
        <time>2014-09-20T12:37:56Z</time>
      </trkpt>
      <trkpt lat="43.22551" lon="0.91224">
        <ele>368.07248913213</ele>
        <time>2014-09-20T12:38:01Z</time>
      </trkpt>
      <trkpt lat="43.22551" lon="0.91224">
        <ele>368.07248913213</ele>
        <time>2014-09-20T12:38:06Z</time>
      </trkpt>
      <trkpt lat="43.22551" lon="0.91224">
        <ele>368.07248913213</ele>
        <time>2014-09-20T12:38:11Z</time>
      </trkpt>
      <trkpt lat="43.22551" lon="0.91224">
        <ele>368.07248913213</ele>
        <time>2014-09-20T12:38:16Z</time>
      </trkpt>
      <trkpt lat="43.22551" lon="0.91224">
        <ele>368.07248913213</ele>
        <time>2014-09-20T12:38:21Z</time>
      </trkpt>
      <trkpt lat="43.22551" lon="0.91224">
        <ele>368.07248913213</ele>
        <time>2014-09-20T12:38:26Z</time>
      </trkpt>
      <trkpt lat="43.22551" lon="0.91224">
        <ele>368.07248913213</ele>
        <time>2014-09-20T12:38:31Z</time>
      </trkpt>
      <trkpt lat="43.22551" lon="0.91224">
        <ele>368.07248913213</ele>
        <time>2014-09-20T12:38:36Z</time>
      </trkpt>
      <trkpt lat="43.22551" lon="0.91224">
        <ele>368.07248913213</ele>
        <time>2014-09-20T12:38:41Z</time>
      </trkpt>
      <trkpt lat="43.22551" lon="0.91224">
        <ele>368.07248913213</ele>
        <time>2014-09-20T12:38:46Z</time>
      </trkpt>
      <trkpt lat="43.22551" lon="0.91224">
        <ele>368.07248913213</ele>
        <time>2014-09-20T12:38:51Z</time>
      </trkpt>
      <trkpt lat="43.22551" lon="0.91224">
        <ele>368.07248913213</ele>
        <time>2014-09-20T12:38:56Z</time>
      </trkpt>
      <trkpt lat="43.22551" lon="0.91224">
        <ele>368.07248913213</ele>
        <time>2014-09-20T12:39:01Z</time>
      </trkpt>
      <trkpt lat="43.22551" lon="0.91224">
        <ele>368.07248913213</ele>
        <time>2014-09-20T12:39:06Z</time>
      </trkpt>
      <trkpt lat="43.22551" lon="0.91224">
        <ele>368.07248913213</ele>
        <time>2014-09-20T12:39:11Z</time>
      </trkpt>
      <trkpt lat="43.22551" lon="0.91224">
        <ele>368.07248913213</ele>
        <time>2014-09-20T12:39:16Z</time>
      </trkpt>
      <trkpt lat="43.22551" lon="0.91224">
        <ele>368.07248913213</ele>
        <time>2014-09-20T12:39:21Z</time>
      </trkpt>
      <trkpt lat="43.22551" lon="0.91224">
        <ele>368.07248913213</ele>
        <time>2014-09-20T12:39:26Z</time>
      </trkpt>
      <trkpt lat="43.22551" lon="0.91224">
        <ele>368.07248913213</ele>
        <time>2014-09-20T12:39:31Z</time>
      </trkpt>
      <trkpt lat="43.22551" lon="0.91224">
        <ele>368.07248913213</ele>
        <time>2014-09-20T12:39:36Z</time>
      </trkpt>
      <trkpt lat="43.22551" lon="0.91224">
        <ele>368.07248913213</ele>
        <time>2014-09-20T12:39:41Z</time>
      </trkpt>
      <trkpt lat="43.22551" lon="0.91224">
        <ele>368.07248913213</ele>
        <time>2014-09-20T12:39:46Z</time>
      </trkpt>
      <trkpt lat="43.22551" lon="0.91224">
        <ele>368.07248913213</ele>
        <time>2014-09-20T12:39:51Z</time>
      </trkpt>
      <trkpt lat="43.22551" lon="0.91224">
        <ele>368.07248913213</ele>
        <time>2014-09-20T12:39:56Z</time>
      </trkpt>
      <trkpt lat="43.22551" lon="0.91224">
        <ele>368.07248913213</ele>
        <time>2014-09-20T12:40:01Z</time>
      </trkpt>
      <trkpt lat="43.2255" lon="0.91224">
        <ele>368.07248913213</ele>
        <time>2014-09-20T12:40:06Z</time>
      </trkpt>
      <trkpt lat="43.2255" lon="0.91223">
        <ele>368.07248913213</ele>
        <time>2014-09-20T12:40:11Z</time>
      </trkpt>
      <trkpt lat="43.2255" lon="0.91223">
        <ele>368.07248913213</ele>
        <time>2014-09-20T12:40:16Z</time>
      </trkpt>
      <trkpt lat="43.2255" lon="0.91223">
        <ele>368.07248913213</ele>
        <time>2014-09-20T12:40:21Z</time>
      </trkpt>
      <trkpt lat="43.2255" lon="0.91223">
        <ele>368.07248913213</ele>
        <time>2014-09-20T12:40:26Z</time>
      </trkpt>
      <trkpt lat="43.2255" lon="0.91223">
        <ele>368.07248913213</ele>
        <time>2014-09-20T12:40:31Z</time>
      </trkpt>
      <trkpt lat="43.2255" lon="0.91223">
        <ele>368.07248913213</ele>
        <time>2014-09-20T12:40:36Z</time>
      </trkpt>
      <trkpt lat="43.2255" lon="0.91223">
        <ele>368.07248913213</ele>
        <time>2014-09-20T12:40:41Z</time>
      </trkpt>
      <trkpt lat="43.2255" lon="0.91223">
        <ele>368.07248913213</ele>
        <time>2014-09-20T12:40:46Z</time>
      </trkpt>
      <trkpt lat="43.2255" lon="0.91223">
        <ele>368.07248913213</ele>
        <time>2014-09-20T12:40:51Z</time>
      </trkpt>
      <trkpt lat="43.2255" lon="0.91223">
        <ele>368.07248913213</ele>
        <time>2014-09-20T12:40:56Z</time>
      </trkpt>
      <trkpt lat="43.2255" lon="0.91223">
        <ele>368.07248913213</ele>
        <time>2014-09-20T12:41:01Z</time>
      </trkpt>
      <trkpt lat="43.2255" lon="0.91223">
        <ele>368.07248913213</ele>
        <time>2014-09-20T12:41:06Z</time>
      </trkpt>
      <trkpt lat="43.2255" lon="0.91223">
        <ele>368.07248913213</ele>
        <time>2014-09-20T12:41:11Z</time>
      </trkpt>
      <trkpt lat="43.2255" lon="0.91223">
        <ele>368.07248913213</ele>
        <time>2014-09-20T12:41:16Z</time>
      </trkpt>
      <trkpt lat="43.2255" lon="0.91223">
        <ele>368.07248913213</ele>
        <time>2014-09-20T12:41:21Z</time>
      </trkpt>
      <trkpt lat="43.2255" lon="0.91223">
        <ele>368.07248913213</ele>
        <time>2014-09-20T12:41:26Z</time>
      </trkpt>
      <trkpt lat="43.2255" lon="0.91223">
        <ele>368.07248913213</ele>
        <time>2014-09-20T12:41:31Z</time>
      </trkpt>
      <trkpt lat="43.2255" lon="0.91223">
        <ele>368.07248913213</ele>
        <time>2014-09-20T12:41:36Z</time>
      </trkpt>
      <trkpt lat="43.2255" lon="0.91223">
        <ele>368.07248913213</ele>
        <time>2014-09-20T12:41:41Z</time>
      </trkpt>
      <trkpt lat="43.2255" lon="0.91223">
        <ele>368.07248913213</ele>
        <time>2014-09-20T12:41:46Z</time>
      </trkpt>
      <trkpt lat="43.2255" lon="0.91223">
        <ele>368.07248913213</ele>
        <time>2014-09-20T12:41:51Z</time>
      </trkpt>
      <trkpt lat="43.2255" lon="0.91223">
        <ele>368.07248913213</ele>
        <time>2014-09-20T12:41:56Z</time>
      </trkpt>
      <trkpt lat="43.2255" lon="0.91223">
        <ele>368.07248913213</ele>
        <time>2014-09-20T12:42:01Z</time>
      </trkpt>
      <trkpt lat="43.2255" lon="0.91223">
        <ele>368.07248913213</ele>
        <time>2014-09-20T12:42:06Z</time>
      </trkpt>
      <trkpt lat="43.2255" lon="0.91223">
        <ele>368.07248913213</ele>
        <time>2014-09-20T12:42:11Z</time>
      </trkpt>
      <trkpt lat="43.2255" lon="0.91223">
        <ele>368.07248913213</ele>
        <time>2014-09-20T12:42:16Z</time>
      </trkpt>
      <trkpt lat="43.2255" lon="0.91223">
        <ele>368.07248913213</ele>
        <time>2014-09-20T12:42:21Z</time>
      </trkpt>
      <trkpt lat="43.2255" lon="0.91223">
        <ele>368.07248913213</ele>
        <time>2014-09-20T12:42:26Z</time>
      </trkpt>
      <trkpt lat="43.2255" lon="0.91223">
        <ele>368.07248913213</ele>
        <time>2014-09-20T12:42:31Z</time>
      </trkpt>
      <trkpt lat="43.2255" lon="0.91222">
        <ele>368.07248913213</ele>
        <time>2014-09-20T12:42:36Z</time>
      </trkpt>
      <trkpt lat="43.2255" lon="0.91222">
        <ele>368.07248913213</ele>
        <time>2014-09-20T12:42:41Z</time>
      </trkpt>
      <trkpt lat="43.2255" lon="0.91222">
        <ele>368.07248913213</ele>
        <time>2014-09-20T12:42:46Z</time>
      </trkpt>
      <trkpt lat="43.2255" lon="0.91222">
        <ele>368.07248913213</ele>
        <time>2014-09-20T12:42:51Z</time>
      </trkpt>
      <trkpt lat="43.2255" lon="0.91222">
        <ele>368.07248913213</ele>
        <time>2014-09-20T12:42:56Z</time>
      </trkpt>
      <trkpt lat="43.2255" lon="0.91222">
        <ele>368.07248913213</ele>
        <time>2014-09-20T12:43:01Z</time>
      </trkpt>
      <trkpt lat="43.2255" lon="0.91222">
        <ele>368.07248913213</ele>
        <time>2014-09-20T12:43:06Z</time>
      </trkpt>
      <trkpt lat="43.2255" lon="0.91222">
        <ele>368.07248913213</ele>
        <time>2014-09-20T12:43:11Z</time>
      </trkpt>
      <trkpt lat="43.2255" lon="0.91222">
        <ele>368.07248913213</ele>
        <time>2014-09-20T12:43:16Z</time>
      </trkpt>
      <trkpt lat="43.2255" lon="0.91222">
        <ele>368.07248913213</ele>
        <time>2014-09-20T12:43:21Z</time>
      </trkpt>
      <trkpt lat="43.2255" lon="0.91222">
        <ele>368.07248913213</ele>
        <time>2014-09-20T12:43:26Z</time>
      </trkpt>
      <trkpt lat="43.2255" lon="0.91222">
        <ele>368.07248913213</ele>
        <time>2014-09-20T12:43:31Z</time>
      </trkpt>
      <trkpt lat="43.2255" lon="0.91222">
        <ele>368.07248913213</ele>
        <time>2014-09-20T12:43:36Z</time>
      </trkpt>
      <trkpt lat="43.2255" lon="0.91222">
        <ele>368.07248913213</ele>
        <time>2014-09-20T12:43:41Z</time>
      </trkpt>
      <trkpt lat="43.2255" lon="0.91222">
        <ele>368.07248913213</ele>
        <time>2014-09-20T12:43:46Z</time>
      </trkpt>
      <trkpt lat="43.2255" lon="0.91222">
        <ele>368.07248913213</ele>
        <time>2014-09-20T12:43:51Z</time>
      </trkpt>
      <trkpt lat="43.2255" lon="0.91222">
        <ele>368.07248913213</ele>
        <time>2014-09-20T12:43:56Z</time>
      </trkpt>
      <trkpt lat="43.2255" lon="0.91222">
        <ele>368.07248913213</ele>
        <time>2014-09-20T12:44:01Z</time>
      </trkpt>
      <trkpt lat="43.2255" lon="0.91222">
        <ele>368.07248913213</ele>
        <time>2014-09-20T12:44:06Z</time>
      </trkpt>
      <trkpt lat="43.2255" lon="0.91222">
        <ele>368.07248913213</ele>
        <time>2014-09-20T12:44:11Z</time>
      </trkpt>
      <trkpt lat="43.2255" lon="0.91222">
        <ele>368.07248913213</ele>
        <time>2014-09-20T12:44:16Z</time>
      </trkpt>
      <trkpt lat="43.2255" lon="0.91222">
        <ele>368.07248913213</ele>
        <time>2014-09-20T12:44:21Z</time>
      </trkpt>
      <trkpt lat="43.2255" lon="0.91222">
        <ele>368.07248913213</ele>
        <time>2014-09-20T12:44:26Z</time>
      </trkpt>
      <trkpt lat="43.2255" lon="0.91222">
        <ele>368.07248913213</ele>
        <time>2014-09-20T12:44:31Z</time>
      </trkpt>
      <trkpt lat="43.2255" lon="0.91222">
        <ele>368.07248913213</ele>
        <time>2014-09-20T12:44:36Z</time>
      </trkpt>
      <trkpt lat="43.2255" lon="0.91222">
        <ele>368.07248913213</ele>
        <time>2014-09-20T12:44:41Z</time>
      </trkpt>
      <trkpt lat="43.2255" lon="0.91222">
        <ele>368.07248913213</ele>
        <time>2014-09-20T12:44:46Z</time>
      </trkpt>
      <trkpt lat="43.2255" lon="0.91222">
        <ele>368.07248913213</ele>
        <time>2014-09-20T12:44:51Z</time>
      </trkpt>
      <trkpt lat="43.2255" lon="0.91222">
        <ele>368.07248913213</ele>
        <time>2014-09-20T12:44:56Z</time>
      </trkpt>
      <trkpt lat="43.2255" lon="0.91222">
        <ele>368.07248913213</ele>
        <time>2014-09-20T12:45:01Z</time>
      </trkpt>
      <trkpt lat="43.2255" lon="0.91222">
        <ele>368.07248913213</ele>
        <time>2014-09-20T12:45:06Z</time>
      </trkpt>
      <trkpt lat="43.2255" lon="0.91222">
        <ele>368.07248913213</ele>
        <time>2014-09-20T12:45:11Z</time>
      </trkpt>
      <trkpt lat="43.2255" lon="0.91222">
        <ele>368.07248913213</ele>
        <time>2014-09-20T12:45:16Z</time>
      </trkpt>
      <trkpt lat="43.2255" lon="0.91222">
        <ele>368.07248913213</ele>
        <time>2014-09-20T12:45:21Z</time>
      </trkpt>
      <trkpt lat="43.2255" lon="0.91222">
        <ele>368.07248913213</ele>
        <time>2014-09-20T12:45:26Z</time>
      </trkpt>
      <trkpt lat="43.2255" lon="0.91221">
        <ele>368.07248913213</ele>
        <time>2014-09-20T12:45:31Z</time>
      </trkpt>
      <trkpt lat="43.2255" lon="0.91221">
        <ele>368.07248913213</ele>
        <time>2014-09-20T12:45:36Z</time>
      </trkpt>
      <trkpt lat="43.2255" lon="0.91221">
        <ele>368.07248913213</ele>
        <time>2014-09-20T12:45:41Z</time>
      </trkpt>
      <trkpt lat="43.2255" lon="0.91221">
        <ele>368.07248913213</ele>
        <time>2014-09-20T12:45:46Z</time>
      </trkpt>
      <trkpt lat="43.2255" lon="0.91221">
        <ele>368.07248913213</ele>
        <time>2014-09-20T12:45:51Z</time>
      </trkpt>
      <trkpt lat="43.2255" lon="0.91221">
        <ele>368.07248913213</ele>
        <time>2014-09-20T12:45:56Z</time>
      </trkpt>
      <trkpt lat="43.2255" lon="0.91225">
        <ele>368.07248913213</ele>
        <time>2014-09-20T12:46:01Z</time>
      </trkpt>
      <trkpt lat="43.22553" lon="0.91232">
        <ele>368.74952948272</ele>
        <time>2014-09-20T12:46:06Z</time>
      </trkpt>
      <trkpt lat="43.22554" lon="0.91234">
        <ele>368.74952948272</ele>
        <time>2014-09-20T12:46:11Z</time>
      </trkpt>
      <trkpt lat="43.22553" lon="0.91234">
        <ele>368.74952948272</ele>
        <time>2014-09-20T12:46:16Z</time>
      </trkpt>
      <trkpt lat="43.22554" lon="0.91235">
        <ele>368.74952948272</ele>
        <time>2014-09-20T12:46:21Z</time>
      </trkpt>
      <trkpt lat="43.22554" lon="0.91235">
        <ele>368.74952948272</ele>
        <time>2014-09-20T12:46:26Z</time>
      </trkpt>
      <trkpt lat="43.22554" lon="0.91232">
        <ele>368.74952948272</ele>
        <time>2014-09-20T12:46:31Z</time>
      </trkpt>
      <trkpt lat="43.22553" lon="0.91227">
        <ele>368.46917193399</ele>
        <time>2014-09-20T12:46:36Z</time>
      </trkpt>
      <trkpt lat="43.2255" lon="0.91225">
        <ele>368.46917193399</ele>
        <time>2014-09-20T12:46:41Z</time>
      </trkpt>
      <trkpt lat="43.22551" lon="0.91224">
        <ele>368.46917193399</ele>
        <time>2014-09-20T12:46:46Z</time>
      </trkpt>
      <trkpt lat="43.2255" lon="0.91224">
        <ele>368.46917193399</ele>
        <time>2014-09-20T12:46:51Z</time>
      </trkpt>
      <trkpt lat="43.2255" lon="0.91223">
        <ele>368.46917193399</ele>
        <time>2014-09-20T12:46:56Z</time>
      </trkpt>
      <trkpt lat="43.22551" lon="0.91223">
        <ele>368.46917193399</ele>
        <time>2014-09-20T12:47:01Z</time>
      </trkpt>
      <trkpt lat="43.22551" lon="0.91223">
        <ele>368.46917193399</ele>
        <time>2014-09-20T12:47:06Z</time>
      </trkpt>
      <trkpt lat="43.22551" lon="0.91223">
        <ele>368.46917193399</ele>
        <time>2014-09-20T12:47:11Z</time>
      </trkpt>
      <trkpt lat="43.22551" lon="0.91223">
        <ele>368.46917193399</ele>
        <time>2014-09-20T12:47:16Z</time>
      </trkpt>
      <trkpt lat="43.2255" lon="0.91222">
        <ele>368.46917193399</ele>
        <time>2014-09-20T12:47:21Z</time>
      </trkpt>
      <trkpt lat="43.22548" lon="0.9122">
        <ele>369.41983216545</ele>
        <time>2014-09-20T12:47:26Z</time>
      </trkpt>
      <trkpt lat="43.22546" lon="0.91219">
        <ele>369.41983216545</ele>
        <time>2014-09-20T12:47:31Z</time>
      </trkpt>
      <trkpt lat="43.22546" lon="0.91219">
        <ele>369.41983216545</ele>
        <time>2014-09-20T12:47:36Z</time>
      </trkpt>
      <trkpt lat="43.22546" lon="0.91219">
        <ele>369.41983216545</ele>
        <time>2014-09-20T12:47:41Z</time>
      </trkpt>
      <trkpt lat="43.22546" lon="0.91219">
        <ele>369.41983216545</ele>
        <time>2014-09-20T12:47:46Z</time>
      </trkpt>
      <trkpt lat="43.22546" lon="0.91219">
        <ele>369.41983216545</ele>
        <time>2014-09-20T12:47:51Z</time>
      </trkpt>
      <trkpt lat="43.22546" lon="0.91219">
        <ele>369.41983216545</ele>
        <time>2014-09-20T12:47:56Z</time>
      </trkpt>
      <trkpt lat="43.22546" lon="0.91219">
        <ele>369.41983216545</ele>
        <time>2014-09-20T12:48:01Z</time>
      </trkpt>
      <trkpt lat="43.22546" lon="0.91219">
        <ele>369.41983216545</ele>
        <time>2014-09-20T12:48:06Z</time>
      </trkpt>
      <trkpt lat="43.22546" lon="0.91219">
        <ele>369.41983216545</ele>
        <time>2014-09-20T12:48:11Z</time>
      </trkpt>
      <trkpt lat="43.22546" lon="0.91219">
        <ele>369.41983216545</ele>
        <time>2014-09-20T12:48:16Z</time>
      </trkpt>
      <trkpt lat="43.22546" lon="0.91219">
        <ele>369.41983216545</ele>
        <time>2014-09-20T12:48:21Z</time>
      </trkpt>
      <trkpt lat="43.22546" lon="0.91219">
        <ele>369.41983216545</ele>
        <time>2014-09-20T12:48:26Z</time>
      </trkpt>
      <trkpt lat="43.22546" lon="0.91219">
        <ele>369.41983216545</ele>
        <time>2014-09-20T12:48:31Z</time>
      </trkpt>
      <trkpt lat="43.22546" lon="0.91219">
        <ele>369.41983216545</ele>
        <time>2014-09-20T12:48:36Z</time>
      </trkpt>
      <trkpt lat="43.22547" lon="0.91219">
        <ele>369.41983216545</ele>
        <time>2014-09-20T12:48:41Z</time>
      </trkpt>
      <trkpt lat="43.22548" lon="0.91219">
        <ele>369.41983216545</ele>
        <time>2014-09-20T12:48:46Z</time>
      </trkpt>
      <trkpt lat="43.22549" lon="0.91219">
        <ele>369.41983216545</ele>
        <time>2014-09-20T12:48:51Z</time>
      </trkpt>
      <trkpt lat="43.22549" lon="0.91219">
        <ele>369.41983216545</ele>
        <time>2014-09-20T12:48:56Z</time>
      </trkpt>
      <trkpt lat="43.22549" lon="0.91219">
        <ele>369.41983216545</ele>
        <time>2014-09-20T12:49:01Z</time>
      </trkpt>
      <trkpt lat="43.22549" lon="0.91219">
        <ele>369.41983216545</ele>
        <time>2014-09-20T12:49:06Z</time>
      </trkpt>
      <trkpt lat="43.22549" lon="0.91219">
        <ele>369.41983216545</ele>
        <time>2014-09-20T12:49:11Z</time>
      </trkpt>
      <trkpt lat="43.22549" lon="0.91219">
        <ele>369.41983216545</ele>
        <time>2014-09-20T12:49:16Z</time>
      </trkpt>
      <trkpt lat="43.22549" lon="0.91219">
        <ele>369.41983216545</ele>
        <time>2014-09-20T12:49:21Z</time>
      </trkpt>
      <trkpt lat="43.22549" lon="0.91219">
        <ele>369.41983216545</ele>
        <time>2014-09-20T12:49:31Z</time>
      </trkpt>
      <trkpt lat="43.22549" lon="0.91219">
        <ele>369.41983216545</ele>
        <time>2014-09-20T12:49:36Z</time>
      </trkpt>
      <trkpt lat="43.22549" lon="0.91219">
        <ele>369.41983216545</ele>
        <time>2014-09-20T12:49:41Z</time>
      </trkpt>
      <trkpt lat="43.22549" lon="0.91219">
        <ele>369.41983216545</ele>
        <time>2014-09-20T12:49:46Z</time>
      </trkpt>
      <trkpt lat="43.22549" lon="0.91219">
        <ele>369.41983216545</ele>
        <time>2014-09-20T12:49:51Z</time>
      </trkpt>
      <trkpt lat="43.22549" lon="0.91219">
        <ele>369.41983216545</ele>
        <time>2014-09-20T12:49:56Z</time>
      </trkpt>
      <trkpt lat="43.22549" lon="0.91219">
        <ele>369.41983216545</ele>
        <time>2014-09-20T12:50:01Z</time>
      </trkpt>
      <trkpt lat="43.22549" lon="0.91219">
        <ele>369.41983216545</ele>
        <time>2014-09-20T12:50:06Z</time>
      </trkpt>
      <trkpt lat="43.22549" lon="0.91219">
        <ele>369.41983216545</ele>
        <time>2014-09-20T12:50:11Z</time>
      </trkpt>
      <trkpt lat="43.22549" lon="0.91219">
        <ele>369.41983216545</ele>
        <time>2014-09-20T12:50:16Z</time>
      </trkpt>
      <trkpt lat="43.22549" lon="0.91219">
        <ele>369.41983216545</ele>
        <time>2014-09-20T12:50:21Z</time>
      </trkpt>
      <trkpt lat="43.22549" lon="0.91219">
        <ele>369.41983216545</ele>
        <time>2014-09-20T12:50:26Z</time>
      </trkpt>
      <trkpt lat="43.22549" lon="0.91219">
        <ele>369.41983216545</ele>
        <time>2014-09-20T12:50:31Z</time>
      </trkpt>
      <trkpt lat="43.22549" lon="0.91219">
        <ele>369.41983216545</ele>
        <time>2014-09-20T12:50:36Z</time>
      </trkpt>
      <trkpt lat="43.22549" lon="0.91219">
        <ele>369.41983216545</ele>
        <time>2014-09-20T12:50:41Z</time>
      </trkpt>
      <trkpt lat="43.22549" lon="0.91219">
        <ele>369.41983216545</ele>
        <time>2014-09-20T12:50:46Z</time>
      </trkpt>
      <trkpt lat="43.22549" lon="0.91219">
        <ele>369.41983216545</ele>
        <time>2014-09-20T12:50:51Z</time>
      </trkpt>
      <trkpt lat="43.22549" lon="0.91219">
        <ele>369.41983216545</ele>
        <time>2014-09-20T12:50:56Z</time>
      </trkpt>
      <trkpt lat="43.22549" lon="0.91219">
        <ele>369.41983216545</ele>
        <time>2014-09-20T12:51:01Z</time>
      </trkpt>
      <trkpt lat="43.22549" lon="0.91219">
        <ele>369.41983216545</ele>
        <time>2014-09-20T12:51:06Z</time>
      </trkpt>
      <trkpt lat="43.22549" lon="0.91219">
        <ele>369.41983216545</ele>
        <time>2014-09-20T12:51:11Z</time>
      </trkpt>
      <trkpt lat="43.22549" lon="0.91219">
        <ele>369.41983216545</ele>
        <time>2014-09-20T12:51:16Z</time>
      </trkpt>
      <trkpt lat="43.22549" lon="0.91219">
        <ele>369.41983216545</ele>
        <time>2014-09-20T12:51:21Z</time>
      </trkpt>
      <trkpt lat="43.22549" lon="0.91219">
        <ele>369.41983216545</ele>
        <time>2014-09-20T12:51:26Z</time>
      </trkpt>
      <trkpt lat="43.22549" lon="0.91219">
        <ele>369.41983216545</ele>
        <time>2014-09-20T12:51:31Z</time>
      </trkpt>
      <trkpt lat="43.22549" lon="0.91219">
        <ele>369.41983216545</ele>
        <time>2014-09-20T12:51:36Z</time>
      </trkpt>
      <trkpt lat="43.22549" lon="0.91219">
        <ele>369.41983216545</ele>
        <time>2014-09-20T12:51:41Z</time>
      </trkpt>
      <trkpt lat="43.22549" lon="0.91219">
        <ele>369.41983216545</ele>
        <time>2014-09-20T12:51:46Z</time>
      </trkpt>
      <trkpt lat="43.22549" lon="0.91219">
        <ele>369.41983216545</ele>
        <time>2014-09-20T12:51:51Z</time>
      </trkpt>
      <trkpt lat="43.22549" lon="0.91219">
        <ele>369.41983216545</ele>
        <time>2014-09-20T12:51:56Z</time>
      </trkpt>
      <trkpt lat="43.22549" lon="0.91219">
        <ele>369.41983216545</ele>
        <time>2014-09-20T12:52:01Z</time>
      </trkpt>
      <trkpt lat="43.22549" lon="0.91219">
        <ele>369.41983216545</ele>
        <time>2014-09-20T12:52:06Z</time>
      </trkpt>
      <trkpt lat="43.22549" lon="0.91219">
        <ele>369.41983216545</ele>
        <time>2014-09-20T12:52:11Z</time>
      </trkpt>
      <trkpt lat="43.22549" lon="0.91219">
        <ele>369.41983216545</ele>
        <time>2014-09-20T12:52:16Z</time>
      </trkpt>
      <trkpt lat="43.22549" lon="0.91219">
        <ele>369.41983216545</ele>
        <time>2014-09-20T12:52:21Z</time>
      </trkpt>
      <trkpt lat="43.22549" lon="0.91219">
        <ele>369.41983216545</ele>
        <time>2014-09-20T12:52:26Z</time>
      </trkpt>
      <trkpt lat="43.22549" lon="0.91219">
        <ele>369.41983216545</ele>
        <time>2014-09-20T12:52:31Z</time>
      </trkpt>
      <trkpt lat="43.22549" lon="0.9122">
        <ele>369.41983216545</ele>
        <time>2014-09-20T12:52:36Z</time>
      </trkpt>
      <trkpt lat="43.22549" lon="0.9122">
        <ele>369.41983216545</ele>
        <time>2014-09-20T12:52:41Z</time>
      </trkpt>
      <trkpt lat="43.22549" lon="0.9122">
        <ele>369.41983216545</ele>
        <time>2014-09-20T12:52:46Z</time>
      </trkpt>
      <trkpt lat="43.22549" lon="0.9122">
        <ele>369.41983216545</ele>
        <time>2014-09-20T12:52:51Z</time>
      </trkpt>
      <trkpt lat="43.22549" lon="0.9122">
        <ele>369.41983216545</ele>
        <time>2014-09-20T12:52:56Z</time>
      </trkpt>
      <trkpt lat="43.22549" lon="0.9122">
        <ele>369.41983216545</ele>
        <time>2014-09-20T12:53:01Z</time>
      </trkpt>
      <trkpt lat="43.22549" lon="0.9122">
        <ele>369.41983216545</ele>
        <time>2014-09-20T12:53:06Z</time>
      </trkpt>
      <trkpt lat="43.22549" lon="0.9122">
        <ele>369.41983216545</ele>
        <time>2014-09-20T12:53:11Z</time>
      </trkpt>
      <trkpt lat="43.22549" lon="0.9122">
        <ele>369.41983216545</ele>
        <time>2014-09-20T12:53:16Z</time>
      </trkpt>
      <trkpt lat="43.22549" lon="0.9122">
        <ele>369.41983216545</ele>
        <time>2014-09-20T12:53:21Z</time>
      </trkpt>
      <trkpt lat="43.22549" lon="0.9122">
        <ele>369.41983216545</ele>
        <time>2014-09-20T12:53:26Z</time>
      </trkpt>
      <trkpt lat="43.22549" lon="0.9122">
        <ele>369.41983216545</ele>
        <time>2014-09-20T12:53:31Z</time>
      </trkpt>
      <trkpt lat="43.22549" lon="0.9122">
        <ele>369.41983216545</ele>
        <time>2014-09-20T12:53:36Z</time>
      </trkpt>
      <trkpt lat="43.22549" lon="0.9122">
        <ele>369.41983216545</ele>
        <time>2014-09-20T12:53:41Z</time>
      </trkpt>
      <trkpt lat="43.22549" lon="0.91219">
        <ele>369.41983216545</ele>
        <time>2014-09-20T12:53:46Z</time>
      </trkpt>
      <trkpt lat="43.22549" lon="0.91219">
        <ele>369.41983216545</ele>
        <time>2014-09-20T12:53:51Z</time>
      </trkpt>
      <trkpt lat="43.2255" lon="0.91219">
        <ele>369.41983216545</ele>
        <time>2014-09-20T12:53:56Z</time>
      </trkpt>
      <trkpt lat="43.2255" lon="0.91219">
        <ele>369.41983216545</ele>
        <time>2014-09-20T12:54:01Z</time>
      </trkpt>
      <trkpt lat="43.2255" lon="0.91219">
        <ele>369.41983216545</ele>
        <time>2014-09-20T12:54:06Z</time>
      </trkpt>
      <trkpt lat="43.2255" lon="0.91219">
        <ele>369.41983216545</ele>
        <time>2014-09-20T12:54:11Z</time>
      </trkpt>
      <trkpt lat="43.2255" lon="0.91219">
        <ele>369.41983216545</ele>
        <time>2014-09-20T12:54:16Z</time>
      </trkpt>
      <trkpt lat="43.2255" lon="0.91219">
        <ele>369.41983216545</ele>
        <time>2014-09-20T12:54:21Z</time>
      </trkpt>
      <trkpt lat="43.2255" lon="0.91219">
        <ele>369.41983216545</ele>
        <time>2014-09-20T12:54:26Z</time>
      </trkpt>
      <trkpt lat="43.2255" lon="0.91219">
        <ele>369.41983216545</ele>
        <time>2014-09-20T12:54:31Z</time>
      </trkpt>
      <trkpt lat="43.2255" lon="0.91219">
        <ele>369.41983216545</ele>
        <time>2014-09-20T12:54:36Z</time>
      </trkpt>
      <trkpt lat="43.2255" lon="0.9122">
        <ele>369.41983216545</ele>
        <time>2014-09-20T12:54:41Z</time>
      </trkpt>
      <trkpt lat="43.2255" lon="0.9122">
        <ele>369.41983216545</ele>
        <time>2014-09-20T12:54:46Z</time>
      </trkpt>
      <trkpt lat="43.2255" lon="0.9122">
        <ele>369.41983216545</ele>
        <time>2014-09-20T12:54:51Z</time>
      </trkpt>
      <trkpt lat="43.22551" lon="0.91219">
        <ele>369.41983216545</ele>
        <time>2014-09-20T12:54:56Z</time>
      </trkpt>
      <trkpt lat="43.22551" lon="0.91219">
        <ele>370.25347189994</ele>
        <time>2014-09-20T12:55:01Z</time>
      </trkpt>
      <trkpt lat="43.22551" lon="0.91219">
        <ele>370.25347189994</ele>
        <time>2014-09-20T12:55:06Z</time>
      </trkpt>
      <trkpt lat="43.22551" lon="0.91219">
        <ele>370.25347189994</ele>
        <time>2014-09-20T12:55:11Z</time>
      </trkpt>
      <trkpt lat="43.22551" lon="0.91219">
        <ele>370.25347189994</ele>
        <time>2014-09-20T12:55:16Z</time>
      </trkpt>
      <trkpt lat="43.22551" lon="0.91219">
        <ele>370.25347189994</ele>
        <time>2014-09-20T12:55:21Z</time>
      </trkpt>
      <trkpt lat="43.22551" lon="0.91219">
        <ele>370.25347189994</ele>
        <time>2014-09-20T12:55:26Z</time>
      </trkpt>
      <trkpt lat="43.22551" lon="0.91219">
        <ele>370.25347189994</ele>
        <time>2014-09-20T12:55:31Z</time>
      </trkpt>
      <trkpt lat="43.22551" lon="0.91219">
        <ele>370.25347189994</ele>
        <time>2014-09-20T12:55:36Z</time>
      </trkpt>
      <trkpt lat="43.22551" lon="0.91219">
        <ele>370.25347189994</ele>
        <time>2014-09-20T12:55:41Z</time>
      </trkpt>
      <trkpt lat="43.22551" lon="0.91219">
        <ele>370.25347189994</ele>
        <time>2014-09-20T12:55:46Z</time>
      </trkpt>
      <trkpt lat="43.22551" lon="0.91219">
        <ele>370.25347189994</ele>
        <time>2014-09-20T12:55:51Z</time>
      </trkpt>
      <trkpt lat="43.22551" lon="0.91219">
        <ele>370.25347189994</ele>
        <time>2014-09-20T12:55:56Z</time>
      </trkpt>
      <trkpt lat="43.22551" lon="0.91219">
        <ele>370.25347189994</ele>
        <time>2014-09-20T12:56:01Z</time>
      </trkpt>
      <trkpt lat="43.22551" lon="0.91219">
        <ele>370.25347189994</ele>
        <time>2014-09-20T12:56:06Z</time>
      </trkpt>
      <trkpt lat="43.22551" lon="0.91219">
        <ele>370.25347189994</ele>
        <time>2014-09-20T12:56:11Z</time>
      </trkpt>
      <trkpt lat="43.22551" lon="0.91219">
        <ele>370.25347189994</ele>
        <time>2014-09-20T12:56:16Z</time>
      </trkpt>
      <trkpt lat="43.22551" lon="0.91219">
        <ele>370.25347189994</ele>
        <time>2014-09-20T12:56:21Z</time>
      </trkpt>
      <trkpt lat="43.22551" lon="0.91219">
        <ele>370.25347189994</ele>
        <time>2014-09-20T12:56:26Z</time>
      </trkpt>
      <trkpt lat="43.22551" lon="0.91219">
        <ele>370.25347189994</ele>
        <time>2014-09-20T12:56:31Z</time>
      </trkpt>
      <trkpt lat="43.22551" lon="0.91219">
        <ele>370.25347189994</ele>
        <time>2014-09-20T12:56:36Z</time>
      </trkpt>
      <trkpt lat="43.22551" lon="0.91219">
        <ele>370.25347189994</ele>
        <time>2014-09-20T12:56:41Z</time>
      </trkpt>
      <trkpt lat="43.22551" lon="0.91219">
        <ele>370.25347189994</ele>
        <time>2014-09-20T12:56:46Z</time>
      </trkpt>
      <trkpt lat="43.22551" lon="0.91219">
        <ele>370.25347189994</ele>
        <time>2014-09-20T12:56:51Z</time>
      </trkpt>
      <trkpt lat="43.22551" lon="0.91219">
        <ele>370.25347189994</ele>
        <time>2014-09-20T12:56:56Z</time>
      </trkpt>
      <trkpt lat="43.22551" lon="0.91219">
        <ele>370.25347189994</ele>
        <time>2014-09-20T12:57:01Z</time>
      </trkpt>
      <trkpt lat="43.22551" lon="0.91219">
        <ele>370.25347189994</ele>
        <time>2014-09-20T12:57:06Z</time>
      </trkpt>
      <trkpt lat="43.22551" lon="0.91219">
        <ele>370.25347189994</ele>
        <time>2014-09-20T12:57:11Z</time>
      </trkpt>
      <trkpt lat="43.22551" lon="0.91219">
        <ele>370.25347189994</ele>
        <time>2014-09-20T12:57:16Z</time>
      </trkpt>
      <trkpt lat="43.22551" lon="0.91219">
        <ele>370.25347189994</ele>
        <time>2014-09-20T12:57:21Z</time>
      </trkpt>
      <trkpt lat="43.22551" lon="0.91219">
        <ele>370.25347189994</ele>
        <time>2014-09-20T12:57:26Z</time>
      </trkpt>
      <trkpt lat="43.22551" lon="0.91219">
        <ele>370.25347189994</ele>
        <time>2014-09-20T12:57:31Z</time>
      </trkpt>
      <trkpt lat="43.22551" lon="0.91219">
        <ele>370.25347189994</ele>
        <time>2014-09-20T12:57:36Z</time>
      </trkpt>
      <trkpt lat="43.22551" lon="0.91219">
        <ele>370.25347189994</ele>
        <time>2014-09-20T12:57:41Z</time>
      </trkpt>
      <trkpt lat="43.22551" lon="0.91219">
        <ele>370.25347189994</ele>
        <time>2014-09-20T12:57:46Z</time>
      </trkpt>
      <trkpt lat="43.22551" lon="0.91219">
        <ele>370.25347189994</ele>
        <time>2014-09-20T12:57:51Z</time>
      </trkpt>
      <trkpt lat="43.22551" lon="0.91219">
        <ele>370.25347189994</ele>
        <time>2014-09-20T12:57:56Z</time>
      </trkpt>
      <trkpt lat="43.22551" lon="0.91219">
        <ele>370.25347189994</ele>
        <time>2014-09-20T12:58:01Z</time>
      </trkpt>
      <trkpt lat="43.22551" lon="0.91219">
        <ele>370.25347189994</ele>
        <time>2014-09-20T12:58:06Z</time>
      </trkpt>
      <trkpt lat="43.22551" lon="0.91219">
        <ele>370.25347189994</ele>
        <time>2014-09-20T12:58:11Z</time>
      </trkpt>
      <trkpt lat="43.22551" lon="0.91219">
        <ele>370.25347189994</ele>
        <time>2014-09-20T12:58:16Z</time>
      </trkpt>
      <trkpt lat="43.22551" lon="0.91219">
        <ele>370.25347189994</ele>
        <time>2014-09-20T12:58:21Z</time>
      </trkpt>
      <trkpt lat="43.22551" lon="0.91219">
        <ele>370.25347189994</ele>
        <time>2014-09-20T12:58:26Z</time>
      </trkpt>
      <trkpt lat="43.22551" lon="0.91219">
        <ele>370.25347189994</ele>
        <time>2014-09-20T12:58:31Z</time>
      </trkpt>
      <trkpt lat="43.22551" lon="0.91219">
        <ele>370.25347189994</ele>
        <time>2014-09-20T12:58:36Z</time>
      </trkpt>
      <trkpt lat="43.22551" lon="0.91219">
        <ele>370.25347189994</ele>
        <time>2014-09-20T12:58:41Z</time>
      </trkpt>
      <trkpt lat="43.22551" lon="0.91219">
        <ele>370.25347189994</ele>
        <time>2014-09-20T12:58:46Z</time>
      </trkpt>
      <trkpt lat="43.22551" lon="0.91219">
        <ele>370.25347189994</ele>
        <time>2014-09-20T12:58:51Z</time>
      </trkpt>
      <trkpt lat="43.22551" lon="0.91219">
        <ele>370.25347189994</ele>
        <time>2014-09-20T12:58:56Z</time>
      </trkpt>
      <trkpt lat="43.22551" lon="0.91219">
        <ele>370.25347189994</ele>
        <time>2014-09-20T12:59:01Z</time>
      </trkpt>
      <trkpt lat="43.22551" lon="0.91219">
        <ele>370.25347189994</ele>
        <time>2014-09-20T12:59:06Z</time>
      </trkpt>
      <trkpt lat="43.22551" lon="0.91219">
        <ele>370.25347189994</ele>
        <time>2014-09-20T12:59:11Z</time>
      </trkpt>
      <trkpt lat="43.22551" lon="0.91219">
        <ele>370.25347189994</ele>
        <time>2014-09-20T12:59:16Z</time>
      </trkpt>
      <trkpt lat="43.22551" lon="0.91219">
        <ele>370.25347189994</ele>
        <time>2014-09-20T12:59:21Z</time>
      </trkpt>
      <trkpt lat="43.22551" lon="0.91219">
        <ele>370.25347189994</ele>
        <time>2014-09-20T12:59:26Z</time>
      </trkpt>
      <trkpt lat="43.22551" lon="0.91219">
        <ele>370.25347189994</ele>
        <time>2014-09-20T12:59:31Z</time>
      </trkpt>
      <trkpt lat="43.22551" lon="0.91219">
        <ele>370.25347189994</ele>
        <time>2014-09-20T12:59:36Z</time>
      </trkpt>
      <trkpt lat="43.22551" lon="0.91219">
        <ele>370.25347189994</ele>
        <time>2014-09-20T12:59:41Z</time>
      </trkpt>
      <trkpt lat="43.22551" lon="0.91219">
        <ele>370.25347189994</ele>
        <time>2014-09-20T12:59:46Z</time>
      </trkpt>
      <trkpt lat="43.22551" lon="0.91219">
        <ele>370.25347189994</ele>
        <time>2014-09-20T12:59:51Z</time>
      </trkpt>
      <trkpt lat="43.22551" lon="0.91219">
        <ele>370.25347189994</ele>
        <time>2014-09-20T12:59:56Z</time>
      </trkpt>
      <trkpt lat="43.22551" lon="0.91219">
        <ele>370.25347189994</ele>
        <time>2014-09-20T13:00:01Z</time>
      </trkpt>
      <trkpt lat="43.22551" lon="0.91219">
        <ele>370.25347189994</ele>
        <time>2014-09-20T13:00:06Z</time>
      </trkpt>
      <trkpt lat="43.22551" lon="0.91219">
        <ele>370.25347189994</ele>
        <time>2014-09-20T13:00:11Z</time>
      </trkpt>
      <trkpt lat="43.22551" lon="0.91219">
        <ele>370.25347189994</ele>
        <time>2014-09-20T13:00:16Z</time>
      </trkpt>
      <trkpt lat="43.22551" lon="0.91219">
        <ele>370.25347189994</ele>
        <time>2014-09-20T13:00:21Z</time>
      </trkpt>
      <trkpt lat="43.22551" lon="0.91219">
        <ele>370.25347189994</ele>
        <time>2014-09-20T13:00:26Z</time>
      </trkpt>
      <trkpt lat="43.22551" lon="0.91219">
        <ele>370.25347189994</ele>
        <time>2014-09-20T13:00:31Z</time>
      </trkpt>
      <trkpt lat="43.22551" lon="0.91219">
        <ele>370.25347189994</ele>
        <time>2014-09-20T13:00:36Z</time>
      </trkpt>
      <trkpt lat="43.22551" lon="0.91219">
        <ele>370.25347189994</ele>
        <time>2014-09-20T13:00:41Z</time>
      </trkpt>
      <trkpt lat="43.22551" lon="0.91219">
        <ele>370.25347189994</ele>
        <time>2014-09-20T13:00:46Z</time>
      </trkpt>
      <trkpt lat="43.22551" lon="0.91219">
        <ele>370.25347189994</ele>
        <time>2014-09-20T13:00:51Z</time>
      </trkpt>
      <trkpt lat="43.22551" lon="0.91219">
        <ele>370.25347189994</ele>
        <time>2014-09-20T13:00:56Z</time>
      </trkpt>
      <trkpt lat="43.22551" lon="0.91219">
        <ele>370.25347189994</ele>
        <time>2014-09-20T13:01:01Z</time>
      </trkpt>
      <trkpt lat="43.22551" lon="0.91219">
        <ele>370.25347189994</ele>
        <time>2014-09-20T13:01:06Z</time>
      </trkpt>
      <trkpt lat="43.22551" lon="0.91219">
        <ele>370.25347189994</ele>
        <time>2014-09-20T13:01:11Z</time>
      </trkpt>
      <trkpt lat="43.22551" lon="0.91219">
        <ele>370.25347189994</ele>
        <time>2014-09-20T13:01:16Z</time>
      </trkpt>
      <trkpt lat="43.22551" lon="0.91219">
        <ele>370.25347189994</ele>
        <time>2014-09-20T13:01:21Z</time>
      </trkpt>
      <trkpt lat="43.22551" lon="0.91219">
        <ele>370.25347189994</ele>
        <time>2014-09-20T13:01:26Z</time>
      </trkpt>
      <trkpt lat="43.22551" lon="0.91219">
        <ele>370.25347189994</ele>
        <time>2014-09-20T13:01:31Z</time>
      </trkpt>
      <trkpt lat="43.22551" lon="0.91219">
        <ele>370.25347189994</ele>
        <time>2014-09-20T13:01:36Z</time>
      </trkpt>
      <trkpt lat="43.22551" lon="0.91219">
        <ele>370.25347189994</ele>
        <time>2014-09-20T13:01:41Z</time>
      </trkpt>
      <trkpt lat="43.22551" lon="0.91219">
        <ele>370.25347189994</ele>
        <time>2014-09-20T13:01:46Z</time>
      </trkpt>
      <trkpt lat="43.22551" lon="0.91219">
        <ele>370.25347189994</ele>
        <time>2014-09-20T13:01:51Z</time>
      </trkpt>
      <trkpt lat="43.22551" lon="0.91219">
        <ele>370.25347189994</ele>
        <time>2014-09-20T13:01:56Z</time>
      </trkpt>
      <trkpt lat="43.22551" lon="0.91219">
        <ele>370.25347189994</ele>
        <time>2014-09-20T13:02:01Z</time>
      </trkpt>
      <trkpt lat="43.22551" lon="0.91219">
        <ele>370.25347189994</ele>
        <time>2014-09-20T13:02:06Z</time>
      </trkpt>
      <trkpt lat="43.22551" lon="0.91219">
        <ele>370.25347189994</ele>
        <time>2014-09-20T13:02:11Z</time>
      </trkpt>
      <trkpt lat="43.22551" lon="0.91219">
        <ele>370.25347189994</ele>
        <time>2014-09-20T13:02:16Z</time>
      </trkpt>
      <trkpt lat="43.22551" lon="0.91219">
        <ele>370.25347189994</ele>
        <time>2014-09-20T13:02:21Z</time>
      </trkpt>
      <trkpt lat="43.22551" lon="0.91219">
        <ele>370.25347189994</ele>
        <time>2014-09-20T13:02:26Z</time>
      </trkpt>
      <trkpt lat="43.22551" lon="0.91219">
        <ele>370.25347189994</ele>
        <time>2014-09-20T13:02:31Z</time>
      </trkpt>
      <trkpt lat="43.22551" lon="0.91219">
        <ele>370.25347189994</ele>
        <time>2014-09-20T13:02:36Z</time>
      </trkpt>
      <trkpt lat="43.22551" lon="0.91219">
        <ele>370.25347189994</ele>
        <time>2014-09-20T13:02:41Z</time>
      </trkpt>
      <trkpt lat="43.22551" lon="0.91219">
        <ele>370.25347189994</ele>
        <time>2014-09-20T13:02:46Z</time>
      </trkpt>
      <trkpt lat="43.22551" lon="0.91219">
        <ele>370.25347189994</ele>
        <time>2014-09-20T13:02:51Z</time>
      </trkpt>
      <trkpt lat="43.22551" lon="0.91219">
        <ele>370.25347189994</ele>
        <time>2014-09-20T13:02:56Z</time>
      </trkpt>
      <trkpt lat="43.22551" lon="0.91219">
        <ele>370.25347189994</ele>
        <time>2014-09-20T13:03:01Z</time>
      </trkpt>
      <trkpt lat="43.22551" lon="0.91219">
        <ele>370.25347189994</ele>
        <time>2014-09-20T13:03:06Z</time>
      </trkpt>
      <trkpt lat="43.22551" lon="0.91219">
        <ele>370.25347189994</ele>
        <time>2014-09-20T13:03:11Z</time>
      </trkpt>
      <trkpt lat="43.22551" lon="0.91219">
        <ele>370.25347189994</ele>
        <time>2014-09-20T13:03:16Z</time>
      </trkpt>
      <trkpt lat="43.22551" lon="0.91219">
        <ele>370.25347189994</ele>
        <time>2014-09-20T13:03:21Z</time>
      </trkpt>
      <trkpt lat="43.22551" lon="0.91219">
        <ele>370.25347189994</ele>
        <time>2014-09-20T13:03:26Z</time>
      </trkpt>
      <trkpt lat="43.22551" lon="0.91219">
        <ele>370.25347189994</ele>
        <time>2014-09-20T13:03:31Z</time>
      </trkpt>
      <trkpt lat="43.22551" lon="0.91219">
        <ele>370.25347189994</ele>
        <time>2014-09-20T13:03:36Z</time>
      </trkpt>
      <trkpt lat="43.22551" lon="0.91219">
        <ele>370.25347189994</ele>
        <time>2014-09-20T13:03:41Z</time>
      </trkpt>
      <trkpt lat="43.22551" lon="0.91219">
        <ele>370.25347189994</ele>
        <time>2014-09-20T13:03:46Z</time>
      </trkpt>
      <trkpt lat="43.22551" lon="0.91219">
        <ele>370.25347189994</ele>
        <time>2014-09-20T13:03:51Z</time>
      </trkpt>
      <trkpt lat="43.22551" lon="0.91219">
        <ele>370.25347189994</ele>
        <time>2014-09-20T13:03:56Z</time>
      </trkpt>
      <trkpt lat="43.22551" lon="0.91219">
        <ele>370.25347189994</ele>
        <time>2014-09-20T13:04:01Z</time>
      </trkpt>
      <trkpt lat="43.22551" lon="0.91219">
        <ele>370.25347189994</ele>
        <time>2014-09-20T13:04:06Z</time>
      </trkpt>
      <trkpt lat="43.22551" lon="0.91219">
        <ele>370.25347189994</ele>
        <time>2014-09-20T13:04:11Z</time>
      </trkpt>
      <trkpt lat="43.22551" lon="0.91219">
        <ele>370.25347189994</ele>
        <time>2014-09-20T13:04:16Z</time>
      </trkpt>
      <trkpt lat="43.22551" lon="0.91219">
        <ele>370.25347189994</ele>
        <time>2014-09-20T13:04:21Z</time>
      </trkpt>
      <trkpt lat="43.22551" lon="0.91219">
        <ele>370.25347189994</ele>
        <time>2014-09-20T13:04:26Z</time>
      </trkpt>
      <trkpt lat="43.22551" lon="0.91219">
        <ele>370.25347189994</ele>
        <time>2014-09-20T13:04:31Z</time>
      </trkpt>
      <trkpt lat="43.22551" lon="0.91219">
        <ele>370.25347189994</ele>
        <time>2014-09-20T13:04:36Z</time>
      </trkpt>
      <trkpt lat="43.22551" lon="0.91219">
        <ele>370.25347189994</ele>
        <time>2014-09-20T13:04:41Z</time>
      </trkpt>
      <trkpt lat="43.22551" lon="0.91219">
        <ele>370.25347189994</ele>
        <time>2014-09-20T13:04:46Z</time>
      </trkpt>
      <trkpt lat="43.22551" lon="0.91219">
        <ele>370.25347189994</ele>
        <time>2014-09-20T13:04:51Z</time>
      </trkpt>
      <trkpt lat="43.22551" lon="0.91219">
        <ele>370.25347189994</ele>
        <time>2014-09-20T13:04:56Z</time>
      </trkpt>
      <trkpt lat="43.22551" lon="0.91219">
        <ele>370.25347189994</ele>
        <time>2014-09-20T13:05:01Z</time>
      </trkpt>
      <trkpt lat="43.22551" lon="0.91219">
        <ele>370.25347189994</ele>
        <time>2014-09-20T13:05:06Z</time>
      </trkpt>
      <trkpt lat="43.22551" lon="0.91219">
        <ele>370.25347189994</ele>
        <time>2014-09-20T13:05:11Z</time>
      </trkpt>
      <trkpt lat="43.22551" lon="0.91219">
        <ele>370.25347189994</ele>
        <time>2014-09-20T13:05:16Z</time>
      </trkpt>
      <trkpt lat="43.22551" lon="0.91219">
        <ele>370.25347189994</ele>
        <time>2014-09-20T13:05:21Z</time>
      </trkpt>
      <trkpt lat="43.22551" lon="0.91219">
        <ele>370.25347189994</ele>
        <time>2014-09-20T13:05:26Z</time>
      </trkpt>
      <trkpt lat="43.22551" lon="0.91219">
        <ele>370.25347189994</ele>
        <time>2014-09-20T13:05:31Z</time>
      </trkpt>
      <trkpt lat="43.22551" lon="0.91219">
        <ele>370.25347189994</ele>
        <time>2014-09-20T13:05:36Z</time>
      </trkpt>
      <trkpt lat="43.22551" lon="0.91219">
        <ele>370.25347189994</ele>
        <time>2014-09-20T13:05:41Z</time>
      </trkpt>
      <trkpt lat="43.22551" lon="0.91219">
        <ele>370.25347189994</ele>
        <time>2014-09-20T13:05:46Z</time>
      </trkpt>
      <trkpt lat="43.22551" lon="0.91219">
        <ele>370.25347189994</ele>
        <time>2014-09-20T13:05:51Z</time>
      </trkpt>
      <trkpt lat="43.22551" lon="0.91219">
        <ele>370.25347189994</ele>
        <time>2014-09-20T13:05:56Z</time>
      </trkpt>
      <trkpt lat="43.22551" lon="0.91219">
        <ele>370.25347189994</ele>
        <time>2014-09-20T13:06:01Z</time>
      </trkpt>
      <trkpt lat="43.22551" lon="0.91219">
        <ele>370.25347189994</ele>
        <time>2014-09-20T13:06:06Z</time>
      </trkpt>
      <trkpt lat="43.22551" lon="0.91219">
        <ele>370.25347189994</ele>
        <time>2014-09-20T13:06:11Z</time>
      </trkpt>
      <trkpt lat="43.22551" lon="0.91219">
        <ele>370.25347189994</ele>
        <time>2014-09-20T13:06:16Z</time>
      </trkpt>
      <trkpt lat="43.22551" lon="0.91219">
        <ele>370.25347189994</ele>
        <time>2014-09-20T13:06:21Z</time>
      </trkpt>
      <trkpt lat="43.22551" lon="0.91219">
        <ele>370.25347189994</ele>
        <time>2014-09-20T13:06:26Z</time>
      </trkpt>
      <trkpt lat="43.22551" lon="0.91219">
        <ele>370.25347189994</ele>
        <time>2014-09-20T13:06:31Z</time>
      </trkpt>
      <trkpt lat="43.22551" lon="0.91219">
        <ele>370.25347189994</ele>
        <time>2014-09-20T13:06:36Z</time>
      </trkpt>
      <trkpt lat="43.22551" lon="0.91219">
        <ele>370.25347189994</ele>
        <time>2014-09-20T13:06:41Z</time>
      </trkpt>
      <trkpt lat="43.22551" lon="0.91219">
        <ele>370.25347189994</ele>
        <time>2014-09-20T13:06:46Z</time>
      </trkpt>
      <trkpt lat="43.22551" lon="0.91219">
        <ele>370.25347189994</ele>
        <time>2014-09-20T13:06:51Z</time>
      </trkpt>
      <trkpt lat="43.22551" lon="0.91219">
        <ele>370.25347189994</ele>
        <time>2014-09-20T13:06:56Z</time>
      </trkpt>
      <trkpt lat="43.22551" lon="0.91219">
        <ele>370.25347189994</ele>
        <time>2014-09-20T13:07:01Z</time>
      </trkpt>
      <trkpt lat="43.2255" lon="0.91219">
        <ele>370.25347189994</ele>
        <time>2014-09-20T13:07:06Z</time>
      </trkpt>
      <trkpt lat="43.2255" lon="0.91219">
        <ele>370.25347189994</ele>
        <time>2014-09-20T13:07:11Z</time>
      </trkpt>
      <trkpt lat="43.2255" lon="0.91219">
        <ele>370.25347189994</ele>
        <time>2014-09-20T13:07:16Z</time>
      </trkpt>
      <trkpt lat="43.2255" lon="0.91219">
        <ele>370.25347189994</ele>
        <time>2014-09-20T13:07:21Z</time>
      </trkpt>
      <trkpt lat="43.2255" lon="0.91219">
        <ele>370.25347189994</ele>
        <time>2014-09-20T13:07:26Z</time>
      </trkpt>
      <trkpt lat="43.2255" lon="0.91219">
        <ele>370.25347189994</ele>
        <time>2014-09-20T13:07:31Z</time>
      </trkpt>
      <trkpt lat="43.2255" lon="0.91219">
        <ele>370.25347189994</ele>
        <time>2014-09-20T13:07:36Z</time>
      </trkpt>
      <trkpt lat="43.2255" lon="0.91219">
        <ele>370.25347189994</ele>
        <time>2014-09-20T13:07:41Z</time>
      </trkpt>
      <trkpt lat="43.2255" lon="0.91219">
        <ele>370.25347189994</ele>
        <time>2014-09-20T13:07:46Z</time>
      </trkpt>
      <trkpt lat="43.2255" lon="0.91219">
        <ele>370.25347189994</ele>
        <time>2014-09-20T13:07:51Z</time>
      </trkpt>
      <trkpt lat="43.2255" lon="0.91219">
        <ele>370.25347189994</ele>
        <time>2014-09-20T13:07:56Z</time>
      </trkpt>
      <trkpt lat="43.2255" lon="0.91219">
        <ele>370.25347189994</ele>
        <time>2014-09-20T13:08:01Z</time>
      </trkpt>
      <trkpt lat="43.2255" lon="0.91219">
        <ele>370.25347189994</ele>
        <time>2014-09-20T13:08:06Z</time>
      </trkpt>
      <trkpt lat="43.2255" lon="0.91219">
        <ele>370.25347189994</ele>
        <time>2014-09-20T13:08:11Z</time>
      </trkpt>
      <trkpt lat="43.2255" lon="0.91219">
        <ele>370.25347189994</ele>
        <time>2014-09-20T13:08:16Z</time>
      </trkpt>
      <trkpt lat="43.2255" lon="0.91219">
        <ele>370.25347189994</ele>
        <time>2014-09-20T13:08:21Z</time>
      </trkpt>
      <trkpt lat="43.2255" lon="0.91219">
        <ele>370.25347189994</ele>
        <time>2014-09-20T13:08:26Z</time>
      </trkpt>
      <trkpt lat="43.2255" lon="0.91219">
        <ele>370.25347189994</ele>
        <time>2014-09-20T13:08:31Z</time>
      </trkpt>
      <trkpt lat="43.2255" lon="0.91219">
        <ele>370.25347189994</ele>
        <time>2014-09-20T13:08:36Z</time>
      </trkpt>
      <trkpt lat="43.2255" lon="0.91219">
        <ele>370.25347189994</ele>
        <time>2014-09-20T13:08:41Z</time>
      </trkpt>
      <trkpt lat="43.2255" lon="0.91219">
        <ele>370.25347189994</ele>
        <time>2014-09-20T13:08:46Z</time>
      </trkpt>
      <trkpt lat="43.2255" lon="0.91219">
        <ele>370.25347189994</ele>
        <time>2014-09-20T13:08:51Z</time>
      </trkpt>
      <trkpt lat="43.2255" lon="0.91219">
        <ele>370.25347189994</ele>
        <time>2014-09-20T13:08:56Z</time>
      </trkpt>
      <trkpt lat="43.2255" lon="0.91219">
        <ele>370.25347189994</ele>
        <time>2014-09-20T13:09:01Z</time>
      </trkpt>
      <trkpt lat="43.2255" lon="0.91219">
        <ele>370.25347189994</ele>
        <time>2014-09-20T13:09:06Z</time>
      </trkpt>
      <trkpt lat="43.2255" lon="0.91219">
        <ele>370.25347189994</ele>
        <time>2014-09-20T13:09:11Z</time>
      </trkpt>
      <trkpt lat="43.2255" lon="0.91219">
        <ele>370.25347189994</ele>
        <time>2014-09-20T13:09:16Z</time>
      </trkpt>
      <trkpt lat="43.2255" lon="0.91219">
        <ele>370.25347189994</ele>
        <time>2014-09-20T13:09:21Z</time>
      </trkpt>
      <trkpt lat="43.2255" lon="0.91219">
        <ele>370.25347189994</ele>
        <time>2014-09-20T13:09:26Z</time>
      </trkpt>
      <trkpt lat="43.2255" lon="0.91219">
        <ele>370.25347189994</ele>
        <time>2014-09-20T13:09:31Z</time>
      </trkpt>
      <trkpt lat="43.2255" lon="0.91219">
        <ele>370.25347189994</ele>
        <time>2014-09-20T13:09:36Z</time>
      </trkpt>
      <trkpt lat="43.2255" lon="0.91219">
        <ele>370.25347189994</ele>
        <time>2014-09-20T13:09:41Z</time>
      </trkpt>
      <trkpt lat="43.2255" lon="0.91219">
        <ele>370.25347189994</ele>
        <time>2014-09-20T13:09:46Z</time>
      </trkpt>
      <trkpt lat="43.2255" lon="0.91219">
        <ele>370.25347189994</ele>
        <time>2014-09-20T13:09:51Z</time>
      </trkpt>
      <trkpt lat="43.2255" lon="0.91219">
        <ele>370.25347189994</ele>
        <time>2014-09-20T13:09:56Z</time>
      </trkpt>
      <trkpt lat="43.2255" lon="0.91219">
        <ele>370.25347189994</ele>
        <time>2014-09-20T13:10:01Z</time>
      </trkpt>
      <trkpt lat="43.2255" lon="0.91219">
        <ele>370.25347189994</ele>
        <time>2014-09-20T13:10:06Z</time>
      </trkpt>
      <trkpt lat="43.2255" lon="0.91219">
        <ele>370.25347189994</ele>
        <time>2014-09-20T13:10:11Z</time>
      </trkpt>
      <trkpt lat="43.2255" lon="0.91219">
        <ele>370.25347189994</ele>
        <time>2014-09-20T13:10:16Z</time>
      </trkpt>
      <trkpt lat="43.2255" lon="0.91219">
        <ele>370.25347189994</ele>
        <time>2014-09-20T13:10:21Z</time>
      </trkpt>
      <trkpt lat="43.2255" lon="0.91219">
        <ele>370.25347189994</ele>
        <time>2014-09-20T13:10:26Z</time>
      </trkpt>
      <trkpt lat="43.2255" lon="0.91219">
        <ele>370.25347189994</ele>
        <time>2014-09-20T13:10:31Z</time>
      </trkpt>
      <trkpt lat="43.2255" lon="0.91219">
        <ele>370.25347189994</ele>
        <time>2014-09-20T13:10:36Z</time>
      </trkpt>
      <trkpt lat="43.2255" lon="0.91219">
        <ele>370.25347189994</ele>
        <time>2014-09-20T13:10:41Z</time>
      </trkpt>
      <trkpt lat="43.2255" lon="0.91219">
        <ele>370.25347189994</ele>
        <time>2014-09-20T13:10:46Z</time>
      </trkpt>
      <trkpt lat="43.2255" lon="0.91219">
        <ele>370.25347189994</ele>
        <time>2014-09-20T13:10:51Z</time>
      </trkpt>
      <trkpt lat="43.2255" lon="0.91219">
        <ele>370.25347189994</ele>
        <time>2014-09-20T13:10:56Z</time>
      </trkpt>
      <trkpt lat="43.2255" lon="0.91219">
        <ele>370.25347189994</ele>
        <time>2014-09-20T13:11:01Z</time>
      </trkpt>
      <trkpt lat="43.2255" lon="0.91219">
        <ele>370.25347189994</ele>
        <time>2014-09-20T13:11:06Z</time>
      </trkpt>
      <trkpt lat="43.2255" lon="0.91219">
        <ele>370.25347189994</ele>
        <time>2014-09-20T13:11:11Z</time>
      </trkpt>
      <trkpt lat="43.2255" lon="0.91219">
        <ele>370.25347189994</ele>
        <time>2014-09-20T13:11:16Z</time>
      </trkpt>
      <trkpt lat="43.2255" lon="0.91219">
        <ele>370.25347189994</ele>
        <time>2014-09-20T13:11:21Z</time>
      </trkpt>
      <trkpt lat="43.2255" lon="0.91219">
        <ele>370.25347189994</ele>
        <time>2014-09-20T13:11:26Z</time>
      </trkpt>
      <trkpt lat="43.2255" lon="0.91219">
        <ele>370.25347189994</ele>
        <time>2014-09-20T13:11:31Z</time>
      </trkpt>
      <trkpt lat="43.2255" lon="0.91219">
        <ele>370.25347189994</ele>
        <time>2014-09-20T13:11:36Z</time>
      </trkpt>
      <trkpt lat="43.2255" lon="0.91219">
        <ele>370.25347189994</ele>
        <time>2014-09-20T13:11:41Z</time>
      </trkpt>
      <trkpt lat="43.2255" lon="0.91219">
        <ele>370.25347189994</ele>
        <time>2014-09-20T13:11:46Z</time>
      </trkpt>
      <trkpt lat="43.2255" lon="0.91219">
        <ele>370.25347189994</ele>
        <time>2014-09-20T13:11:51Z</time>
      </trkpt>
      <trkpt lat="43.2255" lon="0.91219">
        <ele>370.25347189994</ele>
        <time>2014-09-20T13:11:56Z</time>
      </trkpt>
      <trkpt lat="43.2255" lon="0.91219">
        <ele>370.25347189994</ele>
        <time>2014-09-20T13:12:01Z</time>
      </trkpt>
      <trkpt lat="43.2255" lon="0.91219">
        <ele>370.25347189994</ele>
        <time>2014-09-20T13:12:06Z</time>
      </trkpt>
      <trkpt lat="43.2255" lon="0.91219">
        <ele>370.25347189994</ele>
        <time>2014-09-20T13:12:11Z</time>
      </trkpt>
      <trkpt lat="43.2255" lon="0.91219">
        <ele>370.25347189994</ele>
        <time>2014-09-20T13:12:16Z</time>
      </trkpt>
      <trkpt lat="43.2255" lon="0.91219">
        <ele>370.25347189994</ele>
        <time>2014-09-20T13:12:21Z</time>
      </trkpt>
      <trkpt lat="43.22549" lon="0.91223">
        <ele>370.25347189994</ele>
        <time>2014-09-20T13:12:26Z</time>
      </trkpt>
      <trkpt lat="43.2255" lon="0.91226">
        <ele>370.25347189994</ele>
        <time>2014-09-20T13:12:31Z</time>
      </trkpt>
      <trkpt lat="43.2255" lon="0.91228">
        <ele>370.87426809111</ele>
        <time>2014-09-20T13:12:36Z</time>
      </trkpt>
      <trkpt lat="43.2255" lon="0.91228">
        <ele>370.87426809111</ele>
        <time>2014-09-20T13:12:41Z</time>
      </trkpt>
      <trkpt lat="43.22549" lon="0.91228">
        <ele>370.87426809111</ele>
        <time>2014-09-20T13:12:46Z</time>
      </trkpt>
      <trkpt lat="43.22549" lon="0.91228">
        <ele>370.87426809111</ele>
        <time>2014-09-20T13:12:51Z</time>
      </trkpt>
      <trkpt lat="43.22549" lon="0.91228">
        <ele>370.87426809111</ele>
        <time>2014-09-20T13:12:56Z</time>
      </trkpt>
      <trkpt lat="43.22549" lon="0.91228">
        <ele>370.87426809111</ele>
        <time>2014-09-20T13:13:01Z</time>
      </trkpt>
      <trkpt lat="43.22549" lon="0.91228">
        <ele>370.87426809111</ele>
        <time>2014-09-20T13:13:06Z</time>
      </trkpt>
      <trkpt lat="43.22549" lon="0.91228">
        <ele>370.87426809111</ele>
        <time>2014-09-20T13:13:11Z</time>
      </trkpt>
      <trkpt lat="43.22549" lon="0.91228">
        <ele>370.87426809111</ele>
        <time>2014-09-20T13:13:16Z</time>
      </trkpt>
      <trkpt lat="43.22549" lon="0.91228">
        <ele>370.87426809111</ele>
        <time>2014-09-20T13:13:21Z</time>
      </trkpt>
      <trkpt lat="43.22549" lon="0.91228">
        <ele>370.87426809111</ele>
        <time>2014-09-20T13:13:26Z</time>
      </trkpt>
      <trkpt lat="43.22551" lon="0.91226">
        <ele>370.87426809111</ele>
        <time>2014-09-20T13:13:31Z</time>
      </trkpt>
      <trkpt lat="43.22552" lon="0.91225">
        <ele>370.87426809111</ele>
        <time>2014-09-20T13:13:36Z</time>
      </trkpt>
      <trkpt lat="43.22552" lon="0.91224">
        <ele>370.87426809111</ele>
        <time>2014-09-20T13:13:41Z</time>
      </trkpt>
      <trkpt lat="43.22552" lon="0.91224">
        <ele>370.87426809111</ele>
        <time>2014-09-20T13:13:46Z</time>
      </trkpt>
      <trkpt lat="43.22552" lon="0.91224">
        <ele>370.87426809111</ele>
        <time>2014-09-20T13:13:51Z</time>
      </trkpt>
      <trkpt lat="43.22552" lon="0.91224">
        <ele>370.87426809111</ele>
        <time>2014-09-20T13:13:56Z</time>
      </trkpt>
      <trkpt lat="43.22552" lon="0.91224">
        <ele>370.87426809111</ele>
        <time>2014-09-20T13:14:01Z</time>
      </trkpt>
      <trkpt lat="43.22552" lon="0.91224">
        <ele>370.87426809111</ele>
        <time>2014-09-20T13:14:06Z</time>
      </trkpt>
      <trkpt lat="43.22552" lon="0.91224">
        <ele>370.87426809111</ele>
        <time>2014-09-20T13:14:11Z</time>
      </trkpt>
      <trkpt lat="43.22552" lon="0.91224">
        <ele>370.87426809111</ele>
        <time>2014-09-20T13:14:16Z</time>
      </trkpt>
      <trkpt lat="43.22552" lon="0.91224">
        <ele>370.87426809111</ele>
        <time>2014-09-20T13:14:21Z</time>
      </trkpt>
      <trkpt lat="43.22552" lon="0.91224">
        <ele>370.87426809111</ele>
        <time>2014-09-20T13:14:26Z</time>
      </trkpt>
      <trkpt lat="43.22552" lon="0.91224">
        <ele>370.87426809111</ele>
        <time>2014-09-20T13:14:31Z</time>
      </trkpt>
      <trkpt lat="43.22552" lon="0.91224">
        <ele>370.87426809111</ele>
        <time>2014-09-20T13:14:36Z</time>
      </trkpt>
      <trkpt lat="43.22552" lon="0.91224">
        <ele>370.87426809111</ele>
        <time>2014-09-20T13:14:41Z</time>
      </trkpt>
      <trkpt lat="43.22552" lon="0.91224">
        <ele>370.87426809111</ele>
        <time>2014-09-20T13:14:46Z</time>
      </trkpt>
      <trkpt lat="43.22552" lon="0.91224">
        <ele>370.87426809111</ele>
        <time>2014-09-20T13:14:51Z</time>
      </trkpt>
      <trkpt lat="43.22552" lon="0.91224">
        <ele>370.87426809111</ele>
        <time>2014-09-20T13:14:56Z</time>
      </trkpt>
      <trkpt lat="43.22552" lon="0.91224">
        <ele>370.87426809111</ele>
        <time>2014-09-20T13:15:01Z</time>
      </trkpt>
      <trkpt lat="43.22552" lon="0.91224">
        <ele>370.87426809111</ele>
        <time>2014-09-20T13:15:06Z</time>
      </trkpt>
      <trkpt lat="43.22552" lon="0.91224">
        <ele>370.87426809111</ele>
        <time>2014-09-20T13:15:11Z</time>
      </trkpt>
      <trkpt lat="43.22552" lon="0.91224">
        <ele>370.87426809111</ele>
        <time>2014-09-20T13:15:16Z</time>
      </trkpt>
      <trkpt lat="43.22552" lon="0.91224">
        <ele>370.87426809111</ele>
        <time>2014-09-20T13:15:21Z</time>
      </trkpt>
      <trkpt lat="43.22552" lon="0.91224">
        <ele>370.87426809111</ele>
        <time>2014-09-20T13:15:26Z</time>
      </trkpt>
      <trkpt lat="43.22552" lon="0.91224">
        <ele>370.87426809111</ele>
        <time>2014-09-20T13:15:31Z</time>
      </trkpt>
      <trkpt lat="43.22552" lon="0.91224">
        <ele>370.87426809111</ele>
        <time>2014-09-20T13:15:36Z</time>
      </trkpt>
      <trkpt lat="43.22552" lon="0.91224">
        <ele>370.87426809111</ele>
        <time>2014-09-20T13:15:41Z</time>
      </trkpt>
      <trkpt lat="43.22552" lon="0.91224">
        <ele>370.87426809111</ele>
        <time>2014-09-20T13:15:46Z</time>
      </trkpt>
      <trkpt lat="43.22552" lon="0.91224">
        <ele>370.87426809111</ele>
        <time>2014-09-20T13:15:51Z</time>
      </trkpt>
      <trkpt lat="43.22552" lon="0.91224">
        <ele>370.87426809111</ele>
        <time>2014-09-20T13:15:56Z</time>
      </trkpt>
      <trkpt lat="43.22552" lon="0.91224">
        <ele>370.87426809111</ele>
        <time>2014-09-20T13:16:01Z</time>
      </trkpt>
      <trkpt lat="43.22552" lon="0.91224">
        <ele>370.87426809111</ele>
        <time>2014-09-20T13:16:06Z</time>
      </trkpt>
      <trkpt lat="43.22552" lon="0.91224">
        <ele>370.87426809111</ele>
        <time>2014-09-20T13:16:11Z</time>
      </trkpt>
      <trkpt lat="43.22552" lon="0.91224">
        <ele>370.87426809111</ele>
        <time>2014-09-20T13:16:16Z</time>
      </trkpt>
      <trkpt lat="43.22552" lon="0.91224">
        <ele>370.87426809111</ele>
        <time>2014-09-20T13:16:21Z</time>
      </trkpt>
      <trkpt lat="43.22552" lon="0.91224">
        <ele>370.87426809111</ele>
        <time>2014-09-20T13:16:26Z</time>
      </trkpt>
      <trkpt lat="43.22552" lon="0.91224">
        <ele>370.87426809111</ele>
        <time>2014-09-20T13:16:31Z</time>
      </trkpt>
      <trkpt lat="43.22552" lon="0.91224">
        <ele>370.87426809111</ele>
        <time>2014-09-20T13:16:36Z</time>
      </trkpt>
      <trkpt lat="43.22552" lon="0.91224">
        <ele>370.87426809111</ele>
        <time>2014-09-20T13:16:41Z</time>
      </trkpt>
      <trkpt lat="43.22552" lon="0.91224">
        <ele>370.87426809111</ele>
        <time>2014-09-20T13:16:46Z</time>
      </trkpt>
      <trkpt lat="43.22552" lon="0.91224">
        <ele>370.87426809111</ele>
        <time>2014-09-20T13:16:51Z</time>
      </trkpt>
      <trkpt lat="43.22552" lon="0.91224">
        <ele>370.87426809111</ele>
        <time>2014-09-20T13:16:56Z</time>
      </trkpt>
      <trkpt lat="43.22552" lon="0.91224">
        <ele>370.87426809111</ele>
        <time>2014-09-20T13:17:01Z</time>
      </trkpt>
      <trkpt lat="43.22552" lon="0.91224">
        <ele>370.87426809111</ele>
        <time>2014-09-20T13:17:06Z</time>
      </trkpt>
      <trkpt lat="43.22552" lon="0.91224">
        <ele>370.87426809111</ele>
        <time>2014-09-20T13:17:11Z</time>
      </trkpt>
      <trkpt lat="43.22552" lon="0.91224">
        <ele>370.87426809111</ele>
        <time>2014-09-20T13:17:16Z</time>
      </trkpt>
      <trkpt lat="43.22552" lon="0.91224">
        <ele>370.87426809111</ele>
        <time>2014-09-20T13:17:21Z</time>
      </trkpt>
      <trkpt lat="43.22552" lon="0.91224">
        <ele>370.87426809111</ele>
        <time>2014-09-20T13:17:26Z</time>
      </trkpt>
      <trkpt lat="43.22552" lon="0.91224">
        <ele>370.87426809111</ele>
        <time>2014-09-20T13:17:31Z</time>
      </trkpt>
      <trkpt lat="43.22552" lon="0.91224">
        <ele>370.87426809111</ele>
        <time>2014-09-20T13:17:36Z</time>
      </trkpt>
      <trkpt lat="43.22552" lon="0.91224">
        <ele>370.87426809111</ele>
        <time>2014-09-20T13:17:41Z</time>
      </trkpt>
      <trkpt lat="43.22552" lon="0.91224">
        <ele>370.87426809111</ele>
        <time>2014-09-20T13:17:46Z</time>
      </trkpt>
      <trkpt lat="43.22552" lon="0.91224">
        <ele>370.87426809111</ele>
        <time>2014-09-20T13:17:51Z</time>
      </trkpt>
      <trkpt lat="43.22552" lon="0.91224">
        <ele>370.87426809111</ele>
        <time>2014-09-20T13:17:56Z</time>
      </trkpt>
      <trkpt lat="43.22552" lon="0.91224">
        <ele>370.87426809111</ele>
        <time>2014-09-20T13:18:01Z</time>
      </trkpt>
      <trkpt lat="43.22552" lon="0.91224">
        <ele>370.87426809111</ele>
        <time>2014-09-20T13:18:06Z</time>
      </trkpt>
      <trkpt lat="43.22552" lon="0.91224">
        <ele>370.87426809111</ele>
        <time>2014-09-20T13:18:11Z</time>
      </trkpt>
      <trkpt lat="43.22552" lon="0.91224">
        <ele>370.87426809111</ele>
        <time>2014-09-20T13:18:16Z</time>
      </trkpt>
      <trkpt lat="43.22552" lon="0.91224">
        <ele>370.87426809111</ele>
        <time>2014-09-20T13:18:21Z</time>
      </trkpt>
      <trkpt lat="43.22552" lon="0.91224">
        <ele>370.87426809111</ele>
        <time>2014-09-20T13:18:26Z</time>
      </trkpt>
      <trkpt lat="43.22552" lon="0.91224">
        <ele>370.87426809111</ele>
        <time>2014-09-20T13:18:31Z</time>
      </trkpt>
      <trkpt lat="43.22552" lon="0.91224">
        <ele>370.87426809111</ele>
        <time>2014-09-20T13:18:36Z</time>
      </trkpt>
      <trkpt lat="43.22552" lon="0.91224">
        <ele>370.87426809111</ele>
        <time>2014-09-20T13:18:41Z</time>
      </trkpt>
      <trkpt lat="43.22552" lon="0.91224">
        <ele>370.87426809111</ele>
        <time>2014-09-20T13:18:46Z</time>
      </trkpt>
      <trkpt lat="43.22552" lon="0.91224">
        <ele>370.87426809111</ele>
        <time>2014-09-20T13:18:51Z</time>
      </trkpt>
      <trkpt lat="43.22552" lon="0.91224">
        <ele>370.87426809111</ele>
        <time>2014-09-20T13:18:56Z</time>
      </trkpt>
      <trkpt lat="43.22552" lon="0.91224">
        <ele>370.87426809111</ele>
        <time>2014-09-20T13:19:01Z</time>
      </trkpt>
      <trkpt lat="43.22552" lon="0.91224">
        <ele>370.87426809111</ele>
        <time>2014-09-20T13:19:06Z</time>
      </trkpt>
      <trkpt lat="43.22552" lon="0.91224">
        <ele>370.87426809111</ele>
        <time>2014-09-20T13:19:11Z</time>
      </trkpt>
      <trkpt lat="43.22552" lon="0.91224">
        <ele>370.87426809111</ele>
        <time>2014-09-20T13:19:16Z</time>
      </trkpt>
      <trkpt lat="43.22552" lon="0.91224">
        <ele>370.87426809111</ele>
        <time>2014-09-20T13:19:21Z</time>
      </trkpt>
      <trkpt lat="43.22552" lon="0.91224">
        <ele>370.87426809111</ele>
        <time>2014-09-20T13:19:26Z</time>
      </trkpt>
      <trkpt lat="43.22552" lon="0.91224">
        <ele>370.87426809111</ele>
        <time>2014-09-20T13:19:31Z</time>
      </trkpt>
      <trkpt lat="43.22552" lon="0.91224">
        <ele>370.87426809111</ele>
        <time>2014-09-20T13:19:36Z</time>
      </trkpt>
      <trkpt lat="43.22552" lon="0.91224">
        <ele>370.87426809111</ele>
        <time>2014-09-20T13:19:41Z</time>
      </trkpt>
      <trkpt lat="43.22552" lon="0.91224">
        <ele>370.87426809111</ele>
        <time>2014-09-20T13:19:51Z</time>
      </trkpt>
      <trkpt lat="43.22552" lon="0.91224">
        <ele>370.87426809111</ele>
        <time>2014-09-20T13:20:01Z</time>
      </trkpt>
      <trkpt lat="43.22552" lon="0.91224">
        <ele>370.87426809111</ele>
        <time>2014-09-20T13:20:06Z</time>
      </trkpt>
      <trkpt lat="43.22552" lon="0.91224">
        <ele>370.87426809111</ele>
        <time>2014-09-20T13:20:11Z</time>
      </trkpt>
      <trkpt lat="43.22552" lon="0.91224">
        <ele>370.87426809111</ele>
        <time>2014-09-20T13:20:16Z</time>
      </trkpt>
      <trkpt lat="43.22552" lon="0.91224">
        <ele>370.87426809111</ele>
        <time>2014-09-20T13:20:21Z</time>
      </trkpt>
      <trkpt lat="43.22552" lon="0.91224">
        <ele>370.87426809111</ele>
        <time>2014-09-20T13:20:26Z</time>
      </trkpt>
      <trkpt lat="43.22552" lon="0.91224">
        <ele>370.87426809111</ele>
        <time>2014-09-20T13:20:31Z</time>
      </trkpt>
      <trkpt lat="43.22552" lon="0.91224">
        <ele>370.87426809111</ele>
        <time>2014-09-20T13:20:36Z</time>
      </trkpt>
      <trkpt lat="43.22552" lon="0.91224">
        <ele>370.87426809111</ele>
        <time>2014-09-20T13:20:41Z</time>
      </trkpt>
      <trkpt lat="43.22552" lon="0.91224">
        <ele>370.87426809111</ele>
        <time>2014-09-20T13:20:46Z</time>
      </trkpt>
      <trkpt lat="43.22552" lon="0.91224">
        <ele>370.87426809111</ele>
        <time>2014-09-20T13:20:51Z</time>
      </trkpt>
      <trkpt lat="43.22552" lon="0.91224">
        <ele>370.87426809111</ele>
        <time>2014-09-20T13:20:56Z</time>
      </trkpt>
      <trkpt lat="43.22552" lon="0.91224">
        <ele>370.87426809111</ele>
        <time>2014-09-20T13:21:01Z</time>
      </trkpt>
      <trkpt lat="43.22552" lon="0.91224">
        <ele>370.87426809111</ele>
        <time>2014-09-20T13:21:06Z</time>
      </trkpt>
      <trkpt lat="43.22552" lon="0.91224">
        <ele>370.87426809111</ele>
        <time>2014-09-20T13:21:11Z</time>
      </trkpt>
      <trkpt lat="43.22552" lon="0.91224">
        <ele>370.87426809111</ele>
        <time>2014-09-20T13:21:16Z</time>
      </trkpt>
      <trkpt lat="43.22552" lon="0.91224">
        <ele>370.87426809111</ele>
        <time>2014-09-20T13:21:21Z</time>
      </trkpt>
      <trkpt lat="43.22552" lon="0.91224">
        <ele>370.87426809111</ele>
        <time>2014-09-20T13:21:26Z</time>
      </trkpt>
      <trkpt lat="43.22552" lon="0.91224">
        <ele>370.87426809111</ele>
        <time>2014-09-20T13:21:31Z</time>
      </trkpt>
      <trkpt lat="43.22552" lon="0.91224">
        <ele>370.87426809111</ele>
        <time>2014-09-20T13:21:36Z</time>
      </trkpt>
      <trkpt lat="43.22552" lon="0.91224">
        <ele>370.87426809111</ele>
        <time>2014-09-20T13:21:41Z</time>
      </trkpt>
      <trkpt lat="43.22552" lon="0.91224">
        <ele>370.87426809111</ele>
        <time>2014-09-20T13:21:46Z</time>
      </trkpt>
      <trkpt lat="43.22552" lon="0.91224">
        <ele>370.87426809111</ele>
        <time>2014-09-20T13:21:51Z</time>
      </trkpt>
      <trkpt lat="43.22552" lon="0.91224">
        <ele>370.87426809111</ele>
        <time>2014-09-20T13:21:56Z</time>
      </trkpt>
      <trkpt lat="43.22552" lon="0.91224">
        <ele>370.87426809111</ele>
        <time>2014-09-20T13:22:01Z</time>
      </trkpt>
      <trkpt lat="43.22552" lon="0.91224">
        <ele>370.87426809111</ele>
        <time>2014-09-20T13:22:06Z</time>
      </trkpt>
      <trkpt lat="43.22552" lon="0.91224">
        <ele>370.87426809111</ele>
        <time>2014-09-20T13:22:11Z</time>
      </trkpt>
      <trkpt lat="43.22552" lon="0.91224">
        <ele>370.87426809111</ele>
        <time>2014-09-20T13:22:16Z</time>
      </trkpt>
      <trkpt lat="43.22552" lon="0.91224">
        <ele>370.87426809111</ele>
        <time>2014-09-20T13:22:21Z</time>
      </trkpt>
      <trkpt lat="43.22552" lon="0.91224">
        <ele>370.87426809111</ele>
        <time>2014-09-20T13:22:26Z</time>
      </trkpt>
      <trkpt lat="43.22552" lon="0.91224">
        <ele>370.87426809111</ele>
        <time>2014-09-20T13:22:31Z</time>
      </trkpt>
      <trkpt lat="43.22552" lon="0.91224">
        <ele>370.87426809111</ele>
        <time>2014-09-20T13:22:36Z</time>
      </trkpt>
      <trkpt lat="43.22552" lon="0.91224">
        <ele>370.87426809111</ele>
        <time>2014-09-20T13:22:41Z</time>
      </trkpt>
      <trkpt lat="43.22552" lon="0.91224">
        <ele>370.87426809111</ele>
        <time>2014-09-20T13:22:46Z</time>
      </trkpt>
      <trkpt lat="43.22552" lon="0.91224">
        <ele>370.87426809111</ele>
        <time>2014-09-20T13:22:51Z</time>
      </trkpt>
      <trkpt lat="43.22552" lon="0.91224">
        <ele>370.87426809111</ele>
        <time>2014-09-20T13:23:01Z</time>
      </trkpt>
      <trkpt lat="43.22552" lon="0.91224">
        <ele>370.87426809111</ele>
        <time>2014-09-20T13:23:06Z</time>
      </trkpt>
      <trkpt lat="43.22552" lon="0.91224">
        <ele>370.87426809111</ele>
        <time>2014-09-20T13:23:11Z</time>
      </trkpt>
      <trkpt lat="43.22552" lon="0.91224">
        <ele>370.87426809111</ele>
        <time>2014-09-20T13:23:16Z</time>
      </trkpt>
      <trkpt lat="43.22552" lon="0.91224">
        <ele>370.87426809111</ele>
        <time>2014-09-20T13:23:21Z</time>
      </trkpt>
      <trkpt lat="43.22552" lon="0.91224">
        <ele>370.87426809111</ele>
        <time>2014-09-20T13:23:26Z</time>
      </trkpt>
      <trkpt lat="43.22552" lon="0.91224">
        <ele>370.87426809111</ele>
        <time>2014-09-20T13:23:31Z</time>
      </trkpt>
      <trkpt lat="43.22552" lon="0.91224">
        <ele>370.87426809111</ele>
        <time>2014-09-20T13:23:36Z</time>
      </trkpt>
      <trkpt lat="43.22552" lon="0.91224">
        <ele>370.87426809111</ele>
        <time>2014-09-20T13:23:41Z</time>
      </trkpt>
      <trkpt lat="43.22552" lon="0.91224">
        <ele>370.87426809111</ele>
        <time>2014-09-20T13:23:46Z</time>
      </trkpt>
      <trkpt lat="43.22552" lon="0.91224">
        <ele>370.87426809111</ele>
        <time>2014-09-20T13:23:51Z</time>
      </trkpt>
      <trkpt lat="43.22552" lon="0.91224">
        <ele>370.87426809111</ele>
        <time>2014-09-20T13:23:56Z</time>
      </trkpt>
      <trkpt lat="43.22552" lon="0.91224">
        <ele>370.87426809111</ele>
        <time>2014-09-20T13:24:01Z</time>
      </trkpt>
      <trkpt lat="43.22552" lon="0.91224">
        <ele>370.87426809111</ele>
        <time>2014-09-20T13:24:06Z</time>
      </trkpt>
      <trkpt lat="43.22552" lon="0.91224">
        <ele>370.87426809111</ele>
        <time>2014-09-20T13:24:11Z</time>
      </trkpt>
      <trkpt lat="43.22552" lon="0.91224">
        <ele>370.87426809111</ele>
        <time>2014-09-20T13:24:16Z</time>
      </trkpt>
      <trkpt lat="43.22552" lon="0.91224">
        <ele>370.87426809111</ele>
        <time>2014-09-20T13:24:21Z</time>
      </trkpt>
      <trkpt lat="43.22552" lon="0.91224">
        <ele>370.87426809111</ele>
        <time>2014-09-20T13:24:26Z</time>
      </trkpt>
      <trkpt lat="43.22552" lon="0.91224">
        <ele>370.87426809111</ele>
        <time>2014-09-20T13:24:31Z</time>
      </trkpt>
      <trkpt lat="43.22552" lon="0.91224">
        <ele>370.87426809111</ele>
        <time>2014-09-20T13:24:36Z</time>
      </trkpt>
      <trkpt lat="43.22552" lon="0.91224">
        <ele>370.87426809111</ele>
        <time>2014-09-20T13:24:41Z</time>
      </trkpt>
      <trkpt lat="43.22552" lon="0.91224">
        <ele>370.87426809111</ele>
        <time>2014-09-20T13:24:46Z</time>
      </trkpt>
      <trkpt lat="43.22552" lon="0.91224">
        <ele>370.87426809111</ele>
        <time>2014-09-20T13:24:51Z</time>
      </trkpt>
      <trkpt lat="43.22552" lon="0.91224">
        <ele>370.87426809111</ele>
        <time>2014-09-20T13:24:56Z</time>
      </trkpt>
      <trkpt lat="43.22552" lon="0.91224">
        <ele>370.87426809111</ele>
        <time>2014-09-20T13:25:01Z</time>
      </trkpt>
      <trkpt lat="43.22552" lon="0.91224">
        <ele>370.87426809111</ele>
        <time>2014-09-20T13:25:11Z</time>
      </trkpt>
      <trkpt lat="43.22552" lon="0.91224">
        <ele>370.87426809111</ele>
        <time>2014-09-20T13:25:16Z</time>
      </trkpt>
      <trkpt lat="43.22552" lon="0.91224">
        <ele>370.87426809111</ele>
        <time>2014-09-20T13:25:21Z</time>
      </trkpt>
      <trkpt lat="43.22552" lon="0.91224">
        <ele>370.87426809111</ele>
        <time>2014-09-20T13:25:26Z</time>
      </trkpt>
      <trkpt lat="43.22552" lon="0.91224">
        <ele>370.87426809111</ele>
        <time>2014-09-20T13:25:31Z</time>
      </trkpt>
      <trkpt lat="43.22552" lon="0.91224">
        <ele>370.87426809111</ele>
        <time>2014-09-20T13:25:36Z</time>
      </trkpt>
      <trkpt lat="43.22552" lon="0.91224">
        <ele>370.87426809111</ele>
        <time>2014-09-20T13:25:41Z</time>
      </trkpt>
      <trkpt lat="43.22552" lon="0.91224">
        <ele>370.87426809111</ele>
        <time>2014-09-20T13:25:46Z</time>
      </trkpt>
      <trkpt lat="43.22552" lon="0.91224">
        <ele>370.87426809111</ele>
        <time>2014-09-20T13:25:51Z</time>
      </trkpt>
      <trkpt lat="43.22552" lon="0.91224">
        <ele>370.87426809111</ele>
        <time>2014-09-20T13:25:56Z</time>
      </trkpt>
      <trkpt lat="43.22552" lon="0.91224">
        <ele>370.87426809111</ele>
        <time>2014-09-20T13:26:01Z</time>
      </trkpt>
      <trkpt lat="43.22552" lon="0.91224">
        <ele>370.87426809111</ele>
        <time>2014-09-20T13:26:06Z</time>
      </trkpt>
      <trkpt lat="43.22552" lon="0.91224">
        <ele>370.87426809111</ele>
        <time>2014-09-20T13:26:11Z</time>
      </trkpt>
      <trkpt lat="43.22552" lon="0.91224">
        <ele>370.87426809111</ele>
        <time>2014-09-20T13:26:16Z</time>
      </trkpt>
      <trkpt lat="43.22552" lon="0.91224">
        <ele>370.87426809111</ele>
        <time>2014-09-20T13:26:21Z</time>
      </trkpt>
      <trkpt lat="43.22552" lon="0.91224">
        <ele>370.87426809111</ele>
        <time>2014-09-20T13:26:26Z</time>
      </trkpt>
      <trkpt lat="43.22552" lon="0.91224">
        <ele>370.87426809111</ele>
        <time>2014-09-20T13:26:31Z</time>
      </trkpt>
      <trkpt lat="43.22552" lon="0.91224">
        <ele>370.87426809111</ele>
        <time>2014-09-20T13:26:36Z</time>
      </trkpt>
      <trkpt lat="43.22552" lon="0.91224">
        <ele>370.87426809111</ele>
        <time>2014-09-20T13:26:41Z</time>
      </trkpt>
      <trkpt lat="43.22552" lon="0.91224">
        <ele>370.87426809111</ele>
        <time>2014-09-20T13:26:46Z</time>
      </trkpt>
      <trkpt lat="43.22552" lon="0.91224">
        <ele>370.87426809111</ele>
        <time>2014-09-20T13:26:51Z</time>
      </trkpt>
      <trkpt lat="43.22552" lon="0.91224">
        <ele>370.87426809111</ele>
        <time>2014-09-20T13:26:56Z</time>
      </trkpt>
      <trkpt lat="43.22552" lon="0.91224">
        <ele>370.87426809111</ele>
        <time>2014-09-20T13:27:01Z</time>
      </trkpt>
      <trkpt lat="43.22552" lon="0.91224">
        <ele>370.87426809111</ele>
        <time>2014-09-20T13:27:06Z</time>
      </trkpt>
      <trkpt lat="43.22552" lon="0.91224">
        <ele>370.87426809111</ele>
        <time>2014-09-20T13:27:11Z</time>
      </trkpt>
      <trkpt lat="43.22552" lon="0.91224">
        <ele>370.87426809111</ele>
        <time>2014-09-20T13:27:16Z</time>
      </trkpt>
      <trkpt lat="43.22552" lon="0.91224">
        <ele>370.87426809111</ele>
        <time>2014-09-20T13:27:21Z</time>
      </trkpt>
      <trkpt lat="43.22552" lon="0.91224">
        <ele>370.87426809111</ele>
        <time>2014-09-20T13:27:26Z</time>
      </trkpt>
      <trkpt lat="43.22552" lon="0.91224">
        <ele>370.87426809111</ele>
        <time>2014-09-20T13:27:31Z</time>
      </trkpt>
      <trkpt lat="43.22552" lon="0.91224">
        <ele>370.87426809111</ele>
        <time>2014-09-20T13:27:36Z</time>
      </trkpt>
      <trkpt lat="43.22552" lon="0.91224">
        <ele>370.87426809111</ele>
        <time>2014-09-20T13:27:41Z</time>
      </trkpt>
      <trkpt lat="43.22552" lon="0.91224">
        <ele>370.87426809111</ele>
        <time>2014-09-20T13:27:46Z</time>
      </trkpt>
      <trkpt lat="43.22552" lon="0.91224">
        <ele>370.87426809111</ele>
        <time>2014-09-20T13:27:51Z</time>
      </trkpt>
      <trkpt lat="43.22552" lon="0.91224">
        <ele>370.87426809111</ele>
        <time>2014-09-20T13:27:56Z</time>
      </trkpt>
      <trkpt lat="43.22552" lon="0.91224">
        <ele>370.87426809111</ele>
        <time>2014-09-20T13:28:01Z</time>
      </trkpt>
      <trkpt lat="43.22552" lon="0.91224">
        <ele>370.87426809111</ele>
        <time>2014-09-20T13:28:06Z</time>
      </trkpt>
      <trkpt lat="43.22552" lon="0.91224">
        <ele>370.87426809111</ele>
        <time>2014-09-20T13:28:11Z</time>
      </trkpt>
      <trkpt lat="43.22552" lon="0.91224">
        <ele>370.87426809111</ele>
        <time>2014-09-20T13:28:16Z</time>
      </trkpt>
      <trkpt lat="43.22552" lon="0.91224">
        <ele>370.87426809111</ele>
        <time>2014-09-20T13:28:21Z</time>
      </trkpt>
      <trkpt lat="43.22552" lon="0.91224">
        <ele>370.87426809111</ele>
        <time>2014-09-20T13:28:26Z</time>
      </trkpt>
      <trkpt lat="43.22552" lon="0.91224">
        <ele>370.87426809111</ele>
        <time>2014-09-20T13:28:31Z</time>
      </trkpt>
      <trkpt lat="43.22552" lon="0.91224">
        <ele>370.87426809111</ele>
        <time>2014-09-20T13:28:36Z</time>
      </trkpt>
      <trkpt lat="43.22552" lon="0.91224">
        <ele>370.87426809111</ele>
        <time>2014-09-20T13:28:41Z</time>
      </trkpt>
      <trkpt lat="43.22552" lon="0.91224">
        <ele>370.87426809111</ele>
        <time>2014-09-20T13:28:46Z</time>
      </trkpt>
      <trkpt lat="43.22552" lon="0.91224">
        <ele>370.87426809111</ele>
        <time>2014-09-20T13:28:51Z</time>
      </trkpt>
      <trkpt lat="43.22552" lon="0.91224">
        <ele>370.87426809111</ele>
        <time>2014-09-20T13:28:56Z</time>
      </trkpt>
      <trkpt lat="43.22552" lon="0.91224">
        <ele>370.87426809111</ele>
        <time>2014-09-20T13:29:01Z</time>
      </trkpt>
      <trkpt lat="43.22552" lon="0.91224">
        <ele>370.87426809111</ele>
        <time>2014-09-20T13:29:06Z</time>
      </trkpt>
      <trkpt lat="43.22552" lon="0.91224">
        <ele>370.87426809111</ele>
        <time>2014-09-20T13:29:11Z</time>
      </trkpt>
      <trkpt lat="43.22552" lon="0.91224">
        <ele>370.87426809111</ele>
        <time>2014-09-20T13:29:16Z</time>
      </trkpt>
      <trkpt lat="43.22552" lon="0.91224">
        <ele>370.87426809111</ele>
        <time>2014-09-20T13:29:21Z</time>
      </trkpt>
      <trkpt lat="43.22552" lon="0.91224">
        <ele>370.87426809111</ele>
        <time>2014-09-20T13:29:26Z</time>
      </trkpt>
      <trkpt lat="43.22552" lon="0.91224">
        <ele>370.87426809111</ele>
        <time>2014-09-20T13:29:31Z</time>
      </trkpt>
      <trkpt lat="43.22552" lon="0.91224">
        <ele>370.87426809111</ele>
        <time>2014-09-20T13:29:36Z</time>
      </trkpt>
      <trkpt lat="43.22552" lon="0.91224">
        <ele>370.87426809111</ele>
        <time>2014-09-20T13:29:41Z</time>
      </trkpt>
      <trkpt lat="43.22552" lon="0.91224">
        <ele>370.87426809111</ele>
        <time>2014-09-20T13:29:46Z</time>
      </trkpt>
      <trkpt lat="43.22552" lon="0.91224">
        <ele>370.87426809111</ele>
        <time>2014-09-20T13:29:51Z</time>
      </trkpt>
      <trkpt lat="43.22552" lon="0.91224">
        <ele>370.87426809111</ele>
        <time>2014-09-20T13:29:56Z</time>
      </trkpt>
      <trkpt lat="43.22552" lon="0.91224">
        <ele>370.87426809111</ele>
        <time>2014-09-20T13:30:01Z</time>
      </trkpt>
      <trkpt lat="43.22552" lon="0.91224">
        <ele>370.87426809111</ele>
        <time>2014-09-20T13:30:06Z</time>
      </trkpt>
      <trkpt lat="43.22552" lon="0.91224">
        <ele>370.87426809111</ele>
        <time>2014-09-20T13:30:11Z</time>
      </trkpt>
      <trkpt lat="43.22552" lon="0.91224">
        <ele>370.87426809111</ele>
        <time>2014-09-20T13:30:21Z</time>
      </trkpt>
      <trkpt lat="43.22552" lon="0.91224">
        <ele>370.87426809111</ele>
        <time>2014-09-20T13:30:26Z</time>
      </trkpt>
      <trkpt lat="43.22552" lon="0.91224">
        <ele>370.87426809111</ele>
        <time>2014-09-20T13:30:31Z</time>
      </trkpt>
      <trkpt lat="43.22552" lon="0.91224">
        <ele>370.87426809111</ele>
        <time>2014-09-20T13:30:36Z</time>
      </trkpt>
      <trkpt lat="43.22552" lon="0.91224">
        <ele>370.87426809111</ele>
        <time>2014-09-20T13:30:46Z</time>
      </trkpt>
      <trkpt lat="43.22552" lon="0.91224">
        <ele>370.87426809111</ele>
        <time>2014-09-20T13:30:51Z</time>
      </trkpt>
      <trkpt lat="43.22552" lon="0.91224">
        <ele>370.87426809111</ele>
        <time>2014-09-20T13:30:56Z</time>
      </trkpt>
      <trkpt lat="43.22552" lon="0.91224">
        <ele>370.87426809111</ele>
        <time>2014-09-20T13:31:01Z</time>
      </trkpt>
      <trkpt lat="43.22552" lon="0.91224">
        <ele>370.87426809111</ele>
        <time>2014-09-20T13:31:06Z</time>
      </trkpt>
      <trkpt lat="43.22552" lon="0.91224">
        <ele>370.87426809111</ele>
        <time>2014-09-20T13:31:11Z</time>
      </trkpt>
      <trkpt lat="43.22552" lon="0.91224">
        <ele>370.87426809111</ele>
        <time>2014-09-20T13:31:16Z</time>
      </trkpt>
      <trkpt lat="43.22552" lon="0.91224">
        <ele>370.87426809111</ele>
        <time>2014-09-20T13:31:21Z</time>
      </trkpt>
      <trkpt lat="43.22552" lon="0.91224">
        <ele>370.87426809111</ele>
        <time>2014-09-20T13:31:26Z</time>
      </trkpt>
      <trkpt lat="43.22552" lon="0.91224">
        <ele>370.87426809111</ele>
        <time>2014-09-20T13:31:31Z</time>
      </trkpt>
      <trkpt lat="43.22552" lon="0.91224">
        <ele>370.87426809111</ele>
        <time>2014-09-20T13:31:36Z</time>
      </trkpt>
      <trkpt lat="43.22552" lon="0.91223">
        <ele>370.87426809111</ele>
        <time>2014-09-20T13:31:41Z</time>
      </trkpt>
      <trkpt lat="43.22552" lon="0.91223">
        <ele>370.87426809111</ele>
        <time>2014-09-20T13:31:46Z</time>
      </trkpt>
      <trkpt lat="43.22552" lon="0.91223">
        <ele>370.87426809111</ele>
        <time>2014-09-20T13:31:51Z</time>
      </trkpt>
      <trkpt lat="43.22552" lon="0.91223">
        <ele>370.87426809111</ele>
        <time>2014-09-20T13:31:56Z</time>
      </trkpt>
      <trkpt lat="43.22552" lon="0.91223">
        <ele>370.87426809111</ele>
        <time>2014-09-20T13:32:01Z</time>
      </trkpt>
      <trkpt lat="43.22552" lon="0.91224">
        <ele>370.87426809111</ele>
        <time>2014-09-20T13:32:06Z</time>
      </trkpt>
      <trkpt lat="43.22552" lon="0.91223">
        <ele>370.87426809111</ele>
        <time>2014-09-20T13:32:11Z</time>
      </trkpt>
      <trkpt lat="43.22552" lon="0.91223">
        <ele>370.87426809111</ele>
        <time>2014-09-20T13:32:16Z</time>
      </trkpt>
      <trkpt lat="43.22552" lon="0.91223">
        <ele>370.87426809111</ele>
        <time>2014-09-20T13:32:21Z</time>
      </trkpt>
      <trkpt lat="43.22552" lon="0.91223">
        <ele>370.87426809111</ele>
        <time>2014-09-20T13:32:26Z</time>
      </trkpt>
      <trkpt lat="43.22552" lon="0.91223">
        <ele>370.87426809111</ele>
        <time>2014-09-20T13:32:31Z</time>
      </trkpt>
      <trkpt lat="43.22552" lon="0.91223">
        <ele>370.87426809111</ele>
        <time>2014-09-20T13:32:36Z</time>
      </trkpt>
      <trkpt lat="43.22552" lon="0.91223">
        <ele>370.87426809111</ele>
        <time>2014-09-20T13:32:41Z</time>
      </trkpt>
      <trkpt lat="43.22552" lon="0.91223">
        <ele>370.87426809111</ele>
        <time>2014-09-20T13:32:46Z</time>
      </trkpt>
      <trkpt lat="43.22552" lon="0.91223">
        <ele>370.87426809111</ele>
        <time>2014-09-20T13:32:51Z</time>
      </trkpt>
      <trkpt lat="43.22552" lon="0.91223">
        <ele>370.87426809111</ele>
        <time>2014-09-20T13:32:56Z</time>
      </trkpt>
      <trkpt lat="43.22552" lon="0.91223">
        <ele>370.87426809111</ele>
        <time>2014-09-20T13:33:01Z</time>
      </trkpt>
      <trkpt lat="43.22552" lon="0.91223">
        <ele>370.87426809111</ele>
        <time>2014-09-20T13:33:06Z</time>
      </trkpt>
      <trkpt lat="43.22552" lon="0.91223">
        <ele>370.87426809111</ele>
        <time>2014-09-20T13:33:11Z</time>
      </trkpt>
      <trkpt lat="43.22552" lon="0.91223">
        <ele>370.87426809111</ele>
        <time>2014-09-20T13:33:16Z</time>
      </trkpt>
      <trkpt lat="43.22552" lon="0.91223">
        <ele>370.87426809111</ele>
        <time>2014-09-20T13:33:21Z</time>
      </trkpt>
      <trkpt lat="43.22552" lon="0.91223">
        <ele>370.87426809111</ele>
        <time>2014-09-20T13:33:26Z</time>
      </trkpt>
      <trkpt lat="43.22552" lon="0.91223">
        <ele>370.87426809111</ele>
        <time>2014-09-20T13:33:31Z</time>
      </trkpt>
      <trkpt lat="43.22552" lon="0.91223">
        <ele>370.87426809111</ele>
        <time>2014-09-20T13:33:36Z</time>
      </trkpt>
      <trkpt lat="43.22552" lon="0.91223">
        <ele>370.87426809111</ele>
        <time>2014-09-20T13:33:41Z</time>
      </trkpt>
      <trkpt lat="43.22552" lon="0.91223">
        <ele>370.87426809111</ele>
        <time>2014-09-20T13:33:46Z</time>
      </trkpt>
      <trkpt lat="43.22552" lon="0.91223">
        <ele>370.87426809111</ele>
        <time>2014-09-20T13:33:51Z</time>
      </trkpt>
      <trkpt lat="43.22552" lon="0.91223">
        <ele>370.87426809111</ele>
        <time>2014-09-20T13:33:56Z</time>
      </trkpt>
      <trkpt lat="43.22552" lon="0.91223">
        <ele>370.87426809111</ele>
        <time>2014-09-20T13:34:01Z</time>
      </trkpt>
      <trkpt lat="43.22552" lon="0.91223">
        <ele>370.87426809111</ele>
        <time>2014-09-20T13:34:06Z</time>
      </trkpt>
      <trkpt lat="43.22552" lon="0.91223">
        <ele>370.87426809111</ele>
        <time>2014-09-20T13:34:11Z</time>
      </trkpt>
      <trkpt lat="43.22552" lon="0.91223">
        <ele>370.87426809111</ele>
        <time>2014-09-20T13:34:16Z</time>
      </trkpt>
      <trkpt lat="43.22552" lon="0.91223">
        <ele>370.87426809111</ele>
        <time>2014-09-20T13:34:21Z</time>
      </trkpt>
      <trkpt lat="43.22552" lon="0.91223">
        <ele>370.87426809111</ele>
        <time>2014-09-20T13:34:26Z</time>
      </trkpt>
      <trkpt lat="43.22552" lon="0.91223">
        <ele>370.87426809111</ele>
        <time>2014-09-20T13:34:31Z</time>
      </trkpt>
      <trkpt lat="43.22552" lon="0.91223">
        <ele>370.87426809111</ele>
        <time>2014-09-20T13:34:36Z</time>
      </trkpt>
      <trkpt lat="43.22552" lon="0.91223">
        <ele>370.87426809111</ele>
        <time>2014-09-20T13:34:41Z</time>
      </trkpt>
      <trkpt lat="43.22552" lon="0.91223">
        <ele>370.87426809111</ele>
        <time>2014-09-20T13:34:46Z</time>
      </trkpt>
      <trkpt lat="43.22552" lon="0.91223">
        <ele>370.87426809111</ele>
        <time>2014-09-20T13:34:51Z</time>
      </trkpt>
      <trkpt lat="43.22552" lon="0.91223">
        <ele>370.87426809111</ele>
        <time>2014-09-20T13:34:56Z</time>
      </trkpt>
      <trkpt lat="43.22552" lon="0.91223">
        <ele>370.87426809111</ele>
        <time>2014-09-20T13:35:01Z</time>
      </trkpt>
      <trkpt lat="43.22552" lon="0.91223">
        <ele>370.87426809111</ele>
        <time>2014-09-20T13:35:06Z</time>
      </trkpt>
      <trkpt lat="43.22552" lon="0.91223">
        <ele>370.87426809111</ele>
        <time>2014-09-20T13:35:11Z</time>
      </trkpt>
      <trkpt lat="43.22552" lon="0.91223">
        <ele>370.87426809111</ele>
        <time>2014-09-20T13:35:16Z</time>
      </trkpt>
      <trkpt lat="43.22552" lon="0.91223">
        <ele>370.87426809111</ele>
        <time>2014-09-20T13:35:21Z</time>
      </trkpt>
      <trkpt lat="43.22552" lon="0.91223">
        <ele>370.87426809111</ele>
        <time>2014-09-20T13:35:26Z</time>
      </trkpt>
      <trkpt lat="43.22552" lon="0.91223">
        <ele>370.87426809111</ele>
        <time>2014-09-20T13:35:31Z</time>
      </trkpt>
      <trkpt lat="43.22552" lon="0.91223">
        <ele>370.87426809111</ele>
        <time>2014-09-20T13:35:36Z</time>
      </trkpt>
      <trkpt lat="43.22552" lon="0.91223">
        <ele>370.87426809111</ele>
        <time>2014-09-20T13:35:41Z</time>
      </trkpt>
      <trkpt lat="43.22552" lon="0.91223">
        <ele>370.87426809111</ele>
        <time>2014-09-20T13:35:46Z</time>
      </trkpt>
      <trkpt lat="43.22552" lon="0.91223">
        <ele>370.87426809111</ele>
        <time>2014-09-20T13:35:51Z</time>
      </trkpt>
      <trkpt lat="43.22552" lon="0.91223">
        <ele>370.87426809111</ele>
        <time>2014-09-20T13:35:56Z</time>
      </trkpt>
      <trkpt lat="43.22552" lon="0.91223">
        <ele>370.87426809111</ele>
        <time>2014-09-20T13:36:01Z</time>
      </trkpt>
      <trkpt lat="43.22552" lon="0.91223">
        <ele>370.87426809111</ele>
        <time>2014-09-20T13:36:06Z</time>
      </trkpt>
      <trkpt lat="43.22552" lon="0.91223">
        <ele>370.87426809111</ele>
        <time>2014-09-20T13:36:11Z</time>
      </trkpt>
      <trkpt lat="43.22552" lon="0.91223">
        <ele>370.87426809111</ele>
        <time>2014-09-20T13:36:16Z</time>
      </trkpt>
      <trkpt lat="43.22552" lon="0.91223">
        <ele>370.87426809111</ele>
        <time>2014-09-20T13:36:21Z</time>
      </trkpt>
      <trkpt lat="43.22552" lon="0.91223">
        <ele>370.87426809111</ele>
        <time>2014-09-20T13:36:26Z</time>
      </trkpt>
      <trkpt lat="43.22552" lon="0.91223">
        <ele>370.87426809111</ele>
        <time>2014-09-20T13:36:31Z</time>
      </trkpt>
      <trkpt lat="43.22552" lon="0.91223">
        <ele>370.87426809111</ele>
        <time>2014-09-20T13:36:36Z</time>
      </trkpt>
      <trkpt lat="43.22552" lon="0.91223">
        <ele>370.87426809111</ele>
        <time>2014-09-20T13:36:41Z</time>
      </trkpt>
      <trkpt lat="43.22552" lon="0.91223">
        <ele>370.87426809111</ele>
        <time>2014-09-20T13:36:46Z</time>
      </trkpt>
      <trkpt lat="43.22552" lon="0.91223">
        <ele>370.87426809111</ele>
        <time>2014-09-20T13:36:51Z</time>
      </trkpt>
      <trkpt lat="43.22552" lon="0.91223">
        <ele>370.87426809111</ele>
        <time>2014-09-20T13:36:56Z</time>
      </trkpt>
      <trkpt lat="43.22552" lon="0.91223">
        <ele>370.87426809111</ele>
        <time>2014-09-20T13:37:01Z</time>
      </trkpt>
      <trkpt lat="43.22552" lon="0.91223">
        <ele>370.87426809111</ele>
        <time>2014-09-20T13:37:06Z</time>
      </trkpt>
      <trkpt lat="43.22552" lon="0.91223">
        <ele>370.87426809111</ele>
        <time>2014-09-20T13:37:11Z</time>
      </trkpt>
      <trkpt lat="43.22552" lon="0.91223">
        <ele>370.87426809111</ele>
        <time>2014-09-20T13:37:16Z</time>
      </trkpt>
      <trkpt lat="43.22552" lon="0.91223">
        <ele>370.87426809111</ele>
        <time>2014-09-20T13:37:21Z</time>
      </trkpt>
      <trkpt lat="43.22551" lon="0.91221">
        <ele>372.39014059987</ele>
        <time>2014-09-20T13:37:26Z</time>
      </trkpt>
      <trkpt lat="43.22549" lon="0.91219">
        <ele>372.39014059987</ele>
        <time>2014-09-20T13:37:31Z</time>
      </trkpt>
      <trkpt lat="43.22549" lon="0.91219">
        <ele>372.39014059987</ele>
        <time>2014-09-20T13:37:36Z</time>
      </trkpt>
      <trkpt lat="43.22549" lon="0.91219">
        <ele>372.39014059987</ele>
        <time>2014-09-20T13:37:41Z</time>
      </trkpt>
      <trkpt lat="43.22549" lon="0.91219">
        <ele>372.39014059987</ele>
        <time>2014-09-20T13:37:46Z</time>
      </trkpt>
      <trkpt lat="43.22549" lon="0.91219">
        <ele>372.39014059987</ele>
        <time>2014-09-20T13:37:51Z</time>
      </trkpt>
      <trkpt lat="43.22549" lon="0.91219">
        <ele>372.39014059987</ele>
        <time>2014-09-20T13:37:56Z</time>
      </trkpt>
      <trkpt lat="43.22549" lon="0.91219">
        <ele>372.39014059987</ele>
        <time>2014-09-20T13:38:01Z</time>
      </trkpt>
      <trkpt lat="43.22549" lon="0.91219">
        <ele>372.39014059987</ele>
        <time>2014-09-20T13:38:06Z</time>
      </trkpt>
      <trkpt lat="43.22549" lon="0.91219">
        <ele>372.39014059987</ele>
        <time>2014-09-20T13:38:11Z</time>
      </trkpt>
      <trkpt lat="43.22549" lon="0.91219">
        <ele>372.39014059987</ele>
        <time>2014-09-20T13:38:16Z</time>
      </trkpt>
      <trkpt lat="43.22549" lon="0.91219">
        <ele>372.39014059987</ele>
        <time>2014-09-20T13:38:21Z</time>
      </trkpt>
      <trkpt lat="43.22549" lon="0.91219">
        <ele>372.39014059987</ele>
        <time>2014-09-20T13:38:26Z</time>
      </trkpt>
      <trkpt lat="43.22549" lon="0.91219">
        <ele>372.39014059987</ele>
        <time>2014-09-20T13:38:31Z</time>
      </trkpt>
      <trkpt lat="43.22549" lon="0.91219">
        <ele>372.39014059987</ele>
        <time>2014-09-20T13:38:36Z</time>
      </trkpt>
      <trkpt lat="43.22549" lon="0.91219">
        <ele>372.39014059987</ele>
        <time>2014-09-20T13:38:41Z</time>
      </trkpt>
      <trkpt lat="43.22549" lon="0.91219">
        <ele>372.39014059987</ele>
        <time>2014-09-20T13:38:46Z</time>
      </trkpt>
      <trkpt lat="43.22549" lon="0.91219">
        <ele>372.39014059987</ele>
        <time>2014-09-20T13:38:51Z</time>
      </trkpt>
      <trkpt lat="43.22549" lon="0.91219">
        <ele>372.39014059987</ele>
        <time>2014-09-20T13:38:56Z</time>
      </trkpt>
      <trkpt lat="43.22553" lon="0.91225">
        <ele>372.39014059987</ele>
        <time>2014-09-20T13:39:01Z</time>
      </trkpt>
      <trkpt lat="43.22554" lon="0.91228">
        <ele>373.47609626807</ele>
        <time>2014-09-20T13:39:06Z</time>
      </trkpt>
      <trkpt lat="43.22552" lon="0.91226">
        <ele>373.47609626807</ele>
        <time>2014-09-20T13:39:11Z</time>
      </trkpt>
      <trkpt lat="43.22551" lon="0.91225">
        <ele>373.47609626807</ele>
        <time>2014-09-20T13:39:16Z</time>
      </trkpt>
      <trkpt lat="43.22551" lon="0.91225">
        <ele>373.47609626807</ele>
        <time>2014-09-20T13:39:21Z</time>
      </trkpt>
      <trkpt lat="43.2255" lon="0.91223">
        <ele>373.47609626807</ele>
        <time>2014-09-20T13:39:26Z</time>
      </trkpt>
      <trkpt lat="43.2255" lon="0.91222">
        <ele>373.47609626807</ele>
        <time>2014-09-20T13:39:31Z</time>
      </trkpt>
      <trkpt lat="43.2255" lon="0.91223">
        <ele>373.47609626807</ele>
        <time>2014-09-20T13:39:36Z</time>
      </trkpt>
      <trkpt lat="43.2255" lon="0.91223">
        <ele>373.47609626807</ele>
        <time>2014-09-20T13:39:41Z</time>
      </trkpt>
      <trkpt lat="43.2255" lon="0.91223">
        <ele>373.47609626807</ele>
        <time>2014-09-20T13:39:46Z</time>
      </trkpt>
      <trkpt lat="43.2255" lon="0.91223">
        <ele>373.47609626807</ele>
        <time>2014-09-20T13:39:51Z</time>
      </trkpt>
      <trkpt lat="43.2255" lon="0.91227">
        <ele>374.85119229286</ele>
        <time>2014-09-20T13:39:56Z</time>
      </trkpt>
      <trkpt lat="43.22549" lon="0.91232">
        <ele>374.85119229286</ele>
        <time>2014-09-20T13:40:01Z</time>
      </trkpt>
      <trkpt lat="43.2255" lon="0.9124">
        <ele>375.76858655797</ele>
        <time>2014-09-20T13:40:06Z</time>
      </trkpt>
      <trkpt lat="43.22548" lon="0.91249">
        <ele>375.76858655797</ele>
        <time>2014-09-20T13:40:11Z</time>
      </trkpt>
      <trkpt lat="43.22548" lon="0.91257">
        <ele>376.64727393475</ele>
        <time>2014-09-20T13:40:16Z</time>
      </trkpt>
      <trkpt lat="43.22546" lon="0.91265">
        <ele>376.64727393475</ele>
        <time>2014-09-20T13:40:21Z</time>
      </trkpt>
      <trkpt lat="43.22546" lon="0.91274">
        <ele>377.40005580503</ele>
        <time>2014-09-20T13:40:26Z</time>
      </trkpt>
      <trkpt lat="43.22543" lon="0.91279">
        <ele>377.40005580503</ele>
        <time>2014-09-20T13:40:31Z</time>
      </trkpt>
      <trkpt lat="43.22539" lon="0.91275">
        <ele>377.91772139867</ele>
        <time>2014-09-20T13:40:36Z</time>
      </trkpt>
      <trkpt lat="43.22537" lon="0.91275">
        <ele>377.91772139867</ele>
        <time>2014-09-20T13:40:41Z</time>
      </trkpt>
      <trkpt lat="43.22537" lon="0.91275">
        <ele>377.91772139867</ele>
        <time>2014-09-20T13:40:46Z</time>
      </trkpt>
      <trkpt lat="43.22537" lon="0.91273">
        <ele>377.91772139867</ele>
        <time>2014-09-20T13:40:51Z</time>
      </trkpt>
      <trkpt lat="43.22537" lon="0.91273">
        <ele>377.91772139867</ele>
        <time>2014-09-20T13:40:56Z</time>
      </trkpt>
      <trkpt lat="43.22539" lon="0.91274">
        <ele>377.91772139867</ele>
        <time>2014-09-20T13:41:01Z</time>
      </trkpt>
      <trkpt lat="43.2254" lon="0.91277">
        <ele>378.18626509424</ele>
        <time>2014-09-20T13:41:06Z</time>
      </trkpt>
      <trkpt lat="43.2254" lon="0.91277">
        <ele>378.18626509424</ele>
        <time>2014-09-20T13:41:11Z</time>
      </trkpt>
      <trkpt lat="43.2254" lon="0.91277">
        <ele>378.18626509424</ele>
        <time>2014-09-20T13:41:16Z</time>
      </trkpt>
      <trkpt lat="43.2254" lon="0.91277">
        <ele>378.18626509424</ele>
        <time>2014-09-20T13:41:21Z</time>
      </trkpt>
      <trkpt lat="43.22541" lon="0.91276">
        <ele>378.18626509424</ele>
        <time>2014-09-20T13:41:26Z</time>
      </trkpt>
      <trkpt lat="43.2254" lon="0.91274">
        <ele>378.18626509424</ele>
        <time>2014-09-20T13:41:31Z</time>
      </trkpt>
      <trkpt lat="43.22541" lon="0.91269">
        <ele>378.18626509424</ele>
        <time>2014-09-20T13:41:36Z</time>
      </trkpt>
      <trkpt lat="43.22542" lon="0.91262">
        <ele>378.16464588303</ele>
        <time>2014-09-20T13:41:41Z</time>
      </trkpt>
      <trkpt lat="43.22542" lon="0.91256">
        <ele>378.16464588303</ele>
        <time>2014-09-20T13:41:46Z</time>
      </trkpt>
      <trkpt lat="43.22542" lon="0.91251">
        <ele>378.16464588303</ele>
        <time>2014-09-20T13:41:51Z</time>
      </trkpt>
      <trkpt lat="43.22542" lon="0.91246">
        <ele>379.01183581676</ele>
        <time>2014-09-20T13:41:56Z</time>
      </trkpt>
      <trkpt lat="43.22541" lon="0.9124">
        <ele>379.01183581676</ele>
        <time>2014-09-20T13:42:01Z</time>
      </trkpt>
      <trkpt lat="43.2254" lon="0.91235">
        <ele>379.01183581676</ele>
        <time>2014-09-20T13:42:06Z</time>
      </trkpt>
      <trkpt lat="43.22543" lon="0.91228">
        <ele>381.09315302328</ele>
        <time>2014-09-20T13:42:11Z</time>
      </trkpt>
      <trkpt lat="43.22545" lon="0.91225">
        <ele>381.09315302328</ele>
        <time>2014-09-20T13:42:16Z</time>
      </trkpt>
      <trkpt lat="43.22545" lon="0.91225">
        <ele>381.09315302328</ele>
        <time>2014-09-20T13:42:21Z</time>
      </trkpt>
      <trkpt lat="43.22545" lon="0.91224">
        <ele>381.09315302328</ele>
        <time>2014-09-20T13:42:26Z</time>
      </trkpt>
      <trkpt lat="43.22545" lon="0.91224">
        <ele>381.09315302328</ele>
        <time>2014-09-20T13:42:31Z</time>
      </trkpt>
      <trkpt lat="43.22545" lon="0.91224">
        <ele>381.09315302328</ele>
        <time>2014-09-20T13:42:36Z</time>
      </trkpt>
      <trkpt lat="43.22545" lon="0.91224">
        <ele>381.09315302328</ele>
        <time>2014-09-20T13:42:41Z</time>
      </trkpt>
      <trkpt lat="43.22545" lon="0.91224">
        <ele>381.09315302328</ele>
        <time>2014-09-20T13:42:46Z</time>
      </trkpt>
      <trkpt lat="43.22545" lon="0.91224">
        <ele>381.09315302328</ele>
        <time>2014-09-20T13:42:51Z</time>
      </trkpt>
      <trkpt lat="43.22545" lon="0.91224">
        <ele>381.09315302328</ele>
        <time>2014-09-20T13:42:56Z</time>
      </trkpt>
      <trkpt lat="43.22545" lon="0.91224">
        <ele>381.09315302328</ele>
        <time>2014-09-20T13:43:01Z</time>
      </trkpt>
      <trkpt lat="43.22545" lon="0.91224">
        <ele>381.09315302328</ele>
        <time>2014-09-20T13:43:06Z</time>
      </trkpt>
      <trkpt lat="43.22545" lon="0.91224">
        <ele>381.09315302328</ele>
        <time>2014-09-20T13:43:11Z</time>
      </trkpt>
      <trkpt lat="43.22545" lon="0.91224">
        <ele>381.09315302328</ele>
        <time>2014-09-20T13:43:16Z</time>
      </trkpt>
      <trkpt lat="43.22545" lon="0.91224">
        <ele>381.09315302328</ele>
        <time>2014-09-20T13:43:21Z</time>
      </trkpt>
      <trkpt lat="43.22545" lon="0.91224">
        <ele>381.09315302328</ele>
        <time>2014-09-20T13:43:26Z</time>
      </trkpt>
      <trkpt lat="43.22545" lon="0.91224">
        <ele>381.09315302328</ele>
        <time>2014-09-20T13:43:31Z</time>
      </trkpt>
      <trkpt lat="43.22545" lon="0.91224">
        <ele>381.09315302328</ele>
        <time>2014-09-20T13:43:36Z</time>
      </trkpt>
      <trkpt lat="43.22545" lon="0.91224">
        <ele>381.09315302328</ele>
        <time>2014-09-20T13:43:41Z</time>
      </trkpt>
      <trkpt lat="43.22545" lon="0.91224">
        <ele>381.09315302328</ele>
        <time>2014-09-20T13:43:46Z</time>
      </trkpt>
      <trkpt lat="43.22545" lon="0.91224">
        <ele>381.09315302328</ele>
        <time>2014-09-20T13:43:51Z</time>
      </trkpt>
      <trkpt lat="43.22545" lon="0.91224">
        <ele>381.09315302328</ele>
        <time>2014-09-20T13:43:56Z</time>
      </trkpt>
      <trkpt lat="43.22545" lon="0.91224">
        <ele>381.09315302328</ele>
        <time>2014-09-20T13:44:01Z</time>
      </trkpt>
      <trkpt lat="43.22545" lon="0.91224">
        <ele>381.09315302328</ele>
        <time>2014-09-20T13:44:06Z</time>
      </trkpt>
      <trkpt lat="43.22545" lon="0.91224">
        <ele>381.09315302328</ele>
        <time>2014-09-20T13:44:11Z</time>
      </trkpt>
      <trkpt lat="43.22545" lon="0.91224">
        <ele>381.09315302328</ele>
        <time>2014-09-20T13:44:16Z</time>
      </trkpt>
      <trkpt lat="43.22545" lon="0.91224">
        <ele>381.09315302328</ele>
        <time>2014-09-20T13:44:21Z</time>
      </trkpt>
      <trkpt lat="43.22545" lon="0.91223">
        <ele>381.09315302328</ele>
        <time>2014-09-20T13:44:26Z</time>
      </trkpt>
      <trkpt lat="43.22545" lon="0.91223">
        <ele>381.09315302328</ele>
        <time>2014-09-20T13:44:31Z</time>
      </trkpt>
      <trkpt lat="43.22545" lon="0.91223">
        <ele>381.09315302328</ele>
        <time>2014-09-20T13:44:36Z</time>
      </trkpt>
      <trkpt lat="43.22545" lon="0.91223">
        <ele>381.09315302328</ele>
        <time>2014-09-20T13:44:41Z</time>
      </trkpt>
      <trkpt lat="43.22545" lon="0.91223">
        <ele>381.09315302328</ele>
        <time>2014-09-20T13:44:46Z</time>
      </trkpt>
      <trkpt lat="43.22545" lon="0.91223">
        <ele>381.09315302328</ele>
        <time>2014-09-20T13:44:51Z</time>
      </trkpt>
      <trkpt lat="43.22545" lon="0.91223">
        <ele>381.09315302328</ele>
        <time>2014-09-20T13:44:56Z</time>
      </trkpt>
      <trkpt lat="43.22545" lon="0.91223">
        <ele>381.09315302328</ele>
        <time>2014-09-20T13:45:01Z</time>
      </trkpt>
      <trkpt lat="43.22545" lon="0.91223">
        <ele>381.09315302328</ele>
        <time>2014-09-20T13:45:06Z</time>
      </trkpt>
      <trkpt lat="43.22545" lon="0.91223">
        <ele>381.09315302328</ele>
        <time>2014-09-20T13:45:11Z</time>
      </trkpt>
      <trkpt lat="43.22545" lon="0.91223">
        <ele>381.09315302328</ele>
        <time>2014-09-20T13:45:16Z</time>
      </trkpt>
      <trkpt lat="43.22545" lon="0.91223">
        <ele>381.09315302328</ele>
        <time>2014-09-20T13:45:21Z</time>
      </trkpt>
      <trkpt lat="43.22545" lon="0.91223">
        <ele>381.09315302328</ele>
        <time>2014-09-20T13:45:26Z</time>
      </trkpt>
      <trkpt lat="43.22545" lon="0.91223">
        <ele>381.09315302328</ele>
        <time>2014-09-20T13:45:31Z</time>
      </trkpt>
      <trkpt lat="43.22545" lon="0.91223">
        <ele>381.09315302328</ele>
        <time>2014-09-20T13:45:36Z</time>
      </trkpt>
      <trkpt lat="43.22545" lon="0.91223">
        <ele>381.09315302328</ele>
        <time>2014-09-20T13:45:41Z</time>
      </trkpt>
      <trkpt lat="43.22545" lon="0.91223">
        <ele>381.09315302328</ele>
        <time>2014-09-20T13:45:46Z</time>
      </trkpt>
      <trkpt lat="43.22545" lon="0.91223">
        <ele>381.09315302328</ele>
        <time>2014-09-20T13:45:51Z</time>
      </trkpt>
      <trkpt lat="43.22545" lon="0.91223">
        <ele>381.09315302328</ele>
        <time>2014-09-20T13:45:56Z</time>
      </trkpt>
      <trkpt lat="43.22545" lon="0.91223">
        <ele>381.09315302328</ele>
        <time>2014-09-20T13:46:01Z</time>
      </trkpt>
      <trkpt lat="43.22545" lon="0.91223">
        <ele>381.09315302328</ele>
        <time>2014-09-20T13:46:06Z</time>
      </trkpt>
      <trkpt lat="43.22545" lon="0.91223">
        <ele>381.09315302328</ele>
        <time>2014-09-20T13:46:11Z</time>
      </trkpt>
      <trkpt lat="43.22545" lon="0.91223">
        <ele>381.09315302328</ele>
        <time>2014-09-20T13:46:16Z</time>
      </trkpt>
      <trkpt lat="43.22545" lon="0.91223">
        <ele>381.09315302328</ele>
        <time>2014-09-20T13:46:21Z</time>
      </trkpt>
      <trkpt lat="43.22545" lon="0.91223">
        <ele>381.09315302328</ele>
        <time>2014-09-20T13:46:26Z</time>
      </trkpt>
      <trkpt lat="43.22545" lon="0.91223">
        <ele>381.09315302328</ele>
        <time>2014-09-20T13:46:31Z</time>
      </trkpt>
      <trkpt lat="43.22545" lon="0.91223">
        <ele>381.09315302328</ele>
        <time>2014-09-20T13:46:36Z</time>
      </trkpt>
      <trkpt lat="43.22545" lon="0.91223">
        <ele>381.09315302328</ele>
        <time>2014-09-20T13:46:41Z</time>
      </trkpt>
      <trkpt lat="43.22545" lon="0.91223">
        <ele>381.09315302328</ele>
        <time>2014-09-20T13:46:46Z</time>
      </trkpt>
      <trkpt lat="43.22545" lon="0.91223">
        <ele>381.09315302328</ele>
        <time>2014-09-20T13:46:51Z</time>
      </trkpt>
      <trkpt lat="43.22545" lon="0.91223">
        <ele>381.09315302328</ele>
        <time>2014-09-20T13:46:56Z</time>
      </trkpt>
      <trkpt lat="43.22545" lon="0.91223">
        <ele>381.09315302328</ele>
        <time>2014-09-20T13:47:01Z</time>
      </trkpt>
      <trkpt lat="43.22545" lon="0.91223">
        <ele>381.09315302328</ele>
        <time>2014-09-20T13:47:06Z</time>
      </trkpt>
      <trkpt lat="43.22545" lon="0.91223">
        <ele>381.09315302328</ele>
        <time>2014-09-20T13:47:11Z</time>
      </trkpt>
      <trkpt lat="43.22545" lon="0.91223">
        <ele>381.09315302328</ele>
        <time>2014-09-20T13:47:16Z</time>
      </trkpt>
      <trkpt lat="43.22545" lon="0.91223">
        <ele>381.09315302328</ele>
        <time>2014-09-20T13:47:21Z</time>
      </trkpt>
      <trkpt lat="43.22545" lon="0.91223">
        <ele>381.09315302328</ele>
        <time>2014-09-20T13:47:26Z</time>
      </trkpt>
      <trkpt lat="43.22545" lon="0.91223">
        <ele>381.09315302328</ele>
        <time>2014-09-20T13:47:31Z</time>
      </trkpt>
      <trkpt lat="43.22545" lon="0.91223">
        <ele>381.09315302328</ele>
        <time>2014-09-20T13:47:36Z</time>
      </trkpt>
      <trkpt lat="43.22545" lon="0.91223">
        <ele>381.09315302328</ele>
        <time>2014-09-20T13:47:41Z</time>
      </trkpt>
      <trkpt lat="43.22545" lon="0.91223">
        <ele>381.09315302328</ele>
        <time>2014-09-20T13:47:46Z</time>
      </trkpt>
      <trkpt lat="43.22545" lon="0.91223">
        <ele>381.09315302328</ele>
        <time>2014-09-20T13:47:51Z</time>
      </trkpt>
      <trkpt lat="43.22546" lon="0.91221">
        <ele>381.09315302328</ele>
        <time>2014-09-20T13:47:56Z</time>
      </trkpt>
      <trkpt lat="43.22547" lon="0.91216">
        <ele>382.87024320917</ele>
        <time>2014-09-20T13:48:01Z</time>
      </trkpt>
      <trkpt lat="43.22547" lon="0.9121">
        <ele>382.87024320917</ele>
        <time>2014-09-20T13:48:06Z</time>
      </trkpt>
      <trkpt lat="43.2255" lon="0.91204">
        <ele>383.88423477401</ele>
        <time>2014-09-20T13:48:11Z</time>
      </trkpt>
      <trkpt lat="43.2255" lon="0.91201">
        <ele>383.88423477401</ele>
        <time>2014-09-20T13:48:16Z</time>
      </trkpt>
      <trkpt lat="43.22551" lon="0.91204">
        <ele>383.88423477401</ele>
        <time>2014-09-20T13:48:21Z</time>
      </trkpt>
      <trkpt lat="43.22552" lon="0.91205">
        <ele>383.88423477401</ele>
        <time>2014-09-20T13:48:26Z</time>
      </trkpt>
      <trkpt lat="43.22553" lon="0.91209">
        <ele>383.88423477401</ele>
        <time>2014-09-20T13:48:31Z</time>
      </trkpt>
      <trkpt lat="43.22555" lon="0.91212">
        <ele>384.76420254864</ele>
        <time>2014-09-20T13:48:36Z</time>
      </trkpt>
      <trkpt lat="43.22556" lon="0.91211">
        <ele>384.76420254864</ele>
        <time>2014-09-20T13:48:41Z</time>
      </trkpt>
      <trkpt lat="43.22557" lon="0.9121">
        <ele>384.76420254864</ele>
        <time>2014-09-20T13:48:46Z</time>
      </trkpt>
      <trkpt lat="43.22557" lon="0.9121">
        <ele>384.76420254864</ele>
        <time>2014-09-20T13:48:51Z</time>
      </trkpt>
      <trkpt lat="43.22557" lon="0.9121">
        <ele>384.76420254864</ele>
        <time>2014-09-20T13:48:56Z</time>
      </trkpt>
      <trkpt lat="43.22557" lon="0.9121">
        <ele>384.76420254864</ele>
        <time>2014-09-20T13:49:01Z</time>
      </trkpt>
      <trkpt lat="43.22557" lon="0.9121">
        <ele>384.76420254864</ele>
        <time>2014-09-20T13:49:06Z</time>
      </trkpt>
      <trkpt lat="43.22557" lon="0.9121">
        <ele>384.76420254864</ele>
        <time>2014-09-20T13:49:11Z</time>
      </trkpt>
      <trkpt lat="43.22557" lon="0.9121">
        <ele>384.76420254864</ele>
        <time>2014-09-20T13:49:16Z</time>
      </trkpt>
      <trkpt lat="43.22557" lon="0.9121">
        <ele>384.76420254864</ele>
        <time>2014-09-20T13:49:21Z</time>
      </trkpt>
      <trkpt lat="43.22557" lon="0.9121">
        <ele>384.76420254864</ele>
        <time>2014-09-20T13:49:26Z</time>
      </trkpt>
      <trkpt lat="43.22556" lon="0.91212">
        <ele>384.76420254864</ele>
        <time>2014-09-20T13:49:31Z</time>
      </trkpt>
      <trkpt lat="43.22554" lon="0.91216">
        <ele>384.76420254864</ele>
        <time>2014-09-20T13:49:36Z</time>
      </trkpt>
      <trkpt lat="43.22553" lon="0.91214">
        <ele>385.57467770171</ele>
        <time>2014-09-20T13:49:41Z</time>
      </trkpt>
      <trkpt lat="43.22552" lon="0.91213">
        <ele>385.57467770171</ele>
        <time>2014-09-20T13:49:46Z</time>
      </trkpt>
      <trkpt lat="43.22551" lon="0.91212">
        <ele>385.57467770171</ele>
        <time>2014-09-20T13:49:51Z</time>
      </trkpt>
      <trkpt lat="43.22548" lon="0.91213">
        <ele>385.57467770171</ele>
        <time>2014-09-20T13:49:56Z</time>
      </trkpt>
      <trkpt lat="43.22546" lon="0.91214">
        <ele>385.57467770171</ele>
        <time>2014-09-20T13:50:01Z</time>
      </trkpt>
      <trkpt lat="43.22543" lon="0.91214">
        <ele>385.65518406156</ele>
        <time>2014-09-20T13:50:06Z</time>
      </trkpt>
      <trkpt lat="43.22539" lon="0.91212">
        <ele>385.65518406156</ele>
        <time>2014-09-20T13:50:11Z</time>
      </trkpt>
      <trkpt lat="43.22533" lon="0.9121">
        <ele>385.82260517199</ele>
        <time>2014-09-20T13:50:16Z</time>
      </trkpt>
      <trkpt lat="43.22528" lon="0.91209">
        <ele>385.82260517199</ele>
        <time>2014-09-20T13:50:21Z</time>
      </trkpt>
      <trkpt lat="43.22524" lon="0.91207">
        <ele>385.75282930913</ele>
        <time>2014-09-20T13:50:26Z</time>
      </trkpt>
      <trkpt lat="43.2252" lon="0.91207">
        <ele>385.75282930913</ele>
        <time>2014-09-20T13:50:31Z</time>
      </trkpt>
      <trkpt lat="43.22516" lon="0.9121">
        <ele>385.75282930913</ele>
        <time>2014-09-20T13:50:36Z</time>
      </trkpt>
      <trkpt lat="43.22513" lon="0.91212">
        <ele>385.10307010787</ele>
        <time>2014-09-20T13:50:41Z</time>
      </trkpt>
      <trkpt lat="43.2251" lon="0.91216">
        <ele>385.10307010787</ele>
        <time>2014-09-20T13:50:46Z</time>
      </trkpt>
      <trkpt lat="43.22506" lon="0.91219">
        <ele>385.10307010787</ele>
        <time>2014-09-20T13:50:51Z</time>
      </trkpt>
      <trkpt lat="43.22502" lon="0.9122">
        <ele>384.98412709139</ele>
        <time>2014-09-20T13:50:56Z</time>
      </trkpt>
      <trkpt lat="43.22498" lon="0.91223">
        <ele>384.98412709139</ele>
        <time>2014-09-20T13:51:01Z</time>
      </trkpt>
      <trkpt lat="43.22495" lon="0.91224">
        <ele>384.98412709139</ele>
        <time>2014-09-20T13:51:06Z</time>
      </trkpt>
      <trkpt lat="43.22491" lon="0.91225">
        <ele>385.58793856389</ele>
        <time>2014-09-20T13:51:11Z</time>
      </trkpt>
      <trkpt lat="43.22486" lon="0.91226">
        <ele>385.58793856389</ele>
        <time>2014-09-20T13:51:16Z</time>
      </trkpt>
      <trkpt lat="43.22482" lon="0.91227">
        <ele>386.12483673126</ele>
        <time>2014-09-20T13:51:21Z</time>
      </trkpt>
      <trkpt lat="43.22476" lon="0.91228">
        <ele>386.12483673126</ele>
        <time>2014-09-20T13:51:26Z</time>
      </trkpt>
      <trkpt lat="43.2247" lon="0.91228">
        <ele>386.72807957721</ele>
        <time>2014-09-20T13:51:31Z</time>
      </trkpt>
      <trkpt lat="43.22465" lon="0.9123">
        <ele>386.72807957721</ele>
        <time>2014-09-20T13:51:36Z</time>
      </trkpt>
      <trkpt lat="43.2246" lon="0.9123">
        <ele>387.4489558587</ele>
        <time>2014-09-20T13:51:41Z</time>
      </trkpt>
      <trkpt lat="43.22456" lon="0.91231">
        <ele>387.4489558587</ele>
        <time>2014-09-20T13:51:46Z</time>
      </trkpt>
      <trkpt lat="43.22452" lon="0.91232">
        <ele>387.4489558587</ele>
        <time>2014-09-20T13:51:51Z</time>
      </trkpt>
      <trkpt lat="43.22448" lon="0.91234">
        <ele>388.24825168108</ele>
        <time>2014-09-20T13:51:56Z</time>
      </trkpt>
      <trkpt lat="43.22445" lon="0.91235">
        <ele>388.24825168108</ele>
        <time>2014-09-20T13:52:01Z</time>
      </trkpt>
      <trkpt lat="43.22442" lon="0.91237">
        <ele>388.24825168108</ele>
        <time>2014-09-20T13:52:06Z</time>
      </trkpt>
      <trkpt lat="43.22439" lon="0.9124">
        <ele>389.24799845808</ele>
        <time>2014-09-20T13:52:11Z</time>
      </trkpt>
      <trkpt lat="43.22434" lon="0.91241">
        <ele>389.24799845808</ele>
        <time>2014-09-20T13:52:16Z</time>
      </trkpt>
      <trkpt lat="43.2243" lon="0.91244">
        <ele>389.91226368795</ele>
        <time>2014-09-20T13:52:21Z</time>
      </trkpt>
      <trkpt lat="43.22425" lon="0.91246">
        <ele>389.91226368795</ele>
        <time>2014-09-20T13:52:26Z</time>
      </trkpt>
      <trkpt lat="43.22421" lon="0.91248">
        <ele>390.39398889401</ele>
        <time>2014-09-20T13:52:31Z</time>
      </trkpt>
      <trkpt lat="43.22417" lon="0.91249">
        <ele>390.39398889401</ele>
        <time>2014-09-20T13:52:36Z</time>
      </trkpt>
      <trkpt lat="43.22413" lon="0.9125">
        <ele>390.39398889401</ele>
        <time>2014-09-20T13:52:41Z</time>
      </trkpt>
      <trkpt lat="43.22408" lon="0.91253">
        <ele>390.9075113901</ele>
        <time>2014-09-20T13:52:46Z</time>
      </trkpt>
      <trkpt lat="43.22405" lon="0.91254">
        <ele>390.9075113901</ele>
        <time>2014-09-20T13:52:51Z</time>
      </trkpt>
      <trkpt lat="43.22403" lon="0.91258">
        <ele>390.9075113901</ele>
        <time>2014-09-20T13:52:56Z</time>
      </trkpt>
      <trkpt lat="43.224" lon="0.9126">
        <ele>391.99726397744</ele>
        <time>2014-09-20T13:53:01Z</time>
      </trkpt>
      <trkpt lat="43.22397" lon="0.91265">
        <ele>391.99726397744</ele>
        <time>2014-09-20T13:53:06Z</time>
      </trkpt>
      <trkpt lat="43.22395" lon="0.91268">
        <ele>391.99726397744</ele>
        <time>2014-09-20T13:53:11Z</time>
      </trkpt>
      <trkpt lat="43.22393" lon="0.91271">
        <ele>393.74821069418</ele>
        <time>2014-09-20T13:53:16Z</time>
      </trkpt>
      <trkpt lat="43.22393" lon="0.91271">
        <ele>393.74821069418</ele>
        <time>2014-09-20T13:53:21Z</time>
      </trkpt>
      <trkpt lat="43.22393" lon="0.9127">
        <ele>393.74821069418</ele>
        <time>2014-09-20T13:53:26Z</time>
      </trkpt>
      <trkpt lat="43.22392" lon="0.91271">
        <ele>393.74821069418</ele>
        <time>2014-09-20T13:53:31Z</time>
      </trkpt>
      <trkpt lat="43.22392" lon="0.91272">
        <ele>393.74821069418</ele>
        <time>2014-09-20T13:53:36Z</time>
      </trkpt>
      <trkpt lat="43.22391" lon="0.91273">
        <ele>393.74821069418</ele>
        <time>2014-09-20T13:53:41Z</time>
      </trkpt>
      <trkpt lat="43.2239" lon="0.91274">
        <ele>393.74821069418</ele>
        <time>2014-09-20T13:53:46Z</time>
      </trkpt>
      <trkpt lat="43.22389" lon="0.91276">
        <ele>393.74821069418</ele>
        <time>2014-09-20T13:53:51Z</time>
      </trkpt>
      <trkpt lat="43.2239" lon="0.91277">
        <ele>393.74821069418</ele>
        <time>2014-09-20T13:53:56Z</time>
      </trkpt>
      <trkpt lat="43.22391" lon="0.91278">
        <ele>393.74821069418</ele>
        <time>2014-09-20T13:54:01Z</time>
      </trkpt>
      <trkpt lat="43.22389" lon="0.91277">
        <ele>394.85381731119</ele>
        <time>2014-09-20T13:54:06Z</time>
      </trkpt>
      <trkpt lat="43.22389" lon="0.91278">
        <ele>394.85381731119</ele>
        <time>2014-09-20T13:54:11Z</time>
      </trkpt>
      <trkpt lat="43.22389" lon="0.9128">
        <ele>394.85381731119</ele>
        <time>2014-09-20T13:54:16Z</time>
      </trkpt>
      <trkpt lat="43.22388" lon="0.91281">
        <ele>394.85381731119</ele>
        <time>2014-09-20T13:54:21Z</time>
      </trkpt>
      <trkpt lat="43.22389" lon="0.91282">
        <ele>394.85381731119</ele>
        <time>2014-09-20T13:54:26Z</time>
      </trkpt>
      <trkpt lat="43.22389" lon="0.91282">
        <ele>394.85381731119</ele>
        <time>2014-09-20T13:54:31Z</time>
      </trkpt>
      <trkpt lat="43.22389" lon="0.91282">
        <ele>394.85381731119</ele>
        <time>2014-09-20T13:54:36Z</time>
      </trkpt>
      <trkpt lat="43.22391" lon="0.91283">
        <ele>394.85381731119</ele>
        <time>2014-09-20T13:54:41Z</time>
      </trkpt>
      <trkpt lat="43.22397" lon="0.91284">
        <ele>396.09413946233</ele>
        <time>2014-09-20T13:54:46Z</time>
      </trkpt>
      <trkpt lat="43.224" lon="0.91286">
        <ele>396.09413946233</ele>
        <time>2014-09-20T13:54:51Z</time>
      </trkpt>
      <trkpt lat="43.22403" lon="0.91288">
        <ele>396.09413946233</ele>
        <time>2014-09-20T13:54:56Z</time>
      </trkpt>
      <trkpt lat="43.22406" lon="0.91291">
        <ele>397.61517991372</ele>
        <time>2014-09-20T13:55:01Z</time>
      </trkpt>
      <trkpt lat="43.2241" lon="0.91297">
        <ele>397.61517991372</ele>
        <time>2014-09-20T13:55:06Z</time>
      </trkpt>
      <trkpt lat="43.22413" lon="0.91304">
        <ele>399.32092698207</ele>
        <time>2014-09-20T13:55:11Z</time>
      </trkpt>
      <trkpt lat="43.22416" lon="0.91312">
        <ele>399.32092698207</ele>
        <time>2014-09-20T13:55:16Z</time>
      </trkpt>
      <trkpt lat="43.22418" lon="0.9132">
        <ele>401.13639501537</ele>
        <time>2014-09-20T13:55:21Z</time>
      </trkpt>
      <trkpt lat="43.2242" lon="0.91328">
        <ele>401.13639501537</ele>
        <time>2014-09-20T13:55:26Z</time>
      </trkpt>
      <trkpt lat="43.22419" lon="0.91332">
        <ele>402.77571666307</ele>
        <time>2014-09-20T13:55:31Z</time>
      </trkpt>
      <trkpt lat="43.22417" lon="0.91335">
        <ele>402.77571666307</ele>
        <time>2014-09-20T13:55:36Z</time>
      </trkpt>
      <trkpt lat="43.22414" lon="0.91341">
        <ele>402.77571666307</ele>
        <time>2014-09-20T13:55:41Z</time>
      </trkpt>
      <trkpt lat="43.22411" lon="0.91345">
        <ele>404.04666224866</ele>
        <time>2014-09-20T13:55:46Z</time>
      </trkpt>
      <trkpt lat="43.22407" lon="0.91351">
        <ele>404.04666224866</ele>
        <time>2014-09-20T13:55:51Z</time>
      </trkpt>
      <trkpt lat="43.22403" lon="0.91357">
        <ele>404.84430254289</ele>
        <time>2014-09-20T13:55:56Z</time>
      </trkpt>
      <trkpt lat="43.224" lon="0.91363">
        <ele>404.84430254289</ele>
        <time>2014-09-20T13:56:01Z</time>
      </trkpt>
      <trkpt lat="43.22396" lon="0.91367">
        <ele>405.93750206513</ele>
        <time>2014-09-20T13:56:06Z</time>
      </trkpt>
      <trkpt lat="43.22392" lon="0.91372">
        <ele>405.93750206513</ele>
        <time>2014-09-20T13:56:11Z</time>
      </trkpt>
      <trkpt lat="43.22388" lon="0.91376">
        <ele>407.01471620566</ele>
        <time>2014-09-20T13:56:16Z</time>
      </trkpt>
      <trkpt lat="43.22385" lon="0.9138">
        <ele>407.01471620566</ele>
        <time>2014-09-20T13:56:21Z</time>
      </trkpt>
      <trkpt lat="43.22381" lon="0.91385">
        <ele>408.3206300591</ele>
        <time>2014-09-20T13:56:26Z</time>
      </trkpt>
      <trkpt lat="43.22375" lon="0.91388">
        <ele>408.3206300591</ele>
        <time>2014-09-20T13:56:31Z</time>
      </trkpt>
      <trkpt lat="43.22369" lon="0.91393">
        <ele>409.11585282905</ele>
        <time>2014-09-20T13:56:36Z</time>
      </trkpt>
      <trkpt lat="43.22364" lon="0.91398">
        <ele>409.11585282905</ele>
        <time>2014-09-20T13:56:41Z</time>
      </trkpt>
      <trkpt lat="43.22359" lon="0.91403">
        <ele>409.56707913835</ele>
        <time>2014-09-20T13:56:46Z</time>
      </trkpt>
      <trkpt lat="43.22353" lon="0.91408">
        <ele>409.56707913835</ele>
        <time>2014-09-20T13:56:51Z</time>
      </trkpt>
      <trkpt lat="43.22349" lon="0.91414">
        <ele>409.90185608539</ele>
        <time>2014-09-20T13:56:56Z</time>
      </trkpt>
      <trkpt lat="43.22345" lon="0.91419">
        <ele>409.90185608539</ele>
        <time>2014-09-20T13:57:01Z</time>
      </trkpt>
      <trkpt lat="43.22342" lon="0.91425">
        <ele>410.21612419302</ele>
        <time>2014-09-20T13:57:06Z</time>
      </trkpt>
      <trkpt lat="43.22338" lon="0.9143">
        <ele>410.21612419302</ele>
        <time>2014-09-20T13:57:11Z</time>
      </trkpt>
      <trkpt lat="43.22335" lon="0.91435">
        <ele>410.29626367081</ele>
        <time>2014-09-20T13:57:16Z</time>
      </trkpt>
      <trkpt lat="43.22331" lon="0.9144">
        <ele>410.29626367081</ele>
        <time>2014-09-20T13:57:21Z</time>
      </trkpt>
      <trkpt lat="43.22327" lon="0.91445">
        <ele>410.44944798735</ele>
        <time>2014-09-20T13:57:26Z</time>
      </trkpt>
      <trkpt lat="43.22323" lon="0.91449">
        <ele>410.44944798735</ele>
        <time>2014-09-20T13:57:31Z</time>
      </trkpt>
      <trkpt lat="43.22319" lon="0.91453">
        <ele>410.52779382075</ele>
        <time>2014-09-20T13:57:36Z</time>
      </trkpt>
      <trkpt lat="43.22315" lon="0.91457">
        <ele>410.52779382075</ele>
        <time>2014-09-20T13:57:41Z</time>
      </trkpt>
      <trkpt lat="43.2231" lon="0.91462">
        <ele>410.66834042479</ele>
        <time>2014-09-20T13:57:46Z</time>
      </trkpt>
      <trkpt lat="43.22307" lon="0.91466">
        <ele>410.66834042479</ele>
        <time>2014-09-20T13:57:51Z</time>
      </trkpt>
      <trkpt lat="43.22304" lon="0.91471">
        <ele>410.5367593992</ele>
        <time>2014-09-20T13:57:56Z</time>
      </trkpt>
      <trkpt lat="43.22301" lon="0.91478">
        <ele>410.5367593992</ele>
        <time>2014-09-20T13:58:01Z</time>
      </trkpt>
      <trkpt lat="43.22301" lon="0.91477">
        <ele>410.5367593992</ele>
        <time>2014-09-20T13:58:06Z</time>
      </trkpt>
      <trkpt lat="43.22301" lon="0.91478">
        <ele>410.5367593992</ele>
        <time>2014-09-20T13:58:11Z</time>
      </trkpt>
      <trkpt lat="43.22303" lon="0.91478">
        <ele>410.5367593992</ele>
        <time>2014-09-20T13:58:16Z</time>
      </trkpt>
      <trkpt lat="43.22303" lon="0.91479">
        <ele>410.5367593992</ele>
        <time>2014-09-20T13:58:21Z</time>
      </trkpt>
      <trkpt lat="43.22303" lon="0.91479">
        <ele>410.5367593992</ele>
        <time>2014-09-20T13:58:26Z</time>
      </trkpt>
      <trkpt lat="43.22303" lon="0.91479">
        <ele>410.06905478128</ele>
        <time>2014-09-20T13:58:31Z</time>
      </trkpt>
      <trkpt lat="43.22303" lon="0.9148">
        <ele>410.06905478128</ele>
        <time>2014-09-20T13:58:36Z</time>
      </trkpt>
      <trkpt lat="43.22302" lon="0.91479">
        <ele>410.06905478128</ele>
        <time>2014-09-20T13:58:41Z</time>
      </trkpt>
      <trkpt lat="43.22301" lon="0.9148">
        <ele>410.06905478128</ele>
        <time>2014-09-20T13:58:46Z</time>
      </trkpt>
      <trkpt lat="43.22301" lon="0.91481">
        <ele>410.06905478128</ele>
        <time>2014-09-20T13:58:51Z</time>
      </trkpt>
      <trkpt lat="43.22301" lon="0.91481">
        <ele>410.06905478128</ele>
        <time>2014-09-20T13:58:56Z</time>
      </trkpt>
      <trkpt lat="43.22301" lon="0.91481">
        <ele>410.06905478128</ele>
        <time>2014-09-20T13:59:01Z</time>
      </trkpt>
      <trkpt lat="43.22301" lon="0.91481">
        <ele>410.06905478128</ele>
        <time>2014-09-20T13:59:06Z</time>
      </trkpt>
      <trkpt lat="43.22301" lon="0.91481">
        <ele>410.06905478128</ele>
        <time>2014-09-20T13:59:11Z</time>
      </trkpt>
      <trkpt lat="43.22301" lon="0.91481">
        <ele>410.06905478128</ele>
        <time>2014-09-20T13:59:16Z</time>
      </trkpt>
      <trkpt lat="43.22301" lon="0.91481">
        <ele>410.06905478128</ele>
        <time>2014-09-20T13:59:21Z</time>
      </trkpt>
      <trkpt lat="43.22301" lon="0.91481">
        <ele>410.06905478128</ele>
        <time>2014-09-20T13:59:26Z</time>
      </trkpt>
      <trkpt lat="43.22301" lon="0.91481">
        <ele>410.06905478128</ele>
        <time>2014-09-20T13:59:31Z</time>
      </trkpt>
      <trkpt lat="43.223" lon="0.91481">
        <ele>410.06905478128</ele>
        <time>2014-09-20T13:59:36Z</time>
      </trkpt>
      <trkpt lat="43.223" lon="0.91485">
        <ele>410.06905478128</ele>
        <time>2014-09-20T13:59:41Z</time>
      </trkpt>
      <trkpt lat="43.22296" lon="0.91485">
        <ele>408.8466066237</ele>
        <time>2014-09-20T13:59:46Z</time>
      </trkpt>
      <trkpt lat="43.22291" lon="0.91481">
        <ele>408.8466066237</ele>
        <time>2014-09-20T13:59:51Z</time>
      </trkpt>
      <trkpt lat="43.22287" lon="0.91477">
        <ele>407.29068371224</ele>
        <time>2014-09-20T13:59:56Z</time>
      </trkpt>
      <trkpt lat="43.22282" lon="0.91475">
        <ele>407.29068371224</ele>
        <time>2014-09-20T14:00:01Z</time>
      </trkpt>
      <trkpt lat="43.22277" lon="0.91472">
        <ele>405.76370470714</ele>
        <time>2014-09-20T14:00:06Z</time>
      </trkpt>
      <trkpt lat="43.22272" lon="0.91469">
        <ele>405.76370470714</ele>
        <time>2014-09-20T14:00:11Z</time>
      </trkpt>
      <trkpt lat="43.22267" lon="0.91466">
        <ele>404.31312855889</ele>
        <time>2014-09-20T14:00:16Z</time>
      </trkpt>
      <trkpt lat="43.22261" lon="0.91463">
        <ele>404.31312855889</ele>
        <time>2014-09-20T14:00:21Z</time>
      </trkpt>
      <trkpt lat="43.22257" lon="0.9146">
        <ele>402.92501999706</ele>
        <time>2014-09-20T14:00:26Z</time>
      </trkpt>
      <trkpt lat="43.22252" lon="0.91457">
        <ele>402.92501999706</ele>
        <time>2014-09-20T14:00:31Z</time>
      </trkpt>
      <trkpt lat="43.22246" lon="0.91453">
        <ele>401.75916207676</ele>
        <time>2014-09-20T14:00:36Z</time>
      </trkpt>
      <trkpt lat="43.22241" lon="0.9145">
        <ele>401.75916207676</ele>
        <time>2014-09-20T14:00:41Z</time>
      </trkpt>
      <trkpt lat="43.22235" lon="0.91448">
        <ele>400.70350089852</ele>
        <time>2014-09-20T14:00:46Z</time>
      </trkpt>
      <trkpt lat="43.2223" lon="0.91446">
        <ele>400.70350089852</ele>
        <time>2014-09-20T14:00:51Z</time>
      </trkpt>
      <trkpt lat="43.22225" lon="0.91446">
        <ele>399.79793016691</ele>
        <time>2014-09-20T14:00:56Z</time>
      </trkpt>
      <trkpt lat="43.2222" lon="0.91445">
        <ele>399.79793016691</ele>
        <time>2014-09-20T14:01:01Z</time>
      </trkpt>
      <trkpt lat="43.22216" lon="0.91445">
        <ele>399.15095410793</ele>
        <time>2014-09-20T14:01:06Z</time>
      </trkpt>
      <trkpt lat="43.22212" lon="0.91444">
        <ele>399.15095410793</ele>
        <time>2014-09-20T14:01:11Z</time>
      </trkpt>
      <trkpt lat="43.22209" lon="0.91442">
        <ele>399.15095410793</ele>
        <time>2014-09-20T14:01:16Z</time>
      </trkpt>
      <trkpt lat="43.22204" lon="0.9144">
        <ele>398.89110475302</ele>
        <time>2014-09-20T14:01:21Z</time>
      </trkpt>
      <trkpt lat="43.22199" lon="0.9144">
        <ele>398.89110475302</ele>
        <time>2014-09-20T14:01:26Z</time>
      </trkpt>
      <trkpt lat="43.22194" lon="0.91438">
        <ele>399.25157519605</ele>
        <time>2014-09-20T14:01:31Z</time>
      </trkpt>
      <trkpt lat="43.22189" lon="0.91437">
        <ele>399.25157519605</ele>
        <time>2014-09-20T14:01:36Z</time>
      </trkpt>
      <trkpt lat="43.22184" lon="0.91436">
        <ele>399.59633336885</ele>
        <time>2014-09-20T14:01:41Z</time>
      </trkpt>
      <trkpt lat="43.2218" lon="0.91434">
        <ele>399.59633336885</ele>
        <time>2014-09-20T14:01:46Z</time>
      </trkpt>
      <trkpt lat="43.22175" lon="0.91433">
        <ele>400.2871529508</ele>
        <time>2014-09-20T14:01:51Z</time>
      </trkpt>
      <trkpt lat="43.22171" lon="0.91433">
        <ele>400.2871529508</ele>
        <time>2014-09-20T14:01:56Z</time>
      </trkpt>
      <trkpt lat="43.22166" lon="0.91432">
        <ele>400.2871529508</ele>
        <time>2014-09-20T14:02:01Z</time>
      </trkpt>
      <trkpt lat="43.22159" lon="0.91431">
        <ele>400.86556140685</ele>
        <time>2014-09-20T14:02:06Z</time>
      </trkpt>
      <trkpt lat="43.22152" lon="0.91429">
        <ele>400.86556140685</ele>
        <time>2014-09-20T14:02:11Z</time>
      </trkpt>
      <trkpt lat="43.22147" lon="0.91427">
        <ele>401.62755593132</ele>
        <time>2014-09-20T14:02:16Z</time>
      </trkpt>
      <trkpt lat="43.22141" lon="0.91426">
        <ele>401.62755593132</ele>
        <time>2014-09-20T14:02:21Z</time>
      </trkpt>
      <trkpt lat="43.22135" lon="0.91424">
        <ele>401.70832303035</ele>
        <time>2014-09-20T14:02:26Z</time>
      </trkpt>
      <trkpt lat="43.22129" lon="0.91422">
        <ele>401.70832303035</ele>
        <time>2014-09-20T14:02:31Z</time>
      </trkpt>
      <trkpt lat="43.22123" lon="0.91421">
        <ele>401.49013261055</ele>
        <time>2014-09-20T14:02:36Z</time>
      </trkpt>
      <trkpt lat="43.22118" lon="0.91421">
        <ele>401.49013261055</ele>
        <time>2014-09-20T14:02:41Z</time>
      </trkpt>
      <trkpt lat="43.22113" lon="0.9142">
        <ele>401.74587118262</ele>
        <time>2014-09-20T14:02:46Z</time>
      </trkpt>
      <trkpt lat="43.22109" lon="0.91418">
        <ele>401.74587118262</ele>
        <time>2014-09-20T14:02:51Z</time>
      </trkpt>
      <trkpt lat="43.22104" lon="0.91418">
        <ele>401.74587118262</ele>
        <time>2014-09-20T14:02:56Z</time>
      </trkpt>
      <trkpt lat="43.22099" lon="0.91417">
        <ele>402.38323848707</ele>
        <time>2014-09-20T14:03:01Z</time>
      </trkpt>
      <trkpt lat="43.22093" lon="0.91415">
        <ele>402.38323848707</ele>
        <time>2014-09-20T14:03:06Z</time>
      </trkpt>
      <trkpt lat="43.22087" lon="0.91414">
        <ele>403.21471159558</ele>
        <time>2014-09-20T14:03:11Z</time>
      </trkpt>
      <trkpt lat="43.2208" lon="0.91413">
        <ele>403.21471159558</ele>
        <time>2014-09-20T14:03:16Z</time>
      </trkpt>
      <trkpt lat="43.22073" lon="0.91413">
        <ele>403.17245879699</ele>
        <time>2014-09-20T14:03:21Z</time>
      </trkpt>
      <trkpt lat="43.22068" lon="0.91412">
        <ele>403.17245879699</ele>
        <time>2014-09-20T14:03:26Z</time>
      </trkpt>
      <trkpt lat="43.22061" lon="0.91408">
        <ele>403.733798079</ele>
        <time>2014-09-20T14:03:31Z</time>
      </trkpt>
      <trkpt lat="43.22053" lon="0.91405">
        <ele>403.733798079</ele>
        <time>2014-09-20T14:03:36Z</time>
      </trkpt>
      <trkpt lat="43.22047" lon="0.91404">
        <ele>403.36915597765</ele>
        <time>2014-09-20T14:03:41Z</time>
      </trkpt>
      <trkpt lat="43.22043" lon="0.91405">
        <ele>403.36915597765</ele>
        <time>2014-09-20T14:03:46Z</time>
      </trkpt>
      <trkpt lat="43.22039" lon="0.91401">
        <ele>403.40199237794</ele>
        <time>2014-09-20T14:03:51Z</time>
      </trkpt>
      <trkpt lat="43.22035" lon="0.91397">
        <ele>403.40199237794</ele>
        <time>2014-09-20T14:03:56Z</time>
      </trkpt>
      <trkpt lat="43.22032" lon="0.91394">
        <ele>403.40199237794</ele>
        <time>2014-09-20T14:04:01Z</time>
      </trkpt>
      <trkpt lat="43.22028" lon="0.91388">
        <ele>403.94773976423</ele>
        <time>2014-09-20T14:04:06Z</time>
      </trkpt>
      <trkpt lat="43.22024" lon="0.91386">
        <ele>403.94773976423</ele>
        <time>2014-09-20T14:04:11Z</time>
      </trkpt>
      <trkpt lat="43.22022" lon="0.91385">
        <ele>403.94773976423</ele>
        <time>2014-09-20T14:04:16Z</time>
      </trkpt>
      <trkpt lat="43.22018" lon="0.91382">
        <ele>404.88130183216</ele>
        <time>2014-09-20T14:04:21Z</time>
      </trkpt>
      <trkpt lat="43.22013" lon="0.91377">
        <ele>404.88130183216</ele>
        <time>2014-09-20T14:04:26Z</time>
      </trkpt>
      <trkpt lat="43.2201" lon="0.91375">
        <ele>406.07124500908</ele>
        <time>2014-09-20T14:04:31Z</time>
      </trkpt>
      <trkpt lat="43.22006" lon="0.91371">
        <ele>406.07124500908</ele>
        <time>2014-09-20T14:04:36Z</time>
      </trkpt>
      <trkpt lat="43.22004" lon="0.91369">
        <ele>406.07124500908</ele>
        <time>2014-09-20T14:04:41Z</time>
      </trkpt>
      <trkpt lat="43.21997" lon="0.91364">
        <ele>407.71209632522</ele>
        <time>2014-09-20T14:04:46Z</time>
      </trkpt>
      <trkpt lat="43.21993" lon="0.91361">
        <ele>407.71209632522</ele>
        <time>2014-09-20T14:04:51Z</time>
      </trkpt>
      <trkpt lat="43.21988" lon="0.91358">
        <ele>408.84433916988</ele>
        <time>2014-09-20T14:04:56Z</time>
      </trkpt>
      <trkpt lat="43.21981" lon="0.91353">
        <ele>408.84433916988</ele>
        <time>2014-09-20T14:05:01Z</time>
      </trkpt>
      <trkpt lat="43.21978" lon="0.9135">
        <ele>410.41058090887</ele>
        <time>2014-09-20T14:05:06Z</time>
      </trkpt>
      <trkpt lat="43.21972" lon="0.91346">
        <ele>410.41058090887</ele>
        <time>2014-09-20T14:05:11Z</time>
      </trkpt>
      <trkpt lat="43.21967" lon="0.91341">
        <ele>411.91392215379</ele>
        <time>2014-09-20T14:05:16Z</time>
      </trkpt>
      <trkpt lat="43.21962" lon="0.91337">
        <ele>411.91392215379</ele>
        <time>2014-09-20T14:05:21Z</time>
      </trkpt>
      <trkpt lat="43.21956" lon="0.91332">
        <ele>412.67799403052</ele>
        <time>2014-09-20T14:05:26Z</time>
      </trkpt>
      <trkpt lat="43.21951" lon="0.91328">
        <ele>412.67799403052</ele>
        <time>2014-09-20T14:05:31Z</time>
      </trkpt>
      <trkpt lat="43.21947" lon="0.91324">
        <ele>413.5193248677</ele>
        <time>2014-09-20T14:05:36Z</time>
      </trkpt>
      <trkpt lat="43.21942" lon="0.91319">
        <ele>413.5193248677</ele>
        <time>2014-09-20T14:05:41Z</time>
      </trkpt>
      <trkpt lat="43.21938" lon="0.91315">
        <ele>414.83399904502</ele>
        <time>2014-09-20T14:05:46Z</time>
      </trkpt>
      <trkpt lat="43.21933" lon="0.91311">
        <ele>414.83399904502</ele>
        <time>2014-09-20T14:05:51Z</time>
      </trkpt>
      <trkpt lat="43.2193" lon="0.91307">
        <ele>416.46891473228</ele>
        <time>2014-09-20T14:05:56Z</time>
      </trkpt>
      <trkpt lat="43.21928" lon="0.91301">
        <ele>416.46891473228</ele>
        <time>2014-09-20T14:06:01Z</time>
      </trkpt>
      <trkpt lat="43.21923" lon="0.91298">
        <ele>417.74815014863</ele>
        <time>2014-09-20T14:06:06Z</time>
      </trkpt>
      <trkpt lat="43.21919" lon="0.91292">
        <ele>417.74815014863</ele>
        <time>2014-09-20T14:06:11Z</time>
      </trkpt>
      <trkpt lat="43.21914" lon="0.91288">
        <ele>418.95438301095</ele>
        <time>2014-09-20T14:06:16Z</time>
      </trkpt>
      <trkpt lat="43.21909" lon="0.91284">
        <ele>418.95438301095</ele>
        <time>2014-09-20T14:06:21Z</time>
      </trkpt>
      <trkpt lat="43.21906" lon="0.9128">
        <ele>419.87421714407</ele>
        <time>2014-09-20T14:06:26Z</time>
      </trkpt>
      <trkpt lat="43.21902" lon="0.91276">
        <ele>419.87421714407</ele>
        <time>2014-09-20T14:06:31Z</time>
      </trkpt>
      <trkpt lat="43.21898" lon="0.91272">
        <ele>420.5413703032</ele>
        <time>2014-09-20T14:06:36Z</time>
      </trkpt>
      <trkpt lat="43.21895" lon="0.91269">
        <ele>420.5413703032</ele>
        <time>2014-09-20T14:06:41Z</time>
      </trkpt>
      <trkpt lat="43.21891" lon="0.91266">
        <ele>420.5413703032</ele>
        <time>2014-09-20T14:06:46Z</time>
      </trkpt>
      <trkpt lat="43.21887" lon="0.91263">
        <ele>421.2760725264</ele>
        <time>2014-09-20T14:06:51Z</time>
      </trkpt>
      <trkpt lat="43.21883" lon="0.91259">
        <ele>421.2760725264</ele>
        <time>2014-09-20T14:06:56Z</time>
      </trkpt>
      <trkpt lat="43.2188" lon="0.91255">
        <ele>422.02903161298</ele>
        <time>2014-09-20T14:07:01Z</time>
      </trkpt>
      <trkpt lat="43.21876" lon="0.91251">
        <ele>422.02903161298</ele>
        <time>2014-09-20T14:07:06Z</time>
      </trkpt>
      <trkpt lat="43.21873" lon="0.91246">
        <ele>422.14931416112</ele>
        <time>2014-09-20T14:07:11Z</time>
      </trkpt>
      <trkpt lat="43.2187" lon="0.91243">
        <ele>422.14931416112</ele>
        <time>2014-09-20T14:07:16Z</time>
      </trkpt>
      <trkpt lat="43.21866" lon="0.91239">
        <ele>422.17410972324</ele>
        <time>2014-09-20T14:07:21Z</time>
      </trkpt>
      <trkpt lat="43.21862" lon="0.91235">
        <ele>422.17410972324</ele>
        <time>2014-09-20T14:07:26Z</time>
      </trkpt>
      <trkpt lat="43.21858" lon="0.91232">
        <ele>422.17410972324</ele>
        <time>2014-09-20T14:07:31Z</time>
      </trkpt>
      <trkpt lat="43.21854" lon="0.91229">
        <ele>421.69356113044</ele>
        <time>2014-09-20T14:07:36Z</time>
      </trkpt>
      <trkpt lat="43.2185" lon="0.91224">
        <ele>421.69356113044</ele>
        <time>2014-09-20T14:07:41Z</time>
      </trkpt>
      <trkpt lat="43.21845" lon="0.91221">
        <ele>421.48226673694</ele>
        <time>2014-09-20T14:07:46Z</time>
      </trkpt>
      <trkpt lat="43.21842" lon="0.91217">
        <ele>421.48226673694</ele>
        <time>2014-09-20T14:07:51Z</time>
      </trkpt>
      <trkpt lat="43.21838" lon="0.91216">
        <ele>421.48226673694</ele>
        <time>2014-09-20T14:07:56Z</time>
      </trkpt>
      <trkpt lat="43.21834" lon="0.91216">
        <ele>421.66634556691</ele>
        <time>2014-09-20T14:08:01Z</time>
      </trkpt>
      <trkpt lat="43.21831" lon="0.91211">
        <ele>421.66634556691</ele>
        <time>2014-09-20T14:08:06Z</time>
      </trkpt>
      <trkpt lat="43.21828" lon="0.91204">
        <ele>421.81394676243</ele>
        <time>2014-09-20T14:08:11Z</time>
      </trkpt>
      <trkpt lat="43.21823" lon="0.91198">
        <ele>421.81394676243</ele>
        <time>2014-09-20T14:08:16Z</time>
      </trkpt>
      <trkpt lat="43.21819" lon="0.91194">
        <ele>421.77005433343</ele>
        <time>2014-09-20T14:08:21Z</time>
      </trkpt>
      <trkpt lat="43.21815" lon="0.9119">
        <ele>421.77005433343</ele>
        <time>2014-09-20T14:08:26Z</time>
      </trkpt>
      <trkpt lat="43.21811" lon="0.91185">
        <ele>421.70863641467</ele>
        <time>2014-09-20T14:08:31Z</time>
      </trkpt>
      <trkpt lat="43.21807" lon="0.91181">
        <ele>421.70863641467</ele>
        <time>2014-09-20T14:08:36Z</time>
      </trkpt>
      <trkpt lat="43.21804" lon="0.91177">
        <ele>421.3874292917</ele>
        <time>2014-09-20T14:08:41Z</time>
      </trkpt>
      <trkpt lat="43.218" lon="0.91174">
        <ele>421.3874292917</ele>
        <time>2014-09-20T14:08:46Z</time>
      </trkpt>
      <trkpt lat="43.21796" lon="0.91172">
        <ele>421.3874292917</ele>
        <time>2014-09-20T14:08:51Z</time>
      </trkpt>
      <trkpt lat="43.21792" lon="0.91169">
        <ele>420.97179883699</ele>
        <time>2014-09-20T14:08:56Z</time>
      </trkpt>
      <trkpt lat="43.21788" lon="0.91167">
        <ele>420.97179883699</ele>
        <time>2014-09-20T14:09:01Z</time>
      </trkpt>
      <trkpt lat="43.21784" lon="0.91164">
        <ele>420.64404833841</ele>
        <time>2014-09-20T14:09:06Z</time>
      </trkpt>
      <trkpt lat="43.2178" lon="0.91161">
        <ele>420.64404833841</ele>
        <time>2014-09-20T14:09:11Z</time>
      </trkpt>
      <trkpt lat="43.21776" lon="0.91157">
        <ele>420.64404833841</ele>
        <time>2014-09-20T14:09:16Z</time>
      </trkpt>
      <trkpt lat="43.21773" lon="0.91152">
        <ele>420.25578969718</ele>
        <time>2014-09-20T14:09:21Z</time>
      </trkpt>
      <trkpt lat="43.21769" lon="0.9115">
        <ele>420.25578969718</ele>
        <time>2014-09-20T14:09:26Z</time>
      </trkpt>
      <trkpt lat="43.21766" lon="0.91147">
        <ele>420.25578969718</ele>
        <time>2014-09-20T14:09:31Z</time>
      </trkpt>
      <trkpt lat="43.21763" lon="0.91143">
        <ele>420.14525768844</ele>
        <time>2014-09-20T14:09:36Z</time>
      </trkpt>
      <trkpt lat="43.21758" lon="0.9114">
        <ele>420.14525768844</ele>
        <time>2014-09-20T14:09:41Z</time>
      </trkpt>
      <trkpt lat="43.21755" lon="0.91134">
        <ele>419.83243042532</ele>
        <time>2014-09-20T14:09:46Z</time>
      </trkpt>
      <trkpt lat="43.2175" lon="0.91128">
        <ele>419.83243042532</ele>
        <time>2014-09-20T14:09:51Z</time>
      </trkpt>
      <trkpt lat="43.21746" lon="0.91126">
        <ele>419.70893650319</ele>
        <time>2014-09-20T14:09:56Z</time>
      </trkpt>
      <trkpt lat="43.21742" lon="0.91121">
        <ele>419.70893650319</ele>
        <time>2014-09-20T14:10:01Z</time>
      </trkpt>
      <trkpt lat="43.21737" lon="0.91114">
        <ele>419.99296662551</ele>
        <time>2014-09-20T14:10:06Z</time>
      </trkpt>
      <trkpt lat="43.21732" lon="0.91109">
        <ele>419.99296662551</ele>
        <time>2014-09-20T14:10:11Z</time>
      </trkpt>
      <trkpt lat="43.21727" lon="0.91105">
        <ele>420.3955339011</ele>
        <time>2014-09-20T14:10:16Z</time>
      </trkpt>
      <trkpt lat="43.21721" lon="0.91099">
        <ele>420.3955339011</ele>
        <time>2014-09-20T14:10:21Z</time>
      </trkpt>
      <trkpt lat="43.21716" lon="0.91092">
        <ele>420.07207338075</ele>
        <time>2014-09-20T14:10:26Z</time>
      </trkpt>
      <trkpt lat="43.21713" lon="0.91086">
        <ele>420.07207338075</ele>
        <time>2014-09-20T14:10:31Z</time>
      </trkpt>
      <trkpt lat="43.21708" lon="0.9108">
        <ele>419.72641250391</ele>
        <time>2014-09-20T14:10:36Z</time>
      </trkpt>
      <trkpt lat="43.21706" lon="0.91074">
        <ele>419.72641250391</ele>
        <time>2014-09-20T14:10:41Z</time>
      </trkpt>
      <trkpt lat="43.21703" lon="0.91067">
        <ele>419.44867271802</ele>
        <time>2014-09-20T14:10:46Z</time>
      </trkpt>
      <trkpt lat="43.21701" lon="0.91061">
        <ele>419.44867271802</ele>
        <time>2014-09-20T14:10:51Z</time>
      </trkpt>
      <trkpt lat="43.21699" lon="0.91055">
        <ele>419.50947538012</ele>
        <time>2014-09-20T14:10:56Z</time>
      </trkpt>
      <trkpt lat="43.21697" lon="0.9105">
        <ele>419.50947538012</ele>
        <time>2014-09-20T14:11:01Z</time>
      </trkpt>
      <trkpt lat="43.21694" lon="0.91045">
        <ele>419.50947538012</ele>
        <time>2014-09-20T14:11:06Z</time>
      </trkpt>
      <trkpt lat="43.21692" lon="0.91041">
        <ele>419.84153253254</ele>
        <time>2014-09-20T14:11:11Z</time>
      </trkpt>
      <trkpt lat="43.21689" lon="0.91036">
        <ele>419.84153253254</ele>
        <time>2014-09-20T14:11:16Z</time>
      </trkpt>
      <trkpt lat="43.21687" lon="0.9103">
        <ele>420.41052533592</ele>
        <time>2014-09-20T14:11:21Z</time>
      </trkpt>
      <trkpt lat="43.21685" lon="0.91024">
        <ele>420.41052533592</ele>
        <time>2014-09-20T14:11:26Z</time>
      </trkpt>
      <trkpt lat="43.21683" lon="0.91019">
        <ele>421.57305938133</ele>
        <time>2014-09-20T14:11:31Z</time>
      </trkpt>
      <trkpt lat="43.21681" lon="0.91015">
        <ele>421.57305938133</ele>
        <time>2014-09-20T14:11:36Z</time>
      </trkpt>
      <trkpt lat="43.21678" lon="0.91011">
        <ele>421.57305938133</ele>
        <time>2014-09-20T14:11:41Z</time>
      </trkpt>
      <trkpt lat="43.21676" lon="0.91007">
        <ele>423.21110845353</ele>
        <time>2014-09-20T14:11:46Z</time>
      </trkpt>
      <trkpt lat="43.21675" lon="0.91007">
        <ele>423.21110845353</ele>
        <time>2014-09-20T14:11:51Z</time>
      </trkpt>
      <trkpt lat="43.21672" lon="0.91004">
        <ele>423.21110845353</ele>
        <time>2014-09-20T14:11:56Z</time>
      </trkpt>
      <trkpt lat="43.2167" lon="0.91001">
        <ele>423.21110845353</ele>
        <time>2014-09-20T14:12:01Z</time>
      </trkpt>
      <trkpt lat="43.21667" lon="0.90998">
        <ele>425.48777705935</ele>
        <time>2014-09-20T14:12:06Z</time>
      </trkpt>
      <trkpt lat="43.21665" lon="0.90996">
        <ele>425.48777705935</ele>
        <time>2014-09-20T14:12:11Z</time>
      </trkpt>
      <trkpt lat="43.21662" lon="0.90993">
        <ele>425.48777705935</ele>
        <time>2014-09-20T14:12:16Z</time>
      </trkpt>
      <trkpt lat="43.21657" lon="0.9099">
        <ele>427.77419177115</ele>
        <time>2014-09-20T14:12:21Z</time>
      </trkpt>
      <trkpt lat="43.21654" lon="0.90987">
        <ele>427.77419177115</ele>
        <time>2014-09-20T14:12:26Z</time>
      </trkpt>
      <trkpt lat="43.21651" lon="0.90984">
        <ele>427.77419177115</ele>
        <time>2014-09-20T14:12:31Z</time>
      </trkpt>
      <trkpt lat="43.21646" lon="0.90981">
        <ele>430.91436025188</ele>
        <time>2014-09-20T14:12:36Z</time>
      </trkpt>
      <trkpt lat="43.21643" lon="0.90976">
        <ele>430.91436025188</ele>
        <time>2014-09-20T14:12:41Z</time>
      </trkpt>
      <trkpt lat="43.21638" lon="0.90971">
        <ele>433.67036665442</ele>
        <time>2014-09-20T14:12:46Z</time>
      </trkpt>
      <trkpt lat="43.21634" lon="0.90967">
        <ele>433.67036665442</ele>
        <time>2014-09-20T14:12:51Z</time>
      </trkpt>
      <trkpt lat="43.21631" lon="0.90963">
        <ele>435.58808738971</ele>
        <time>2014-09-20T14:12:56Z</time>
      </trkpt>
      <trkpt lat="43.21628" lon="0.90961">
        <ele>435.58808738971</ele>
        <time>2014-09-20T14:13:01Z</time>
      </trkpt>
      <trkpt lat="43.21624" lon="0.90958">
        <ele>435.58808738971</ele>
        <time>2014-09-20T14:13:06Z</time>
      </trkpt>
      <trkpt lat="43.2162" lon="0.90955">
        <ele>437.73351463924</ele>
        <time>2014-09-20T14:13:11Z</time>
      </trkpt>
      <trkpt lat="43.21617" lon="0.90952">
        <ele>437.73351463924</ele>
        <time>2014-09-20T14:13:16Z</time>
      </trkpt>
      <trkpt lat="43.21615" lon="0.90951">
        <ele>437.73351463924</ele>
        <time>2014-09-20T14:13:21Z</time>
      </trkpt>
      <trkpt lat="43.21611" lon="0.90948">
        <ele>439.13385365726</ele>
        <time>2014-09-20T14:13:26Z</time>
      </trkpt>
      <trkpt lat="43.21606" lon="0.90946">
        <ele>439.13385365726</ele>
        <time>2014-09-20T14:13:31Z</time>
      </trkpt>
      <trkpt lat="43.21602" lon="0.90945">
        <ele>440.69132916164</ele>
        <time>2014-09-20T14:13:36Z</time>
      </trkpt>
      <trkpt lat="43.21597" lon="0.90942">
        <ele>440.69132916164</ele>
        <time>2014-09-20T14:13:41Z</time>
      </trkpt>
      <trkpt lat="43.21592" lon="0.90939">
        <ele>442.57862115945</ele>
        <time>2014-09-20T14:13:46Z</time>
      </trkpt>
      <trkpt lat="43.21587" lon="0.90936">
        <ele>442.57862115945</ele>
        <time>2014-09-20T14:13:51Z</time>
      </trkpt>
      <trkpt lat="43.21584" lon="0.90935">
        <ele>442.57862115945</ele>
        <time>2014-09-20T14:13:56Z</time>
      </trkpt>
      <trkpt lat="43.2158" lon="0.90935">
        <ele>444.26315438219</ele>
        <time>2014-09-20T14:14:01Z</time>
      </trkpt>
      <trkpt lat="43.21575" lon="0.90935">
        <ele>444.26315438219</ele>
        <time>2014-09-20T14:14:06Z</time>
      </trkpt>
      <trkpt lat="43.21572" lon="0.90935">
        <ele>444.26315438219</ele>
        <time>2014-09-20T14:14:11Z</time>
      </trkpt>
      <trkpt lat="43.2157" lon="0.90934">
        <ele>445.6988810211</ele>
        <time>2014-09-20T14:14:16Z</time>
      </trkpt>
      <trkpt lat="43.21564" lon="0.90932">
        <ele>445.6988810211</ele>
        <time>2014-09-20T14:14:21Z</time>
      </trkpt>
      <trkpt lat="43.2156" lon="0.90932">
        <ele>447.03127208144</ele>
        <time>2014-09-20T14:14:26Z</time>
      </trkpt>
      <trkpt lat="43.21554" lon="0.90931">
        <ele>447.03127208144</ele>
        <time>2014-09-20T14:14:31Z</time>
      </trkpt>
      <trkpt lat="43.21549" lon="0.9093">
        <ele>447.77581811158</ele>
        <time>2014-09-20T14:14:36Z</time>
      </trkpt>
      <trkpt lat="43.21544" lon="0.90928">
        <ele>447.77581811158</ele>
        <time>2014-09-20T14:14:41Z</time>
      </trkpt>
      <trkpt lat="43.21539" lon="0.90928">
        <ele>448.46529837878</ele>
        <time>2014-09-20T14:14:46Z</time>
      </trkpt>
      <trkpt lat="43.21533" lon="0.90928">
        <ele>448.46529837878</ele>
        <time>2014-09-20T14:14:51Z</time>
      </trkpt>
      <trkpt lat="43.21526" lon="0.90927">
        <ele>448.78657381555</ele>
        <time>2014-09-20T14:14:56Z</time>
      </trkpt>
      <trkpt lat="43.2152" lon="0.90923">
        <ele>448.78657381555</ele>
        <time>2014-09-20T14:15:01Z</time>
      </trkpt>
      <trkpt lat="43.21517" lon="0.90922">
        <ele>449.17117821461</ele>
        <time>2014-09-20T14:15:06Z</time>
      </trkpt>
      <trkpt lat="43.21515" lon="0.90921">
        <ele>449.17117821461</ele>
        <time>2014-09-20T14:15:11Z</time>
      </trkpt>
      <trkpt lat="43.21512" lon="0.90921">
        <ele>449.17117821461</ele>
        <time>2014-09-20T14:15:16Z</time>
      </trkpt>
      <trkpt lat="43.21508" lon="0.9092">
        <ele>449.54327408658</ele>
        <time>2014-09-20T14:15:21Z</time>
      </trkpt>
      <trkpt lat="43.21502" lon="0.90918">
        <ele>449.54327408658</ele>
        <time>2014-09-20T14:15:26Z</time>
      </trkpt>
      <trkpt lat="43.21497" lon="0.90917">
        <ele>450.0200401663</ele>
        <time>2014-09-20T14:15:31Z</time>
      </trkpt>
      <trkpt lat="43.21491" lon="0.90917">
        <ele>450.0200401663</ele>
        <time>2014-09-20T14:15:36Z</time>
      </trkpt>
      <trkpt lat="43.21487" lon="0.90916">
        <ele>450.60893403028</ele>
        <time>2014-09-20T14:15:41Z</time>
      </trkpt>
      <trkpt lat="43.21483" lon="0.90917">
        <ele>450.60893403028</ele>
        <time>2014-09-20T14:15:46Z</time>
      </trkpt>
      <trkpt lat="43.21478" lon="0.90919">
        <ele>450.60893403028</ele>
        <time>2014-09-20T14:15:51Z</time>
      </trkpt>
      <trkpt lat="43.21475" lon="0.90922">
        <ele>450.43752295683</ele>
        <time>2014-09-20T14:15:56Z</time>
      </trkpt>
      <trkpt lat="43.2147" lon="0.90925">
        <ele>450.43752295683</ele>
        <time>2014-09-20T14:16:01Z</time>
      </trkpt>
      <trkpt lat="43.21468" lon="0.90927">
        <ele>450.43752295683</ele>
        <time>2014-09-20T14:16:06Z</time>
      </trkpt>
      <trkpt lat="43.21466" lon="0.90929">
        <ele>450.78925040757</ele>
        <time>2014-09-20T14:16:11Z</time>
      </trkpt>
      <trkpt lat="43.21462" lon="0.9093">
        <ele>450.78925040757</ele>
        <time>2014-09-20T14:16:16Z</time>
      </trkpt>
      <trkpt lat="43.21459" lon="0.9093">
        <ele>450.78925040757</ele>
        <time>2014-09-20T14:16:21Z</time>
      </trkpt>
      <trkpt lat="43.21455" lon="0.90933">
        <ele>451.55484721811</ele>
        <time>2014-09-20T14:16:26Z</time>
      </trkpt>
      <trkpt lat="43.2145" lon="0.90934">
        <ele>451.55484721811</ele>
        <time>2014-09-20T14:16:31Z</time>
      </trkpt>
      <trkpt lat="43.21445" lon="0.90936">
        <ele>451.46463863952</ele>
        <time>2014-09-20T14:16:36Z</time>
      </trkpt>
      <trkpt lat="43.21441" lon="0.90937">
        <ele>451.46463863952</ele>
        <time>2014-09-20T14:16:41Z</time>
      </trkpt>
      <trkpt lat="43.21439" lon="0.9094">
        <ele>451.46463863952</ele>
        <time>2014-09-20T14:16:46Z</time>
      </trkpt>
      <trkpt lat="43.21436" lon="0.90942">
        <ele>452.08275550443</ele>
        <time>2014-09-20T14:16:51Z</time>
      </trkpt>
      <trkpt lat="43.21435" lon="0.90944">
        <ele>452.08275550443</ele>
        <time>2014-09-20T14:16:56Z</time>
      </trkpt>
      <trkpt lat="43.21433" lon="0.90945">
        <ele>452.08275550443</ele>
        <time>2014-09-20T14:17:01Z</time>
      </trkpt>
      <trkpt lat="43.2143" lon="0.90947">
        <ele>452.08275550443</ele>
        <time>2014-09-20T14:17:06Z</time>
      </trkpt>
      <trkpt lat="43.21424" lon="0.9095">
        <ele>452.92537042182</ele>
        <time>2014-09-20T14:17:11Z</time>
      </trkpt>
      <trkpt lat="43.2142" lon="0.90951">
        <ele>452.92537042182</ele>
        <time>2014-09-20T14:17:16Z</time>
      </trkpt>
      <trkpt lat="43.21416" lon="0.90951">
        <ele>452.92537042182</ele>
        <time>2014-09-20T14:17:21Z</time>
      </trkpt>
      <trkpt lat="43.21411" lon="0.90953">
        <ele>454.56677359468</ele>
        <time>2014-09-20T14:17:26Z</time>
      </trkpt>
      <trkpt lat="43.21405" lon="0.90955">
        <ele>454.56677359468</ele>
        <time>2014-09-20T14:17:31Z</time>
      </trkpt>
      <trkpt lat="43.21401" lon="0.90955">
        <ele>456.19660963725</ele>
        <time>2014-09-20T14:17:36Z</time>
      </trkpt>
      <trkpt lat="43.21397" lon="0.90955">
        <ele>456.19660963725</ele>
        <time>2014-09-20T14:17:41Z</time>
      </trkpt>
      <trkpt lat="43.21393" lon="0.90958">
        <ele>456.19660963725</ele>
        <time>2014-09-20T14:17:46Z</time>
      </trkpt>
      <trkpt lat="43.21389" lon="0.90959">
        <ele>457.42437988731</ele>
        <time>2014-09-20T14:17:51Z</time>
      </trkpt>
      <trkpt lat="43.21385" lon="0.90961">
        <ele>457.42437988731</ele>
        <time>2014-09-20T14:17:56Z</time>
      </trkpt>
      <trkpt lat="43.21382" lon="0.90964">
        <ele>457.42437988731</ele>
        <time>2014-09-20T14:18:01Z</time>
      </trkpt>
      <trkpt lat="43.21379" lon="0.90967">
        <ele>458.30734244561</ele>
        <time>2014-09-20T14:18:06Z</time>
      </trkpt>
      <trkpt lat="43.21375" lon="0.90968">
        <ele>458.30734244561</ele>
        <time>2014-09-20T14:18:11Z</time>
      </trkpt>
      <trkpt lat="43.21375" lon="0.90972">
        <ele>458.30734244561</ele>
        <time>2014-09-20T14:18:16Z</time>
      </trkpt>
      <trkpt lat="43.21375" lon="0.90977">
        <ele>459.86508526062</ele>
        <time>2014-09-20T14:18:21Z</time>
      </trkpt>
      <trkpt lat="43.2137" lon="0.90981">
        <ele>459.86508526062</ele>
        <time>2014-09-20T14:18:26Z</time>
      </trkpt>
      <trkpt lat="43.21366" lon="0.90985">
        <ele>461.57049752818</ele>
        <time>2014-09-20T14:18:31Z</time>
      </trkpt>
      <trkpt lat="43.21364" lon="0.9099">
        <ele>461.57049752818</ele>
        <time>2014-09-20T14:18:36Z</time>
      </trkpt>
      <trkpt lat="43.21361" lon="0.9099">
        <ele>461.57049752818</ele>
        <time>2014-09-20T14:18:41Z</time>
      </trkpt>
      <trkpt lat="43.21358" lon="0.90995">
        <ele>462.58893650081</ele>
        <time>2014-09-20T14:18:46Z</time>
      </trkpt>
      <trkpt lat="43.21356" lon="0.91002">
        <ele>462.58893650081</ele>
        <time>2014-09-20T14:18:51Z</time>
      </trkpt>
      <trkpt lat="43.21354" lon="0.91008">
        <ele>463.79189593498</ele>
        <time>2014-09-20T14:18:56Z</time>
      </trkpt>
      <trkpt lat="43.21352" lon="0.91013">
        <ele>463.79189593498</ele>
        <time>2014-09-20T14:19:01Z</time>
      </trkpt>
      <trkpt lat="43.21348" lon="0.91018">
        <ele>464.48760682908</ele>
        <time>2014-09-20T14:19:06Z</time>
      </trkpt>
      <trkpt lat="43.21345" lon="0.91023">
        <ele>464.48760682908</ele>
        <time>2014-09-20T14:19:11Z</time>
      </trkpt>
      <trkpt lat="43.21342" lon="0.91028">
        <ele>464.71389133161</ele>
        <time>2014-09-20T14:19:16Z</time>
      </trkpt>
      <trkpt lat="43.2134" lon="0.91033">
        <ele>464.71389133161</ele>
        <time>2014-09-20T14:19:21Z</time>
      </trkpt>
      <trkpt lat="43.21337" lon="0.91038">
        <ele>464.70889016762</ele>
        <time>2014-09-20T14:19:26Z</time>
      </trkpt>
      <trkpt lat="43.21334" lon="0.91044">
        <ele>464.70889016762</ele>
        <time>2014-09-20T14:19:31Z</time>
      </trkpt>
      <trkpt lat="43.21332" lon="0.91049">
        <ele>464.3480501788</ele>
        <time>2014-09-20T14:19:36Z</time>
      </trkpt>
      <trkpt lat="43.21328" lon="0.91055">
        <ele>464.3480501788</ele>
        <time>2014-09-20T14:19:41Z</time>
      </trkpt>
      <trkpt lat="43.21323" lon="0.9106">
        <ele>463.68990788473</ele>
        <time>2014-09-20T14:19:46Z</time>
      </trkpt>
      <trkpt lat="43.21318" lon="0.91065">
        <ele>463.68990788473</ele>
        <time>2014-09-20T14:19:51Z</time>
      </trkpt>
      <trkpt lat="43.21317" lon="0.91071">
        <ele>463.4092100129</ele>
        <time>2014-09-20T14:19:56Z</time>
      </trkpt>
      <trkpt lat="43.21313" lon="0.91077">
        <ele>463.4092100129</ele>
        <time>2014-09-20T14:20:01Z</time>
      </trkpt>
      <trkpt lat="43.21309" lon="0.91078">
        <ele>463.95713366204</ele>
        <time>2014-09-20T14:20:06Z</time>
      </trkpt>
      <trkpt lat="43.21303" lon="0.91076">
        <ele>463.95713366204</ele>
        <time>2014-09-20T14:20:11Z</time>
      </trkpt>
      <trkpt lat="43.21296" lon="0.91076">
        <ele>463.80386776622</ele>
        <time>2014-09-20T14:20:16Z</time>
      </trkpt>
      <trkpt lat="43.2129" lon="0.91076">
        <ele>463.80386776622</ele>
        <time>2014-09-20T14:20:21Z</time>
      </trkpt>
      <trkpt lat="43.21285" lon="0.91077">
        <ele>462.98944231876</ele>
        <time>2014-09-20T14:20:26Z</time>
      </trkpt>
      <trkpt lat="43.2128" lon="0.91081">
        <ele>462.98944231876</ele>
        <time>2014-09-20T14:20:31Z</time>
      </trkpt>
      <trkpt lat="43.21276" lon="0.91084">
        <ele>462.84976779875</ele>
        <time>2014-09-20T14:20:36Z</time>
      </trkpt>
      <trkpt lat="43.21271" lon="0.91085">
        <ele>462.84976779875</ele>
        <time>2014-09-20T14:20:41Z</time>
      </trkpt>
      <trkpt lat="43.21266" lon="0.91088">
        <ele>463.19398619447</ele>
        <time>2014-09-20T14:20:46Z</time>
      </trkpt>
      <trkpt lat="43.21261" lon="0.91089">
        <ele>463.19398619447</ele>
        <time>2014-09-20T14:20:51Z</time>
      </trkpt>
      <trkpt lat="43.21256" lon="0.91089">
        <ele>464.14649162139</ele>
        <time>2014-09-20T14:20:56Z</time>
      </trkpt>
      <trkpt lat="43.21251" lon="0.91089">
        <ele>464.14649162139</ele>
        <time>2014-09-20T14:21:01Z</time>
      </trkpt>
      <trkpt lat="43.21245" lon="0.91088">
        <ele>464.12027461969</ele>
        <time>2014-09-20T14:21:06Z</time>
      </trkpt>
      <trkpt lat="43.21241" lon="0.91088">
        <ele>464.12027461969</ele>
        <time>2014-09-20T14:21:11Z</time>
      </trkpt>
      <trkpt lat="43.21238" lon="0.91089">
        <ele>464.12027461969</ele>
        <time>2014-09-20T14:21:16Z</time>
      </trkpt>
      <trkpt lat="43.21235" lon="0.91088">
        <ele>464.7604059287</ele>
        <time>2014-09-20T14:21:21Z</time>
      </trkpt>
      <trkpt lat="43.21232" lon="0.91088">
        <ele>464.7604059287</ele>
        <time>2014-09-20T14:21:26Z</time>
      </trkpt>
      <trkpt lat="43.21231" lon="0.91088">
        <ele>464.7604059287</ele>
        <time>2014-09-20T14:21:31Z</time>
      </trkpt>
      <trkpt lat="43.21228" lon="0.91087">
        <ele>464.7604059287</ele>
        <time>2014-09-20T14:21:36Z</time>
      </trkpt>
      <trkpt lat="43.21222" lon="0.91087">
        <ele>465.7589834488</ele>
        <time>2014-09-20T14:21:41Z</time>
      </trkpt>
      <trkpt lat="43.21219" lon="0.91086">
        <ele>465.7589834488</ele>
        <time>2014-09-20T14:21:46Z</time>
      </trkpt>
      <trkpt lat="43.21216" lon="0.91087">
        <ele>465.7589834488</ele>
        <time>2014-09-20T14:21:51Z</time>
      </trkpt>
      <trkpt lat="43.21214" lon="0.91088">
        <ele>465.7589834488</ele>
        <time>2014-09-20T14:21:56Z</time>
      </trkpt>
      <trkpt lat="43.21212" lon="0.91086">
        <ele>467.78080986467</ele>
        <time>2014-09-20T14:22:01Z</time>
      </trkpt>
      <trkpt lat="43.2121" lon="0.91087">
        <ele>467.78080986467</ele>
        <time>2014-09-20T14:22:06Z</time>
      </trkpt>
      <trkpt lat="43.21206" lon="0.91088">
        <ele>467.78080986467</ele>
        <time>2014-09-20T14:22:11Z</time>
      </trkpt>
      <trkpt lat="43.21201" lon="0.9109">
        <ele>469.46462212591</ele>
        <time>2014-09-20T14:22:16Z</time>
      </trkpt>
      <trkpt lat="43.21197" lon="0.91094">
        <ele>469.46462212591</ele>
        <time>2014-09-20T14:22:21Z</time>
      </trkpt>
      <trkpt lat="43.21197" lon="0.91099">
        <ele>469.46462212591</ele>
        <time>2014-09-20T14:22:26Z</time>
      </trkpt>
      <trkpt lat="43.21196" lon="0.91103">
        <ele>470.57326346826</ele>
        <time>2014-09-20T14:22:31Z</time>
      </trkpt>
      <trkpt lat="43.21195" lon="0.91103">
        <ele>470.57326346826</ele>
        <time>2014-09-20T14:22:36Z</time>
      </trkpt>
      <trkpt lat="43.21194" lon="0.91108">
        <ele>470.57326346826</ele>
        <time>2014-09-20T14:22:41Z</time>
      </trkpt>
      <trkpt lat="43.21194" lon="0.91114">
        <ele>470.57326346826</ele>
        <time>2014-09-20T14:22:46Z</time>
      </trkpt>
      <trkpt lat="43.21194" lon="0.91118">
        <ele>472.18559261016</ele>
        <time>2014-09-20T14:22:51Z</time>
      </trkpt>
      <trkpt lat="43.2119" lon="0.91123">
        <ele>472.18559261016</ele>
        <time>2014-09-20T14:22:56Z</time>
      </trkpt>
      <trkpt lat="43.21185" lon="0.91128">
        <ele>473.84426877726</ele>
        <time>2014-09-20T14:23:01Z</time>
      </trkpt>
      <trkpt lat="43.21182" lon="0.91133">
        <ele>473.84426877726</ele>
        <time>2014-09-20T14:23:06Z</time>
      </trkpt>
      <trkpt lat="43.21179" lon="0.91136">
        <ele>473.84426877726</ele>
        <time>2014-09-20T14:23:11Z</time>
      </trkpt>
      <trkpt lat="43.21175" lon="0.91139">
        <ele>475.39922422873</ele>
        <time>2014-09-20T14:23:16Z</time>
      </trkpt>
      <trkpt lat="43.21171" lon="0.91139">
        <ele>475.39922422873</ele>
        <time>2014-09-20T14:23:21Z</time>
      </trkpt>
      <trkpt lat="43.21168" lon="0.9114">
        <ele>475.39922422873</ele>
        <time>2014-09-20T14:23:26Z</time>
      </trkpt>
      <trkpt lat="43.21166" lon="0.91141">
        <ele>477.15845378021</ele>
        <time>2014-09-20T14:23:31Z</time>
      </trkpt>
      <trkpt lat="43.21165" lon="0.91141">
        <ele>477.15845378021</ele>
        <time>2014-09-20T14:23:36Z</time>
      </trkpt>
      <trkpt lat="43.21165" lon="0.91141">
        <ele>477.15845378021</ele>
        <time>2014-09-20T14:23:41Z</time>
      </trkpt>
      <trkpt lat="43.21157" lon="0.9114">
        <ele>477.15845378021</ele>
        <time>2014-09-20T14:23:46Z</time>
      </trkpt>
      <trkpt lat="43.21147" lon="0.91137">
        <ele>479.07530926777</ele>
        <time>2014-09-20T14:23:51Z</time>
      </trkpt>
      <trkpt lat="43.21139" lon="0.91134">
        <ele>479.07530926777</ele>
        <time>2014-09-20T14:23:56Z</time>
      </trkpt>
      <trkpt lat="43.21134" lon="0.91133">
        <ele>480.41441100064</ele>
        <time>2014-09-20T14:24:01Z</time>
      </trkpt>
      <trkpt lat="43.21134" lon="0.91134">
        <ele>480.41441100064</ele>
        <time>2014-09-20T14:24:06Z</time>
      </trkpt>
      <trkpt lat="43.21132" lon="0.91132">
        <ele>480.41441100064</ele>
        <time>2014-09-20T14:24:11Z</time>
      </trkpt>
      <trkpt lat="43.21131" lon="0.91131">
        <ele>480.41441100064</ele>
        <time>2014-09-20T14:24:16Z</time>
      </trkpt>
      <trkpt lat="43.2113" lon="0.91131">
        <ele>480.41441100064</ele>
        <time>2014-09-20T14:24:21Z</time>
      </trkpt>
      <trkpt lat="43.2113" lon="0.91131">
        <ele>480.41441100064</ele>
        <time>2014-09-20T14:24:26Z</time>
      </trkpt>
      <trkpt lat="43.21128" lon="0.91129">
        <ele>480.41441100064</ele>
        <time>2014-09-20T14:24:31Z</time>
      </trkpt>
      <trkpt lat="43.21126" lon="0.9113">
        <ele>480.41441100064</ele>
        <time>2014-09-20T14:24:36Z</time>
      </trkpt>
      <trkpt lat="43.21126" lon="0.91131">
        <ele>481.24542121128</ele>
        <time>2014-09-20T14:24:41Z</time>
      </trkpt>
      <trkpt lat="43.21125" lon="0.91132">
        <ele>481.24542121128</ele>
        <time>2014-09-20T14:24:46Z</time>
      </trkpt>
      <trkpt lat="43.21125" lon="0.9113">
        <ele>481.24542121128</ele>
        <time>2014-09-20T14:24:51Z</time>
      </trkpt>
      <trkpt lat="43.21125" lon="0.91128">
        <ele>481.24542121128</ele>
        <time>2014-09-20T14:24:56Z</time>
      </trkpt>
      <trkpt lat="43.21127" lon="0.91127">
        <ele>481.24542121128</ele>
        <time>2014-09-20T14:25:01Z</time>
      </trkpt>
      <trkpt lat="43.21127" lon="0.91128">
        <ele>481.24542121128</ele>
        <time>2014-09-20T14:25:06Z</time>
      </trkpt>
      <trkpt lat="43.21127" lon="0.91129">
        <ele>481.24542121128</ele>
        <time>2014-09-20T14:25:11Z</time>
      </trkpt>
      <trkpt lat="43.21128" lon="0.9113">
        <ele>481.24542121128</ele>
        <time>2014-09-20T14:25:16Z</time>
      </trkpt>
      <trkpt lat="43.21128" lon="0.9113">
        <ele>481.24542121128</ele>
        <time>2014-09-20T14:25:21Z</time>
      </trkpt>
      <trkpt lat="43.21128" lon="0.9113">
        <ele>481.24542121128</ele>
        <time>2014-09-20T14:25:26Z</time>
      </trkpt>
      <trkpt lat="43.21128" lon="0.9113">
        <ele>481.24542121128</ele>
        <time>2014-09-20T14:25:31Z</time>
      </trkpt>
      <trkpt lat="43.21128" lon="0.9113">
        <ele>481.24542121128</ele>
        <time>2014-09-20T14:25:36Z</time>
      </trkpt>
      <trkpt lat="43.21128" lon="0.9113">
        <ele>481.24542121128</ele>
        <time>2014-09-20T14:25:41Z</time>
      </trkpt>
      <trkpt lat="43.21128" lon="0.9113">
        <ele>481.24542121128</ele>
        <time>2014-09-20T14:25:46Z</time>
      </trkpt>
      <trkpt lat="43.21128" lon="0.9113">
        <ele>481.24542121128</ele>
        <time>2014-09-20T14:25:51Z</time>
      </trkpt>
      <trkpt lat="43.21128" lon="0.9113">
        <ele>481.24542121128</ele>
        <time>2014-09-20T14:25:56Z</time>
      </trkpt>
      <trkpt lat="43.21128" lon="0.9113">
        <ele>481.24542121128</ele>
        <time>2014-09-20T14:26:01Z</time>
      </trkpt>
      <trkpt lat="43.21128" lon="0.9113">
        <ele>481.24542121128</ele>
        <time>2014-09-20T14:26:06Z</time>
      </trkpt>
      <trkpt lat="43.21127" lon="0.9113">
        <ele>481.24542121128</ele>
        <time>2014-09-20T14:26:11Z</time>
      </trkpt>
      <trkpt lat="43.21126" lon="0.91128">
        <ele>479.31414136212</ele>
        <time>2014-09-20T14:26:16Z</time>
      </trkpt>
      <trkpt lat="43.21122" lon="0.91127">
        <ele>479.31414136212</ele>
        <time>2014-09-20T14:26:21Z</time>
      </trkpt>
      <trkpt lat="43.21121" lon="0.91131">
        <ele>479.31414136212</ele>
        <time>2014-09-20T14:26:26Z</time>
      </trkpt>
      <trkpt lat="43.2112" lon="0.91131">
        <ele>479.31414136212</ele>
        <time>2014-09-20T14:26:31Z</time>
      </trkpt>
      <trkpt lat="43.21117" lon="0.91133">
        <ele>476.27220519224</ele>
        <time>2014-09-20T14:26:36Z</time>
      </trkpt>
      <trkpt lat="43.21115" lon="0.91129">
        <ele>476.27220519224</ele>
        <time>2014-09-20T14:26:41Z</time>
      </trkpt>
      <trkpt lat="43.21114" lon="0.91126">
        <ele>476.27220519224</ele>
        <time>2014-09-20T14:26:46Z</time>
      </trkpt>
      <trkpt lat="43.21114" lon="0.91122">
        <ele>476.27220519224</ele>
        <time>2014-09-20T14:26:51Z</time>
      </trkpt>
      <trkpt lat="43.21113" lon="0.91118">
        <ele>472.03898150714</ele>
        <time>2014-09-20T14:26:56Z</time>
      </trkpt>
      <trkpt lat="43.21113" lon="0.91113">
        <ele>472.03898150714</ele>
        <time>2014-09-20T14:27:01Z</time>
      </trkpt>
      <trkpt lat="43.21111" lon="0.9111">
        <ele>472.03898150714</ele>
        <time>2014-09-20T14:27:06Z</time>
      </trkpt>
      <trkpt lat="43.21106" lon="0.91108">
        <ele>468.54621506159</ele>
        <time>2014-09-20T14:27:11Z</time>
      </trkpt>
      <trkpt lat="43.211" lon="0.91102">
        <ele>468.54621506159</ele>
        <time>2014-09-20T14:27:16Z</time>
      </trkpt>
      <trkpt lat="43.21095" lon="0.91094">
        <ele>465.16053483144</ele>
        <time>2014-09-20T14:27:21Z</time>
      </trkpt>
      <trkpt lat="43.21089" lon="0.91088">
        <ele>465.16053483144</ele>
        <time>2014-09-20T14:27:26Z</time>
      </trkpt>
      <trkpt lat="43.21082" lon="0.91083">
        <ele>461.78467684821</ele>
        <time>2014-09-20T14:27:31Z</time>
      </trkpt>
      <trkpt lat="43.21074" lon="0.91079">
        <ele>461.78467684821</ele>
        <time>2014-09-20T14:27:36Z</time>
      </trkpt>
      <trkpt lat="43.21069" lon="0.91073">
        <ele>458.96245843677</ele>
        <time>2014-09-20T14:27:41Z</time>
      </trkpt>
      <trkpt lat="43.21065" lon="0.9107">
        <ele>458.96245843677</ele>
        <time>2014-09-20T14:27:46Z</time>
      </trkpt>
      <trkpt lat="43.2106" lon="0.91068">
        <ele>456.47549160768</ele>
        <time>2014-09-20T14:27:51Z</time>
      </trkpt>
      <trkpt lat="43.21055" lon="0.91064">
        <ele>456.47549160768</ele>
        <time>2014-09-20T14:27:56Z</time>
      </trkpt>
      <trkpt lat="43.21051" lon="0.91062">
        <ele>454.71118103271</ele>
        <time>2014-09-20T14:28:01Z</time>
      </trkpt>
      <trkpt lat="43.21047" lon="0.91059">
        <ele>454.71118103271</ele>
        <time>2014-09-20T14:28:06Z</time>
      </trkpt>
      <trkpt lat="43.21043" lon="0.91055">
        <ele>453.3633568322</ele>
        <time>2014-09-20T14:28:11Z</time>
      </trkpt>
      <trkpt lat="43.21039" lon="0.91052">
        <ele>453.3633568322</ele>
        <time>2014-09-20T14:28:16Z</time>
      </trkpt>
      <trkpt lat="43.21036" lon="0.9105">
        <ele>453.3633568322</ele>
        <time>2014-09-20T14:28:21Z</time>
      </trkpt>
      <trkpt lat="43.21033" lon="0.91049">
        <ele>452.01728718908</ele>
        <time>2014-09-20T14:28:26Z</time>
      </trkpt>
      <trkpt lat="43.21028" lon="0.91046">
        <ele>452.01728718908</ele>
        <time>2014-09-20T14:28:31Z</time>
      </trkpt>
      <trkpt lat="43.21023" lon="0.91042">
        <ele>450.37497960785</ele>
        <time>2014-09-20T14:28:36Z</time>
      </trkpt>
      <trkpt lat="43.21019" lon="0.91036">
        <ele>450.37497960785</ele>
        <time>2014-09-20T14:28:41Z</time>
      </trkpt>
      <trkpt lat="43.21016" lon="0.91032">
        <ele>448.55007285029</ele>
        <time>2014-09-20T14:28:46Z</time>
      </trkpt>
      <trkpt lat="43.21014" lon="0.9103">
        <ele>448.55007285029</ele>
        <time>2014-09-20T14:28:51Z</time>
      </trkpt>
      <trkpt lat="43.21012" lon="0.91029">
        <ele>448.55007285029</ele>
        <time>2014-09-20T14:28:56Z</time>
      </trkpt>
      <trkpt lat="43.21009" lon="0.91032">
        <ele>448.55007285029</ele>
        <time>2014-09-20T14:29:01Z</time>
      </trkpt>
      <trkpt lat="43.21007" lon="0.91035">
        <ele>447.97400327291</ele>
        <time>2014-09-20T14:29:06Z</time>
      </trkpt>
      <trkpt lat="43.21006" lon="0.91038">
        <ele>447.97400327291</ele>
        <time>2014-09-20T14:29:11Z</time>
      </trkpt>
      <trkpt lat="43.21005" lon="0.91042">
        <ele>447.97400327291</ele>
        <time>2014-09-20T14:29:16Z</time>
      </trkpt>
      <trkpt lat="43.21003" lon="0.91046">
        <ele>447.97400327291</ele>
        <time>2014-09-20T14:29:21Z</time>
      </trkpt>
      <trkpt lat="43.21002" lon="0.91049">
        <ele>447.99504187884</ele>
        <time>2014-09-20T14:29:26Z</time>
      </trkpt>
      <trkpt lat="43.21" lon="0.91051">
        <ele>447.99504187884</ele>
        <time>2014-09-20T14:29:31Z</time>
      </trkpt>
      <trkpt lat="43.20998" lon="0.91053">
        <ele>447.99504187884</ele>
        <time>2014-09-20T14:29:36Z</time>
      </trkpt>
      <trkpt lat="43.20994" lon="0.91053">
        <ele>447.99504187884</ele>
        <time>2014-09-20T14:29:41Z</time>
      </trkpt>
      <trkpt lat="43.20992" lon="0.91055">
        <ele>447.17163340173</ele>
        <time>2014-09-20T14:29:46Z</time>
      </trkpt>
      <trkpt lat="43.20988" lon="0.9106">
        <ele>447.17163340173</ele>
        <time>2014-09-20T14:29:51Z</time>
      </trkpt>
      <trkpt lat="43.20985" lon="0.91069">
        <ele>445.72671177119</ele>
        <time>2014-09-20T14:29:56Z</time>
      </trkpt>
      <trkpt lat="43.20982" lon="0.91072">
        <ele>445.72671177119</ele>
        <time>2014-09-20T14:30:01Z</time>
      </trkpt>
      <trkpt lat="43.20976" lon="0.91074">
        <ele>445.17982123359</ele>
        <time>2014-09-20T14:30:06Z</time>
      </trkpt>
      <trkpt lat="43.20972" lon="0.91079">
        <ele>445.17982123359</ele>
        <time>2014-09-20T14:30:11Z</time>
      </trkpt>
      <trkpt lat="43.2097" lon="0.91085">
        <ele>444.71688877514</ele>
        <time>2014-09-20T14:30:16Z</time>
      </trkpt>
      <trkpt lat="43.20968" lon="0.9109">
        <ele>444.71688877514</ele>
        <time>2014-09-20T14:30:21Z</time>
      </trkpt>
      <trkpt lat="43.20966" lon="0.91089">
        <ele>444.71688877514</ele>
        <time>2014-09-20T14:30:26Z</time>
      </trkpt>
      <trkpt lat="43.20962" lon="0.91093">
        <ele>444.41909753798</ele>
        <time>2014-09-20T14:30:31Z</time>
      </trkpt>
      <trkpt lat="43.20955" lon="0.91094">
        <ele>444.41909753798</ele>
        <time>2014-09-20T14:30:36Z</time>
      </trkpt>
      <trkpt lat="43.2095" lon="0.91098">
        <ele>443.28022221624</ele>
        <time>2014-09-20T14:30:41Z</time>
      </trkpt>
      <trkpt lat="43.20947" lon="0.911">
        <ele>443.28022221624</ele>
        <time>2014-09-20T14:30:46Z</time>
      </trkpt>
      <trkpt lat="43.20946" lon="0.911">
        <ele>443.28022221624</ele>
        <time>2014-09-20T14:30:51Z</time>
      </trkpt>
      <trkpt lat="43.20944" lon="0.911">
        <ele>443.28022221624</ele>
        <time>2014-09-20T14:30:56Z</time>
      </trkpt>
      <trkpt lat="43.20938" lon="0.91098">
        <ele>442.34449646665</ele>
        <time>2014-09-20T14:31:01Z</time>
      </trkpt>
      <trkpt lat="43.20932" lon="0.91102">
        <ele>442.34449646665</ele>
        <time>2014-09-20T14:31:06Z</time>
      </trkpt>
      <trkpt lat="43.20927" lon="0.91101">
        <ele>440.86381757649</ele>
        <time>2014-09-20T14:31:11Z</time>
      </trkpt>
      <trkpt lat="43.20923" lon="0.911">
        <ele>440.86381757649</ele>
        <time>2014-09-20T14:31:16Z</time>
      </trkpt>
      <trkpt lat="43.20919" lon="0.91098">
        <ele>440.86381757649</ele>
        <time>2014-09-20T14:31:21Z</time>
      </trkpt>
      <trkpt lat="43.20914" lon="0.91096">
        <ele>439.05433540019</ele>
        <time>2014-09-20T14:31:26Z</time>
      </trkpt>
      <trkpt lat="43.2091" lon="0.91094">
        <ele>439.05433540019</ele>
        <time>2014-09-20T14:31:31Z</time>
      </trkpt>
      <trkpt lat="43.20905" lon="0.91093">
        <ele>438.34205998768</ele>
        <time>2014-09-20T14:31:36Z</time>
      </trkpt>
      <trkpt lat="43.20897" lon="0.91092">
        <ele>438.34205998768</ele>
        <time>2014-09-20T14:31:41Z</time>
      </trkpt>
      <trkpt lat="43.20891" lon="0.91092">
        <ele>437.68162064126</ele>
        <time>2014-09-20T14:31:46Z</time>
      </trkpt>
      <trkpt lat="43.20887" lon="0.91094">
        <ele>437.68162064126</ele>
        <time>2014-09-20T14:31:51Z</time>
      </trkpt>
      <trkpt lat="43.20883" lon="0.91093">
        <ele>437.68162064126</ele>
        <time>2014-09-20T14:31:56Z</time>
      </trkpt>
      <trkpt lat="43.20878" lon="0.91092">
        <ele>436.20504836994</ele>
        <time>2014-09-20T14:32:01Z</time>
      </trkpt>
      <trkpt lat="43.20872" lon="0.9109">
        <ele>436.20504836994</ele>
        <time>2014-09-20T14:32:06Z</time>
      </trkpt>
      <trkpt lat="43.20868" lon="0.91089">
        <ele>434.86846130279</ele>
        <time>2014-09-20T14:32:11Z</time>
      </trkpt>
      <trkpt lat="43.20864" lon="0.91086">
        <ele>434.86846130279</ele>
        <time>2014-09-20T14:32:16Z</time>
      </trkpt>
      <trkpt lat="43.2086" lon="0.91085">
        <ele>434.86846130279</ele>
        <time>2014-09-20T14:32:21Z</time>
      </trkpt>
      <trkpt lat="43.20856" lon="0.91085">
        <ele>433.9087343816</ele>
        <time>2014-09-20T14:32:26Z</time>
      </trkpt>
      <trkpt lat="43.20854" lon="0.91085">
        <ele>433.9087343816</ele>
        <time>2014-09-20T14:32:31Z</time>
      </trkpt>
      <trkpt lat="43.20854" lon="0.91085">
        <ele>433.9087343816</ele>
        <time>2014-09-20T14:32:36Z</time>
      </trkpt>
      <trkpt lat="43.20852" lon="0.91085">
        <ele>433.9087343816</ele>
        <time>2014-09-20T14:32:41Z</time>
      </trkpt>
      <trkpt lat="43.20848" lon="0.91083">
        <ele>433.9087343816</ele>
        <time>2014-09-20T14:32:46Z</time>
      </trkpt>
      <trkpt lat="43.20843" lon="0.91082">
        <ele>433.47211957047</ele>
        <time>2014-09-20T14:32:51Z</time>
      </trkpt>
      <trkpt lat="43.20838" lon="0.9108">
        <ele>433.47211957047</ele>
        <time>2014-09-20T14:32:56Z</time>
      </trkpt>
      <trkpt lat="43.20834" lon="0.91077">
        <ele>433.21698720981</ele>
        <time>2014-09-20T14:33:01Z</time>
      </trkpt>
      <trkpt lat="43.20828" lon="0.91075">
        <ele>433.21698720981</ele>
        <time>2014-09-20T14:33:06Z</time>
      </trkpt>
      <trkpt lat="43.20823" lon="0.91073">
        <ele>432.79737613849</ele>
        <time>2014-09-20T14:33:11Z</time>
      </trkpt>
      <trkpt lat="43.20818" lon="0.91072">
        <ele>432.79737613849</ele>
        <time>2014-09-20T14:33:16Z</time>
      </trkpt>
      <trkpt lat="43.20812" lon="0.91071">
        <ele>432.03722426688</ele>
        <time>2014-09-20T14:33:21Z</time>
      </trkpt>
      <trkpt lat="43.20805" lon="0.9107">
        <ele>432.03722426688</ele>
        <time>2014-09-20T14:33:26Z</time>
      </trkpt>
      <trkpt lat="43.20801" lon="0.91068">
        <ele>430.90397838922</ele>
        <time>2014-09-20T14:33:31Z</time>
      </trkpt>
      <trkpt lat="43.20795" lon="0.91066">
        <ele>430.90397838922</ele>
        <time>2014-09-20T14:33:36Z</time>
      </trkpt>
      <trkpt lat="43.2079" lon="0.91066">
        <ele>429.6999050171</ele>
        <time>2014-09-20T14:33:41Z</time>
      </trkpt>
      <trkpt lat="43.20787" lon="0.91067">
        <ele>429.6999050171</ele>
        <time>2014-09-20T14:33:46Z</time>
      </trkpt>
      <trkpt lat="43.20785" lon="0.91068">
        <ele>429.6999050171</ele>
        <time>2014-09-20T14:33:51Z</time>
      </trkpt>
      <trkpt lat="43.20784" lon="0.91068">
        <ele>429.6999050171</ele>
        <time>2014-09-20T14:33:56Z</time>
      </trkpt>
      <trkpt lat="43.20781" lon="0.91068">
        <ele>428.0855163226</ele>
        <time>2014-09-20T14:34:01Z</time>
      </trkpt>
      <trkpt lat="43.20777" lon="0.91068">
        <ele>428.0855163226</ele>
        <time>2014-09-20T14:34:06Z</time>
      </trkpt>
      <trkpt lat="43.20774" lon="0.91066">
        <ele>428.0855163226</ele>
        <time>2014-09-20T14:34:11Z</time>
      </trkpt>
      <trkpt lat="43.20768" lon="0.91066">
        <ele>426.55436740373</ele>
        <time>2014-09-20T14:34:16Z</time>
      </trkpt>
      <trkpt lat="43.20764" lon="0.91065">
        <ele>426.55436740373</ele>
        <time>2014-09-20T14:34:21Z</time>
      </trkpt>
      <trkpt lat="43.20759" lon="0.91064">
        <ele>425.43375517958</ele>
        <time>2014-09-20T14:34:26Z</time>
      </trkpt>
      <trkpt lat="43.20754" lon="0.91063">
        <ele>425.43375517958</ele>
        <time>2014-09-20T14:34:31Z</time>
      </trkpt>
      <trkpt lat="43.20751" lon="0.91062">
        <ele>425.43375517958</ele>
        <time>2014-09-20T14:34:36Z</time>
      </trkpt>
      <trkpt lat="43.20747" lon="0.9106">
        <ele>424.47809219357</ele>
        <time>2014-09-20T14:34:41Z</time>
      </trkpt>
      <trkpt lat="43.20742" lon="0.9106">
        <ele>424.47809219357</ele>
        <time>2014-09-20T14:34:46Z</time>
      </trkpt>
      <trkpt lat="43.20738" lon="0.91061">
        <ele>422.76756874398</ele>
        <time>2014-09-20T14:34:51Z</time>
      </trkpt>
      <trkpt lat="43.20731" lon="0.91061">
        <ele>422.76756874398</ele>
        <time>2014-09-20T14:34:56Z</time>
      </trkpt>
      <trkpt lat="43.20727" lon="0.9106">
        <ele>420.87869604495</ele>
        <time>2014-09-20T14:35:01Z</time>
      </trkpt>
      <trkpt lat="43.20722" lon="0.91058">
        <ele>420.87869604495</ele>
        <time>2014-09-20T14:35:06Z</time>
      </trkpt>
      <trkpt lat="43.20718" lon="0.91055">
        <ele>418.79844671952</ele>
        <time>2014-09-20T14:35:11Z</time>
      </trkpt>
      <trkpt lat="43.20717" lon="0.91049">
        <ele>418.79844671952</ele>
        <time>2014-09-20T14:35:16Z</time>
      </trkpt>
      <trkpt lat="43.20717" lon="0.91041">
        <ele>417.66810985899</ele>
        <time>2014-09-20T14:35:21Z</time>
      </trkpt>
      <trkpt lat="43.20719" lon="0.91034">
        <ele>417.66810985899</ele>
        <time>2014-09-20T14:35:26Z</time>
      </trkpt>
      <trkpt lat="43.20721" lon="0.91027">
        <ele>416.81307043299</ele>
        <time>2014-09-20T14:35:31Z</time>
      </trkpt>
      <trkpt lat="43.20723" lon="0.9102">
        <ele>416.81307043299</ele>
        <time>2014-09-20T14:35:36Z</time>
      </trkpt>
      <trkpt lat="43.20723" lon="0.91011">
        <ele>416.37122265152</ele>
        <time>2014-09-20T14:35:41Z</time>
      </trkpt>
      <trkpt lat="43.20725" lon="0.91003">
        <ele>416.37122265152</ele>
        <time>2014-09-20T14:35:46Z</time>
      </trkpt>
      <trkpt lat="43.20725" lon="0.90995">
        <ele>415.70532312665</ele>
        <time>2014-09-20T14:35:51Z</time>
      </trkpt>
      <trkpt lat="43.20726" lon="0.90987">
        <ele>415.70532312665</ele>
        <time>2014-09-20T14:35:56Z</time>
      </trkpt>
      <trkpt lat="43.20727" lon="0.90977">
        <ele>415.34958351513</ele>
        <time>2014-09-20T14:36:01Z</time>
      </trkpt>
      <trkpt lat="43.20732" lon="0.90969">
        <ele>415.34958351513</ele>
        <time>2014-09-20T14:36:06Z</time>
      </trkpt>
      <trkpt lat="43.20733" lon="0.9096">
        <ele>415.40895925936</ele>
        <time>2014-09-20T14:36:11Z</time>
      </trkpt>
      <trkpt lat="43.20736" lon="0.90953">
        <ele>415.40895925936</ele>
        <time>2014-09-20T14:36:16Z</time>
      </trkpt>
      <trkpt lat="43.20739" lon="0.90947">
        <ele>415.31658634805</ele>
        <time>2014-09-20T14:36:21Z</time>
      </trkpt>
      <trkpt lat="43.20742" lon="0.9094">
        <ele>415.31658634805</ele>
        <time>2014-09-20T14:36:26Z</time>
      </trkpt>
      <trkpt lat="43.20745" lon="0.90934">
        <ele>414.95115499707</ele>
        <time>2014-09-20T14:36:31Z</time>
      </trkpt>
      <trkpt lat="43.20748" lon="0.90927">
        <ele>414.95115499707</ele>
        <time>2014-09-20T14:36:36Z</time>
      </trkpt>
      <trkpt lat="43.20752" lon="0.90921">
        <ele>414.35953972646</ele>
        <time>2014-09-20T14:36:41Z</time>
      </trkpt>
      <trkpt lat="43.20754" lon="0.90913">
        <ele>414.35953972646</ele>
        <time>2014-09-20T14:36:46Z</time>
      </trkpt>
      <trkpt lat="43.20756" lon="0.90908">
        <ele>414.68104497914</ele>
        <time>2014-09-20T14:36:51Z</time>
      </trkpt>
      <trkpt lat="43.2076" lon="0.90903">
        <ele>414.68104497914</ele>
        <time>2014-09-20T14:36:56Z</time>
      </trkpt>
      <trkpt lat="43.20767" lon="0.909">
        <ele>415.26821218294</ele>
        <time>2014-09-20T14:37:01Z</time>
      </trkpt>
      <trkpt lat="43.20771" lon="0.90895">
        <ele>415.26821218294</ele>
        <time>2014-09-20T14:37:06Z</time>
      </trkpt>
      <trkpt lat="43.20776" lon="0.90889">
        <ele>415.90951238461</ele>
        <time>2014-09-20T14:37:11Z</time>
      </trkpt>
      <trkpt lat="43.20781" lon="0.90886">
        <ele>415.90951238461</ele>
        <time>2014-09-20T14:37:16Z</time>
      </trkpt>
      <trkpt lat="43.20785" lon="0.90883">
        <ele>417.5473075049</ele>
        <time>2014-09-20T14:37:21Z</time>
      </trkpt>
      <trkpt lat="43.2079" lon="0.9088">
        <ele>417.5473075049</ele>
        <time>2014-09-20T14:37:26Z</time>
      </trkpt>
      <trkpt lat="43.20794" lon="0.90876">
        <ele>418.77502230751</ele>
        <time>2014-09-20T14:37:31Z</time>
      </trkpt>
      <trkpt lat="43.20798" lon="0.90873">
        <ele>418.77502230751</ele>
        <time>2014-09-20T14:37:36Z</time>
      </trkpt>
      <trkpt lat="43.20799" lon="0.90872">
        <ele>418.77502230751</ele>
        <time>2014-09-20T14:37:41Z</time>
      </trkpt>
      <trkpt lat="43.208" lon="0.90874">
        <ele>418.77502230751</ele>
        <time>2014-09-20T14:37:46Z</time>
      </trkpt>
      <trkpt lat="43.208" lon="0.90874">
        <ele>418.77502230751</ele>
        <time>2014-09-20T14:37:51Z</time>
      </trkpt>
      <trkpt lat="43.208" lon="0.90875">
        <ele>418.77502230751</ele>
        <time>2014-09-20T14:37:56Z</time>
      </trkpt>
      <trkpt lat="43.20799" lon="0.90875">
        <ele>420.61080418503</ele>
        <time>2014-09-20T14:38:01Z</time>
      </trkpt>
      <trkpt lat="43.20798" lon="0.90874">
        <ele>420.61080418503</ele>
        <time>2014-09-20T14:38:06Z</time>
      </trkpt>
      <trkpt lat="43.20797" lon="0.90874">
        <ele>420.61080418503</ele>
        <time>2014-09-20T14:38:11Z</time>
      </trkpt>
      <trkpt lat="43.20797" lon="0.90875">
        <ele>420.61080418503</ele>
        <time>2014-09-20T14:38:16Z</time>
      </trkpt>
      <trkpt lat="43.20797" lon="0.90874">
        <ele>420.61080418503</ele>
        <time>2014-09-20T14:38:21Z</time>
      </trkpt>
      <trkpt lat="43.20796" lon="0.90874">
        <ele>420.61080418503</ele>
        <time>2014-09-20T14:38:26Z</time>
      </trkpt>
      <trkpt lat="43.20797" lon="0.90872">
        <ele>420.61080418503</ele>
        <time>2014-09-20T14:38:31Z</time>
      </trkpt>
      <trkpt lat="43.20796" lon="0.90872">
        <ele>420.61080418503</ele>
        <time>2014-09-20T14:38:36Z</time>
      </trkpt>
      <trkpt lat="43.20794" lon="0.90868">
        <ele>421.74823986513</ele>
        <time>2014-09-20T14:38:41Z</time>
      </trkpt>
      <trkpt lat="43.20794" lon="0.90863">
        <ele>421.74823986513</ele>
        <time>2014-09-20T14:38:46Z</time>
      </trkpt>
      <trkpt lat="43.20795" lon="0.9086">
        <ele>421.74823986513</ele>
        <time>2014-09-20T14:38:51Z</time>
      </trkpt>
      <trkpt lat="43.20795" lon="0.90859">
        <ele>421.74823986513</ele>
        <time>2014-09-20T14:38:56Z</time>
      </trkpt>
      <trkpt lat="43.20796" lon="0.90858">
        <ele>421.74823986513</ele>
        <time>2014-09-20T14:39:01Z</time>
      </trkpt>
      <trkpt lat="43.20796" lon="0.90856">
        <ele>422.2759298128</ele>
        <time>2014-09-20T14:39:06Z</time>
      </trkpt>
      <trkpt lat="43.20794" lon="0.90853">
        <ele>422.2759298128</ele>
        <time>2014-09-20T14:39:11Z</time>
      </trkpt>
      <trkpt lat="43.20796" lon="0.90852">
        <ele>422.2759298128</ele>
        <time>2014-09-20T14:39:16Z</time>
      </trkpt>
      <trkpt lat="43.20795" lon="0.90852">
        <ele>422.2759298128</ele>
        <time>2014-09-20T14:39:21Z</time>
      </trkpt>
      <trkpt lat="43.2079" lon="0.90849">
        <ele>422.27777242457</ele>
        <time>2014-09-20T14:39:26Z</time>
      </trkpt>
      <trkpt lat="43.20787" lon="0.9084">
        <ele>422.27777242457</ele>
        <time>2014-09-20T14:39:31Z</time>
      </trkpt>
      <trkpt lat="43.20786" lon="0.90831">
        <ele>422.65451492434</ele>
        <time>2014-09-20T14:39:36Z</time>
      </trkpt>
      <trkpt lat="43.20784" lon="0.90823">
        <ele>422.65451492434</ele>
        <time>2014-09-20T14:39:41Z</time>
      </trkpt>
      <trkpt lat="43.2078" lon="0.90814">
        <ele>422.35193374702</ele>
        <time>2014-09-20T14:39:46Z</time>
      </trkpt>
      <trkpt lat="43.20783" lon="0.90804">
        <ele>422.35193374702</ele>
        <time>2014-09-20T14:39:51Z</time>
      </trkpt>
      <trkpt lat="43.20784" lon="0.90798">
        <ele>421.49050301718</ele>
        <time>2014-09-20T14:39:56Z</time>
      </trkpt>
      <trkpt lat="43.20786" lon="0.90792">
        <ele>421.49050301718</ele>
        <time>2014-09-20T14:40:01Z</time>
      </trkpt>
      <trkpt lat="43.20787" lon="0.90787">
        <ele>421.49050301718</ele>
        <time>2014-09-20T14:40:06Z</time>
      </trkpt>
      <trkpt lat="43.20787" lon="0.90783">
        <ele>419.8808809367</ele>
        <time>2014-09-20T14:40:11Z</time>
      </trkpt>
      <trkpt lat="43.20788" lon="0.90778">
        <ele>419.8808809367</ele>
        <time>2014-09-20T14:40:16Z</time>
      </trkpt>
      <trkpt lat="43.20788" lon="0.90773">
        <ele>419.8808809367</ele>
        <time>2014-09-20T14:40:21Z</time>
      </trkpt>
      <trkpt lat="43.20788" lon="0.90768">
        <ele>418.11361452842</ele>
        <time>2014-09-20T14:40:26Z</time>
      </trkpt>
      <trkpt lat="43.2079" lon="0.90763">
        <ele>418.11361452842</ele>
        <time>2014-09-20T14:40:31Z</time>
      </trkpt>
      <trkpt lat="43.20794" lon="0.90758">
        <ele>416.95256002126</ele>
        <time>2014-09-20T14:40:36Z</time>
      </trkpt>
      <trkpt lat="43.20795" lon="0.90753">
        <ele>416.95256002126</ele>
        <time>2014-09-20T14:40:41Z</time>
      </trkpt>
      <trkpt lat="43.20797" lon="0.90748">
        <ele>416.95256002126</ele>
        <time>2014-09-20T14:40:46Z</time>
      </trkpt>
      <trkpt lat="43.20799" lon="0.90744">
        <ele>416.45533140272</ele>
        <time>2014-09-20T14:40:51Z</time>
      </trkpt>
      <trkpt lat="43.208" lon="0.90738">
        <ele>416.45533140272</ele>
        <time>2014-09-20T14:40:56Z</time>
      </trkpt>
      <trkpt lat="43.20801" lon="0.90733">
        <ele>416.45533140272</ele>
        <time>2014-09-20T14:41:01Z</time>
      </trkpt>
      <trkpt lat="43.20804" lon="0.90729">
        <ele>416.90408966732</ele>
        <time>2014-09-20T14:41:06Z</time>
      </trkpt>
      <trkpt lat="43.20805" lon="0.90724">
        <ele>416.90408966732</ele>
        <time>2014-09-20T14:41:11Z</time>
      </trkpt>
      <trkpt lat="43.20805" lon="0.90718">
        <ele>416.90408966732</ele>
        <time>2014-09-20T14:41:16Z</time>
      </trkpt>
      <trkpt lat="43.20804" lon="0.90712">
        <ele>418.31268761653</ele>
        <time>2014-09-20T14:41:21Z</time>
      </trkpt>
      <trkpt lat="43.20806" lon="0.90705">
        <ele>418.31268761653</ele>
        <time>2014-09-20T14:41:26Z</time>
      </trkpt>
      <trkpt lat="43.20807" lon="0.90698">
        <ele>419.55285484373</ele>
        <time>2014-09-20T14:41:31Z</time>
      </trkpt>
      <trkpt lat="43.20809" lon="0.90692">
        <ele>419.55285484373</ele>
        <time>2014-09-20T14:41:36Z</time>
      </trkpt>
      <trkpt lat="43.2081" lon="0.90685">
        <ele>420.91998225189</ele>
        <time>2014-09-20T14:41:41Z</time>
      </trkpt>
      <trkpt lat="43.20811" lon="0.90679">
        <ele>420.91998225189</ele>
        <time>2014-09-20T14:41:46Z</time>
      </trkpt>
      <trkpt lat="43.20813" lon="0.90672">
        <ele>422.55778848756</ele>
        <time>2014-09-20T14:41:51Z</time>
      </trkpt>
      <trkpt lat="43.20815" lon="0.90666">
        <ele>422.55778848756</ele>
        <time>2014-09-20T14:41:56Z</time>
      </trkpt>
      <trkpt lat="43.20817" lon="0.9066">
        <ele>423.99350218966</ele>
        <time>2014-09-20T14:42:01Z</time>
      </trkpt>
      <trkpt lat="43.20819" lon="0.90654">
        <ele>423.99350218966</ele>
        <time>2014-09-20T14:42:06Z</time>
      </trkpt>
      <trkpt lat="43.2082" lon="0.90649">
        <ele>423.99350218966</ele>
        <time>2014-09-20T14:42:11Z</time>
      </trkpt>
      <trkpt lat="43.20821" lon="0.90644">
        <ele>425.19326274264</ele>
        <time>2014-09-20T14:42:16Z</time>
      </trkpt>
      <trkpt lat="43.20822" lon="0.90636">
        <ele>425.19326274264</ele>
        <time>2014-09-20T14:42:21Z</time>
      </trkpt>
      <trkpt lat="43.20825" lon="0.90629">
        <ele>425.69413544658</ele>
        <time>2014-09-20T14:42:26Z</time>
      </trkpt>
      <trkpt lat="43.20827" lon="0.90622">
        <ele>425.69413544658</ele>
        <time>2014-09-20T14:42:31Z</time>
      </trkpt>
      <trkpt lat="43.2083" lon="0.90615">
        <ele>426.52479131165</ele>
        <time>2014-09-20T14:42:36Z</time>
      </trkpt>
      <trkpt lat="43.2083" lon="0.90606">
        <ele>426.52479131165</ele>
        <time>2014-09-20T14:42:41Z</time>
      </trkpt>
      <trkpt lat="43.20831" lon="0.90599">
        <ele>427.36935065104</ele>
        <time>2014-09-20T14:42:46Z</time>
      </trkpt>
      <trkpt lat="43.20833" lon="0.90593">
        <ele>427.36935065104</ele>
        <time>2014-09-20T14:42:51Z</time>
      </trkpt>
      <trkpt lat="43.20833" lon="0.90585">
        <ele>428.05050728762</ele>
        <time>2014-09-20T14:42:56Z</time>
      </trkpt>
      <trkpt lat="43.20834" lon="0.9058">
        <ele>428.05050728762</ele>
        <time>2014-09-20T14:43:01Z</time>
      </trkpt>
      <trkpt lat="43.20835" lon="0.90573">
        <ele>428.30367897902</ele>
        <time>2014-09-20T14:43:06Z</time>
      </trkpt>
      <trkpt lat="43.20837" lon="0.90565">
        <ele>428.30367897902</ele>
        <time>2014-09-20T14:43:11Z</time>
      </trkpt>
      <trkpt lat="43.20839" lon="0.90557">
        <ele>428.41824835563</ele>
        <time>2014-09-20T14:43:16Z</time>
      </trkpt>
      <trkpt lat="43.20843" lon="0.90551">
        <ele>428.41824835563</ele>
        <time>2014-09-20T14:43:21Z</time>
      </trkpt>
      <trkpt lat="43.20845" lon="0.90545">
        <ele>428.48990911895</ele>
        <time>2014-09-20T14:43:26Z</time>
      </trkpt>
      <trkpt lat="43.20846" lon="0.90538">
        <ele>428.48990911895</ele>
        <time>2014-09-20T14:43:31Z</time>
      </trkpt>
      <trkpt lat="43.20846" lon="0.90534">
        <ele>428.48990911895</ele>
        <time>2014-09-20T14:43:36Z</time>
      </trkpt>
      <trkpt lat="43.20848" lon="0.90528">
        <ele>428.43462079237</ele>
        <time>2014-09-20T14:43:41Z</time>
      </trkpt>
      <trkpt lat="43.20848" lon="0.90523">
        <ele>428.43462079237</ele>
        <time>2014-09-20T14:43:46Z</time>
      </trkpt>
      <trkpt lat="43.20848" lon="0.90523">
        <ele>428.43462079237</ele>
        <time>2014-09-20T14:43:51Z</time>
      </trkpt>
      <trkpt lat="43.20846" lon="0.90523">
        <ele>428.43462079237</ele>
        <time>2014-09-20T14:43:56Z</time>
      </trkpt>
      <trkpt lat="43.20844" lon="0.90519">
        <ele>427.49765089834</ele>
        <time>2014-09-20T14:44:01Z</time>
      </trkpt>
      <trkpt lat="43.20842" lon="0.90514">
        <ele>427.49765089834</ele>
        <time>2014-09-20T14:44:06Z</time>
      </trkpt>
      <trkpt lat="43.20835" lon="0.90511">
        <ele>425.65959514047</ele>
        <time>2014-09-20T14:44:11Z</time>
      </trkpt>
      <trkpt lat="43.20828" lon="0.90511">
        <ele>425.65959514047</ele>
        <time>2014-09-20T14:44:16Z</time>
      </trkpt>
      <trkpt lat="43.20821" lon="0.90506">
        <ele>423.55357889953</ele>
        <time>2014-09-20T14:44:21Z</time>
      </trkpt>
      <trkpt lat="43.20815" lon="0.90504">
        <ele>423.55357889953</ele>
        <time>2014-09-20T14:44:26Z</time>
      </trkpt>
      <trkpt lat="43.20808" lon="0.90501">
        <ele>422.47317569225</ele>
        <time>2014-09-20T14:44:31Z</time>
      </trkpt>
      <trkpt lat="43.20804" lon="0.90498">
        <ele>422.47317569225</ele>
        <time>2014-09-20T14:44:36Z</time>
      </trkpt>
      <trkpt lat="43.208" lon="0.90498">
        <ele>421.38037773356</ele>
        <time>2014-09-20T14:44:41Z</time>
      </trkpt>
      <trkpt lat="43.20796" lon="0.90498">
        <ele>421.38037773356</ele>
        <time>2014-09-20T14:44:46Z</time>
      </trkpt>
      <trkpt lat="43.20793" lon="0.90498">
        <ele>421.38037773356</ele>
        <time>2014-09-20T14:44:51Z</time>
      </trkpt>
      <trkpt lat="43.20792" lon="0.90497">
        <ele>421.38037773356</ele>
        <time>2014-09-20T14:44:56Z</time>
      </trkpt>
      <trkpt lat="43.20792" lon="0.90495">
        <ele>420.66813797223</ele>
        <time>2014-09-20T14:45:01Z</time>
      </trkpt>
      <trkpt lat="43.20791" lon="0.90494">
        <ele>420.66813797223</ele>
        <time>2014-09-20T14:45:06Z</time>
      </trkpt>
      <trkpt lat="43.2079" lon="0.90495">
        <ele>420.66813797223</ele>
        <time>2014-09-20T14:45:11Z</time>
      </trkpt>
      <trkpt lat="43.2079" lon="0.90495">
        <ele>420.66813797223</ele>
        <time>2014-09-20T14:45:16Z</time>
      </trkpt>
      <trkpt lat="43.20789" lon="0.90494">
        <ele>420.66813797223</ele>
        <time>2014-09-20T14:45:21Z</time>
      </trkpt>
      <trkpt lat="43.20786" lon="0.9049">
        <ele>420.66813797223</ele>
        <time>2014-09-20T14:45:26Z</time>
      </trkpt>
      <trkpt lat="43.20786" lon="0.90485">
        <ele>419.87806012091</ele>
        <time>2014-09-20T14:45:31Z</time>
      </trkpt>
      <trkpt lat="43.20785" lon="0.90485">
        <ele>419.87806012091</ele>
        <time>2014-09-20T14:45:36Z</time>
      </trkpt>
      <trkpt lat="43.20786" lon="0.90486">
        <ele>419.87806012091</ele>
        <time>2014-09-20T14:45:41Z</time>
      </trkpt>
      <trkpt lat="43.20788" lon="0.90489">
        <ele>419.87806012091</ele>
        <time>2014-09-20T14:45:46Z</time>
      </trkpt>
      <trkpt lat="43.2079" lon="0.90492">
        <ele>419.87806012091</ele>
        <time>2014-09-20T14:45:51Z</time>
      </trkpt>
      <trkpt lat="43.20791" lon="0.90492">
        <ele>419.34943888816</ele>
        <time>2014-09-20T14:45:56Z</time>
      </trkpt>
      <trkpt lat="43.20792" lon="0.90492">
        <ele>419.34943888816</ele>
        <time>2014-09-20T14:46:01Z</time>
      </trkpt>
      <trkpt lat="43.20791" lon="0.90491">
        <ele>419.34943888816</ele>
        <time>2014-09-20T14:46:06Z</time>
      </trkpt>
      <trkpt lat="43.2079" lon="0.90491">
        <ele>419.34943888816</ele>
        <time>2014-09-20T14:46:11Z</time>
      </trkpt>
      <trkpt lat="43.20789" lon="0.9049">
        <ele>419.34943888816</ele>
        <time>2014-09-20T14:46:16Z</time>
      </trkpt>
      <trkpt lat="43.20789" lon="0.90489">
        <ele>419.34943888816</ele>
        <time>2014-09-20T14:46:21Z</time>
      </trkpt>
      <trkpt lat="43.20789" lon="0.9049">
        <ele>419.34943888816</ele>
        <time>2014-09-20T14:46:26Z</time>
      </trkpt>
      <trkpt lat="43.20789" lon="0.90491">
        <ele>419.34943888816</ele>
        <time>2014-09-20T14:46:31Z</time>
      </trkpt>
      <trkpt lat="43.20789" lon="0.90491">
        <ele>419.34943888816</ele>
        <time>2014-09-20T14:46:36Z</time>
      </trkpt>
      <trkpt lat="43.20789" lon="0.90489">
        <ele>419.34943888816</ele>
        <time>2014-09-20T14:46:41Z</time>
      </trkpt>
      <trkpt lat="43.20789" lon="0.90488">
        <ele>419.34943888816</ele>
        <time>2014-09-20T14:46:46Z</time>
      </trkpt>
      <trkpt lat="43.20789" lon="0.90481">
        <ele>418.96358118443</ele>
        <time>2014-09-20T14:46:51Z</time>
      </trkpt>
      <trkpt lat="43.20792" lon="0.90473">
        <ele>418.96358118443</ele>
        <time>2014-09-20T14:46:56Z</time>
      </trkpt>
      <trkpt lat="43.20795" lon="0.90465">
        <ele>418.1489548149</ele>
        <time>2014-09-20T14:47:01Z</time>
      </trkpt>
      <trkpt lat="43.20798" lon="0.90457">
        <ele>418.1489548149</ele>
        <time>2014-09-20T14:47:06Z</time>
      </trkpt>
      <trkpt lat="43.20803" lon="0.90449">
        <ele>417.55891978554</ele>
        <time>2014-09-20T14:47:11Z</time>
      </trkpt>
      <trkpt lat="43.20807" lon="0.90443">
        <ele>417.55891978554</ele>
        <time>2014-09-20T14:47:16Z</time>
      </trkpt>
      <trkpt lat="43.2081" lon="0.90436">
        <ele>416.29944254032</ele>
        <time>2014-09-20T14:47:21Z</time>
      </trkpt>
      <trkpt lat="43.20814" lon="0.90428">
        <ele>416.29944254032</ele>
        <time>2014-09-20T14:47:26Z</time>
      </trkpt>
      <trkpt lat="43.20818" lon="0.9042">
        <ele>415.27335915536</ele>
        <time>2014-09-20T14:47:31Z</time>
      </trkpt>
      <trkpt lat="43.20823" lon="0.9041">
        <ele>415.27335915536</ele>
        <time>2014-09-20T14:47:36Z</time>
      </trkpt>
      <trkpt lat="43.20827" lon="0.90401">
        <ele>414.52389439257</ele>
        <time>2014-09-20T14:47:41Z</time>
      </trkpt>
      <trkpt lat="43.20832" lon="0.90391">
        <ele>414.52389439257</ele>
        <time>2014-09-20T14:47:46Z</time>
      </trkpt>
      <trkpt lat="43.20837" lon="0.90382">
        <ele>414.40733857849</ele>
        <time>2014-09-20T14:47:51Z</time>
      </trkpt>
      <trkpt lat="43.20841" lon="0.90381">
        <ele>414.40733857849</ele>
        <time>2014-09-20T14:47:56Z</time>
      </trkpt>
      <trkpt lat="43.20839" lon="0.90379">
        <ele>414.40733857849</ele>
        <time>2014-09-20T14:48:01Z</time>
      </trkpt>
      <trkpt lat="43.20837" lon="0.90371">
        <ele>414.81967035189</ele>
        <time>2014-09-20T14:48:06Z</time>
      </trkpt>
      <trkpt lat="43.20835" lon="0.90367">
        <ele>414.81967035189</ele>
        <time>2014-09-20T14:48:11Z</time>
      </trkpt>
      <trkpt lat="43.20833" lon="0.90366">
        <ele>414.81967035189</ele>
        <time>2014-09-20T14:48:16Z</time>
      </trkpt>
      <trkpt lat="43.20834" lon="0.90368">
        <ele>414.81967035189</ele>
        <time>2014-09-20T14:48:21Z</time>
      </trkpt>
      <trkpt lat="43.20836" lon="0.90372">
        <ele>414.30835068238</ele>
        <time>2014-09-20T14:48:26Z</time>
      </trkpt>
      <trkpt lat="43.20838" lon="0.90374">
        <ele>414.30835068238</ele>
        <time>2014-09-20T14:48:31Z</time>
      </trkpt>
      <trkpt lat="43.20838" lon="0.90375">
        <ele>414.30835068238</ele>
        <time>2014-09-20T14:48:36Z</time>
      </trkpt>
      <trkpt lat="43.20837" lon="0.90373">
        <ele>414.30835068238</ele>
        <time>2014-09-20T14:48:41Z</time>
      </trkpt>
      <trkpt lat="43.20835" lon="0.90369">
        <ele>414.30835068238</ele>
        <time>2014-09-20T14:48:46Z</time>
      </trkpt>
      <trkpt lat="43.20833" lon="0.90367">
        <ele>414.29704028584</ele>
        <time>2014-09-20T14:48:51Z</time>
      </trkpt>
      <trkpt lat="43.2083" lon="0.90364">
        <ele>414.29704028584</ele>
        <time>2014-09-20T14:48:56Z</time>
      </trkpt>
      <trkpt lat="43.20826" lon="0.90359">
        <ele>414.29704028584</ele>
        <time>2014-09-20T14:49:01Z</time>
      </trkpt>
      <trkpt lat="43.20821" lon="0.90355">
        <ele>414.96491302228</ele>
        <time>2014-09-20T14:49:06Z</time>
      </trkpt>
      <trkpt lat="43.20817" lon="0.90349">
        <ele>414.96491302228</ele>
        <time>2014-09-20T14:49:11Z</time>
      </trkpt>
      <trkpt lat="43.20814" lon="0.90343">
        <ele>415.52492120989</ele>
        <time>2014-09-20T14:49:16Z</time>
      </trkpt>
      <trkpt lat="43.20809" lon="0.90338">
        <ele>415.52492120989</ele>
        <time>2014-09-20T14:49:21Z</time>
      </trkpt>
      <trkpt lat="43.20804" lon="0.90333">
        <ele>416.4730657812</ele>
        <time>2014-09-20T14:49:26Z</time>
      </trkpt>
      <trkpt lat="43.20798" lon="0.90328">
        <ele>416.4730657812</ele>
        <time>2014-09-20T14:49:31Z</time>
      </trkpt>
      <trkpt lat="43.20792" lon="0.90323">
        <ele>417.5328487134</ele>
        <time>2014-09-20T14:49:36Z</time>
      </trkpt>
      <trkpt lat="43.20786" lon="0.90319">
        <ele>417.5328487134</ele>
        <time>2014-09-20T14:49:41Z</time>
      </trkpt>
      <trkpt lat="43.20781" lon="0.90314">
        <ele>418.33248237935</ele>
        <time>2014-09-20T14:49:46Z</time>
      </trkpt>
      <trkpt lat="43.20777" lon="0.90309">
        <ele>418.33248237935</ele>
        <time>2014-09-20T14:49:51Z</time>
      </trkpt>
      <trkpt lat="43.20775" lon="0.90308">
        <ele>418.33248237935</ele>
        <time>2014-09-20T14:49:56Z</time>
      </trkpt>
      <trkpt lat="43.2077" lon="0.90302">
        <ele>419.30643019988</ele>
        <time>2014-09-20T14:50:01Z</time>
      </trkpt>
      <trkpt lat="43.20765" lon="0.90297">
        <ele>419.30643019988</ele>
        <time>2014-09-20T14:50:06Z</time>
      </trkpt>
      <trkpt lat="43.20758" lon="0.90292">
        <ele>419.01214397869</ele>
        <time>2014-09-20T14:50:11Z</time>
      </trkpt>
      <trkpt lat="43.2075" lon="0.9029">
        <ele>419.01214397869</ele>
        <time>2014-09-20T14:50:16Z</time>
      </trkpt>
      <trkpt lat="43.20744" lon="0.90286">
        <ele>418.73944491458</ele>
        <time>2014-09-20T14:50:21Z</time>
      </trkpt>
      <trkpt lat="43.20739" lon="0.90283">
        <ele>418.73944491458</ele>
        <time>2014-09-20T14:50:26Z</time>
      </trkpt>
      <trkpt lat="43.20733" lon="0.90281">
        <ele>418.77546494385</ele>
        <time>2014-09-20T14:50:31Z</time>
      </trkpt>
      <trkpt lat="43.20728" lon="0.90276">
        <ele>418.77546494385</ele>
        <time>2014-09-20T14:50:36Z</time>
      </trkpt>
      <trkpt lat="43.20725" lon="0.90268">
        <ele>419.02512050785</ele>
        <time>2014-09-20T14:50:41Z</time>
      </trkpt>
      <trkpt lat="43.2072" lon="0.90263">
        <ele>419.02512050785</ele>
        <time>2014-09-20T14:50:46Z</time>
      </trkpt>
      <trkpt lat="43.20717" lon="0.90257">
        <ele>419.01063297319</ele>
        <time>2014-09-20T14:50:51Z</time>
      </trkpt>
      <trkpt lat="43.20712" lon="0.90249">
        <ele>419.01063297319</ele>
        <time>2014-09-20T14:50:56Z</time>
      </trkpt>
      <trkpt lat="43.20708" lon="0.90243">
        <ele>418.46301348794</ele>
        <time>2014-09-20T14:51:01Z</time>
      </trkpt>
      <trkpt lat="43.20702" lon="0.9024">
        <ele>418.46301348794</ele>
        <time>2014-09-20T14:51:06Z</time>
      </trkpt>
      <trkpt lat="43.20697" lon="0.90237">
        <ele>418.27302352993</ele>
        <time>2014-09-20T14:51:11Z</time>
      </trkpt>
      <trkpt lat="43.20691" lon="0.90232">
        <ele>418.27302352993</ele>
        <time>2014-09-20T14:51:16Z</time>
      </trkpt>
      <trkpt lat="43.20685" lon="0.90228">
        <ele>418.12652303345</ele>
        <time>2014-09-20T14:51:21Z</time>
      </trkpt>
      <trkpt lat="43.20679" lon="0.90221">
        <ele>418.12652303345</ele>
        <time>2014-09-20T14:51:26Z</time>
      </trkpt>
      <trkpt lat="43.20674" lon="0.90214">
        <ele>416.95413660196</ele>
        <time>2014-09-20T14:51:31Z</time>
      </trkpt>
      <trkpt lat="43.20669" lon="0.90209">
        <ele>416.95413660196</ele>
        <time>2014-09-20T14:51:36Z</time>
      </trkpt>
      <trkpt lat="43.20664" lon="0.90203">
        <ele>416.03047329209</ele>
        <time>2014-09-20T14:51:41Z</time>
      </trkpt>
      <trkpt lat="43.2066" lon="0.90196">
        <ele>416.03047329209</ele>
        <time>2014-09-20T14:51:46Z</time>
      </trkpt>
      <trkpt lat="43.20656" lon="0.90189">
        <ele>415.48380133022</ele>
        <time>2014-09-20T14:51:51Z</time>
      </trkpt>
      <trkpt lat="43.2065" lon="0.90181">
        <ele>415.48380133022</ele>
        <time>2014-09-20T14:51:56Z</time>
      </trkpt>
      <trkpt lat="43.20644" lon="0.90178">
        <ele>414.3078354666</ele>
        <time>2014-09-20T14:52:01Z</time>
      </trkpt>
      <trkpt lat="43.20637" lon="0.90174">
        <ele>414.3078354666</ele>
        <time>2014-09-20T14:52:06Z</time>
      </trkpt>
      <trkpt lat="43.20629" lon="0.90171">
        <ele>412.75367435214</ele>
        <time>2014-09-20T14:52:11Z</time>
      </trkpt>
      <trkpt lat="43.20623" lon="0.90163">
        <ele>412.75367435214</ele>
        <time>2014-09-20T14:52:16Z</time>
      </trkpt>
      <trkpt lat="43.20619" lon="0.90154">
        <ele>412.09261191946</ele>
        <time>2014-09-20T14:52:21Z</time>
      </trkpt>
      <trkpt lat="43.20615" lon="0.90146">
        <ele>412.09261191946</ele>
        <time>2014-09-20T14:52:26Z</time>
      </trkpt>
      <trkpt lat="43.2061" lon="0.90136">
        <ele>411.35276502652</ele>
        <time>2014-09-20T14:52:31Z</time>
      </trkpt>
      <trkpt lat="43.20606" lon="0.90126">
        <ele>411.35276502652</ele>
        <time>2014-09-20T14:52:36Z</time>
      </trkpt>
      <trkpt lat="43.20603" lon="0.90117">
        <ele>410.78672276634</ele>
        <time>2014-09-20T14:52:41Z</time>
      </trkpt>
      <trkpt lat="43.20599" lon="0.90109">
        <ele>410.78672276634</ele>
        <time>2014-09-20T14:52:46Z</time>
      </trkpt>
      <trkpt lat="43.20595" lon="0.90102">
        <ele>410.21007368278</ele>
        <time>2014-09-20T14:52:51Z</time>
      </trkpt>
      <trkpt lat="43.20593" lon="0.90096">
        <ele>410.21007368278</ele>
        <time>2014-09-20T14:52:56Z</time>
      </trkpt>
      <trkpt lat="43.20591" lon="0.90091">
        <ele>409.68252353718</ele>
        <time>2014-09-20T14:53:01Z</time>
      </trkpt>
      <trkpt lat="43.20588" lon="0.90083">
        <ele>409.68252353718</ele>
        <time>2014-09-20T14:53:06Z</time>
      </trkpt>
      <trkpt lat="43.20584" lon="0.90074">
        <ele>409.36009432006</ele>
        <time>2014-09-20T14:53:11Z</time>
      </trkpt>
      <trkpt lat="43.2058" lon="0.90066">
        <ele>409.36009432006</ele>
        <time>2014-09-20T14:53:16Z</time>
      </trkpt>
      <trkpt lat="43.20574" lon="0.90059">
        <ele>408.43559869072</ele>
        <time>2014-09-20T14:53:21Z</time>
      </trkpt>
      <trkpt lat="43.2057" lon="0.90051">
        <ele>408.43559869072</ele>
        <time>2014-09-20T14:53:26Z</time>
      </trkpt>
      <trkpt lat="43.20568" lon="0.90042">
        <ele>408.36769607311</ele>
        <time>2014-09-20T14:53:31Z</time>
      </trkpt>
      <trkpt lat="43.20565" lon="0.90034">
        <ele>408.36769607311</ele>
        <time>2014-09-20T14:53:36Z</time>
      </trkpt>
      <trkpt lat="43.20562" lon="0.90025">
        <ele>408.92023114884</ele>
        <time>2014-09-20T14:53:41Z</time>
      </trkpt>
      <trkpt lat="43.2056" lon="0.90016">
        <ele>408.92023114884</ele>
        <time>2014-09-20T14:53:46Z</time>
      </trkpt>
      <trkpt lat="43.20559" lon="0.90011">
        <ele>409.38264469769</ele>
        <time>2014-09-20T14:53:51Z</time>
      </trkpt>
      <trkpt lat="43.20557" lon="0.90008">
        <ele>409.38264469769</ele>
        <time>2014-09-20T14:53:56Z</time>
      </trkpt>
      <trkpt lat="43.20552" lon="0.9">
        <ele>409.35619885538</ele>
        <time>2014-09-20T14:54:01Z</time>
      </trkpt>
      <trkpt lat="43.20548" lon="0.89991">
        <ele>409.35619885538</ele>
        <time>2014-09-20T14:54:06Z</time>
      </trkpt>
      <trkpt lat="43.20544" lon="0.89984">
        <ele>409.35187327222</ele>
        <time>2014-09-20T14:54:11Z</time>
      </trkpt>
      <trkpt lat="43.20541" lon="0.89975">
        <ele>409.35187327222</ele>
        <time>2014-09-20T14:54:16Z</time>
      </trkpt>
      <trkpt lat="43.20537" lon="0.89968">
        <ele>409.61245392408</ele>
        <time>2014-09-20T14:54:21Z</time>
      </trkpt>
      <trkpt lat="43.20534" lon="0.8996">
        <ele>409.61245392408</ele>
        <time>2014-09-20T14:54:26Z</time>
      </trkpt>
      <trkpt lat="43.20531" lon="0.89953">
        <ele>409.65599063774</ele>
        <time>2014-09-20T14:54:31Z</time>
      </trkpt>
      <trkpt lat="43.20527" lon="0.89947">
        <ele>409.65599063774</ele>
        <time>2014-09-20T14:54:36Z</time>
      </trkpt>
      <trkpt lat="43.20525" lon="0.89941">
        <ele>409.25270195591</ele>
        <time>2014-09-20T14:54:41Z</time>
      </trkpt>
      <trkpt lat="43.20525" lon="0.8994">
        <ele>409.25270195591</ele>
        <time>2014-09-20T14:54:46Z</time>
      </trkpt>
      <trkpt lat="43.20525" lon="0.89941">
        <ele>409.25270195591</ele>
        <time>2014-09-20T14:54:51Z</time>
      </trkpt>
      <trkpt lat="43.20525" lon="0.89941">
        <ele>409.25270195591</ele>
        <time>2014-09-20T14:54:56Z</time>
      </trkpt>
      <trkpt lat="43.20526" lon="0.89941">
        <ele>409.25270195591</ele>
        <time>2014-09-20T14:55:01Z</time>
      </trkpt>
      <trkpt lat="43.20526" lon="0.89942">
        <ele>409.25270195591</ele>
        <time>2014-09-20T14:55:06Z</time>
      </trkpt>
      <trkpt lat="43.20526" lon="0.89946">
        <ele>409.25270195591</ele>
        <time>2014-09-20T14:55:11Z</time>
      </trkpt>
      <trkpt lat="43.20527" lon="0.89948">
        <ele>409.25270195591</ele>
        <time>2014-09-20T14:55:16Z</time>
      </trkpt>
      <trkpt lat="43.20527" lon="0.89946">
        <ele>409.25270195591</ele>
        <time>2014-09-20T14:55:21Z</time>
      </trkpt>
      <trkpt lat="43.20527" lon="0.89939">
        <ele>408.13328514917</ele>
        <time>2014-09-20T14:55:26Z</time>
      </trkpt>
      <trkpt lat="43.20532" lon="0.89937">
        <ele>408.13328514917</ele>
        <time>2014-09-20T14:55:31Z</time>
      </trkpt>
      <trkpt lat="43.20536" lon="0.89936">
        <ele>407.20310783287</ele>
        <time>2014-09-20T14:55:36Z</time>
      </trkpt>
      <trkpt lat="43.20541" lon="0.89935">
        <ele>407.20310783287</ele>
        <time>2014-09-20T14:55:41Z</time>
      </trkpt>
      <trkpt lat="43.20546" lon="0.89933">
        <ele>406.62316317396</ele>
        <time>2014-09-20T14:55:46Z</time>
      </trkpt>
      <trkpt lat="43.20551" lon="0.89931">
        <ele>406.62316317396</ele>
        <time>2014-09-20T14:55:51Z</time>
      </trkpt>
      <trkpt lat="43.20557" lon="0.89931">
        <ele>405.54725063649</ele>
        <time>2014-09-20T14:55:56Z</time>
      </trkpt>
      <trkpt lat="43.20563" lon="0.89931">
        <ele>405.54725063649</ele>
        <time>2014-09-20T14:56:01Z</time>
      </trkpt>
      <trkpt lat="43.2057" lon="0.89929">
        <ele>404.63381215928</ele>
        <time>2014-09-20T14:56:06Z</time>
      </trkpt>
      <trkpt lat="43.20578" lon="0.89928">
        <ele>404.63381215928</ele>
        <time>2014-09-20T14:56:11Z</time>
      </trkpt>
      <trkpt lat="43.20586" lon="0.89927">
        <ele>404.03128432936</ele>
        <time>2014-09-20T14:56:16Z</time>
      </trkpt>
      <trkpt lat="43.20593" lon="0.89926">
        <ele>404.03128432936</ele>
        <time>2014-09-20T14:56:21Z</time>
      </trkpt>
      <trkpt lat="43.20599" lon="0.89926">
        <ele>403.38632176146</ele>
        <time>2014-09-20T14:56:26Z</time>
      </trkpt>
      <trkpt lat="43.20605" lon="0.89925">
        <ele>403.38632176146</ele>
        <time>2014-09-20T14:56:31Z</time>
      </trkpt>
      <trkpt lat="43.20611" lon="0.89924">
        <ele>402.87601407635</ele>
        <time>2014-09-20T14:56:36Z</time>
      </trkpt>
      <trkpt lat="43.20617" lon="0.89921">
        <ele>402.87601407635</ele>
        <time>2014-09-20T14:56:41Z</time>
      </trkpt>
      <trkpt lat="43.20624" lon="0.8992">
        <ele>402.67844549848</ele>
        <time>2014-09-20T14:56:46Z</time>
      </trkpt>
      <trkpt lat="43.20631" lon="0.89918">
        <ele>402.67844549848</ele>
        <time>2014-09-20T14:56:51Z</time>
      </trkpt>
      <trkpt lat="43.20639" lon="0.89917">
        <ele>402.69831231232</ele>
        <time>2014-09-20T14:56:56Z</time>
      </trkpt>
      <trkpt lat="43.20643" lon="0.89917">
        <ele>402.69831231232</ele>
        <time>2014-09-20T14:57:01Z</time>
      </trkpt>
      <trkpt lat="43.20652" lon="0.89915">
        <ele>402.80344247933</ele>
        <time>2014-09-20T14:57:06Z</time>
      </trkpt>
      <trkpt lat="43.20658" lon="0.89914">
        <ele>402.80344247933</ele>
        <time>2014-09-20T14:57:11Z</time>
      </trkpt>
      <trkpt lat="43.20665" lon="0.89916">
        <ele>402.46759990529</ele>
        <time>2014-09-20T14:57:16Z</time>
      </trkpt>
      <trkpt lat="43.20672" lon="0.89916">
        <ele>402.46759990529</ele>
        <time>2014-09-20T14:57:21Z</time>
      </trkpt>
      <trkpt lat="43.20679" lon="0.89916">
        <ele>402.53024644623</ele>
        <time>2014-09-20T14:57:26Z</time>
      </trkpt>
      <trkpt lat="43.20686" lon="0.89914">
        <ele>402.53024644623</ele>
        <time>2014-09-20T14:57:31Z</time>
      </trkpt>
      <trkpt lat="43.20692" lon="0.89912">
        <ele>403.10513428187</ele>
        <time>2014-09-20T14:57:36Z</time>
      </trkpt>
      <trkpt lat="43.20698" lon="0.89909">
        <ele>403.10513428187</ele>
        <time>2014-09-20T14:57:41Z</time>
      </trkpt>
      <trkpt lat="43.20705" lon="0.89909">
        <ele>403.64771327411</ele>
        <time>2014-09-20T14:57:46Z</time>
      </trkpt>
      <trkpt lat="43.20712" lon="0.89908">
        <ele>403.64771327411</ele>
        <time>2014-09-20T14:57:51Z</time>
      </trkpt>
      <trkpt lat="43.20718" lon="0.89907">
        <ele>404.18673463571</ele>
        <time>2014-09-20T14:57:56Z</time>
      </trkpt>
      <trkpt lat="43.20726" lon="0.89906">
        <ele>404.18673463571</ele>
        <time>2014-09-20T14:58:01Z</time>
      </trkpt>
      <trkpt lat="43.20732" lon="0.89905">
        <ele>404.73444049936</ele>
        <time>2014-09-20T14:58:06Z</time>
      </trkpt>
      <trkpt lat="43.20739" lon="0.89905">
        <ele>404.73444049936</ele>
        <time>2014-09-20T14:58:11Z</time>
      </trkpt>
      <trkpt lat="43.20746" lon="0.89906">
        <ele>405.02834890539</ele>
        <time>2014-09-20T14:58:16Z</time>
      </trkpt>
      <trkpt lat="43.20752" lon="0.89906">
        <ele>405.02834890539</ele>
        <time>2014-09-20T14:58:21Z</time>
      </trkpt>
      <trkpt lat="43.20758" lon="0.89906">
        <ele>405.21508815823</ele>
        <time>2014-09-20T14:58:26Z</time>
      </trkpt>
      <trkpt lat="43.20764" lon="0.89906">
        <ele>405.21508815823</ele>
        <time>2014-09-20T14:58:31Z</time>
      </trkpt>
      <trkpt lat="43.20772" lon="0.89905">
        <ele>405.6037705449</ele>
        <time>2014-09-20T14:58:36Z</time>
      </trkpt>
      <trkpt lat="43.20778" lon="0.89902">
        <ele>405.6037705449</ele>
        <time>2014-09-20T14:58:41Z</time>
      </trkpt>
      <trkpt lat="43.20785" lon="0.89901">
        <ele>405.90381491542</ele>
        <time>2014-09-20T14:58:46Z</time>
      </trkpt>
      <trkpt lat="43.20792" lon="0.89902">
        <ele>405.90381491542</ele>
        <time>2014-09-20T14:58:51Z</time>
      </trkpt>
      <trkpt lat="43.20799" lon="0.89902">
        <ele>406.42270783865</ele>
        <time>2014-09-20T14:58:56Z</time>
      </trkpt>
      <trkpt lat="43.20806" lon="0.89901">
        <ele>406.42270783865</ele>
        <time>2014-09-20T14:59:01Z</time>
      </trkpt>
      <trkpt lat="43.20814" lon="0.899">
        <ele>407.07007737657</ele>
        <time>2014-09-20T14:59:06Z</time>
      </trkpt>
      <trkpt lat="43.20818" lon="0.899">
        <ele>407.07007737657</ele>
        <time>2014-09-20T14:59:11Z</time>
      </trkpt>
      <trkpt lat="43.20825" lon="0.89901">
        <ele>407.58893256805</ele>
        <time>2014-09-20T14:59:16Z</time>
      </trkpt>
      <trkpt lat="43.20832" lon="0.89901">
        <ele>407.58893256805</ele>
        <time>2014-09-20T14:59:21Z</time>
      </trkpt>
      <trkpt lat="43.20838" lon="0.89901">
        <ele>408.10183928705</ele>
        <time>2014-09-20T14:59:26Z</time>
      </trkpt>
      <trkpt lat="43.20845" lon="0.89902">
        <ele>408.10183928705</ele>
        <time>2014-09-20T14:59:31Z</time>
      </trkpt>
      <trkpt lat="43.2085" lon="0.89903">
        <ele>408.34773070953</ele>
        <time>2014-09-20T14:59:36Z</time>
      </trkpt>
      <trkpt lat="43.20855" lon="0.899">
        <ele>408.34773070953</ele>
        <time>2014-09-20T14:59:41Z</time>
      </trkpt>
      <trkpt lat="43.2086" lon="0.89897">
        <ele>409.23840304062</ele>
        <time>2014-09-20T14:59:46Z</time>
      </trkpt>
      <trkpt lat="43.20865" lon="0.89894">
        <ele>409.23840304062</ele>
        <time>2014-09-20T14:59:51Z</time>
      </trkpt>
      <trkpt lat="43.2087" lon="0.89893">
        <ele>410.23344675581</ele>
        <time>2014-09-20T14:59:56Z</time>
      </trkpt>
      <trkpt lat="43.20876" lon="0.89892">
        <ele>410.23344675581</ele>
        <time>2014-09-20T15:00:01Z</time>
      </trkpt>
      <trkpt lat="43.20882" lon="0.89892">
        <ele>410.74544441507</ele>
        <time>2014-09-20T15:00:06Z</time>
      </trkpt>
      <trkpt lat="43.20888" lon="0.89892">
        <ele>410.74544441507</ele>
        <time>2014-09-20T15:00:11Z</time>
      </trkpt>
      <trkpt lat="43.20895" lon="0.89891">
        <ele>411.11061949356</ele>
        <time>2014-09-20T15:00:16Z</time>
      </trkpt>
      <trkpt lat="43.20901" lon="0.89889">
        <ele>411.11061949356</ele>
        <time>2014-09-20T15:00:21Z</time>
      </trkpt>
      <trkpt lat="43.20907" lon="0.89887">
        <ele>412.15976878863</ele>
        <time>2014-09-20T15:00:26Z</time>
      </trkpt>
      <trkpt lat="43.20913" lon="0.89887">
        <ele>412.15976878863</ele>
        <time>2014-09-20T15:00:31Z</time>
      </trkpt>
      <trkpt lat="43.20918" lon="0.89884">
        <ele>413.56555926199</ele>
        <time>2014-09-20T15:00:36Z</time>
      </trkpt>
      <trkpt lat="43.20923" lon="0.89881">
        <ele>413.56555926199</ele>
        <time>2014-09-20T15:00:41Z</time>
      </trkpt>
      <trkpt lat="43.20928" lon="0.89881">
        <ele>414.87965945408</ele>
        <time>2014-09-20T15:00:46Z</time>
      </trkpt>
      <trkpt lat="43.20932" lon="0.89884">
        <ele>414.87965945408</ele>
        <time>2014-09-20T15:00:51Z</time>
      </trkpt>
      <trkpt lat="43.20938" lon="0.8989">
        <ele>416.27785793912</ele>
        <time>2014-09-20T15:00:56Z</time>
      </trkpt>
      <trkpt lat="43.20944" lon="0.89893">
        <ele>416.27785793912</ele>
        <time>2014-09-20T15:01:01Z</time>
      </trkpt>
      <trkpt lat="43.20945" lon="0.89894">
        <ele>416.27785793912</ele>
        <time>2014-09-20T15:01:06Z</time>
      </trkpt>
      <trkpt lat="43.20945" lon="0.89894">
        <ele>416.27785793912</ele>
        <time>2014-09-20T15:01:11Z</time>
      </trkpt>
      <trkpt lat="43.20945" lon="0.89895">
        <ele>417.46171707544</ele>
        <time>2014-09-20T15:01:16Z</time>
      </trkpt>
      <trkpt lat="43.20945" lon="0.89896">
        <ele>417.46171707544</ele>
        <time>2014-09-20T15:01:21Z</time>
      </trkpt>
      <trkpt lat="43.20945" lon="0.89896">
        <ele>417.46171707544</ele>
        <time>2014-09-20T15:01:26Z</time>
      </trkpt>
      <trkpt lat="43.20945" lon="0.89896">
        <ele>417.46171707544</ele>
        <time>2014-09-20T15:01:31Z</time>
      </trkpt>
      <trkpt lat="43.20945" lon="0.89896">
        <ele>417.46171707544</ele>
        <time>2014-09-20T15:01:36Z</time>
      </trkpt>
      <trkpt lat="43.20945" lon="0.89896">
        <ele>417.46171707544</ele>
        <time>2014-09-20T15:01:41Z</time>
      </trkpt>
      <trkpt lat="43.20945" lon="0.89896">
        <ele>417.46171707544</ele>
        <time>2014-09-20T15:01:46Z</time>
      </trkpt>
      <trkpt lat="43.20945" lon="0.89896">
        <ele>417.46171707544</ele>
        <time>2014-09-20T15:01:51Z</time>
      </trkpt>
      <trkpt lat="43.20945" lon="0.89896">
        <ele>417.46171707544</ele>
        <time>2014-09-20T15:01:56Z</time>
      </trkpt>
      <trkpt lat="43.20945" lon="0.89896">
        <ele>417.46171707544</ele>
        <time>2014-09-20T15:02:01Z</time>
      </trkpt>
      <trkpt lat="43.20945" lon="0.89896">
        <ele>417.46171707544</ele>
        <time>2014-09-20T15:02:06Z</time>
      </trkpt>
      <trkpt lat="43.20945" lon="0.89896">
        <ele>417.46171707544</ele>
        <time>2014-09-20T15:02:11Z</time>
      </trkpt>
      <trkpt lat="43.20945" lon="0.89896">
        <ele>417.46171707544</ele>
        <time>2014-09-20T15:02:16Z</time>
      </trkpt>
      <trkpt lat="43.20945" lon="0.89896">
        <ele>417.46171707544</ele>
        <time>2014-09-20T15:02:21Z</time>
      </trkpt>
      <trkpt lat="43.20945" lon="0.89896">
        <ele>417.46171707544</ele>
        <time>2014-09-20T15:02:26Z</time>
      </trkpt>
      <trkpt lat="43.20945" lon="0.89896">
        <ele>417.46171707544</ele>
        <time>2014-09-20T15:02:31Z</time>
      </trkpt>
      <trkpt lat="43.20945" lon="0.89896">
        <ele>417.46171707544</ele>
        <time>2014-09-20T15:02:36Z</time>
      </trkpt>
      <trkpt lat="43.20945" lon="0.89896">
        <ele>417.46171707544</ele>
        <time>2014-09-20T15:02:41Z</time>
      </trkpt>
      <trkpt lat="43.20945" lon="0.89896">
        <ele>417.46171707544</ele>
        <time>2014-09-20T15:02:46Z</time>
      </trkpt>
      <trkpt lat="43.20944" lon="0.89896">
        <ele>417.46171707544</ele>
        <time>2014-09-20T15:02:51Z</time>
      </trkpt>
      <trkpt lat="43.20944" lon="0.89899">
        <ele>417.46171707544</ele>
        <time>2014-09-20T15:02:56Z</time>
      </trkpt>
      <trkpt lat="43.20941" lon="0.89896">
        <ele>417.46171707544</ele>
        <time>2014-09-20T15:03:01Z</time>
      </trkpt>
      <trkpt lat="43.20937" lon="0.89894">
        <ele>417.96806202322</ele>
        <time>2014-09-20T15:03:06Z</time>
      </trkpt>
      <trkpt lat="43.20932" lon="0.8989">
        <ele>417.96806202322</ele>
        <time>2014-09-20T15:03:11Z</time>
      </trkpt>
      <trkpt lat="43.20932" lon="0.89886">
        <ele>417.96806202322</ele>
        <time>2014-09-20T15:03:16Z</time>
      </trkpt>
      <trkpt lat="43.20932" lon="0.89888">
        <ele>418.21998387806</ele>
        <time>2014-09-20T15:03:21Z</time>
      </trkpt>
      <trkpt lat="43.2093" lon="0.89887">
        <ele>418.21998387806</ele>
        <time>2014-09-20T15:03:26Z</time>
      </trkpt>
      <trkpt lat="43.20929" lon="0.89889">
        <ele>418.21998387806</ele>
        <time>2014-09-20T15:03:31Z</time>
      </trkpt>
      <trkpt lat="43.20929" lon="0.8989">
        <ele>418.21998387806</ele>
        <time>2014-09-20T15:03:36Z</time>
      </trkpt>
      <trkpt lat="43.20929" lon="0.8989">
        <ele>418.21998387806</ele>
        <time>2014-09-20T15:03:41Z</time>
      </trkpt>
      <trkpt lat="43.20929" lon="0.8989">
        <ele>418.21998387806</ele>
        <time>2014-09-20T15:03:46Z</time>
      </trkpt>
      <trkpt lat="43.20929" lon="0.8989">
        <ele>418.21998387806</ele>
        <time>2014-09-20T15:03:51Z</time>
      </trkpt>
      <trkpt lat="43.20929" lon="0.8989">
        <ele>418.21998387806</ele>
        <time>2014-09-20T15:03:56Z</time>
      </trkpt>
      <trkpt lat="43.20929" lon="0.8989">
        <ele>418.21998387806</ele>
        <time>2014-09-20T15:04:01Z</time>
      </trkpt>
      <trkpt lat="43.20929" lon="0.8989">
        <ele>418.21998387806</ele>
        <time>2014-09-20T15:04:06Z</time>
      </trkpt>
      <trkpt lat="43.20929" lon="0.8989">
        <ele>418.21998387806</ele>
        <time>2014-09-20T15:04:11Z</time>
      </trkpt>
      <trkpt lat="43.20928" lon="0.8989">
        <ele>418.21998387806</ele>
        <time>2014-09-20T15:04:16Z</time>
      </trkpt>
      <trkpt lat="43.20928" lon="0.8989">
        <ele>418.21998387806</ele>
        <time>2014-09-20T15:04:21Z</time>
      </trkpt>
      <trkpt lat="43.20928" lon="0.8989">
        <ele>418.21998387806</ele>
        <time>2014-09-20T15:04:26Z</time>
      </trkpt>
      <trkpt lat="43.20929" lon="0.89888">
        <ele>418.21998387806</ele>
        <time>2014-09-20T15:04:31Z</time>
      </trkpt>
      <trkpt lat="43.20929" lon="0.89887">
        <ele>418.21998387806</ele>
        <time>2014-09-20T15:04:36Z</time>
      </trkpt>
      <trkpt lat="43.20929" lon="0.89887">
        <ele>418.21998387806</ele>
        <time>2014-09-20T15:04:41Z</time>
      </trkpt>
      <trkpt lat="43.2093" lon="0.89887">
        <ele>418.21998387806</ele>
        <time>2014-09-20T15:04:46Z</time>
      </trkpt>
      <trkpt lat="43.2093" lon="0.89887">
        <ele>418.21998387806</ele>
        <time>2014-09-20T15:04:51Z</time>
      </trkpt>
      <trkpt lat="43.2093" lon="0.89887">
        <ele>418.21998387806</ele>
        <time>2014-09-20T15:04:56Z</time>
      </trkpt>
      <trkpt lat="43.2093" lon="0.89886">
        <ele>418.40853602068</ele>
        <time>2014-09-20T15:05:01Z</time>
      </trkpt>
      <trkpt lat="43.20931" lon="0.89888">
        <ele>418.40853602068</ele>
        <time>2014-09-20T15:05:06Z</time>
      </trkpt>
      <trkpt lat="43.20931" lon="0.89888">
        <ele>418.40853602068</ele>
        <time>2014-09-20T15:05:11Z</time>
      </trkpt>
      <trkpt lat="43.20931" lon="0.89888">
        <ele>418.40853602068</ele>
        <time>2014-09-20T15:05:16Z</time>
      </trkpt>
      <trkpt lat="43.20931" lon="0.89888">
        <ele>418.40853602068</ele>
        <time>2014-09-20T15:05:21Z</time>
      </trkpt>
      <trkpt lat="43.20931" lon="0.89888">
        <ele>418.40853602068</ele>
        <time>2014-09-20T15:05:26Z</time>
      </trkpt>
      <trkpt lat="43.2093" lon="0.89887">
        <ele>418.40853602068</ele>
        <time>2014-09-20T15:05:31Z</time>
      </trkpt>
      <trkpt lat="43.20929" lon="0.89887">
        <ele>418.40853602068</ele>
        <time>2014-09-20T15:05:36Z</time>
      </trkpt>
      <trkpt lat="43.20928" lon="0.89886">
        <ele>418.40853602068</ele>
        <time>2014-09-20T15:05:41Z</time>
      </trkpt>
      <trkpt lat="43.20928" lon="0.89885">
        <ele>418.40853602068</ele>
        <time>2014-09-20T15:05:46Z</time>
      </trkpt>
      <trkpt lat="43.20928" lon="0.89886">
        <ele>418.40853602068</ele>
        <time>2014-09-20T15:05:51Z</time>
      </trkpt>
      <trkpt lat="43.20928" lon="0.89886">
        <ele>418.40853602068</ele>
        <time>2014-09-20T15:05:56Z</time>
      </trkpt>
      <trkpt lat="43.20926" lon="0.89883">
        <ele>418.40853602068</ele>
        <time>2014-09-20T15:06:01Z</time>
      </trkpt>
      <trkpt lat="43.20925" lon="0.89879">
        <ele>418.8695187808</ele>
        <time>2014-09-20T15:06:06Z</time>
      </trkpt>
      <trkpt lat="43.20921" lon="0.89877">
        <ele>418.8695187808</ele>
        <time>2014-09-20T15:06:11Z</time>
      </trkpt>
      <trkpt lat="43.20917" lon="0.89873">
        <ele>419.29370014632</ele>
        <time>2014-09-20T15:06:16Z</time>
      </trkpt>
      <trkpt lat="43.20913" lon="0.8987">
        <ele>419.29370014632</ele>
        <time>2014-09-20T15:06:21Z</time>
      </trkpt>
      <trkpt lat="43.20909" lon="0.89867">
        <ele>419.22180685902</ele>
        <time>2014-09-20T15:06:26Z</time>
      </trkpt>
      <trkpt lat="43.20905" lon="0.89863">
        <ele>419.22180685902</ele>
        <time>2014-09-20T15:06:31Z</time>
      </trkpt>
      <trkpt lat="43.20901" lon="0.89859">
        <ele>418.83502965457</ele>
        <time>2014-09-20T15:06:36Z</time>
      </trkpt>
      <trkpt lat="43.20897" lon="0.89856">
        <ele>418.83502965457</ele>
        <time>2014-09-20T15:06:41Z</time>
      </trkpt>
      <trkpt lat="43.20893" lon="0.89853">
        <ele>418.53277163774</ele>
        <time>2014-09-20T15:06:46Z</time>
      </trkpt>
      <trkpt lat="43.20891" lon="0.89852">
        <ele>418.53277163774</ele>
        <time>2014-09-20T15:06:51Z</time>
      </trkpt>
      <trkpt lat="43.20891" lon="0.89851">
        <ele>418.53277163774</ele>
        <time>2014-09-20T15:06:56Z</time>
      </trkpt>
      <trkpt lat="43.20891" lon="0.89848">
        <ele>418.53277163774</ele>
        <time>2014-09-20T15:07:01Z</time>
      </trkpt>
      <trkpt lat="43.20893" lon="0.89842">
        <ele>417.2005659375</ele>
        <time>2014-09-20T15:07:06Z</time>
      </trkpt>
      <trkpt lat="43.20897" lon="0.89833">
        <ele>417.2005659375</ele>
        <time>2014-09-20T15:07:11Z</time>
      </trkpt>
      <trkpt lat="43.20899" lon="0.89825">
        <ele>415.78306673399</ele>
        <time>2014-09-20T15:07:16Z</time>
      </trkpt>
      <trkpt lat="43.20902" lon="0.89818">
        <ele>415.78306673399</ele>
        <time>2014-09-20T15:07:21Z</time>
      </trkpt>
      <trkpt lat="43.20907" lon="0.89811">
        <ele>414.80993527041</ele>
        <time>2014-09-20T15:07:26Z</time>
      </trkpt>
      <trkpt lat="43.20909" lon="0.89805">
        <ele>414.80993527041</ele>
        <time>2014-09-20T15:07:31Z</time>
      </trkpt>
      <trkpt lat="43.2091" lon="0.89802">
        <ele>414.80993527041</ele>
        <time>2014-09-20T15:07:36Z</time>
      </trkpt>
      <trkpt lat="43.20913" lon="0.89798">
        <ele>414.81392796951</ele>
        <time>2014-09-20T15:07:41Z</time>
      </trkpt>
      <trkpt lat="43.20917" lon="0.89794">
        <ele>414.81392796951</ele>
        <time>2014-09-20T15:07:46Z</time>
      </trkpt>
      <trkpt lat="43.20921" lon="0.89792">
        <ele>415.47890994446</ele>
        <time>2014-09-20T15:07:51Z</time>
      </trkpt>
      <trkpt lat="43.20926" lon="0.89791">
        <ele>415.47890994446</ele>
        <time>2014-09-20T15:07:56Z</time>
      </trkpt>
      <trkpt lat="43.20931" lon="0.8979">
        <ele>415.89044059009</ele>
        <time>2014-09-20T15:08:01Z</time>
      </trkpt>
      <trkpt lat="43.20932" lon="0.8979">
        <ele>415.89044059009</ele>
        <time>2014-09-20T15:08:06Z</time>
      </trkpt>
      <trkpt lat="43.20934" lon="0.8979">
        <ele>415.89044059009</ele>
        <time>2014-09-20T15:08:11Z</time>
      </trkpt>
      <trkpt lat="43.20935" lon="0.89789">
        <ele>415.89044059009</ele>
        <time>2014-09-20T15:08:16Z</time>
      </trkpt>
      <trkpt lat="43.20941" lon="0.89786">
        <ele>417.20511394154</ele>
        <time>2014-09-20T15:08:21Z</time>
      </trkpt>
      <trkpt lat="43.20947" lon="0.89781">
        <ele>417.20511394154</ele>
        <time>2014-09-20T15:08:26Z</time>
      </trkpt>
      <trkpt lat="43.20953" lon="0.89777">
        <ele>418.90681366428</ele>
        <time>2014-09-20T15:08:31Z</time>
      </trkpt>
      <trkpt lat="43.20957" lon="0.89774">
        <ele>418.90681366428</ele>
        <time>2014-09-20T15:08:36Z</time>
      </trkpt>
      <trkpt lat="43.20961" lon="0.89773">
        <ele>418.90681366428</ele>
        <time>2014-09-20T15:08:41Z</time>
      </trkpt>
      <trkpt lat="43.20962" lon="0.89773">
        <ele>420.97742344165</ele>
        <time>2014-09-20T15:08:46Z</time>
      </trkpt>
      <trkpt lat="43.20966" lon="0.8977">
        <ele>420.97742344165</ele>
        <time>2014-09-20T15:08:51Z</time>
      </trkpt>
      <trkpt lat="43.20969" lon="0.89768">
        <ele>420.97742344165</ele>
        <time>2014-09-20T15:08:56Z</time>
      </trkpt>
      <trkpt lat="43.2097" lon="0.8977">
        <ele>423.02445995985</ele>
        <time>2014-09-20T15:09:01Z</time>
      </trkpt>
      <trkpt lat="43.2097" lon="0.89772">
        <ele>423.02445995985</ele>
        <time>2014-09-20T15:09:06Z</time>
      </trkpt>
      <trkpt lat="43.2097" lon="0.89772">
        <ele>423.02445995985</ele>
        <time>2014-09-20T15:09:11Z</time>
      </trkpt>
      <trkpt lat="43.2097" lon="0.89769">
        <ele>423.02445995985</ele>
        <time>2014-09-20T15:09:16Z</time>
      </trkpt>
      <trkpt lat="43.20971" lon="0.89763">
        <ele>423.02445995985</ele>
        <time>2014-09-20T15:09:21Z</time>
      </trkpt>
      <trkpt lat="43.20972" lon="0.89759">
        <ele>425.14553123674</ele>
        <time>2014-09-20T15:09:26Z</time>
      </trkpt>
      <trkpt lat="43.20973" lon="0.89757">
        <ele>425.14553123674</ele>
        <time>2014-09-20T15:09:31Z</time>
      </trkpt>
      <trkpt lat="43.20973" lon="0.89749">
        <ele>425.14553123674</ele>
        <time>2014-09-20T15:09:36Z</time>
      </trkpt>
      <trkpt lat="43.20973" lon="0.89742">
        <ele>426.84006077744</ele>
        <time>2014-09-20T15:09:41Z</time>
      </trkpt>
      <trkpt lat="43.20974" lon="0.89734">
        <ele>426.84006077744</ele>
        <time>2014-09-20T15:09:46Z</time>
      </trkpt>
      <trkpt lat="43.20976" lon="0.89728">
        <ele>429.31719113105</ele>
        <time>2014-09-20T15:09:51Z</time>
      </trkpt>
      <trkpt lat="43.20976" lon="0.89727">
        <ele>429.31719113105</ele>
        <time>2014-09-20T15:09:56Z</time>
      </trkpt>
      <trkpt lat="43.20976" lon="0.89724">
        <ele>429.31719113105</ele>
        <time>2014-09-20T15:10:01Z</time>
      </trkpt>
      <trkpt lat="43.20977" lon="0.89721">
        <ele>429.31719113105</ele>
        <time>2014-09-20T15:10:06Z</time>
      </trkpt>
      <trkpt lat="43.20978" lon="0.89722">
        <ele>429.31719113105</ele>
        <time>2014-09-20T15:10:11Z</time>
      </trkpt>
      <trkpt lat="43.20978" lon="0.89724">
        <ele>429.31719113105</ele>
        <time>2014-09-20T15:10:16Z</time>
      </trkpt>
      <trkpt lat="43.20976" lon="0.89725">
        <ele>432.72957511916</ele>
        <time>2014-09-20T15:10:21Z</time>
      </trkpt>
      <trkpt lat="43.20974" lon="0.89726">
        <ele>432.72957511916</ele>
        <time>2014-09-20T15:10:26Z</time>
      </trkpt>
      <trkpt lat="43.20973" lon="0.89727">
        <ele>432.72957511916</ele>
        <time>2014-09-20T15:10:31Z</time>
      </trkpt>
      <trkpt lat="43.20971" lon="0.89726">
        <ele>432.72957511916</ele>
        <time>2014-09-20T15:10:36Z</time>
      </trkpt>
      <trkpt lat="43.20971" lon="0.89726">
        <ele>432.72957511916</ele>
        <time>2014-09-20T15:10:41Z</time>
      </trkpt>
      <trkpt lat="43.2097" lon="0.89719">
        <ele>436.49555978222</ele>
        <time>2014-09-20T15:10:46Z</time>
      </trkpt>
      <trkpt lat="43.20968" lon="0.89713">
        <ele>436.49555978222</ele>
        <time>2014-09-20T15:10:51Z</time>
      </trkpt>
      <trkpt lat="43.20966" lon="0.8971">
        <ele>436.49555978222</ele>
        <time>2014-09-20T15:10:56Z</time>
      </trkpt>
      <trkpt lat="43.20966" lon="0.89707">
        <ele>440.89676647019</ele>
        <time>2014-09-20T15:11:01Z</time>
      </trkpt>
      <trkpt lat="43.20966" lon="0.897">
        <ele>440.89676647019</ele>
        <time>2014-09-20T15:11:06Z</time>
      </trkpt>
      <trkpt lat="43.20965" lon="0.89697">
        <ele>440.89676647019</ele>
        <time>2014-09-20T15:11:11Z</time>
      </trkpt>
      <trkpt lat="43.20964" lon="0.89696">
        <ele>445.12604871415</ele>
        <time>2014-09-20T15:11:16Z</time>
      </trkpt>
      <trkpt lat="43.20965" lon="0.89694">
        <ele>445.12604871415</ele>
        <time>2014-09-20T15:11:21Z</time>
      </trkpt>
      <trkpt lat="43.20965" lon="0.89691">
        <ele>445.12604871415</ele>
        <time>2014-09-20T15:11:26Z</time>
      </trkpt>
      <trkpt lat="43.20965" lon="0.89691">
        <ele>445.12604871415</ele>
        <time>2014-09-20T15:11:31Z</time>
      </trkpt>
      <trkpt lat="43.20965" lon="0.89691">
        <ele>445.12604871415</ele>
        <time>2014-09-20T15:11:36Z</time>
      </trkpt>
      <trkpt lat="43.20965" lon="0.89692">
        <ele>445.12604871415</ele>
        <time>2014-09-20T15:11:41Z</time>
      </trkpt>
      <trkpt lat="43.20964" lon="0.89692">
        <ele>445.12604871415</ele>
        <time>2014-09-20T15:11:46Z</time>
      </trkpt>
      <trkpt lat="43.20963" lon="0.89695">
        <ele>445.12604871415</ele>
        <time>2014-09-20T15:11:51Z</time>
      </trkpt>
      <trkpt lat="43.20959" lon="0.89697">
        <ele>448.86851301095</ele>
        <time>2014-09-20T15:11:56Z</time>
      </trkpt>
      <trkpt lat="43.20955" lon="0.89704">
        <ele>448.86851301095</ele>
        <time>2014-09-20T15:12:01Z</time>
      </trkpt>
      <trkpt lat="43.20952" lon="0.89712">
        <ele>452.74182754826</ele>
        <time>2014-09-20T15:12:06Z</time>
      </trkpt>
      <trkpt lat="43.20949" lon="0.89716">
        <ele>452.74182754826</ele>
        <time>2014-09-20T15:12:11Z</time>
      </trkpt>
      <trkpt lat="43.20944" lon="0.89715">
        <ele>452.74182754826</ele>
        <time>2014-09-20T15:12:16Z</time>
      </trkpt>
      <trkpt lat="43.20942" lon="0.89712">
        <ele>455.09878594019</ele>
        <time>2014-09-20T15:12:21Z</time>
      </trkpt>
      <trkpt lat="43.20941" lon="0.89708">
        <ele>455.09878594019</ele>
        <time>2014-09-20T15:12:26Z</time>
      </trkpt>
      <trkpt lat="43.20939" lon="0.89706">
        <ele>455.09878594019</ele>
        <time>2014-09-20T15:12:31Z</time>
      </trkpt>
      <trkpt lat="43.20938" lon="0.89704">
        <ele>455.09878594019</ele>
        <time>2014-09-20T15:12:36Z</time>
      </trkpt>
      <trkpt lat="43.2094" lon="0.89698">
        <ele>457.9195282304</ele>
        <time>2014-09-20T15:12:41Z</time>
      </trkpt>
      <trkpt lat="43.2094" lon="0.89692">
        <ele>457.9195282304</ele>
        <time>2014-09-20T15:12:46Z</time>
      </trkpt>
      <trkpt lat="43.20941" lon="0.89687">
        <ele>457.9195282304</ele>
        <time>2014-09-20T15:12:51Z</time>
      </trkpt>
      <trkpt lat="43.20941" lon="0.89684">
        <ele>460.65979371914</ele>
        <time>2014-09-20T15:12:56Z</time>
      </trkpt>
      <trkpt lat="43.20942" lon="0.89676">
        <ele>460.65979371914</ele>
        <time>2014-09-20T15:13:01Z</time>
      </trkpt>
      <trkpt lat="43.20942" lon="0.89672">
        <ele>460.65979371914</ele>
        <time>2014-09-20T15:13:06Z</time>
      </trkpt>
      <trkpt lat="43.20942" lon="0.89666">
        <ele>462.55632443708</ele>
        <time>2014-09-20T15:13:11Z</time>
      </trkpt>
      <trkpt lat="43.2094" lon="0.89659">
        <ele>462.55632443708</ele>
        <time>2014-09-20T15:13:16Z</time>
      </trkpt>
      <trkpt lat="43.20937" lon="0.89654">
        <ele>464.11502540858</ele>
        <time>2014-09-20T15:13:21Z</time>
      </trkpt>
      <trkpt lat="43.20936" lon="0.89648">
        <ele>464.11502540858</ele>
        <time>2014-09-20T15:13:26Z</time>
      </trkpt>
      <trkpt lat="43.20935" lon="0.89641">
        <ele>466.31016551512</ele>
        <time>2014-09-20T15:13:31Z</time>
      </trkpt>
      <trkpt lat="43.20936" lon="0.89632">
        <ele>466.31016551512</ele>
        <time>2014-09-20T15:13:36Z</time>
      </trkpt>
      <trkpt lat="43.20937" lon="0.89625">
        <ele>468.63055515098</ele>
        <time>2014-09-20T15:13:41Z</time>
      </trkpt>
      <trkpt lat="43.20937" lon="0.89621">
        <ele>468.63055515098</ele>
        <time>2014-09-20T15:13:46Z</time>
      </trkpt>
      <trkpt lat="43.20936" lon="0.8962">
        <ele>468.63055515098</ele>
        <time>2014-09-20T15:13:51Z</time>
      </trkpt>
      <trkpt lat="43.20934" lon="0.89613">
        <ele>470.06917224248</ele>
        <time>2014-09-20T15:13:56Z</time>
      </trkpt>
      <trkpt lat="43.20935" lon="0.89603">
        <ele>470.06917224248</ele>
        <time>2014-09-20T15:14:01Z</time>
      </trkpt>
      <trkpt lat="43.20935" lon="0.896">
        <ele>471.36730424679</ele>
        <time>2014-09-20T15:14:06Z</time>
      </trkpt>
      <trkpt lat="43.20935" lon="0.896">
        <ele>471.36730424679</ele>
        <time>2014-09-20T15:14:11Z</time>
      </trkpt>
      <trkpt lat="43.20936" lon="0.89599">
        <ele>471.36730424679</ele>
        <time>2014-09-20T15:14:16Z</time>
      </trkpt>
      <trkpt lat="43.20936" lon="0.89599">
        <ele>471.36730424679</ele>
        <time>2014-09-20T15:14:21Z</time>
      </trkpt>
      <trkpt lat="43.20936" lon="0.89599">
        <ele>471.36730424679</ele>
        <time>2014-09-20T15:14:26Z</time>
      </trkpt>
      <trkpt lat="43.20936" lon="0.89599">
        <ele>471.36730424679</ele>
        <time>2014-09-20T15:14:31Z</time>
      </trkpt>
      <trkpt lat="43.20936" lon="0.89599">
        <ele>471.36730424679</ele>
        <time>2014-09-20T15:14:36Z</time>
      </trkpt>
      <trkpt lat="43.20936" lon="0.89599">
        <ele>471.36730424679</ele>
        <time>2014-09-20T15:14:41Z</time>
      </trkpt>
      <trkpt lat="43.20936" lon="0.89599">
        <ele>471.36730424679</ele>
        <time>2014-09-20T15:14:46Z</time>
      </trkpt>
      <trkpt lat="43.20936" lon="0.89599">
        <ele>471.36730424679</ele>
        <time>2014-09-20T15:14:51Z</time>
      </trkpt>
      <trkpt lat="43.20936" lon="0.89599">
        <ele>471.36730424679</ele>
        <time>2014-09-20T15:14:56Z</time>
      </trkpt>
      <trkpt lat="43.20936" lon="0.89599">
        <ele>471.36730424679</ele>
        <time>2014-09-20T15:15:01Z</time>
      </trkpt>
      <trkpt lat="43.20936" lon="0.89599">
        <ele>471.36730424679</ele>
        <time>2014-09-20T15:15:06Z</time>
      </trkpt>
      <trkpt lat="43.20936" lon="0.89599">
        <ele>471.36730424679</ele>
        <time>2014-09-20T15:15:11Z</time>
      </trkpt>
      <trkpt lat="43.20936" lon="0.89599">
        <ele>471.36730424679</ele>
        <time>2014-09-20T15:15:16Z</time>
      </trkpt>
      <trkpt lat="43.20936" lon="0.89599">
        <ele>471.36730424679</ele>
        <time>2014-09-20T15:15:21Z</time>
      </trkpt>
      <trkpt lat="43.20936" lon="0.89599">
        <ele>471.36730424679</ele>
        <time>2014-09-20T15:15:26Z</time>
      </trkpt>
      <trkpt lat="43.20936" lon="0.89599">
        <ele>471.36730424679</ele>
        <time>2014-09-20T15:15:31Z</time>
      </trkpt>
      <trkpt lat="43.20936" lon="0.89599">
        <ele>471.36730424679</ele>
        <time>2014-09-20T15:15:36Z</time>
      </trkpt>
      <trkpt lat="43.20936" lon="0.89599">
        <ele>471.36730424679</ele>
        <time>2014-09-20T15:15:41Z</time>
      </trkpt>
      <trkpt lat="43.20936" lon="0.89599">
        <ele>471.36730424679</ele>
        <time>2014-09-20T15:15:46Z</time>
      </trkpt>
      <trkpt lat="43.20936" lon="0.89599">
        <ele>471.36730424679</ele>
        <time>2014-09-20T15:15:51Z</time>
      </trkpt>
      <trkpt lat="43.20936" lon="0.89599">
        <ele>471.36730424679</ele>
        <time>2014-09-20T15:15:56Z</time>
      </trkpt>
      <trkpt lat="43.20936" lon="0.89599">
        <ele>471.36730424679</ele>
        <time>2014-09-20T15:16:01Z</time>
      </trkpt>
      <trkpt lat="43.20936" lon="0.89599">
        <ele>471.36730424679</ele>
        <time>2014-09-20T15:16:06Z</time>
      </trkpt>
      <trkpt lat="43.20936" lon="0.89599">
        <ele>471.36730424679</ele>
        <time>2014-09-20T15:16:11Z</time>
      </trkpt>
      <trkpt lat="43.20936" lon="0.89599">
        <ele>471.36730424679</ele>
        <time>2014-09-20T15:16:16Z</time>
      </trkpt>
      <trkpt lat="43.20936" lon="0.89599">
        <ele>471.36730424679</ele>
        <time>2014-09-20T15:16:21Z</time>
      </trkpt>
      <trkpt lat="43.20936" lon="0.89599">
        <ele>471.36730424679</ele>
        <time>2014-09-20T15:16:26Z</time>
      </trkpt>
      <trkpt lat="43.20936" lon="0.89599">
        <ele>471.36730424679</ele>
        <time>2014-09-20T15:16:31Z</time>
      </trkpt>
      <trkpt lat="43.20936" lon="0.89599">
        <ele>471.36730424679</ele>
        <time>2014-09-20T15:16:36Z</time>
      </trkpt>
      <trkpt lat="43.20936" lon="0.89599">
        <ele>471.36730424679</ele>
        <time>2014-09-20T15:16:41Z</time>
      </trkpt>
      <trkpt lat="43.20936" lon="0.89599">
        <ele>471.36730424679</ele>
        <time>2014-09-20T15:16:46Z</time>
      </trkpt>
      <trkpt lat="43.20936" lon="0.89599">
        <ele>471.36730424679</ele>
        <time>2014-09-20T15:16:51Z</time>
      </trkpt>
      <trkpt lat="43.20936" lon="0.89599">
        <ele>471.36730424679</ele>
        <time>2014-09-20T15:16:56Z</time>
      </trkpt>
      <trkpt lat="43.20936" lon="0.89599">
        <ele>471.36730424679</ele>
        <time>2014-09-20T15:17:01Z</time>
      </trkpt>
      <trkpt lat="43.20936" lon="0.89599">
        <ele>471.36730424679</ele>
        <time>2014-09-20T15:17:11Z</time>
      </trkpt>
      <trkpt lat="43.20936" lon="0.89599">
        <ele>471.36730424679</ele>
        <time>2014-09-20T15:17:16Z</time>
      </trkpt>
      <trkpt lat="43.20936" lon="0.89599">
        <ele>471.36730424679</ele>
        <time>2014-09-20T15:17:21Z</time>
      </trkpt>
      <trkpt lat="43.20936" lon="0.89599">
        <ele>471.36730424679</ele>
        <time>2014-09-20T15:17:26Z</time>
      </trkpt>
      <trkpt lat="43.20936" lon="0.89599">
        <ele>471.36730424679</ele>
        <time>2014-09-20T15:17:31Z</time>
      </trkpt>
      <trkpt lat="43.20936" lon="0.89599">
        <ele>471.36730424679</ele>
        <time>2014-09-20T15:17:36Z</time>
      </trkpt>
      <trkpt lat="43.20936" lon="0.89599">
        <ele>471.36730424679</ele>
        <time>2014-09-20T15:17:41Z</time>
      </trkpt>
      <trkpt lat="43.20936" lon="0.89599">
        <ele>471.36730424679</ele>
        <time>2014-09-20T15:17:46Z</time>
      </trkpt>
      <trkpt lat="43.20936" lon="0.89599">
        <ele>471.36730424679</ele>
        <time>2014-09-20T15:17:51Z</time>
      </trkpt>
      <trkpt lat="43.20936" lon="0.89599">
        <ele>471.36730424679</ele>
        <time>2014-09-20T15:17:56Z</time>
      </trkpt>
      <trkpt lat="43.20936" lon="0.89599">
        <ele>471.36730424679</ele>
        <time>2014-09-20T15:18:01Z</time>
      </trkpt>
      <trkpt lat="43.20936" lon="0.89599">
        <ele>471.36730424679</ele>
        <time>2014-09-20T15:18:06Z</time>
      </trkpt>
      <trkpt lat="43.20936" lon="0.89599">
        <ele>471.36730424679</ele>
        <time>2014-09-20T15:18:11Z</time>
      </trkpt>
      <trkpt lat="43.20936" lon="0.89599">
        <ele>471.36730424679</ele>
        <time>2014-09-20T15:18:16Z</time>
      </trkpt>
      <trkpt lat="43.20936" lon="0.89599">
        <ele>471.36730424679</ele>
        <time>2014-09-20T15:18:21Z</time>
      </trkpt>
      <trkpt lat="43.20936" lon="0.89599">
        <ele>471.36730424679</ele>
        <time>2014-09-20T15:18:26Z</time>
      </trkpt>
      <trkpt lat="43.20936" lon="0.89599">
        <ele>471.36730424679</ele>
        <time>2014-09-20T15:18:31Z</time>
      </trkpt>
      <trkpt lat="43.20936" lon="0.89599">
        <ele>471.36730424679</ele>
        <time>2014-09-20T15:18:36Z</time>
      </trkpt>
      <trkpt lat="43.20936" lon="0.89599">
        <ele>471.36730424679</ele>
        <time>2014-09-20T15:18:41Z</time>
      </trkpt>
      <trkpt lat="43.20936" lon="0.89598">
        <ele>471.36730424679</ele>
        <time>2014-09-20T15:18:46Z</time>
      </trkpt>
      <trkpt lat="43.20935" lon="0.89599">
        <ele>471.36730424679</ele>
        <time>2014-09-20T15:18:51Z</time>
      </trkpt>
      <trkpt lat="43.20934" lon="0.89595">
        <ele>471.36730424679</ele>
        <time>2014-09-20T15:18:56Z</time>
      </trkpt>
      <trkpt lat="43.20933" lon="0.89589">
        <ele>472.73677432859</ele>
        <time>2014-09-20T15:19:01Z</time>
      </trkpt>
      <trkpt lat="43.20934" lon="0.89585">
        <ele>472.73677432859</ele>
        <time>2014-09-20T15:19:06Z</time>
      </trkpt>
      <trkpt lat="43.20935" lon="0.89578">
        <ele>472.73677432859</ele>
        <time>2014-09-20T15:19:11Z</time>
      </trkpt>
      <trkpt lat="43.20935" lon="0.89571">
        <ele>475.02230018408</ele>
        <time>2014-09-20T15:19:16Z</time>
      </trkpt>
      <trkpt lat="43.20934" lon="0.89564">
        <ele>475.02230018408</ele>
        <time>2014-09-20T15:19:21Z</time>
      </trkpt>
      <trkpt lat="43.20935" lon="0.89557">
        <ele>477.11626730425</ele>
        <time>2014-09-20T15:19:26Z</time>
      </trkpt>
      <trkpt lat="43.20938" lon="0.89553">
        <ele>477.11626730425</ele>
        <time>2014-09-20T15:19:31Z</time>
      </trkpt>
      <trkpt lat="43.2094" lon="0.89551">
        <ele>477.11626730425</ele>
        <time>2014-09-20T15:19:36Z</time>
      </trkpt>
      <trkpt lat="43.20943" lon="0.89549">
        <ele>479.21804786447</ele>
        <time>2014-09-20T15:19:41Z</time>
      </trkpt>
      <trkpt lat="43.20948" lon="0.8955">
        <ele>479.21804786447</ele>
        <time>2014-09-20T15:19:46Z</time>
      </trkpt>
      <trkpt lat="43.20954" lon="0.89549">
        <ele>480.95044680289</ele>
        <time>2014-09-20T15:19:51Z</time>
      </trkpt>
      <trkpt lat="43.20959" lon="0.89546">
        <ele>480.95044680289</ele>
        <time>2014-09-20T15:19:56Z</time>
      </trkpt>
      <trkpt lat="43.20964" lon="0.89543">
        <ele>482.55599809112</ele>
        <time>2014-09-20T15:20:01Z</time>
      </trkpt>
      <trkpt lat="43.20967" lon="0.89537">
        <ele>482.55599809112</ele>
        <time>2014-09-20T15:20:06Z</time>
      </trkpt>
      <trkpt lat="43.20971" lon="0.89532">
        <ele>484.33195288159</ele>
        <time>2014-09-20T15:20:11Z</time>
      </trkpt>
      <trkpt lat="43.20974" lon="0.89526">
        <ele>484.33195288159</ele>
        <time>2014-09-20T15:20:16Z</time>
      </trkpt>
      <trkpt lat="43.20977" lon="0.89523">
        <ele>485.84721839863</ele>
        <time>2014-09-20T15:20:21Z</time>
      </trkpt>
      <trkpt lat="43.2098" lon="0.89518">
        <ele>485.84721839863</ele>
        <time>2014-09-20T15:20:26Z</time>
      </trkpt>
      <trkpt lat="43.20983" lon="0.89513">
        <ele>487.26524111965</ele>
        <time>2014-09-20T15:20:31Z</time>
      </trkpt>
      <trkpt lat="43.20987" lon="0.89508">
        <ele>487.26524111965</ele>
        <time>2014-09-20T15:20:36Z</time>
      </trkpt>
      <trkpt lat="43.20992" lon="0.89506">
        <ele>488.52166483116</ele>
        <time>2014-09-20T15:20:41Z</time>
      </trkpt>
      <trkpt lat="43.20994" lon="0.89506">
        <ele>488.52166483116</ele>
        <time>2014-09-20T15:20:46Z</time>
      </trkpt>
      <trkpt lat="43.20997" lon="0.89502">
        <ele>488.52166483116</ele>
        <time>2014-09-20T15:20:51Z</time>
      </trkpt>
      <trkpt lat="43.21001" lon="0.89498">
        <ele>489.45652482384</ele>
        <time>2014-09-20T15:20:56Z</time>
      </trkpt>
      <trkpt lat="43.21005" lon="0.89496">
        <ele>489.45652482384</ele>
        <time>2014-09-20T15:21:01Z</time>
      </trkpt>
      <trkpt lat="43.21008" lon="0.89493">
        <ele>489.45652482384</ele>
        <time>2014-09-20T15:21:06Z</time>
      </trkpt>
      <trkpt lat="43.21011" lon="0.89488">
        <ele>490.41256542326</ele>
        <time>2014-09-20T15:21:11Z</time>
      </trkpt>
      <trkpt lat="43.21016" lon="0.89486">
        <ele>490.41256542326</ele>
        <time>2014-09-20T15:21:16Z</time>
      </trkpt>
      <trkpt lat="43.21018" lon="0.89486">
        <ele>490.41256542326</ele>
        <time>2014-09-20T15:21:21Z</time>
      </trkpt>
      <trkpt lat="43.21018" lon="0.89484">
        <ele>490.41256542326</ele>
        <time>2014-09-20T15:21:26Z</time>
      </trkpt>
      <trkpt lat="43.21018" lon="0.89485">
        <ele>491.24620499005</ele>
        <time>2014-09-20T15:21:31Z</time>
      </trkpt>
      <trkpt lat="43.21018" lon="0.89485">
        <ele>491.24620499005</ele>
        <time>2014-09-20T15:21:36Z</time>
      </trkpt>
      <trkpt lat="43.21018" lon="0.89485">
        <ele>491.24620499005</ele>
        <time>2014-09-20T15:21:41Z</time>
      </trkpt>
      <trkpt lat="43.21018" lon="0.89485">
        <ele>491.24620499005</ele>
        <time>2014-09-20T15:21:46Z</time>
      </trkpt>
      <trkpt lat="43.21018" lon="0.89485">
        <ele>491.24620499005</ele>
        <time>2014-09-20T15:21:51Z</time>
      </trkpt>
      <trkpt lat="43.21018" lon="0.89485">
        <ele>491.24620499005</ele>
        <time>2014-09-20T15:21:56Z</time>
      </trkpt>
      <trkpt lat="43.21018" lon="0.89485">
        <ele>491.24620499005</ele>
        <time>2014-09-20T15:22:01Z</time>
      </trkpt>
      <trkpt lat="43.21018" lon="0.89485">
        <ele>491.24620499005</ele>
        <time>2014-09-20T15:22:06Z</time>
      </trkpt>
      <trkpt lat="43.21018" lon="0.89485">
        <ele>491.24620499005</ele>
        <time>2014-09-20T15:22:11Z</time>
      </trkpt>
      <trkpt lat="43.21018" lon="0.89485">
        <ele>491.24620499005</ele>
        <time>2014-09-20T15:22:16Z</time>
      </trkpt>
      <trkpt lat="43.21018" lon="0.89485">
        <ele>491.24620499005</ele>
        <time>2014-09-20T15:22:21Z</time>
      </trkpt>
      <trkpt lat="43.21018" lon="0.89485">
        <ele>491.24620499005</ele>
        <time>2014-09-20T15:22:26Z</time>
      </trkpt>
      <trkpt lat="43.21018" lon="0.89485">
        <ele>491.24620499005</ele>
        <time>2014-09-20T15:22:31Z</time>
      </trkpt>
      <trkpt lat="43.21018" lon="0.89485">
        <ele>491.24620499005</ele>
        <time>2014-09-20T15:22:36Z</time>
      </trkpt>
      <trkpt lat="43.21018" lon="0.89485">
        <ele>491.24620499005</ele>
        <time>2014-09-20T15:22:41Z</time>
      </trkpt>
      <trkpt lat="43.21018" lon="0.89485">
        <ele>491.24620499005</ele>
        <time>2014-09-20T15:22:46Z</time>
      </trkpt>
      <trkpt lat="43.21018" lon="0.89485">
        <ele>491.24620499005</ele>
        <time>2014-09-20T15:22:51Z</time>
      </trkpt>
      <trkpt lat="43.21018" lon="0.89485">
        <ele>491.24620499005</ele>
        <time>2014-09-20T15:22:56Z</time>
      </trkpt>
      <trkpt lat="43.21018" lon="0.89485">
        <ele>491.24620499005</ele>
        <time>2014-09-20T15:23:01Z</time>
      </trkpt>
      <trkpt lat="43.21018" lon="0.89485">
        <ele>491.24620499005</ele>
        <time>2014-09-20T15:23:06Z</time>
      </trkpt>
      <trkpt lat="43.21018" lon="0.89485">
        <ele>491.24620499005</ele>
        <time>2014-09-20T15:23:11Z</time>
      </trkpt>
      <trkpt lat="43.21018" lon="0.89485">
        <ele>491.24620499005</ele>
        <time>2014-09-20T15:23:16Z</time>
      </trkpt>
      <trkpt lat="43.21018" lon="0.89485">
        <ele>491.24620499005</ele>
        <time>2014-09-20T15:23:21Z</time>
      </trkpt>
      <trkpt lat="43.21018" lon="0.89485">
        <ele>491.24620499005</ele>
        <time>2014-09-20T15:23:26Z</time>
      </trkpt>
      <trkpt lat="43.21018" lon="0.89485">
        <ele>491.24620499005</ele>
        <time>2014-09-20T15:23:31Z</time>
      </trkpt>
      <trkpt lat="43.21018" lon="0.89485">
        <ele>491.24620499005</ele>
        <time>2014-09-20T15:23:36Z</time>
      </trkpt>
      <trkpt lat="43.21018" lon="0.89485">
        <ele>491.24620499005</ele>
        <time>2014-09-20T15:23:41Z</time>
      </trkpt>
      <trkpt lat="43.21018" lon="0.89485">
        <ele>491.24620499005</ele>
        <time>2014-09-20T15:23:46Z</time>
      </trkpt>
      <trkpt lat="43.21019" lon="0.89485">
        <ele>491.24620499005</ele>
        <time>2014-09-20T15:23:51Z</time>
      </trkpt>
      <trkpt lat="43.21019" lon="0.89485">
        <ele>491.24620499005</ele>
        <time>2014-09-20T15:23:56Z</time>
      </trkpt>
      <trkpt lat="43.21019" lon="0.89485">
        <ele>491.24620499005</ele>
        <time>2014-09-20T15:24:01Z</time>
      </trkpt>
      <trkpt lat="43.21019" lon="0.89485">
        <ele>491.24620499005</ele>
        <time>2014-09-20T15:24:06Z</time>
      </trkpt>
      <trkpt lat="43.21019" lon="0.89485">
        <ele>491.24620499005</ele>
        <time>2014-09-20T15:24:11Z</time>
      </trkpt>
      <trkpt lat="43.21019" lon="0.89485">
        <ele>491.24620499005</ele>
        <time>2014-09-20T15:24:16Z</time>
      </trkpt>
      <trkpt lat="43.21019" lon="0.89486">
        <ele>491.24620499005</ele>
        <time>2014-09-20T15:24:21Z</time>
      </trkpt>
      <trkpt lat="43.21019" lon="0.89486">
        <ele>491.24620499005</ele>
        <time>2014-09-20T15:24:26Z</time>
      </trkpt>
      <trkpt lat="43.21019" lon="0.89486">
        <ele>491.24620499005</ele>
        <time>2014-09-20T15:24:31Z</time>
      </trkpt>
      <trkpt lat="43.21018" lon="0.89482">
        <ele>491.24620499005</ele>
        <time>2014-09-20T15:24:36Z</time>
      </trkpt>
      <trkpt lat="43.21018" lon="0.89476">
        <ele>491.96891920493</ele>
        <time>2014-09-20T15:24:41Z</time>
      </trkpt>
      <trkpt lat="43.21018" lon="0.89468">
        <ele>491.96891920493</ele>
        <time>2014-09-20T15:24:46Z</time>
      </trkpt>
      <trkpt lat="43.21019" lon="0.89461">
        <ele>492.31788372459</ele>
        <time>2014-09-20T15:24:51Z</time>
      </trkpt>
      <trkpt lat="43.2102" lon="0.89454">
        <ele>492.31788372459</ele>
        <time>2014-09-20T15:24:56Z</time>
      </trkpt>
      <trkpt lat="43.21021" lon="0.89446">
        <ele>492.46858217222</ele>
        <time>2014-09-20T15:25:01Z</time>
      </trkpt>
      <trkpt lat="43.21024" lon="0.89439">
        <ele>492.46858217222</ele>
        <time>2014-09-20T15:25:06Z</time>
      </trkpt>
      <trkpt lat="43.21026" lon="0.89432">
        <ele>492.49771335191</ele>
        <time>2014-09-20T15:25:11Z</time>
      </trkpt>
      <trkpt lat="43.2103" lon="0.89425">
        <ele>492.49771335191</ele>
        <time>2014-09-20T15:25:16Z</time>
      </trkpt>
      <trkpt lat="43.21033" lon="0.89419">
        <ele>492.31816275867</ele>
        <time>2014-09-20T15:25:21Z</time>
      </trkpt>
      <trkpt lat="43.21037" lon="0.89414">
        <ele>492.31816275867</ele>
        <time>2014-09-20T15:25:26Z</time>
      </trkpt>
      <trkpt lat="43.2104" lon="0.89408">
        <ele>491.9650767456</ele>
        <time>2014-09-20T15:25:31Z</time>
      </trkpt>
      <trkpt lat="43.21042" lon="0.89401">
        <ele>491.9650767456</ele>
        <time>2014-09-20T15:25:36Z</time>
      </trkpt>
      <trkpt lat="43.21043" lon="0.89395">
        <ele>491.44265620929</ele>
        <time>2014-09-20T15:25:41Z</time>
      </trkpt>
      <trkpt lat="43.21044" lon="0.89387">
        <ele>491.44265620929</ele>
        <time>2014-09-20T15:25:46Z</time>
      </trkpt>
      <trkpt lat="43.21047" lon="0.89381">
        <ele>490.84169158538</ele>
        <time>2014-09-20T15:25:51Z</time>
      </trkpt>
      <trkpt lat="43.21049" lon="0.89375">
        <ele>490.84169158538</ele>
        <time>2014-09-20T15:25:56Z</time>
      </trkpt>
      <trkpt lat="43.21052" lon="0.89368">
        <ele>489.88618693943</ele>
        <time>2014-09-20T15:26:01Z</time>
      </trkpt>
      <trkpt lat="43.21054" lon="0.89361">
        <ele>489.88618693943</ele>
        <time>2014-09-20T15:26:06Z</time>
      </trkpt>
      <trkpt lat="43.21057" lon="0.89355">
        <ele>488.8833739019</ele>
        <time>2014-09-20T15:26:11Z</time>
      </trkpt>
      <trkpt lat="43.2106" lon="0.89349">
        <ele>488.8833739019</ele>
        <time>2014-09-20T15:26:16Z</time>
      </trkpt>
      <trkpt lat="43.21062" lon="0.89342">
        <ele>487.62797883645</ele>
        <time>2014-09-20T15:26:21Z</time>
      </trkpt>
      <trkpt lat="43.21065" lon="0.89335">
        <ele>487.62797883645</ele>
        <time>2014-09-20T15:26:26Z</time>
      </trkpt>
      <trkpt lat="43.21066" lon="0.89328">
        <ele>486.62214337826</ele>
        <time>2014-09-20T15:26:31Z</time>
      </trkpt>
      <trkpt lat="43.21068" lon="0.89321">
        <ele>486.62214337826</ele>
        <time>2014-09-20T15:26:36Z</time>
      </trkpt>
      <trkpt lat="43.21072" lon="0.89316">
        <ele>485.00447757879</ele>
        <time>2014-09-20T15:26:41Z</time>
      </trkpt>
      <trkpt lat="43.21074" lon="0.89311">
        <ele>485.00447757879</ele>
        <time>2014-09-20T15:26:46Z</time>
      </trkpt>
      <trkpt lat="43.21077" lon="0.89305">
        <ele>483.46279358722</ele>
        <time>2014-09-20T15:26:51Z</time>
      </trkpt>
      <trkpt lat="43.2108" lon="0.89299">
        <ele>483.46279358722</ele>
        <time>2014-09-20T15:26:56Z</time>
      </trkpt>
      <trkpt lat="43.21081" lon="0.89291">
        <ele>482.15844699532</ele>
        <time>2014-09-20T15:27:01Z</time>
      </trkpt>
      <trkpt lat="43.21084" lon="0.89287">
        <ele>482.15844699532</ele>
        <time>2014-09-20T15:27:06Z</time>
      </trkpt>
      <trkpt lat="43.21086" lon="0.8928">
        <ele>480.77895566461</ele>
        <time>2014-09-20T15:27:11Z</time>
      </trkpt>
      <trkpt lat="43.21087" lon="0.89272">
        <ele>480.77895566461</ele>
        <time>2014-09-20T15:27:16Z</time>
      </trkpt>
      <trkpt lat="43.2109" lon="0.89267">
        <ele>479.38069502277</ele>
        <time>2014-09-20T15:27:21Z</time>
      </trkpt>
      <trkpt lat="43.21093" lon="0.8926">
        <ele>479.38069502277</ele>
        <time>2014-09-20T15:27:26Z</time>
      </trkpt>
      <trkpt lat="43.21096" lon="0.89256">
        <ele>477.68431098757</ele>
        <time>2014-09-20T15:27:31Z</time>
      </trkpt>
      <trkpt lat="43.21099" lon="0.89251">
        <ele>477.68431098757</ele>
        <time>2014-09-20T15:27:36Z</time>
      </trkpt>
      <trkpt lat="43.21102" lon="0.89246">
        <ele>477.68431098757</ele>
        <time>2014-09-20T15:27:41Z</time>
      </trkpt>
      <trkpt lat="43.21104" lon="0.8924">
        <ele>475.83512351584</ele>
        <time>2014-09-20T15:27:46Z</time>
      </trkpt>
      <trkpt lat="43.21107" lon="0.89234">
        <ele>475.83512351584</ele>
        <time>2014-09-20T15:27:51Z</time>
      </trkpt>
      <trkpt lat="43.21109" lon="0.89227">
        <ele>473.83830185759</ele>
        <time>2014-09-20T15:27:56Z</time>
      </trkpt>
      <trkpt lat="43.21114" lon="0.89224">
        <ele>473.83830185759</ele>
        <time>2014-09-20T15:28:01Z</time>
      </trkpt>
      <trkpt lat="43.21117" lon="0.8922">
        <ele>471.36737973361</ele>
        <time>2014-09-20T15:28:06Z</time>
      </trkpt>
      <trkpt lat="43.21118" lon="0.89215">
        <ele>471.36737973361</ele>
        <time>2014-09-20T15:28:11Z</time>
      </trkpt>
      <trkpt lat="43.2112" lon="0.89209">
        <ele>468.65418918956</ele>
        <time>2014-09-20T15:28:16Z</time>
      </trkpt>
      <trkpt lat="43.21123" lon="0.89201">
        <ele>468.65418918956</ele>
        <time>2014-09-20T15:28:21Z</time>
      </trkpt>
      <trkpt lat="43.21125" lon="0.89194">
        <ele>466.70658836937</ele>
        <time>2014-09-20T15:28:26Z</time>
      </trkpt>
      <trkpt lat="43.21127" lon="0.89185">
        <ele>466.70658836937</ele>
        <time>2014-09-20T15:28:31Z</time>
      </trkpt>
      <trkpt lat="43.21129" lon="0.89179">
        <ele>464.66902884888</ele>
        <time>2014-09-20T15:28:36Z</time>
      </trkpt>
      <trkpt lat="43.21134" lon="0.89175">
        <ele>464.66902884888</ele>
        <time>2014-09-20T15:28:41Z</time>
      </trkpt>
      <trkpt lat="43.21139" lon="0.89172">
        <ele>462.55583404597</ele>
        <time>2014-09-20T15:28:46Z</time>
      </trkpt>
      <trkpt lat="43.21144" lon="0.89168">
        <ele>462.55583404597</ele>
        <time>2014-09-20T15:28:51Z</time>
      </trkpt>
      <trkpt lat="43.21147" lon="0.89163">
        <ele>460.40905323876</ele>
        <time>2014-09-20T15:28:56Z</time>
      </trkpt>
      <trkpt lat="43.2115" lon="0.89159">
        <ele>460.40905323876</ele>
        <time>2014-09-20T15:29:01Z</time>
      </trkpt>
      <trkpt lat="43.21152" lon="0.89152">
        <ele>458.29630354589</ele>
        <time>2014-09-20T15:29:06Z</time>
      </trkpt>
      <trkpt lat="43.21153" lon="0.89143">
        <ele>458.29630354589</ele>
        <time>2014-09-20T15:29:11Z</time>
      </trkpt>
      <trkpt lat="43.21158" lon="0.89139">
        <ele>456.62574478729</ele>
        <time>2014-09-20T15:29:16Z</time>
      </trkpt>
      <trkpt lat="43.2116" lon="0.89134">
        <ele>456.62574478729</ele>
        <time>2014-09-20T15:29:21Z</time>
      </trkpt>
      <trkpt lat="43.21164" lon="0.89128">
        <ele>454.66439472422</ele>
        <time>2014-09-20T15:29:26Z</time>
      </trkpt>
      <trkpt lat="43.21164" lon="0.89119">
        <ele>454.66439472422</ele>
        <time>2014-09-20T15:29:31Z</time>
      </trkpt>
      <trkpt lat="43.21167" lon="0.89112">
        <ele>453.27565987677</ele>
        <time>2014-09-20T15:29:36Z</time>
      </trkpt>
      <trkpt lat="43.2117" lon="0.89105">
        <ele>453.27565987677</ele>
        <time>2014-09-20T15:29:41Z</time>
      </trkpt>
      <trkpt lat="43.21175" lon="0.891">
        <ele>450.96628827477</ele>
        <time>2014-09-20T15:29:46Z</time>
      </trkpt>
      <trkpt lat="43.21177" lon="0.89094">
        <ele>450.96628827477</ele>
        <time>2014-09-20T15:29:51Z</time>
      </trkpt>
      <trkpt lat="43.2118" lon="0.89088">
        <ele>448.68964801031</ele>
        <time>2014-09-20T15:29:56Z</time>
      </trkpt>
      <trkpt lat="43.21181" lon="0.89079">
        <ele>448.68964801031</ele>
        <time>2014-09-20T15:30:01Z</time>
      </trkpt>
      <trkpt lat="43.21185" lon="0.89072">
        <ele>446.50729294753</ele>
        <time>2014-09-20T15:30:06Z</time>
      </trkpt>
      <trkpt lat="43.21189" lon="0.89067">
        <ele>446.50729294753</ele>
        <time>2014-09-20T15:30:11Z</time>
      </trkpt>
      <trkpt lat="43.21192" lon="0.89063">
        <ele>446.50729294753</ele>
        <time>2014-09-20T15:30:16Z</time>
      </trkpt>
      <trkpt lat="43.21195" lon="0.89055">
        <ele>444.25957074189</ele>
        <time>2014-09-20T15:30:21Z</time>
      </trkpt>
      <trkpt lat="43.21198" lon="0.89048">
        <ele>444.25957074189</ele>
        <time>2014-09-20T15:30:26Z</time>
      </trkpt>
      <trkpt lat="43.21202" lon="0.89043">
        <ele>442.11553309597</ele>
        <time>2014-09-20T15:30:31Z</time>
      </trkpt>
      <trkpt lat="43.21204" lon="0.89037">
        <ele>442.11553309597</ele>
        <time>2014-09-20T15:30:36Z</time>
      </trkpt>
      <trkpt lat="43.21206" lon="0.89031">
        <ele>440.64919639137</ele>
        <time>2014-09-20T15:30:41Z</time>
      </trkpt>
      <trkpt lat="43.21211" lon="0.89027">
        <ele>440.64919639137</ele>
        <time>2014-09-20T15:30:46Z</time>
      </trkpt>
      <trkpt lat="43.21214" lon="0.89019">
        <ele>439.30943209381</ele>
        <time>2014-09-20T15:30:51Z</time>
      </trkpt>
      <trkpt lat="43.21216" lon="0.89012">
        <ele>439.30943209381</ele>
        <time>2014-09-20T15:30:56Z</time>
      </trkpt>
      <trkpt lat="43.2122" lon="0.89008">
        <ele>438.33438506791</ele>
        <time>2014-09-20T15:31:01Z</time>
      </trkpt>
      <trkpt lat="43.21223" lon="0.89003">
        <ele>438.33438506791</ele>
        <time>2014-09-20T15:31:06Z</time>
      </trkpt>
      <trkpt lat="43.21226" lon="0.88999">
        <ele>436.84821241623</ele>
        <time>2014-09-20T15:31:11Z</time>
      </trkpt>
      <trkpt lat="43.21231" lon="0.88997">
        <ele>436.84821241623</ele>
        <time>2014-09-20T15:31:16Z</time>
      </trkpt>
      <trkpt lat="43.21234" lon="0.88992">
        <ele>434.63148334229</ele>
        <time>2014-09-20T15:31:21Z</time>
      </trkpt>
      <trkpt lat="43.21238" lon="0.88989">
        <ele>434.63148334229</ele>
        <time>2014-09-20T15:31:26Z</time>
      </trkpt>
      <trkpt lat="43.21242" lon="0.88983">
        <ele>432.01593805325</ele>
        <time>2014-09-20T15:31:31Z</time>
      </trkpt>
      <trkpt lat="43.21245" lon="0.88976">
        <ele>432.01593805325</ele>
        <time>2014-09-20T15:31:36Z</time>
      </trkpt>
      <trkpt lat="43.21248" lon="0.88969">
        <ele>430.5203978142</ele>
        <time>2014-09-20T15:31:41Z</time>
      </trkpt>
      <trkpt lat="43.21252" lon="0.88963">
        <ele>430.5203978142</ele>
        <time>2014-09-20T15:31:46Z</time>
      </trkpt>
      <trkpt lat="43.21254" lon="0.88957">
        <ele>429.12770622831</ele>
        <time>2014-09-20T15:31:51Z</time>
      </trkpt>
      <trkpt lat="43.21256" lon="0.88953">
        <ele>429.12770622831</ele>
        <time>2014-09-20T15:31:56Z</time>
      </trkpt>
      <trkpt lat="43.21262" lon="0.88946">
        <ele>427.62991496215</ele>
        <time>2014-09-20T15:32:01Z</time>
      </trkpt>
      <trkpt lat="43.21266" lon="0.88941">
        <ele>427.62991496215</ele>
        <time>2014-09-20T15:32:06Z</time>
      </trkpt>
      <trkpt lat="43.2127" lon="0.88938">
        <ele>426.00739756812</ele>
        <time>2014-09-20T15:32:11Z</time>
      </trkpt>
      <trkpt lat="43.21273" lon="0.88936">
        <ele>426.00739756812</ele>
        <time>2014-09-20T15:32:16Z</time>
      </trkpt>
      <trkpt lat="43.21276" lon="0.88931">
        <ele>426.00739756812</ele>
        <time>2014-09-20T15:32:21Z</time>
      </trkpt>
      <trkpt lat="43.21281" lon="0.88925">
        <ele>424.08362357148</ele>
        <time>2014-09-20T15:32:26Z</time>
      </trkpt>
      <trkpt lat="43.21284" lon="0.88918">
        <ele>424.08362357148</ele>
        <time>2014-09-20T15:32:31Z</time>
      </trkpt>
      <trkpt lat="43.21288" lon="0.88913">
        <ele>422.61802216903</ele>
        <time>2014-09-20T15:32:36Z</time>
      </trkpt>
      <trkpt lat="43.21293" lon="0.88912">
        <ele>422.61802216903</ele>
        <time>2014-09-20T15:32:41Z</time>
      </trkpt>
      <trkpt lat="43.21298" lon="0.88907">
        <ele>420.5114026919</ele>
        <time>2014-09-20T15:32:46Z</time>
      </trkpt>
      <trkpt lat="43.213" lon="0.88902">
        <ele>420.5114026919</ele>
        <time>2014-09-20T15:32:51Z</time>
      </trkpt>
      <trkpt lat="43.21304" lon="0.88897">
        <ele>419.44184771847</ele>
        <time>2014-09-20T15:32:56Z</time>
      </trkpt>
      <trkpt lat="43.21308" lon="0.88888">
        <ele>419.44184771847</ele>
        <time>2014-09-20T15:33:01Z</time>
      </trkpt>
      <trkpt lat="43.21313" lon="0.88881">
        <ele>418.46799532704</ele>
        <time>2014-09-20T15:33:06Z</time>
      </trkpt>
      <trkpt lat="43.21319" lon="0.88876">
        <ele>418.46799532704</ele>
        <time>2014-09-20T15:33:11Z</time>
      </trkpt>
      <trkpt lat="43.21322" lon="0.88874">
        <ele>417.40896937844</ele>
        <time>2014-09-20T15:33:16Z</time>
      </trkpt>
      <trkpt lat="43.21325" lon="0.88868">
        <ele>417.40896937844</ele>
        <time>2014-09-20T15:33:21Z</time>
      </trkpt>
      <trkpt lat="43.21328" lon="0.88862">
        <ele>415.99642083465</ele>
        <time>2014-09-20T15:33:26Z</time>
      </trkpt>
      <trkpt lat="43.2133" lon="0.88857">
        <ele>415.99642083465</ele>
        <time>2014-09-20T15:33:31Z</time>
      </trkpt>
      <trkpt lat="43.21329" lon="0.88851">
        <ele>415.99642083465</ele>
        <time>2014-09-20T15:33:36Z</time>
      </trkpt>
      <trkpt lat="43.21329" lon="0.88846">
        <ele>414.38610570719</ele>
        <time>2014-09-20T15:33:41Z</time>
      </trkpt>
      <trkpt lat="43.21327" lon="0.88841">
        <ele>414.38610570719</ele>
        <time>2014-09-20T15:33:46Z</time>
      </trkpt>
      <trkpt lat="43.21323" lon="0.88837">
        <ele>413.35688135711</ele>
        <time>2014-09-20T15:33:51Z</time>
      </trkpt>
      <trkpt lat="43.21319" lon="0.88833">
        <ele>413.35688135711</ele>
        <time>2014-09-20T15:33:56Z</time>
      </trkpt>
      <trkpt lat="43.21316" lon="0.88827">
        <ele>412.12991228987</ele>
        <time>2014-09-20T15:34:01Z</time>
      </trkpt>
      <trkpt lat="43.21313" lon="0.8882">
        <ele>412.12991228987</ele>
        <time>2014-09-20T15:34:06Z</time>
      </trkpt>
      <trkpt lat="43.21311" lon="0.88812">
        <ele>410.94959156695</ele>
        <time>2014-09-20T15:34:11Z</time>
      </trkpt>
      <trkpt lat="43.21308" lon="0.88805">
        <ele>410.94959156695</ele>
        <time>2014-09-20T15:34:16Z</time>
      </trkpt>
      <trkpt lat="43.21305" lon="0.888">
        <ele>409.45129684994</ele>
        <time>2014-09-20T15:34:21Z</time>
      </trkpt>
      <trkpt lat="43.21303" lon="0.88795">
        <ele>409.45129684994</ele>
        <time>2014-09-20T15:34:26Z</time>
      </trkpt>
      <trkpt lat="43.21304" lon="0.8879">
        <ele>409.45129684994</ele>
        <time>2014-09-20T15:34:31Z</time>
      </trkpt>
      <trkpt lat="43.21304" lon="0.88788">
        <ele>409.45129684994</ele>
        <time>2014-09-20T15:34:36Z</time>
      </trkpt>
      <trkpt lat="43.21303" lon="0.88784">
        <ele>408.37884914759</ele>
        <time>2014-09-20T15:34:41Z</time>
      </trkpt>
      <trkpt lat="43.213" lon="0.88777">
        <ele>408.37884914759</ele>
        <time>2014-09-20T15:34:46Z</time>
      </trkpt>
      <trkpt lat="43.21297" lon="0.88771">
        <ele>407.51227457356</ele>
        <time>2014-09-20T15:34:51Z</time>
      </trkpt>
      <trkpt lat="43.21294" lon="0.88764">
        <ele>407.51227457356</ele>
        <time>2014-09-20T15:34:56Z</time>
      </trkpt>
      <trkpt lat="43.21292" lon="0.88755">
        <ele>406.63271868817</ele>
        <time>2014-09-20T15:35:01Z</time>
      </trkpt>
      <trkpt lat="43.21289" lon="0.88749">
        <ele>406.63271868817</ele>
        <time>2014-09-20T15:35:06Z</time>
      </trkpt>
      <trkpt lat="43.21287" lon="0.88742">
        <ele>405.95532062963</ele>
        <time>2014-09-20T15:35:11Z</time>
      </trkpt>
      <trkpt lat="43.21283" lon="0.88734">
        <ele>405.95532062963</ele>
        <time>2014-09-20T15:35:16Z</time>
      </trkpt>
      <trkpt lat="43.2128" lon="0.88726">
        <ele>405.27530461383</ele>
        <time>2014-09-20T15:35:21Z</time>
      </trkpt>
      <trkpt lat="43.21276" lon="0.88718">
        <ele>405.27530461383</ele>
        <time>2014-09-20T15:35:26Z</time>
      </trkpt>
      <trkpt lat="43.21273" lon="0.88712">
        <ele>404.9937784602</ele>
        <time>2014-09-20T15:35:31Z</time>
      </trkpt>
      <trkpt lat="43.21276" lon="0.88701">
        <ele>404.9937784602</ele>
        <time>2014-09-20T15:35:36Z</time>
      </trkpt>
      <trkpt lat="43.21278" lon="0.88691">
        <ele>405.32273402028</ele>
        <time>2014-09-20T15:35:41Z</time>
      </trkpt>
      <trkpt lat="43.21281" lon="0.88681">
        <ele>405.32273402028</ele>
        <time>2014-09-20T15:35:46Z</time>
      </trkpt>
      <trkpt lat="43.21283" lon="0.88671">
        <ele>405.95249118081</ele>
        <time>2014-09-20T15:35:51Z</time>
      </trkpt>
      <trkpt lat="43.21283" lon="0.88662">
        <ele>405.95249118081</ele>
        <time>2014-09-20T15:35:56Z</time>
      </trkpt>
      <trkpt lat="43.21283" lon="0.88653">
        <ele>406.36471375599</ele>
        <time>2014-09-20T15:36:01Z</time>
      </trkpt>
      <trkpt lat="43.21282" lon="0.88649">
        <ele>406.36471375599</ele>
        <time>2014-09-20T15:36:06Z</time>
      </trkpt>
      <trkpt lat="43.21281" lon="0.88644">
        <ele>406.36471375599</ele>
        <time>2014-09-20T15:36:11Z</time>
      </trkpt>
      <trkpt lat="43.2128" lon="0.88636">
        <ele>406.62740653156</ele>
        <time>2014-09-20T15:36:16Z</time>
      </trkpt>
      <trkpt lat="43.21279" lon="0.88627">
        <ele>406.62740653156</ele>
        <time>2014-09-20T15:36:21Z</time>
      </trkpt>
      <trkpt lat="43.21278" lon="0.88619">
        <ele>407.19314492693</ele>
        <time>2014-09-20T15:36:26Z</time>
      </trkpt>
      <trkpt lat="43.21278" lon="0.8861">
        <ele>407.19314492693</ele>
        <time>2014-09-20T15:36:31Z</time>
      </trkpt>
      <trkpt lat="43.21281" lon="0.88602">
        <ele>407.91843540574</ele>
        <time>2014-09-20T15:36:36Z</time>
      </trkpt>
      <trkpt lat="43.21285" lon="0.88596">
        <ele>407.91843540574</ele>
        <time>2014-09-20T15:36:41Z</time>
      </trkpt>
      <trkpt lat="43.21288" lon="0.8859">
        <ele>409.13110806109</ele>
        <time>2014-09-20T15:36:46Z</time>
      </trkpt>
      <trkpt lat="43.21291" lon="0.88583">
        <ele>409.13110806109</ele>
        <time>2014-09-20T15:36:51Z</time>
      </trkpt>
      <trkpt lat="43.21294" lon="0.88579">
        <ele>410.85982173158</ele>
        <time>2014-09-20T15:36:56Z</time>
      </trkpt>
      <trkpt lat="43.21299" lon="0.88571">
        <ele>410.85982173158</ele>
        <time>2014-09-20T15:37:01Z</time>
      </trkpt>
      <trkpt lat="43.21304" lon="0.88566">
        <ele>412.49569837296</ele>
        <time>2014-09-20T15:37:06Z</time>
      </trkpt>
      <trkpt lat="43.21309" lon="0.88559">
        <ele>412.49569837296</ele>
        <time>2014-09-20T15:37:11Z</time>
      </trkpt>
      <trkpt lat="43.21314" lon="0.88552">
        <ele>414.32522592397</ele>
        <time>2014-09-20T15:37:16Z</time>
      </trkpt>
      <trkpt lat="43.2132" lon="0.88545">
        <ele>414.32522592397</ele>
        <time>2014-09-20T15:37:21Z</time>
      </trkpt>
      <trkpt lat="43.21325" lon="0.88538">
        <ele>415.7343636375</ele>
        <time>2014-09-20T15:37:26Z</time>
      </trkpt>
      <trkpt lat="43.2133" lon="0.88532">
        <ele>415.7343636375</ele>
        <time>2014-09-20T15:37:31Z</time>
      </trkpt>
      <trkpt lat="43.21334" lon="0.88525">
        <ele>416.97694320793</ele>
        <time>2014-09-20T15:37:36Z</time>
      </trkpt>
      <trkpt lat="43.21339" lon="0.88519">
        <ele>416.97694320793</ele>
        <time>2014-09-20T15:37:41Z</time>
      </trkpt>
      <trkpt lat="43.21342" lon="0.88515">
        <ele>417.98614788913</ele>
        <time>2014-09-20T15:37:46Z</time>
      </trkpt>
      <trkpt lat="43.21344" lon="0.88512">
        <ele>417.98614788913</ele>
        <time>2014-09-20T15:37:51Z</time>
      </trkpt>
      <trkpt lat="43.21349" lon="0.88508">
        <ele>417.98614788913</ele>
        <time>2014-09-20T15:37:56Z</time>
      </trkpt>
      <trkpt lat="43.21354" lon="0.88504">
        <ele>418.54237403034</ele>
        <time>2014-09-20T15:38:01Z</time>
      </trkpt>
      <trkpt lat="43.21361" lon="0.88499">
        <ele>418.54237403034</ele>
        <time>2014-09-20T15:38:06Z</time>
      </trkpt>
      <trkpt lat="43.21367" lon="0.88497">
        <ele>418.81828673278</ele>
        <time>2014-09-20T15:38:11Z</time>
      </trkpt>
      <trkpt lat="43.21372" lon="0.88494">
        <ele>418.81828673278</ele>
        <time>2014-09-20T15:38:16Z</time>
      </trkpt>
      <trkpt lat="43.21379" lon="0.8849">
        <ele>418.12457480135</ele>
        <time>2014-09-20T15:38:21Z</time>
      </trkpt>
      <trkpt lat="43.21384" lon="0.88484">
        <ele>418.12457480135</ele>
        <time>2014-09-20T15:38:26Z</time>
      </trkpt>
      <trkpt lat="43.21388" lon="0.88477">
        <ele>417.65566926228</ele>
        <time>2014-09-20T15:38:31Z</time>
      </trkpt>
      <trkpt lat="43.21392" lon="0.88471">
        <ele>417.65566926228</ele>
        <time>2014-09-20T15:38:36Z</time>
      </trkpt>
      <trkpt lat="43.21393" lon="0.88465">
        <ele>416.88933919764</ele>
        <time>2014-09-20T15:38:41Z</time>
      </trkpt>
      <trkpt lat="43.21397" lon="0.88458">
        <ele>416.88933919764</ele>
        <time>2014-09-20T15:38:46Z</time>
      </trkpt>
      <trkpt lat="43.21399" lon="0.88448">
        <ele>415.94797543532</ele>
        <time>2014-09-20T15:38:51Z</time>
      </trkpt>
      <trkpt lat="43.21399" lon="0.88438">
        <ele>415.94797543532</ele>
        <time>2014-09-20T15:38:56Z</time>
      </trkpt>
      <trkpt lat="43.21403" lon="0.88427">
        <ele>414.94561580909</ele>
        <time>2014-09-20T15:39:01Z</time>
      </trkpt>
      <trkpt lat="43.21405" lon="0.88418">
        <ele>414.94561580909</ele>
        <time>2014-09-20T15:39:06Z</time>
      </trkpt>
      <trkpt lat="43.2141" lon="0.88411">
        <ele>413.33972625493</ele>
        <time>2014-09-20T15:39:11Z</time>
      </trkpt>
      <trkpt lat="43.21411" lon="0.88403">
        <ele>413.33972625493</ele>
        <time>2014-09-20T15:39:16Z</time>
      </trkpt>
      <trkpt lat="43.21415" lon="0.88393">
        <ele>411.06177324151</ele>
        <time>2014-09-20T15:39:21Z</time>
      </trkpt>
      <trkpt lat="43.21419" lon="0.88384">
        <ele>411.06177324151</ele>
        <time>2014-09-20T15:39:26Z</time>
      </trkpt>
      <trkpt lat="43.21424" lon="0.88376">
        <ele>409.17431408645</ele>
        <time>2014-09-20T15:39:31Z</time>
      </trkpt>
      <trkpt lat="43.21428" lon="0.88366">
        <ele>409.17431408645</ele>
        <time>2014-09-20T15:39:36Z</time>
      </trkpt>
      <trkpt lat="43.21432" lon="0.88359">
        <ele>406.84504133729</ele>
        <time>2014-09-20T15:39:41Z</time>
      </trkpt>
      <trkpt lat="43.21435" lon="0.88351">
        <ele>406.84504133729</ele>
        <time>2014-09-20T15:39:46Z</time>
      </trkpt>
      <trkpt lat="43.2144" lon="0.88342">
        <ele>404.3705177476</ele>
        <time>2014-09-20T15:39:51Z</time>
      </trkpt>
      <trkpt lat="43.2144" lon="0.88333">
        <ele>404.3705177476</ele>
        <time>2014-09-20T15:39:56Z</time>
      </trkpt>
      <trkpt lat="43.21445" lon="0.88325">
        <ele>402.1989106065</ele>
        <time>2014-09-20T15:40:01Z</time>
      </trkpt>
      <trkpt lat="43.2145" lon="0.88319">
        <ele>402.1989106065</ele>
        <time>2014-09-20T15:40:06Z</time>
      </trkpt>
      <trkpt lat="43.21455" lon="0.88313">
        <ele>399.7646905864</ele>
        <time>2014-09-20T15:40:11Z</time>
      </trkpt>
      <trkpt lat="43.2146" lon="0.88306">
        <ele>399.7646905864</ele>
        <time>2014-09-20T15:40:16Z</time>
      </trkpt>
      <trkpt lat="43.21464" lon="0.88302">
        <ele>397.35164512404</ele>
        <time>2014-09-20T15:40:21Z</time>
      </trkpt>
      <trkpt lat="43.21468" lon="0.88296">
        <ele>397.35164512404</ele>
        <time>2014-09-20T15:40:26Z</time>
      </trkpt>
      <trkpt lat="43.2147" lon="0.88295">
        <ele>397.35164512404</ele>
        <time>2014-09-20T15:40:31Z</time>
      </trkpt>
      <trkpt lat="43.21472" lon="0.88297">
        <ele>394.79031975257</ele>
        <time>2014-09-20T15:40:36Z</time>
      </trkpt>
      <trkpt lat="43.21473" lon="0.88298">
        <ele>394.79031975257</ele>
        <time>2014-09-20T15:40:41Z</time>
      </trkpt>
      <trkpt lat="43.21474" lon="0.88298">
        <ele>394.79031975257</ele>
        <time>2014-09-20T15:40:46Z</time>
      </trkpt>
      <trkpt lat="43.21474" lon="0.88299">
        <ele>394.79031975257</ele>
        <time>2014-09-20T15:40:51Z</time>
      </trkpt>
      <trkpt lat="43.21474" lon="0.88299">
        <ele>394.79031975257</ele>
        <time>2014-09-20T15:40:56Z</time>
      </trkpt>
      <trkpt lat="43.21474" lon="0.88299">
        <ele>394.79031975257</ele>
        <time>2014-09-20T15:41:01Z</time>
      </trkpt>
      <trkpt lat="43.21475" lon="0.88299">
        <ele>394.79031975257</ele>
        <time>2014-09-20T15:41:06Z</time>
      </trkpt>
      <trkpt lat="43.21476" lon="0.883">
        <ele>394.79031975257</ele>
        <time>2014-09-20T15:41:11Z</time>
      </trkpt>
      <trkpt lat="43.21475" lon="0.883">
        <ele>394.79031975257</ele>
        <time>2014-09-20T15:41:16Z</time>
      </trkpt>
      <trkpt lat="43.21474" lon="0.883">
        <ele>394.79031975257</ele>
        <time>2014-09-20T15:41:21Z</time>
      </trkpt>
      <trkpt lat="43.21473" lon="0.883">
        <ele>394.79031975257</ele>
        <time>2014-09-20T15:41:26Z</time>
      </trkpt>
      <trkpt lat="43.21472" lon="0.883">
        <ele>394.79031975257</ele>
        <time>2014-09-20T15:41:31Z</time>
      </trkpt>
      <trkpt lat="43.21473" lon="0.883">
        <ele>394.79031975257</ele>
        <time>2014-09-20T15:41:36Z</time>
      </trkpt>
      <trkpt lat="43.21473" lon="0.883">
        <ele>394.79031975257</ele>
        <time>2014-09-20T15:41:41Z</time>
      </trkpt>
      <trkpt lat="43.21473" lon="0.88301">
        <ele>392.38526261666</ele>
        <time>2014-09-20T15:41:46Z</time>
      </trkpt>
      <trkpt lat="43.21473" lon="0.88302">
        <ele>392.38526261666</ele>
        <time>2014-09-20T15:41:51Z</time>
      </trkpt>
      <trkpt lat="43.21474" lon="0.88303">
        <ele>392.38526261666</ele>
        <time>2014-09-20T15:41:56Z</time>
      </trkpt>
      <trkpt lat="43.21474" lon="0.88303">
        <ele>392.38526261666</ele>
        <time>2014-09-20T15:42:01Z</time>
      </trkpt>
      <trkpt lat="43.21474" lon="0.88303">
        <ele>392.38526261666</ele>
        <time>2014-09-20T15:42:06Z</time>
      </trkpt>
      <trkpt lat="43.21474" lon="0.88303">
        <ele>392.38526261666</ele>
        <time>2014-09-20T15:42:11Z</time>
      </trkpt>
      <trkpt lat="43.21473" lon="0.88304">
        <ele>392.38526261666</ele>
        <time>2014-09-20T15:42:16Z</time>
      </trkpt>
      <trkpt lat="43.21474" lon="0.88303">
        <ele>392.38526261666</ele>
        <time>2014-09-20T15:42:21Z</time>
      </trkpt>
      <trkpt lat="43.21474" lon="0.88304">
        <ele>392.38526261666</ele>
        <time>2014-09-20T15:42:26Z</time>
      </trkpt>
      <trkpt lat="43.21475" lon="0.88304">
        <ele>392.38526261666</ele>
        <time>2014-09-20T15:42:31Z</time>
      </trkpt>
      <trkpt lat="43.21475" lon="0.88303">
        <ele>392.38526261666</ele>
        <time>2014-09-20T15:42:36Z</time>
      </trkpt>
      <trkpt lat="43.21476" lon="0.88301">
        <ele>392.38526261666</ele>
        <time>2014-09-20T15:42:41Z</time>
      </trkpt>
      <trkpt lat="43.21477" lon="0.883">
        <ele>392.38526261666</ele>
        <time>2014-09-20T15:42:46Z</time>
      </trkpt>
      <trkpt lat="43.21477" lon="0.883">
        <ele>390.34612530475</ele>
        <time>2014-09-20T15:42:51Z</time>
      </trkpt>
      <trkpt lat="43.21477" lon="0.883">
        <ele>390.34612530475</ele>
        <time>2014-09-20T15:42:56Z</time>
      </trkpt>
      <trkpt lat="43.21477" lon="0.88294">
        <ele>390.34612530475</ele>
        <time>2014-09-20T15:43:01Z</time>
      </trkpt>
      <trkpt lat="43.21479" lon="0.88285">
        <ele>389.05343527796</ele>
        <time>2014-09-20T15:43:06Z</time>
      </trkpt>
      <trkpt lat="43.21482" lon="0.88279">
        <ele>389.05343527796</ele>
        <time>2014-09-20T15:43:11Z</time>
      </trkpt>
      <trkpt lat="43.21486" lon="0.88271">
        <ele>387.87766790614</ele>
        <time>2014-09-20T15:43:16Z</time>
      </trkpt>
      <trkpt lat="43.21489" lon="0.88263">
        <ele>387.87766790614</ele>
        <time>2014-09-20T15:43:21Z</time>
      </trkpt>
      <trkpt lat="43.2149" lon="0.88256">
        <ele>386.63867316951</ele>
        <time>2014-09-20T15:43:26Z</time>
      </trkpt>
      <trkpt lat="43.2149" lon="0.88247">
        <ele>386.63867316951</ele>
        <time>2014-09-20T15:43:31Z</time>
      </trkpt>
      <trkpt lat="43.21492" lon="0.88238">
        <ele>385.60199112293</ele>
        <time>2014-09-20T15:43:36Z</time>
      </trkpt>
      <trkpt lat="43.21493" lon="0.88229">
        <ele>385.60199112293</ele>
        <time>2014-09-20T15:43:41Z</time>
      </trkpt>
      <trkpt lat="43.21494" lon="0.88222">
        <ele>384.20601049794</ele>
        <time>2014-09-20T15:43:46Z</time>
      </trkpt>
      <trkpt lat="43.21498" lon="0.88214">
        <ele>384.20601049794</ele>
        <time>2014-09-20T15:43:51Z</time>
      </trkpt>
      <trkpt lat="43.21505" lon="0.88209">
        <ele>381.87368251603</ele>
        <time>2014-09-20T15:43:56Z</time>
      </trkpt>
      <trkpt lat="43.21514" lon="0.88212">
        <ele>379.77342718792</ele>
        <time>2014-09-20T15:44:01Z</time>
      </trkpt>
      <trkpt lat="43.21522" lon="0.88213">
        <ele>379.77342718792</ele>
        <time>2014-09-20T15:44:06Z</time>
      </trkpt>
      <trkpt lat="43.21528" lon="0.88215">
        <ele>378.22333002747</ele>
        <time>2014-09-20T15:44:11Z</time>
      </trkpt>
      <trkpt lat="43.2153" lon="0.88213">
        <ele>378.22333002747</ele>
        <time>2014-09-20T15:44:16Z</time>
      </trkpt>
      <trkpt lat="43.21534" lon="0.88213">
        <ele>378.22333002747</ele>
        <time>2014-09-20T15:44:21Z</time>
      </trkpt>
      <trkpt lat="43.21539" lon="0.88214">
        <ele>378.13618039293</ele>
        <time>2014-09-20T15:44:26Z</time>
      </trkpt>
      <trkpt lat="43.21549" lon="0.88218">
        <ele>377.15427777734</ele>
        <time>2014-09-20T15:44:31Z</time>
      </trkpt>
      <trkpt lat="43.21559" lon="0.88223">
        <ele>376.41012215813</ele>
        <time>2014-09-20T15:44:36Z</time>
      </trkpt>
      <trkpt lat="43.21568" lon="0.88224">
        <ele>376.41012215813</ele>
        <time>2014-09-20T15:44:41Z</time>
      </trkpt>
      <trkpt lat="43.21576" lon="0.88228">
        <ele>374.97797330833</ele>
        <time>2014-09-20T15:44:46Z</time>
      </trkpt>
      <trkpt lat="43.21583" lon="0.88229">
        <ele>374.97797330833</ele>
        <time>2014-09-20T15:44:51Z</time>
      </trkpt>
      <trkpt lat="43.21591" lon="0.8823">
        <ele>373.31338289709</ele>
        <time>2014-09-20T15:44:56Z</time>
      </trkpt>
      <trkpt lat="43.21599" lon="0.8823">
        <ele>373.31338289709</ele>
        <time>2014-09-20T15:45:01Z</time>
      </trkpt>
      <trkpt lat="43.21607" lon="0.88228">
        <ele>372.30019374115</ele>
        <time>2014-09-20T15:45:06Z</time>
      </trkpt>
      <trkpt lat="43.21611" lon="0.88239">
        <ele>372.3087011116</ele>
        <time>2014-09-20T15:45:11Z</time>
      </trkpt>
      <trkpt lat="43.2161" lon="0.88252">
        <ele>372.3087011116</ele>
        <time>2014-09-20T15:45:16Z</time>
      </trkpt>
      <trkpt lat="43.21609" lon="0.8826">
        <ele>373.2179336322</ele>
        <time>2014-09-20T15:45:21Z</time>
      </trkpt>
      <trkpt lat="43.2161" lon="0.88267">
        <ele>373.2179336322</ele>
        <time>2014-09-20T15:45:26Z</time>
      </trkpt>
      <trkpt lat="43.21611" lon="0.88272">
        <ele>373.99093470404</ele>
        <time>2014-09-20T15:45:31Z</time>
      </trkpt>
      <trkpt lat="43.21614" lon="0.88274">
        <ele>373.99093470404</ele>
        <time>2014-09-20T15:45:36Z</time>
      </trkpt>
      <trkpt lat="43.2162" lon="0.88278">
        <ele>374.44548401804</ele>
        <time>2014-09-20T15:45:41Z</time>
      </trkpt>
      <trkpt lat="43.21623" lon="0.88288">
        <ele>374.44548401804</ele>
        <time>2014-09-20T15:45:46Z</time>
      </trkpt>
      <trkpt lat="43.21624" lon="0.88289">
        <ele>375.30712453777</ele>
        <time>2014-09-20T15:45:51Z</time>
      </trkpt>
      <trkpt lat="43.21623" lon="0.8829">
        <ele>375.30712453777</ele>
        <time>2014-09-20T15:45:56Z</time>
      </trkpt>
      <trkpt lat="43.21622" lon="0.88292">
        <ele>375.30712453777</ele>
        <time>2014-09-20T15:46:01Z</time>
      </trkpt>
      <trkpt lat="43.21622" lon="0.88293">
        <ele>375.30712453777</ele>
        <time>2014-09-20T15:46:06Z</time>
      </trkpt>
      <trkpt lat="43.21622" lon="0.88293">
        <ele>375.30712453777</ele>
        <time>2014-09-20T15:46:11Z</time>
      </trkpt>
      <trkpt lat="43.21622" lon="0.88293">
        <ele>375.30712453777</ele>
        <time>2014-09-20T15:46:16Z</time>
      </trkpt>
      <trkpt lat="43.21622" lon="0.88293">
        <ele>375.30712453777</ele>
        <time>2014-09-20T15:46:21Z</time>
      </trkpt>
      <trkpt lat="43.21622" lon="0.88293">
        <ele>375.30712453777</ele>
        <time>2014-09-20T15:46:26Z</time>
      </trkpt>
      <trkpt lat="43.21622" lon="0.88293">
        <ele>375.30712453777</ele>
        <time>2014-09-20T15:46:31Z</time>
      </trkpt>
      <trkpt lat="43.21622" lon="0.88293">
        <ele>375.30712453777</ele>
        <time>2014-09-20T15:46:36Z</time>
      </trkpt>
      <trkpt lat="43.21622" lon="0.88293">
        <ele>375.30712453777</ele>
        <time>2014-09-20T15:46:41Z</time>
      </trkpt>
      <trkpt lat="43.21622" lon="0.88292">
        <ele>375.30712453777</ele>
        <time>2014-09-20T15:46:46Z</time>
      </trkpt>
      <trkpt lat="43.21622" lon="0.8829">
        <ele>375.30712453777</ele>
        <time>2014-09-20T15:46:51Z</time>
      </trkpt>
      <trkpt lat="43.21622" lon="0.8829">
        <ele>375.30712453777</ele>
        <time>2014-09-20T15:46:56Z</time>
      </trkpt>
      <trkpt lat="43.21622" lon="0.8829">
        <ele>375.30712453777</ele>
        <time>2014-09-20T15:47:01Z</time>
      </trkpt>
      <trkpt lat="43.21623" lon="0.8829">
        <ele>375.30712453777</ele>
        <time>2014-09-20T15:47:06Z</time>
      </trkpt>
      <trkpt lat="43.21623" lon="0.88289">
        <ele>375.30712453777</ele>
        <time>2014-09-20T15:47:11Z</time>
      </trkpt>
      <trkpt lat="43.21623" lon="0.88289">
        <ele>375.30712453777</ele>
        <time>2014-09-20T15:47:16Z</time>
      </trkpt>
      <trkpt lat="43.21623" lon="0.88289">
        <ele>376.06525738883</ele>
        <time>2014-09-20T15:47:21Z</time>
      </trkpt>
      <trkpt lat="43.21623" lon="0.8829">
        <ele>376.06525738883</ele>
        <time>2014-09-20T15:47:26Z</time>
      </trkpt>
      <trkpt lat="43.21623" lon="0.88291">
        <ele>376.06525738883</ele>
        <time>2014-09-20T15:47:31Z</time>
      </trkpt>
      <trkpt lat="43.21623" lon="0.88291">
        <ele>376.06525738883</ele>
        <time>2014-09-20T15:47:36Z</time>
      </trkpt>
      <trkpt lat="43.21623" lon="0.88291">
        <ele>376.06525738883</ele>
        <time>2014-09-20T15:47:41Z</time>
      </trkpt>
      <trkpt lat="43.21623" lon="0.88291">
        <ele>376.06525738883</ele>
        <time>2014-09-20T15:47:46Z</time>
      </trkpt>
      <trkpt lat="43.21623" lon="0.88291">
        <ele>376.06525738883</ele>
        <time>2014-09-20T15:47:51Z</time>
      </trkpt>
      <trkpt lat="43.21623" lon="0.88291">
        <ele>376.06525738883</ele>
        <time>2014-09-20T15:47:56Z</time>
      </trkpt>
      <trkpt lat="43.21623" lon="0.88291">
        <ele>376.06525738883</ele>
        <time>2014-09-20T15:48:01Z</time>
      </trkpt>
      <trkpt lat="43.21623" lon="0.8829">
        <ele>376.06525738883</ele>
        <time>2014-09-20T15:48:06Z</time>
      </trkpt>
      <trkpt lat="43.21623" lon="0.8829">
        <ele>376.06525738883</ele>
        <time>2014-09-20T15:48:11Z</time>
      </trkpt>
      <trkpt lat="43.21622" lon="0.88291">
        <ele>376.06525738883</ele>
        <time>2014-09-20T15:48:16Z</time>
      </trkpt>
      <trkpt lat="43.21623" lon="0.88292">
        <ele>376.06525738883</ele>
        <time>2014-09-20T15:48:21Z</time>
      </trkpt>
      <trkpt lat="43.21623" lon="0.88292">
        <ele>376.06525738883</ele>
        <time>2014-09-20T15:48:26Z</time>
      </trkpt>
      <trkpt lat="43.21623" lon="0.88292">
        <ele>376.06525738883</ele>
        <time>2014-09-20T15:48:31Z</time>
      </trkpt>
      <trkpt lat="43.21623" lon="0.88292">
        <ele>376.06525738883</ele>
        <time>2014-09-20T15:48:36Z</time>
      </trkpt>
      <trkpt lat="43.21623" lon="0.88292">
        <ele>376.06525738883</ele>
        <time>2014-09-20T15:48:41Z</time>
      </trkpt>
      <trkpt lat="43.21623" lon="0.88292">
        <ele>376.06525738883</ele>
        <time>2014-09-20T15:48:46Z</time>
      </trkpt>
      <trkpt lat="43.21623" lon="0.88292">
        <ele>376.06525738883</ele>
        <time>2014-09-20T15:48:51Z</time>
      </trkpt>
      <trkpt lat="43.21623" lon="0.88292">
        <ele>376.06525738883</ele>
        <time>2014-09-20T15:48:56Z</time>
      </trkpt>
      <trkpt lat="43.21623" lon="0.88292">
        <ele>376.06525738883</ele>
        <time>2014-09-20T15:49:01Z</time>
      </trkpt>
      <trkpt lat="43.21622" lon="0.88292">
        <ele>376.06525738883</ele>
        <time>2014-09-20T15:49:06Z</time>
      </trkpt>
      <trkpt lat="43.21622" lon="0.88291">
        <ele>376.06525738883</ele>
        <time>2014-09-20T15:49:11Z</time>
      </trkpt>
      <trkpt lat="43.21623" lon="0.88291">
        <ele>376.06525738883</ele>
        <time>2014-09-20T15:49:16Z</time>
      </trkpt>
      <trkpt lat="43.21624" lon="0.8829">
        <ele>376.06525738883</ele>
        <time>2014-09-20T15:49:21Z</time>
      </trkpt>
      <trkpt lat="43.21624" lon="0.8829">
        <ele>376.06525738883</ele>
        <time>2014-09-20T15:49:26Z</time>
      </trkpt>
      <trkpt lat="43.21624" lon="0.8829">
        <ele>376.06525738883</ele>
        <time>2014-09-20T15:49:31Z</time>
      </trkpt>
      <trkpt lat="43.21624" lon="0.8829">
        <ele>376.06525738883</ele>
        <time>2014-09-20T15:49:36Z</time>
      </trkpt>
      <trkpt lat="43.21622" lon="0.88287">
        <ele>377.15500650919</ele>
        <time>2014-09-20T15:49:41Z</time>
      </trkpt>
      <trkpt lat="43.21623" lon="0.88286">
        <ele>377.15500650919</ele>
        <time>2014-09-20T15:49:46Z</time>
      </trkpt>
      <trkpt lat="43.21624" lon="0.88287">
        <ele>377.15500650919</ele>
        <time>2014-09-20T15:49:51Z</time>
      </trkpt>
      <trkpt lat="43.21623" lon="0.88288">
        <ele>377.15500650919</ele>
        <time>2014-09-20T15:49:56Z</time>
      </trkpt>
      <trkpt lat="43.21624" lon="0.88287">
        <ele>377.15500650919</ele>
        <time>2014-09-20T15:50:01Z</time>
      </trkpt>
      <trkpt lat="43.21625" lon="0.88287">
        <ele>377.15500650919</ele>
        <time>2014-09-20T15:50:06Z</time>
      </trkpt>
      <trkpt lat="43.21624" lon="0.88288">
        <ele>377.15500650919</ele>
        <time>2014-09-20T15:50:11Z</time>
      </trkpt>
      <trkpt lat="43.21625" lon="0.88288">
        <ele>377.15500650919</ele>
        <time>2014-09-20T15:50:16Z</time>
      </trkpt>
      <trkpt lat="43.21625" lon="0.88288">
        <ele>377.15500650919</ele>
        <time>2014-09-20T15:50:21Z</time>
      </trkpt>
      <trkpt lat="43.21625" lon="0.88288">
        <ele>377.15500650919</ele>
        <time>2014-09-20T15:50:26Z</time>
      </trkpt>
      <trkpt lat="43.21622" lon="0.88287">
        <ele>377.15500650919</ele>
        <time>2014-09-20T15:50:31Z</time>
      </trkpt>
      <trkpt lat="43.21615" lon="0.88288">
        <ele>377.2637143861</ele>
        <time>2014-09-20T15:50:36Z</time>
      </trkpt>
      <trkpt lat="43.21616" lon="0.8829">
        <ele>377.2637143861</ele>
        <time>2014-09-20T15:50:41Z</time>
      </trkpt>
      <trkpt lat="43.21618" lon="0.88291">
        <ele>377.2637143861</ele>
        <time>2014-09-20T15:50:46Z</time>
      </trkpt>
      <trkpt lat="43.21619" lon="0.88291">
        <ele>377.2637143861</ele>
        <time>2014-09-20T15:50:51Z</time>
      </trkpt>
      <trkpt lat="43.2162" lon="0.88291">
        <ele>377.2637143861</ele>
        <time>2014-09-20T15:50:56Z</time>
      </trkpt>
      <trkpt lat="43.2162" lon="0.88291">
        <ele>377.2637143861</ele>
        <time>2014-09-20T15:51:01Z</time>
      </trkpt>
      <trkpt lat="43.2162" lon="0.88292">
        <ele>377.2637143861</ele>
        <time>2014-09-20T15:51:06Z</time>
      </trkpt>
      <trkpt lat="43.21619" lon="0.88292">
        <ele>377.2637143861</ele>
        <time>2014-09-20T15:51:11Z</time>
      </trkpt>
      <trkpt lat="43.21619" lon="0.88293">
        <ele>377.2637143861</ele>
        <time>2014-09-20T15:51:16Z</time>
      </trkpt>
      <trkpt lat="43.2162" lon="0.88293">
        <ele>377.2637143861</ele>
        <time>2014-09-20T15:51:21Z</time>
      </trkpt>
      <trkpt lat="43.21619" lon="0.88295">
        <ele>377.2637143861</ele>
        <time>2014-09-20T15:51:26Z</time>
      </trkpt>
      <trkpt lat="43.21619" lon="0.88294">
        <ele>377.23873833656</ele>
        <time>2014-09-20T15:51:31Z</time>
      </trkpt>
      <trkpt lat="43.21617" lon="0.88295">
        <ele>377.23873833656</ele>
        <time>2014-09-20T15:51:36Z</time>
      </trkpt>
      <trkpt lat="43.21616" lon="0.88295">
        <ele>377.23873833656</ele>
        <time>2014-09-20T15:51:41Z</time>
      </trkpt>
      <trkpt lat="43.21615" lon="0.88296">
        <ele>377.23873833656</ele>
        <time>2014-09-20T15:51:46Z</time>
      </trkpt>
      <trkpt lat="43.21614" lon="0.88297">
        <ele>377.23873833656</ele>
        <time>2014-09-20T15:51:51Z</time>
      </trkpt>
      <trkpt lat="43.21614" lon="0.88295">
        <ele>377.23873833656</ele>
        <time>2014-09-20T15:51:56Z</time>
      </trkpt>
      <trkpt lat="43.21614" lon="0.88295">
        <ele>377.23873833656</ele>
        <time>2014-09-20T15:52:01Z</time>
      </trkpt>
      <trkpt lat="43.21614" lon="0.88295">
        <ele>377.23873833656</ele>
        <time>2014-09-20T15:52:06Z</time>
      </trkpt>
      <trkpt lat="43.21614" lon="0.88295">
        <ele>377.23873833656</ele>
        <time>2014-09-20T15:52:11Z</time>
      </trkpt>
      <trkpt lat="43.21613" lon="0.88293">
        <ele>377.23873833656</ele>
        <time>2014-09-20T15:52:16Z</time>
      </trkpt>
      <trkpt lat="43.21615" lon="0.88293">
        <ele>377.96649716907</ele>
        <time>2014-09-20T15:52:21Z</time>
      </trkpt>
      <trkpt lat="43.21616" lon="0.88293">
        <ele>377.96649716907</ele>
        <time>2014-09-20T15:52:26Z</time>
      </trkpt>
      <trkpt lat="43.21617" lon="0.88294">
        <ele>377.96649716907</ele>
        <time>2014-09-20T15:52:31Z</time>
      </trkpt>
      <trkpt lat="43.21617" lon="0.88294">
        <ele>377.96649716907</ele>
        <time>2014-09-20T15:52:36Z</time>
      </trkpt>
      <trkpt lat="43.21618" lon="0.88293">
        <ele>377.96649716907</ele>
        <time>2014-09-20T15:52:41Z</time>
      </trkpt>
      <trkpt lat="43.21619" lon="0.88293">
        <ele>377.96649716907</ele>
        <time>2014-09-20T15:52:46Z</time>
      </trkpt>
      <trkpt lat="43.2162" lon="0.88293">
        <ele>377.96649716907</ele>
        <time>2014-09-20T15:52:51Z</time>
      </trkpt>
      <trkpt lat="43.2162" lon="0.88292">
        <ele>377.96649716907</ele>
        <time>2014-09-20T15:52:56Z</time>
      </trkpt>
      <trkpt lat="43.2162" lon="0.88292">
        <ele>377.96649716907</ele>
        <time>2014-09-20T15:53:01Z</time>
      </trkpt>
      <trkpt lat="43.2162" lon="0.88292">
        <ele>377.96649716907</ele>
        <time>2014-09-20T15:53:06Z</time>
      </trkpt>
      <trkpt lat="43.2162" lon="0.88292">
        <ele>377.96649716907</ele>
        <time>2014-09-20T15:53:11Z</time>
      </trkpt>
      <trkpt lat="43.2162" lon="0.88292">
        <ele>377.96649716907</ele>
        <time>2014-09-20T15:53:16Z</time>
      </trkpt>
      <trkpt lat="43.2162" lon="0.88291">
        <ele>377.96649716907</ele>
        <time>2014-09-20T15:53:21Z</time>
      </trkpt>
      <trkpt lat="43.21621" lon="0.8829">
        <ele>377.96649716907</ele>
        <time>2014-09-20T15:53:26Z</time>
      </trkpt>
    </trkseg>
  </trk>
</gpx>